# Wetter Temperatur Luftdruck Luftfeuchtigkeit Sichtweite Windgeschwindigkeit Windrichtung Zeit
1 Clear 22 1018 56 10000 2.1 40 07:27 11.07.2020
2 Clear 22 1018 56 10000 1.5 30 06:56 11.07.2020
3 Clear 22 1017 60 10000 0.5 30 06:22 11.07.2020
4 Clear 22 1017 56 10000 1 0 05:36 11.07.2020
5 Clear 23 1017 53 10000 2.1 340 04:56 11.07.2020
6 Clear 24 1017 53 10000 1.5 30 04:33 11.07.2020
7 Clear 24 1017 47 10000 2.1 50 03:32 11.07.2020
8 Clear 25 1017 44 10000 1.5 40 02:40 11.07.2020
9 Clear 26 1017 39 10000 3.6 350 01:51 11.07.2020
10 Clear 26 1016 34 10000 1 0 01:19 11.07.2020
11 Clear 27 1016 32 10000 0.5 100 00:41 11.07.2020
12 Clear 28 1016 32 10000 1 0 00:22 11.07.2020
13 Clear 28 1016 30 10000 1 90 23:58 10.07.2020
14 Clear 28 1016 30 10000 1 90 23:40 10.07.2020
15 Clear 29 1015 30 10000 2.1 110 23:20 10.07.2020
16 Clear 29 1015 27 10000 2.1 90 22:46 10.07.2020
17 Clear 30 1015 27 10000 2.6 90 22:22 10.07.2020
18 Clear 31 1015 27 10000 1.5 90 21:58 10.07.2020
19 Clouds 31 1015 27 10000 1.5 90 21:37 10.07.2020
20 Clouds 31 1015 24 10000 2.1 90 21:19 10.07.2020
21 Clouds 33 1015 21 10000 0.5 0 20:43 10.07.2020
22 Clouds 33 1015 22 10000 1.5 0 20:24 10.07.2020
23 Clouds 33 1015 22 10000 1.5 0 19:59 10.07.2020
24 Clouds 33 1015 21 10000 1.5 180 19:40 10.07.2020
25 Clouds 33 1015 21 10000 1.5 180 19:21 10.07.2020
26 Clear 33 1015 23 10000 2.1 0 18:42 10.07.2020
27 Clear 33 1015 24 10000 1 0 18:22 10.07.2020
28 Clear 33 1015 24 10000 1 0 17:59 10.07.2020
29 Clear 32 1016 26 10000 1 0 17:40 10.07.2020
30 Clear 32 1016 26 10000 2.6 0 17:22 10.07.2020
31 Clear 32 1016 26 10000 2.6 0 16:56 10.07.2020
32 Clear 31 1016 24 10000 2.6 140 16:37 10.07.2020
33 Clear 32 1016 26 10000 1.5 330 16:18 10.07.2020
34 Clear 31 1017 29 10000 2.1 330 15:42 10.07.2020
35 Clear 30 1017 31 10000 1.5 0 15:18 10.07.2020
36 Clear 30 1017 29 10000 1.5 0 14:43 10.07.2020
37 Clear 29 1017 33 10000 1 70 14:22 10.07.2020
38 Clear 29 1017 30 10000 1.5 40 13:58 10.07.2020
39 Clear 29 1017 30 10000 1.5 40 13:40 10.07.2020
40 Clear 28 1017 35 10000 1 0 13:22 10.07.2020
41 Clear 27 1018 34 10000 2.1 0 12:58 10.07.2020
42 Clear 27 1018 34 10000 2.1 0 12:40 10.07.2020
43 Clear 26 1018 39 10000 2.1 0 12:21 10.07.2020
44 Clear 25 1018 41 10000 1.5 0 11:42 10.07.2020
45 Clear 25 1018 41 10000 2.1 50 11:22 10.07.2020
46 Clear 24 1018 44 10000 2.1 60 10:58 10.07.2020
47 Clear 23 1018 50 10000 1.5 0 10:40 10.07.2020
48 Clear 23 1018 50 10000 1.5 0 10:21 10.07.2020
49 Clear 22 1018 56 10000 2.6 360 09:42 10.07.2020
50 Clear 21 1018 56 10000 1.5 350 09:23 10.07.2020
51 Clear 20 1018 56 10000 1 0 08:59 10.07.2020
52 Clear 20 1018 56 10000 1 0 08:41 10.07.2020
53 Clouds 19 1018 64 10000 1 0 08:23 10.07.2020
54 Clouds 19 1018 68 10000 1.5 360 07:58 10.07.2020
55 Clouds 19 1018 68 10000 1.5 360 07:39 10.07.2020
56 Clouds 19 1017 68 10000 1 350 07:19 10.07.2020
57 Clouds 19 1017 63 10000 1.5 10 06:43 10.07.2020
58 Clouds 20 1017 60 10000 2.1 10 05:50 10.07.2020
59 Clouds 20 1018 60 10000 2.6 20 04:29 10.07.2020
60 Clouds 21 1018 56 10000 1.5 90 03:22 10.07.2020
61 Clouds 21 1018 56 10000 1 0 02:41 10.07.2020
62 Clouds 21 1018 60 10000 3.1 340 01:33 10.07.2020
63 Clouds 21 1019 60 10000 3.6 360 00:40 10.07.2020
64 Clouds 21 1019 53 10000 2.1 20 00:18 10.07.2020
65 Clouds 22 1018 53 10000 2.1 360 23:39 09.07.2020
66 Clouds 22 1018 49 10000 2.6 60 23:19 09.07.2020
67 Clouds 22 1018 46 10000 3.6 50 22:57 09.07.2020
68 Clouds 22 1018 49 10000 3.6 60 22:39 09.07.2020
69 Clouds 23 1018 53 10000 5.7 80 22:20 09.07.2020
70 Thunderstorm 23 1018 56 10000 7.7 100 21:55 09.07.2020
71 Thunderstorm 23 1018 56 10000 7.7 100 21:36 09.07.2020
72 Thunderstorm 24 1018 47 10000 7.2 120 21:18 09.07.2020
73 Thunderstorm 25 1018 64 3000 8.2 290 20:41 09.07.2020
74 Thunderstorm 27 1017 34 10000 4.1 350 20:23 09.07.2020
75 Thunderstorm 27 1016 36 10000 5.7 20 19:55 09.07.2020
76 Rain 27 1016 36 10000 5.7 20 19:37 09.07.2020
77 Rain 26 1016 35 10000 3.6 20 19:18 09.07.2020
78 Rain 28 1016 30 10000 4.6 40 18:41 09.07.2020
79 Clouds 34 1016 16 10000 3.1 0 18:19 09.07.2020
80 Clouds 33 1016 19 10000 3.6 130 17:43 09.07.2020
81 Clouds 33 1016 18 10000 2.6 0 17:25 09.07.2020
82 Clouds 33 1016 18 10000 2.6 0 16:59 09.07.2020
83 Clouds 33 1016 19 10000 2.1 0 16:41 09.07.2020
84 Clouds 33 1017 20 10000 3.6 130 16:19 09.07.2020
85 Clouds 33 1017 20 10000 3.6 130 15:59 09.07.2020
86 Clear 33 1017 23 10000 3.1 0 15:40 09.07.2020
87 Clear 32 1018 22 10000 3.1 0 15:21 09.07.2020
88 Clear 32 1018 24 10000 2.6 0 14:58 09.07.2020
89 Clear 32 1018 24 10000 2.6 0 14:40 09.07.2020
90 Clear 32 1018 27 10000 2.1 0 14:22 09.07.2020
91 Clear 31 1018 27 10000 2.1 0 13:57 09.07.2020
92 Clear 31 1018 29 10000 2.6 60 13:38 09.07.2020
93 Clear 30 1018 33 10000 2.6 0 13:19 09.07.2020
94 Clear 29 1019 35 10000 2.6 110 12:42 09.07.2020
95 Clear 28 1019 39 10000 2.1 0 12:24 09.07.2020
96 Clear 27 1019 39 10000 2.1 0 11:59 09.07.2020
97 Clear 27 1019 39 10000 2.1 0 11:41 09.07.2020
98 Clear 26 1019 42 10000 2.1 70 11:21 09.07.2020
99 Clear 26 1019 47 10000 2.6 70 10:57 09.07.2020
100 Clear 26 1019 47 10000 2.6 70 10:57 09.07.2020
101 Clear 26 1019 47 10000 2.6 70 10:38 09.07.2020
102 Clear 25 1019 50 10000 2.1 50 10:20 09.07.2020
103 Clear 24 1018 47 10000 2.6 40 09:43 09.07.2020
104 Clear 23 1018 50 10000 2.6 40 09:23 09.07.2020
105 Clear 22 1018 49 10000 2.1 30 08:52 09.07.2020
106 Clear 22 1018 49 10000 2.1 30 08:27 09.07.2020
107 Clear 22 1017 53 10000 2.6 50 07:58 09.07.2020
108 Clear 22 1017 49 10000 2.6 50 07:40 09.07.2020
109 Clear 22 1017 46 10000 2.1 30 07:21 09.07.2020
110 Clear 23 1017 40 10000 1 0 06:21 09.07.2020
111 Clear 23 1017 53 10000 3.6 70 05:57 09.07.2020
112 Clear 24 1017 41 10000 3.1 80 04:29 09.07.2020
113 Clear 25 1017 36 10000 1 0 03:22 09.07.2020
114 Clouds 26 1016 34 10000 4.1 360 01:56 09.07.2020
115 Clouds 26 1017 34 10000 1 0 01:19 09.07.2020
116 Clouds 27 1017 34 10000 1.5 30 00:41 09.07.2020
117 Clouds 27 1017 34 10000 2.1 340 00:22 09.07.2020
118 Clouds 28 1016 30 10000 2.1 70 23:43 08.07.2020
119 Clouds 28 1016 30 10000 2.1 70 23:25 08.07.2020
120 Clouds 29 1014 30 10000 5.7 100 22:56 08.07.2020
121 Clouds 29 1014 30 10000 5.7 100 22:38 08.07.2020
122 Clouds 29 1014 30 10000 5.7 100 22:38 08.07.2020
123 Clouds 30 1014 30 10000 5.7 100 22:20 08.07.2020
124 Clouds 31 1014 33 10000 6.7 110 21:56 08.07.2020
125 Clouds 30 1014 33 10000 6.7 110 21:36 08.07.2020
126 Clouds 30 1013 29 10000 9.3 110 21:18 08.07.2020
127 Clouds 31 1013 27 10000 9.8 110 20:41 08.07.2020
128 Clouds 32 1013 24 10000 10.3 120 20:23 08.07.2020
129 Clouds 33 1013 24 10000 10.3 120 19:56 08.07.2020
130 Clouds 34 1013 22 10000 8.7 130 19:37 08.07.2020
131 Clouds 33 1013 26 10000 7.7 110 19:19 08.07.2020
132 Clouds 35 1013 19 10000 6.2 130 18:42 08.07.2020
133 Clouds 35 1013 19 10000 7.7 100 18:21 08.07.2020
134 Clouds 35 1013 19 10000 7.7 100 17:57 08.07.2020
135 Clouds 35 1014 18 10000 6.2 110 17:39 08.07.2020
136 Clouds 35 1014 16 10000 4.6 110 17:20 08.07.2020
137 Clouds 35 1014 14 10000 3.6 0 16:57 08.07.2020
138 Clouds 35 1014 14 10000 3.6 0 16:38 08.07.2020
139 Clouds 35 1015 20 10000 3.6 100 16:18 08.07.2020
140 Clouds 34 1015 21 10000 4.1 90 15:58 08.07.2020
141 Clouds 34 1015 21 10000 4.1 90 15:38 08.07.2020
142 Clouds 34 1015 21 10000 4.1 90 15:38 08.07.2020
143 Clouds 34 1016 18 10000 4.1 100 15:19 08.07.2020
144 Clouds 34 1016 21 10000 3.1 90 14:42 08.07.2020
145 Clouds 34 1016 20 10000 5.1 90 14:23 08.07.2020
146 Clouds 34 1016 21 10000 3.1 70 13:57 08.07.2020
147 Clouds 34 1016 21 10000 3.1 70 13:38 08.07.2020
148 Clouds 33 1016 24 10000 3.6 80 13:18 08.07.2020
149 Clouds 32 1017 25 10000 3.6 60 12:41 08.07.2020
150 Clouds 31 1016 27 10000 3.6 60 12:20 08.07.2020
151 Clouds 31 1016 28 10000 4.1 0 11:55 08.07.2020
152 Clouds 30 1016 28 10000 4.1 0 11:37 08.07.2020
153 Clouds 29 1017 28 10000 1.5 0 11:19 08.07.2020
154 Clouds 28 1016 32 10000 4.1 50 10:42 08.07.2020
155 Clouds 27 1016 36 10000 2.1 60 10:23 08.07.2020
156 Clouds 25 1016 41 10000 4.6 360 09:45 08.07.2020
157 Clouds 25 1017 38 10000 3.6 40 09:25 08.07.2020
158 Rain 25 1019 38 10000 6.7 240 08:44 08.07.2020
159 Clouds 25 1016 38 10000 3.6 350 08:25 08.07.2020
160 Clouds 24 1015 44 10000 1 30 07:57 08.07.2020
161 Clouds 24 1015 44 10000 1 30 07:38 08.07.2020
162 Clouds 24 1016 33 10000 2.1 50 07:19 08.07.2020
163 Clouds 25 1016 36 10000 2.6 130 06:43 08.07.2020
164 Clouds 25 1016 31 10000 2.6 100 06:24 08.07.2020
165 Clouds 25 1015 31 10000 2.6 10 05:44 08.07.2020
166 Clouds 26 1015 30 10000 1.5 50 04:44 08.07.2020
167 Clouds 27 1016 27 10000 1.5 130 03:33 08.07.2020
168 Clear 29 1016 26 10000 1 0 02:19 08.07.2020
169 Clear 29 1016 24 10000 2.6 280 01:38 08.07.2020
170 Clear 30 1016 26 10000 3.1 250 00:50 08.07.2020
171 Clear 31 1016 24 10000 3.6 240 00:19 08.07.2020
172 Clear 32 1015 17 10000 4.6 250 23:43 07.07.2020
173 Clear 32 1016 19 10000 3.6 240 23:22 07.07.2020
174 Clear 32 1016 19 10000 3.6 240 23:22 07.07.2020
175 Clear 33 1015 19 10000 4.6 250 22:55 07.07.2020
176 Clear 33 1015 19 10000 4.6 250 22:55 07.07.2020
177 Clear 33 1015 19 10000 4.6 250 22:37 07.07.2020
178 Clear 34 1015 15 10000 5.1 250 22:19 07.07.2020
179 Clouds 35 1015 15 10000 6.2 240 21:42 07.07.2020
180 Clouds 35 1015 15 10000 6.2 240 21:42 07.07.2020
181 Clouds 36 1015 13 10000 5.7 240 21:22 07.07.2020
182 Clouds 36 1015 13 10000 5.7 240 21:22 07.07.2020
183 Clouds 36 1015 13 10000 5.7 240 20:59 07.07.2020
184 Clouds 37 1015 12 10000 6.7 240 20:41 07.07.2020
185 Clouds 37 1014 13 10000 5.1 250 20:23 07.07.2020
186 Clouds 37 1014 13 10000 5.1 250 19:58 07.07.2020
187 Clouds 37 1015 13 10000 4.6 230 19:39 07.07.2020
188 Clear 38 1015 13 10000 4.1 230 19:19 07.07.2020
189 Clear 38 1015 15 10000 6.2 220 18:55 07.07.2020
190 Clear 38 1015 15 10000 6.2 220 18:37 07.07.2020
191 Clear 38 1015 16 10000 6.7 240 18:18 07.07.2020
192 Clear 37 1016 13 10000 4.6 220 17:44 07.07.2020
193 Clear 37 1016 16 10000 3.6 0 17:23 07.07.2020
194 Clear 37 1016 16 10000 3.6 0 16:59 07.07.2020
195 Clear 37 1016 18 10000 3.1 0 16:40 07.07.2020
196 Clear 36 1016 16 10000 3.1 0 16:22 07.07.2020
197 Clear 36 1016 16 10000 3.1 0 15:55 07.07.2020
198 Clear 36 1017 18 10000 3.1 220 15:37 07.07.2020
199 Clear 35 1017 20 10000 2.1 0 15:18 07.07.2020
200 Clear 35 1017 21 10000 2.1 0 14:42 07.07.2020
201 Clear 34 1018 21 10000 1.5 0 14:24 07.07.2020
202 Clear 33 1018 21 10000 1.5 80 13:43 07.07.2020
203 Clear 33 1018 21 10000 1 0 13:20 07.07.2020
204 Clear 32 1018 22 10000 1.5 0 12:56 07.07.2020
205 Clear 31 1018 22 10000 1.5 0 12:36 07.07.2020
206 Clear 30 1018 22 10000 1.5 0 12:18 07.07.2020
207 Clear 29 1019 23 10000 1.5 70 11:43 07.07.2020
208 Clear 28 1018 17 10000 1 20 11:22 07.07.2020
209 Clear 27 1018 17 10000 1 20 10:58 07.07.2020
210 Clear 27 1019 21 10000 1.5 20 10:39 07.07.2020
211 Clear 26 1019 24 10000 1.5 40 10:20 07.07.2020
212 Clear 25 1019 27 10000 1 0 09:43 07.07.2020
213 Clear 24 1018 27 10000 2.1 10 09:21 07.07.2020
214 Clear 24 1018 27 10000 2.1 10 08:57 07.07.2020
215 Clear 23 1018 33 10000 2.6 360 08:39 07.07.2020
216 Clear 22 1018 37 10000 2.6 360 08:19 07.07.2020
217 Clear 22 1018 40 10000 3.1 360 07:38 07.07.2020
218 Clear 22 1018 43 10000 3.1 360 07:19 07.07.2020
219 Clear 22 1018 43 10000 2.6 360 06:45 07.07.2020
220 Clear 22 1018 40 10000 2.6 360 06:26 07.07.2020
221 Clear 23 1018 43 10000 2.6 360 05:43 07.07.2020
222 Clear 23 1018 43 10000 1.5 0 04:53 07.07.2020
223 Clear 24 1018 44 10000 2.1 60 03:49 07.07.2020
224 Clear 24 1018 44 10000 2.1 60 03:30 07.07.2020
225 Clear 24 1018 44 10000 2.1 60 03:30 07.07.2020
226 Clear 26 1018 39 10000 3.6 60 01:50 07.07.2020
227 Clear 27 1018 37 10000 3.6 50 00:59 07.07.2020
228 Clear 28 1018 33 10000 3.1 20 00:40 07.07.2020
229 Clear 29 1018 31 10000 3.6 30 00:20 07.07.2020
230 Clear 30 1018 33 10000 3.1 360 23:44 06.07.2020
231 Clear 31 1017 31 10000 3.1 20 23:25 06.07.2020
232 Clouds 31 1017 31 10000 3.6 360 22:57 06.07.2020
233 Clear 31 1017 31 10000 3.1 20 22:57 06.07.2020
234 Clouds 32 1017 31 10000 3.6 360 22:39 06.07.2020
235 Clouds 33 1016 30 10000 4.1 10 22:18 06.07.2020
236 Clouds 33 1016 30 10000 4.1 10 22:18 06.07.2020
237 Clouds 33 1016 24 10000 2.1 20 21:56 06.07.2020
238 Clouds 34 1016 24 10000 2.1 20 21:36 06.07.2020
239 Clouds 34 1016 22 10000 2.6 350 21:18 06.07.2020
240 Clouds 35 1016 20 10000 1.5 360 20:41 06.07.2020
241 Clouds 36 1016 19 10000 1.5 0 20:22 06.07.2020
242 Clouds 36 1016 19 10000 1.5 0 19:59 06.07.2020
243 Clouds 36 1016 19 10000 2.1 0 19:41 06.07.2020
244 Clouds 37 1017 19 10000 2.6 0 19:23 06.07.2020
245 Clouds 36 1017 20 10000 1.5 0 18:58 06.07.2020
246 Clouds 36 1017 20 10000 1.5 0 18:40 06.07.2020
247 Clouds 36 1017 23 10000 1.5 0 18:22 06.07.2020
248 Clouds 36 1017 22 10000 1.5 0 17:54 06.07.2020
249 Clouds 36 1017 22 10000 1.5 0 17:36 06.07.2020
250 Clouds 37 1017 22 10000 1.5 0 17:36 06.07.2020
251 Clouds 36 1017 19 10000 1.5 160 17:18 06.07.2020
252 Clouds 36 1018 21 10000 1.5 160 16:42 06.07.2020
253 Clouds 35 1018 25 10000 2.1 0 16:23 06.07.2020
254 Clouds 35 1018 23 10000 2.6 360 15:45 06.07.2020
255 Clouds 35 1018 23 10000 2.6 360 15:27 06.07.2020
256 Clouds 35 1019 26 10000 2.6 0 15:27 06.07.2020
257 Clouds 34 1019 26 10000 3.1 50 14:58 06.07.2020
258 Clouds 34 1019 26 10000 3.1 50 14:40 06.07.2020
259 Clouds 34 1019 23 10000 1 90 14:22 06.07.2020
260 Clear 33 1020 28 10000 2.6 0 13:59 06.07.2020
261 Clear 33 1020 28 10000 2.6 0 13:40 06.07.2020
262 Clear 33 1020 27 10000 1.5 0 13:20 06.07.2020
263 Clear 31 1020 31 10000 2.1 0 12:44 06.07.2020
264 Clear 30 1020 31 10000 1.5 0 12:20 06.07.2020
265 Clear 29 1020 30 10000 2.1 350 11:58 06.07.2020
266 Clear 29 1020 30 10000 2.1 350 11:40 06.07.2020
267 Clear 28 1020 37 10000 0.5 50 11:22 06.07.2020
268 Clear 28 1020 37 10000 2.1 20 10:58 06.07.2020
269 Clear 27 1020 37 10000 2.1 20 10:39 06.07.2020
270 Clear 27 1020 39 10000 1.5 30 10:18 06.07.2020
271 Clear 26 1020 42 10000 2.1 360 09:45 06.07.2020
272 Clear 24 1020 44 10000 1 0 09:22 06.07.2020
273 Clear 25 1020 39 10000 1.5 50 08:58 06.07.2020
274 Clear 24 1020 44 10000 1.5 60 08:39 06.07.2020
275 Clear 23 1020 50 10000 2.1 50 08:20 06.07.2020
276 Clear 23 1020 50 10000 2.1 50 07:47 06.07.2020
277 Clear 23 1019 47 10000 2.1 50 07:29 06.07.2020
278 Clear 23 1019 49 10000 1 0 06:45 06.07.2020
279 Clear 24 1019 44 10000 1.5 40 06:27 06.07.2020
280 Clear 24 1019 39 10000 1.5 40 05:44 06.07.2020
281 Clear 25 1019 39 10000 2.1 30 05:22 06.07.2020
282 Clear 26 1019 36 10000 2.1 360 03:52 06.07.2020
283 Clear 27 1020 24 10000 2.6 350 02:24 06.07.2020
284 Clear 28 1020 24 10000 2.1 350 01:44 06.07.2020
285 Clear 30 1019 20 10000 2.6 330 00:39 06.07.2020
286 Clear 30 1019 20 10000 2.6 340 00:21 06.07.2020
287 Clear 31 1019 19 10000 2.1 330 23:45 05.07.2020
288 Clear 31 1019 20 10000 2.6 290 23:27 05.07.2020
289 Clear 31 1018 19 10000 1.5 220 22:59 05.07.2020
290 Clear 32 1018 19 10000 1.5 220 22:41 05.07.2020
291 Clear 32 1018 19 10000 1.5 220 22:41 05.07.2020
292 Clear 33 1018 18 10000 1 0 22:20 05.07.2020
293 Clear 34 1018 16 10000 2.1 220 21:58 05.07.2020
294 Clear 34 1018 16 10000 2.1 220 21:40 05.07.2020
295 Clear 35 1018 15 10000 2.1 230 21:18 05.07.2020
296 Clear 35 1018 14 10000 1.5 160 20:58 05.07.2020
297 Clear 35 1018 14 10000 1.5 160 20:39 05.07.2020
298 Clear 36 1018 13 10000 2.1 240 20:20 05.07.2020
299 Clear 36 1019 14 10000 2.6 0 19:55 05.07.2020
300 Clear 36 1019 14 10000 2.6 0 19:36 05.07.2020
301 Clear 36 1019 13 10000 2.1 0 19:18 05.07.2020
302 Clear 36 1019 13 10000 3.1 210 18:41 05.07.2020
303 Clear 36 1019 17 10000 1.5 0 18:21 05.07.2020
304 Clear 36 1020 15 10000 2.1 220 17:56 05.07.2020
305 Clear 35 1020 15 10000 2.1 220 17:37 05.07.2020
306 Clear 35 1020 16 10000 3.6 210 17:18 05.07.2020
307 Clear 35 1020 14 10000 2.6 0 16:43 05.07.2020
308 Clear 35 1021 18 10000 2.1 290 16:24 05.07.2020
309 Clear 34 1021 16 10000 3.1 290 15:56 05.07.2020
310 Clear 34 1021 16 10000 3.1 290 15:37 05.07.2020
311 Clear 33 1021 19 10000 2.1 0 15:18 05.07.2020
312 Clear 33 1022 23 10000 1.5 0 14:41 05.07.2020
313 Clear 33 1022 24 10000 1 40 14:22 05.07.2020
314 Clear 31 1022 33 10000 1.5 0 13:43 05.07.2020
315 Clear 31 1023 35 10000 2.1 100 13:24 05.07.2020
316 Clear 30 1023 35 10000 2.1 100 12:56 05.07.2020
317 Clear 29 1023 35 10000 1.5 0 12:38 05.07.2020
318 Clear 29 1023 35 10000 2.1 0 12:20 05.07.2020
319 Clear 28 1023 28 10000 1 360 11:54 05.07.2020
320 Clear 28 1023 32 10000 1.5 20 11:36 05.07.2020
321 Clear 27 1023 28 10000 2.1 360 11:18 05.07.2020
322 Clear 26 1023 32 10000 1.5 0 10:42 05.07.2020
323 Clear 25 1023 27 10000 1.5 40 10:19 05.07.2020
324 Clear 24 1023 29 10000 1 0 09:58 05.07.2020
325 Clear 24 1023 29 10000 1 0 09:40 05.07.2020
326 Clear 23 1023 31 10000 1.5 10 09:20 05.07.2020
327 Clear 22 1023 31 10000 1 0 08:47 05.07.2020
328 Clear 22 1023 31 10000 1 0 08:29 05.07.2020
329 Clear 21 1023 37 10000 2.6 360 07:48 05.07.2020
330 Clear 21 1023 37 10000 2.6 360 07:29 05.07.2020
331 Clear 21 1023 37 10000 2.1 350 06:52 05.07.2020
332 Clear 22 1023 28 10000 2.1 30 05:42 05.07.2020
333 Clear 23 1023 23 10000 3.1 20 03:32 05.07.2020
334 Clear 24 1023 23 9000 3.1 20 02:43 05.07.2020
335 Clear 25 1023 18 10000 3.1 20 02:25 05.07.2020
336 Clear 26 1023 15 10000 2.6 30 01:41 05.07.2020
337 Clear 26 1022 18 10000 1.5 20 01:18 05.07.2020
338 Clear 27 1022 17 9000 2.1 360 00:40 05.07.2020
339 Clear 28 1022 18 10000 2.1 360 00:21 05.07.2020
340 Clear 28 1022 18 9000 2.6 360 23:47 04.07.2020
341 Clear 29 1022 18 9000 2.6 360 23:28 04.07.2020
342 Clear 29 1021 17 10000 2.1 100 22:57 04.07.2020
343 Clear 30 1021 17 10000 2.1 100 22:37 04.07.2020
344 Clear 31 1021 16 10000 2.1 120 22:19 04.07.2020
345 Clear 32 1021 16 10000 1.5 90 21:43 04.07.2020
346 Clouds 33 1021 15 10000 2.1 90 21:23 04.07.2020
347 Clouds 33 1021 15 10000 2.1 90 20:58 04.07.2020
348 Clouds 33 1020 14 10000 2.6 160 20:40 04.07.2020
349 Clear 33 1020 14 10000 1 0 20:20 04.07.2020
350 Clear 34 1021 13 10000 1 130 19:45 04.07.2020
351 Clear 34 1021 14 10000 2.6 80 19:22 04.07.2020
352 Clear 34 1021 13 10000 3.1 210 18:57 04.07.2020
353 Clear 34 1021 13 10000 3.1 210 18:39 04.07.2020
354 Clear 34 1021 13 10000 1.5 80 18:21 04.07.2020
355 Clear 33 1022 14 10000 2.6 230 17:44 04.07.2020
356 Clear 33 1022 14 10000 2.6 230 17:26 04.07.2020
357 Clear 33 1022 14 10000 1 290 16:58 04.07.2020
358 Clear 33 1022 14 10000 1 290 16:38 04.07.2020
359 Clear 32 1022 14 10000 2.1 280 16:20 04.07.2020
360 Clear 32 1023 18 10000 2.1 190 15:55 04.07.2020
361 Clear 31 1023 18 10000 2.1 190 15:37 04.07.2020
362 Clear 31 1023 17 10000 3.6 270 15:18 04.07.2020
363 Clear 30 1023 18 10000 2.1 0 14:38 04.07.2020
364 Clear 30 1024 20 10000 1.5 0 14:19 04.07.2020
365 Clear 29 1024 22 10000 1 0 13:59 04.07.2020
366 Clear 29 1024 22 10000 1 0 13:40 04.07.2020
367 Clear 28 1024 25 10000 1.5 0 13:18 04.07.2020
368 Clear 28 1024 26 10000 2.1 50 12:42 04.07.2020
369 Clear 27 1024 26 10000 2.6 100 12:21 04.07.2020
370 Clear 26 1024 30 10000 2.1 0 11:56 04.07.2020
371 Clear 26 1024 30 10000 2.1 0 11:38 04.07.2020
372 Clear 25 1024 31 10000 2.1 60 11:19 04.07.2020
373 Clear 25 1024 29 10000 1.5 50 10:42 04.07.2020
374 Clear 24 1024 31 10000 1.5 0 10:22 04.07.2020
375 Clear 23 1024 35 10000 1.5 10 09:59 04.07.2020
376 Clear 22 1024 35 10000 1.5 10 09:40 04.07.2020
377 Clear 21 1024 37 10000 2.6 360 09:20 04.07.2020
378 Clear 21 1023 35 10000 2.1 10 08:48 04.07.2020
379 Clear 19 1023 40 10000 1.5 10 08:30 04.07.2020
380 Clear 19 1023 40 10000 1.5 10 08:30 04.07.2020
381 Clear 19 1023 37 10000 1 0 07:54 04.07.2020
382 Clear 19 1023 37 10000 1 0 07:35 04.07.2020
383 Clear 19 1023 34 10000 2.1 60 06:56 04.07.2020
384 Clear 19 1022 39 10000 1 0 06:23 04.07.2020
385 Clear 19 1022 34 10000 4.16 55 05:40 04.07.2020
386 Clear 20 1022 32 10000 1 0 04:55 04.07.2020
387 Clear 21 1022 32 10000 2.1 70 03:34 04.07.2020
388 Clear 23 1022 31 10000 1 0 02:35 04.07.2020
389 Clear 24 1021 27 10000 2.1 360 01:37 04.07.2020
390 Clear 25 1021 29 10000 1.5 10 00:47 04.07.2020
391 Clear 25 1021 26 10000 1.5 360 00:29 04.07.2020
392 Clear 26 1020 21 10000 1.5 350 23:41 03.07.2020
393 Clear 27 1020 19 10000 2.1 330 23:19 03.07.2020
394 Clear 27 1020 19 10000 2.1 330 22:59 03.07.2020
395 Clear 28 1020 18 10000 2.6 300 22:39 03.07.2020
396 Clear 28 1020 18 10000 2.6 300 22:39 03.07.2020
397 Clear 29 1019 19 10000 2.6 290 22:21 03.07.2020
398 Clear 30 1019 18 10000 1.5 220 21:56 03.07.2020
399 Clear 30 1019 18 10000 1.5 220 21:37 03.07.2020
400 Clear 31 1019 19 10000 1.5 0 21:18 03.07.2020
401 Clear 32 1019 19 10000 2.6 190 20:42 03.07.2020
402 Clear 31 1019 17 10000 1.5 0 20:24 03.07.2020
403 Clear 31 1019 17 10000 2.1 270 19:42 03.07.2020
404 Clear 31 1019 18 10000 2.6 330 19:21 03.07.2020
405 Clear 31 1019 18 10000 2.6 270 18:58 03.07.2020
406 Clear 32 1019 18 10000 2.6 270 18:40 03.07.2020
407 Clear 31 1019 18 10000 1.5 0 18:22 03.07.2020
408 Clear 31 1020 18 10000 3.1 320 17:45 03.07.2020
409 Clear 31 1020 19 10000 2.1 0 17:23 03.07.2020
410 Clear 30 1020 22 10000 2.1 300 16:58 03.07.2020
411 Clear 30 1020 22 10000 2.1 300 16:39 03.07.2020
412 Clear 30 1020 20 10000 1.5 90 16:19 03.07.2020
413 Clear 29 1020 23 10000 3.1 300 15:39 03.07.2020
414 Clear 28 1021 28 10000 1.5 0 15:20 03.07.2020
415 Clear 28 1021 28 10000 2.1 0 14:55 03.07.2020
416 Clear 27 1021 28 10000 2.1 0 14:36 03.07.2020
417 Clear 27 1021 28 10000 2.1 0 14:36 03.07.2020
418 Clear 27 1021 28 10000 2.6 0 14:18 03.07.2020
419 Clear 26 1021 32 10000 1.5 0 13:41 03.07.2020
420 Clear 26 1021 36 10000 2.1 50 13:22 03.07.2020
421 Clear 25 1021 36 10000 2.1 0 12:43 03.07.2020
422 Clear 24 1021 44 10000 2.6 0 12:22 03.07.2020
423 Clear 23 1021 44 10000 2.6 0 11:54 03.07.2020
424 Clear 23 1021 46 10000 3.1 40 11:36 03.07.2020
425 Clear 22 1021 46 10000 3.1 20 11:18 03.07.2020
426 Clear 21 1021 52 10000 4.1 20 10:42 03.07.2020
427 Clear 20 1021 56 10000 4.6 10 10:21 03.07.2020
428 Clear 19 1021 56 10000 4.6 10 09:59 03.07.2020
429 Clear 19 1021 56 10000 3.6 10 09:39 03.07.2020
430 Clear 18 1021 59 10000 3.1 0 09:20 03.07.2020
431 Clear 17 1020 63 10000 3.1 10 08:57 03.07.2020
432 Clear 18 1020 55 10000 2.6 0 08:38 03.07.2020
433 Clear 17 1020 59 10000 3.1 30 08:18 03.07.2020
434 Clear 17 1020 59 10000 4.1 20 07:43 03.07.2020
435 Clear 17 1020 63 10000 2.6 360 07:21 03.07.2020
436 Clear 17 1020 63 10000 3.1 40 06:37 03.07.2020
437 Clear 18 1019 63 10000 3.6 30 05:53 03.07.2020
438 Clear 19 1019 63 10000 2.1 50 03:59 03.07.2020
439 Clear 21 1018 35 10000 2.1 290 02:56 03.07.2020
440 Clouds 22 1018 33 10000 2.6 290 02:31 03.07.2020
441 Clouds 24 1018 35 9000 3.1 290 01:41 03.07.2020
442 Clouds 24 1018 29 10000 3.6 280 01:20 03.07.2020
443 Clouds 25 1018 27 10000 4.6 280 00:41 03.07.2020
444 Clouds 26 1017 27 10000 4.1 300 23:58 02.07.2020
445 Clouds 26 1017 27 10000 4.1 300 23:39 02.07.2020
446 Clouds 27 1017 30 10000 4.1 300 23:19 02.07.2020
447 Clouds 27 1016 28 10000 4.1 290 22:55 02.07.2020
448 Clouds 28 1016 28 10000 4.1 290 22:37 02.07.2020
449 Clouds 28 1016 30 10000 4.1 250 22:19 02.07.2020
450 Clouds 29 1016 28 10000 5.1 260 21:42 02.07.2020
451 Clouds 29 1016 28 10000 4.6 250 21:20 02.07.2020
452 Clouds 30 1015 25 10000 6.7 230 20:59 02.07.2020
453 Clouds 30 1015 25 10000 6.7 230 20:41 02.07.2020
454 Clouds 31 1015 23 10000 7.2 220 20:20 02.07.2020
455 Clouds 31 1015 22 10000 6.2 210 19:45 02.07.2020
456 Clouds 31 1015 19 10000 7.2 240 19:26 02.07.2020
457 Clouds 32 1015 17 10000 6.2 230 18:59 02.07.2020
458 Clouds 32 1015 17 10000 6.2 230 18:41 02.07.2020
459 Clouds 32 1015 18 10000 6.7 240 18:22 02.07.2020
460 Clouds 32 1015 18 10000 6.7 240 17:58 02.07.2020
461 Clouds 32 1015 17 10000 7.7 210 17:39 02.07.2020
462 Clouds 32 1016 19 10000 8.7 230 17:19 02.07.2020
463 Clouds 32 1016 19 10000 8.7 230 16:55 02.07.2020
464 Clouds 32 1016 19 10000 6.7 230 16:37 02.07.2020
465 Clouds 32 1016 17 10000 7.2 230 16:18 02.07.2020
466 Clouds 31 1016 18 10000 7.2 230 15:39 02.07.2020
467 Clouds 31 1017 18 10000 6.2 220 15:21 02.07.2020
468 Clouds 31 1017 20 10000 6.7 210 14:46 02.07.2020
469 Clouds 30 1017 19 10000 6.7 230 14:28 02.07.2020
470 Clouds 30 1017 19 10000 6.7 230 13:58 02.07.2020
471 Clear 30 1017 23 10000 5.7 230 13:58 02.07.2020
472 Clear 30 1017 23 10000 5.7 230 13:40 02.07.2020
473 Clear 30 1017 27 10000 5.7 230 13:20 02.07.2020
474 Clear 29 1017 28 10000 5.1 220 12:58 02.07.2020
475 Clear 28 1017 28 10000 5.1 220 12:39 02.07.2020
476 Clear 28 1017 35 10000 5.1 230 12:21 02.07.2020
477 Clear 27 1017 34 10000 5.1 220 11:44 02.07.2020
478 Clear 27 1017 36 10000 5.1 230 11:26 02.07.2020
479 Clear 26 1017 36 10000 4.1 240 10:48 02.07.2020
480 Clear 26 1017 39 10000 1.5 220 10:28 02.07.2020
481 Clear 26 1017 39 10000 1.5 220 10:28 02.07.2020
482 Clear 26 1017 39 10000 1.5 220 10:28 02.07.2020
483 Clear 26 1017 39 10000 1.5 220 09:59 02.07.2020
484 Clear 24 1016 44 10000 2.1 250 09:41 02.07.2020
485 Clear 24 1016 41 10000 1.5 220 09:21 02.07.2020
486 Clear 24 1016 44 10000 1.5 200 08:56 02.07.2020
487 Clear 24 1016 44 10000 1.5 200 08:37 02.07.2020
488 Clear 22 1016 56 10000 1.5 230 08:18 02.07.2020
489 Clear 21 1016 59 10000 2.1 280 07:40 02.07.2020
490 Clear 22 1016 59 9000 0.76 8 07:20 02.07.2020
491 Clear 23 1015 52 10000 0.76 8 06:41 02.07.2020
492 Clear 23 1015 52 10000 1.5 250 06:20 02.07.2020
493 Clear 23 1015 46 10000 1 0 05:45 02.07.2020
494 Clear 24 1015 41 10000 2.6 320 04:21 02.07.2020
495 Clear 25 1016 38 10000 3.1 310 03:32 02.07.2020
496 Clouds 27 1015 32 10000 3.6 300 01:44 02.07.2020
497 Clouds 29 1015 30 10000 3.6 260 00:26 02.07.2020
498 Clouds 29 1015 28 10000 3.6 260 23:51 01.07.2020
499 Clouds 29 1015 28 10000 3.6 260 23:31 01.07.2020
500 Clouds 30 1014 23 10000 5.1 240 22:57 01.07.2020
501 Clouds 30 1014 23 10000 5.1 240 22:38 01.07.2020
502 Clouds 31 1014 22 10000 6.7 230 22:20 01.07.2020
503 Clouds 31 1014 24 10000 6.7 230 21:59 01.07.2020
504 Clouds 31 1014 24 10000 6.7 230 21:41 01.07.2020
505 Clouds 32 1013 22 10000 6.7 230 21:22 01.07.2020
506 Clouds 33 1013 21 10000 5.1 220 20:59 01.07.2020
507 Clouds 33 1013 21 10000 5.1 220 20:41 01.07.2020
508 Clouds 33 1013 22 10000 4.6 260 20:23 01.07.2020
509 Clouds 33 1013 22 10000 4.6 260 19:56 01.07.2020
510 Clouds 33 1013 23 10000 5.1 250 19:38 01.07.2020
511 Clouds 33 1013 26 10000 4.1 250 19:19 01.07.2020
512 Clouds 33 1014 24 10000 3.6 250 18:42 01.07.2020
513 Clear 33 1014 23 10000 4.1 200 18:21 01.07.2020
514 Clear 34 1014 23 10000 4.1 200 18:21 01.07.2020
515 Clear 34 1014 21 10000 5.7 230 17:59 01.07.2020
516 Clear 34 1014 21 10000 5.7 230 17:39 01.07.2020
517 Clear 34 1014 23 10000 5.7 200 17:19 01.07.2020
518 Clear 34 1014 21 10000 5.7 200 16:46 01.07.2020
519 Clear 33 1014 21 10000 5.7 200 16:28 01.07.2020
520 Clear 33 1014 21 10000 6.7 230 15:56 01.07.2020
521 Clear 33 1014 21 10000 6.7 230 15:38 01.07.2020
522 Clear 32 1015 21 10000 7.2 220 15:20 01.07.2020
523 Clear 32 1015 21 10000 6.7 210 14:44 01.07.2020
524 Clear 32 1015 22 10000 6.7 220 14:22 01.07.2020
525 Clear 31 1015 24 10000 6.2 220 13:58 01.07.2020
526 Clear 31 1015 24 10000 6.2 220 13:39 01.07.2020
527 Clear 31 1015 24 10000 5.7 220 13:20 01.07.2020
528 Clear 30 1015 23 10000 6.2 220 12:57 01.07.2020
529 Clear 30 1015 23 10000 6.2 220 12:38 01.07.2020
530 Clear 30 1015 20 10000 7.2 230 12:20 01.07.2020
531 Clear 29 1015 23 10000 7.7 240 11:44 01.07.2020
532 Clear 29 1015 25 10000 6.2 240 11:24 01.07.2020
533 Clear 28 1015 25 10000 6.2 240 10:58 01.07.2020
534 Clear 28 1015 30 10000 5.7 230 10:40 01.07.2020
535 Clear 27 1015 32 10000 4.1 240 10:21 01.07.2020
536 Clear 26 1015 39 10000 3.6 240 09:54 01.07.2020
537 Clear 25 1015 39 10000 3.6 240 09:36 01.07.2020
538 Clear 24 1014 41 10000 3.1 240 09:18 01.07.2020
539 Clear 23 1014 46 10000 3.1 250 08:41 01.07.2020
540 Clear 23 1014 52 10000 2.6 240 08:22 01.07.2020
541 Clear 23 1013 60 10000 1.5 100 07:57 01.07.2020
542 Clear 23 1013 60 10000 1.5 100 07:36 01.07.2020
543 Clear 23 1013 49 10000 0.5 0 07:18 01.07.2020
544 Clear 23 1013 60 10000 1.5 90 06:48 01.07.2020
545 Clear 23 1013 49 10000 2.1 240 06:27 01.07.2020
546 Clear 25 1013 41 10000 5.1 240 04:31 01.07.2020
547 Clear 26 1013 38 10000 3.1 240 03:46 01.07.2020
548 Clear 26 1013 38 10000 2.6 220 03:26 01.07.2020
549 Clear 27 1012 39 10000 2.6 80 02:36 01.07.2020
550 Clear 29 1012 25 10000 2.6 280 01:45 01.07.2020
551 Clear 30 1012 24 10000 3.6 280 00:41 01.07.2020
552 Clear 31 1012 24 10000 4.1 260 00:23 01.07.2020
553 Clear 31 1012 32 10000 3.1 270 23:41 30.06.2020
554 Clear 31 1012 28 10000 3.6 260 23:22 30.06.2020
555 Clear 32 1012 27 10000 4.6 260 22:43 30.06.2020
556 Clear 33 1011 22 10000 5.7 250 22:20 30.06.2020
557 Clear 33 1011 22 10000 5.7 250 21:59 30.06.2020
558 Clear 34 1011 21 10000 4.6 250 21:40 30.06.2020
559 Clear 35 1011 20 10000 5.1 250 21:19 30.06.2020
560 Clear 35 1011 19 10000 4.6 230 20:43 30.06.2020
561 Clear 36 1011 17 10000 5.7 240 20:21 30.06.2020
562 Clear 36 1011 14 10000 4.1 250 19:59 30.06.2020
563 Clear 36 1011 14 10000 4.1 250 19:59 30.06.2020
564 Clear 36 1011 17 10000 5.1 240 19:39 30.06.2020
565 Clear 36 1011 17 10000 5.1 240 19:19 30.06.2020
566 Clear 37 1011 17 10000 5.7 230 18:42 30.06.2020
567 Clear 37 1012 14 10000 4.6 240 18:20 30.06.2020
568 Clear 37 1012 14 10000 4.6 190 17:57 30.06.2020
569 Clear 36 1012 14 10000 4.6 190 17:37 30.06.2020
570 Clear 36 1012 14 10000 5.1 230 17:18 30.06.2020
571 Clear 36 1013 14 10000 4.6 170 16:41 30.06.2020
572 Clear 36 1013 18 10000 5.7 180 16:23 30.06.2020
573 Clear 36 1013 18 10000 4.6 200 15:57 30.06.2020
574 Clear 36 1013 18 10000 4.6 200 15:39 30.06.2020
575 Clear 35 1014 19 10000 3.1 180 15:20 30.06.2020
576 Clear 34 1014 23 10000 3.6 140 14:47 30.06.2020
577 Clear 34 1014 24 10000 3.1 130 14:22 30.06.2020
578 Clear 33 1014 24 10000 3.1 130 13:59 30.06.2020
579 Clear 33 1015 27 10000 1.5 0 13:39 30.06.2020
580 Clear 32 1015 27 10000 2.1 0 13:20 30.06.2020
581 Clear 31 1015 33 10000 2.1 0 12:57 30.06.2020
582 Clear 30 1015 33 10000 2.1 0 12:39 30.06.2020
583 Clear 30 1015 33 10000 2.1 50 12:20 30.06.2020
584 Clear 29 1015 39 10000 2.1 50 11:57 30.06.2020
585 Clear 28 1015 39 10000 2.1 50 11:38 30.06.2020
586 Clear 28 1015 39 10000 2.1 0 11:19 30.06.2020
587 Clear 27 1015 39 10000 2.1 60 10:55 30.06.2020
588 Clear 32 1018 24 10000 2.1 230 16:38 28.06.2020
589 Clear 32 1018 24 10000 3.1 0 16:19 28.06.2020
590 Clear 32 1018 24 10000 3.1 0 15:55 28.06.2020
591 Clear 32 1019 24 10000 3.6 250 15:37 28.06.2020
592 Clear 31 1019 24 10000 3.1 0 15:18 28.06.2020
593 Clear 31 1019 27 10000 3.6 250 14:42 28.06.2020
594 Clear 30 1020 25 10000 3.6 250 14:24 28.06.2020
595 Clear 30 1020 31 10000 3.1 0 13:55 28.06.2020
596 Clear 30 1020 31 10000 3.1 0 13:36 28.06.2020
597 Clear 29 1020 31 10000 3.1 270 13:18 28.06.2020
598 Clear 29 1020 33 10000 1.5 110 12:55 28.06.2020
599 Clear 29 1020 33 10000 1.5 110 12:55 28.06.2020
600 Clear 28 1020 33 10000 1.5 110 12:36 28.06.2020
601 Clear 27 1020 37 10000 1.5 200 12:18 28.06.2020
602 Clear 27 1020 37 10000 1 0 11:42 28.06.2020
603 Clear 26 1020 41 10000 1.5 340 11:21 28.06.2020
604 Clear 26 1020 41 10000 1.5 340 10:59 28.06.2020
605 Clear 25 1020 44 10000 1 0 10:40 28.06.2020
606 Clear 25 1020 47 10000 1 20 10:22 28.06.2020
607 Clear 24 1020 44 10000 1.5 70 09:42 28.06.2020
608 Clear 23 1019 46 10000 0.5 0 09:23 28.06.2020
609 Clear 23 1020 50 10000 2.78 45 08:57 28.06.2020
610 Clear 23 1020 50 10000 2.43 36 08:39 28.06.2020
611 Clear 22 1019 60 10000 0.5 290 08:20 28.06.2020
612 Clear 21 1019 60 10000 1 260 07:37 28.06.2020
613 Clear 21 1019 60 10000 1 0 06:57 28.06.2020
614 Clear 21 1019 60 10000 1 0 06:32 28.06.2020
615 Clear 21 1019 60 10000 1 0 05:50 28.06.2020
616 Clear 23 1019 56 10000 1.5 240 04:27 28.06.2020
617 Clear 24 1019 49 10000 2.1 310 03:18 28.06.2020
618 Clear 24 1019 47 10000 3.1 290 02:22 28.06.2020
619 Clear 25 1019 47 10000 3.1 280 01:45 28.06.2020
620 Clear 26 1018 44 10000 2.1 300 00:57 28.06.2020
621 Clear 26 1018 41 10000 3.1 300 00:30 28.06.2020
622 Clear 27 1018 41 10000 3.1 300 23:58 27.06.2020
623 Clear 27 1018 39 10000 3.6 290 23:40 27.06.2020
624 Clear 27 1017 34 10000 3.1 290 23:21 27.06.2020
625 Clouds 28 1017 32 10000 3.1 300 22:43 27.06.2020
626 Clouds 29 1017 32 10000 3.1 300 22:23 27.06.2020
627 Clouds 30 1016 29 10000 3.1 280 21:59 27.06.2020
628 Clouds 30 1016 29 10000 3.1 280 21:41 27.06.2020
629 Clouds 30 1016 30 10000 3.1 270 21:20 27.06.2020
630 Clouds 31 1016 30 10000 2.1 220 20:55 27.06.2020
631 Clouds 31 1016 30 10000 2.1 220 20:37 27.06.2020
632 Clouds 31 1016 27 10000 3.6 270 20:18 27.06.2020
633 Clouds 32 1016 26 10000 1.5 0 19:38 27.06.2020
634 Clouds 31 1016 25 10000 3.1 0 19:19 27.06.2020
635 Clouds 31 1016 25 10000 3.1 250 18:57 27.06.2020
636 Clouds 31 1016 25 10000 3.1 250 18:37 27.06.2020
637 Clouds 32 1016 26 10000 3.6 190 18:19 27.06.2020
638 Clear 31 1017 24 10000 3.1 210 17:40 27.06.2020
639 Clear 31 1017 24 10000 3.6 210 17:20 27.06.2020
640 Clear 31 1017 24 10000 3.6 210 17:20 27.06.2020
641 Clear 31 1017 24 10000 3.6 210 16:57 27.06.2020
642 Clear 30 1017 25 10000 3.6 0 16:38 27.06.2020
643 Clear 30 1017 25 10000 3.6 0 16:19 27.06.2020
644 Clear 29 1017 27 10000 4.1 230 15:42 27.06.2020
645 Clouds 29 1018 27 10000 3.1 0 15:24 27.06.2020
646 Clouds 29 1018 27 10000 3.1 0 15:24 27.06.2020
647 Clouds 29 1018 28 10000 3.1 210 14:56 27.06.2020
648 Clouds 29 1018 28 10000 3.1 210 14:37 27.06.2020
649 Clouds 28 1018 30 10000 3.6 200 14:19 27.06.2020
650 Clouds 28 1018 30 10000 3.1 190 13:41 27.06.2020
651 Clouds 27 1018 28 10000 2.1 290 13:20 27.06.2020
652 Clear 27 1018 32 10000 2.6 0 12:58 27.06.2020
653 Clear 27 1018 32 10000 2.6 0 12:40 27.06.2020
654 Clear 26 1018 32 10000 1.5 210 12:21 27.06.2020
655 Clear 26 1018 31 10000 1 160 11:57 27.06.2020
656 Clear 25 1018 31 10000 1 220 11:37 27.06.2020
657 Clear 24 1018 36 10000 1.5 210 11:19 27.06.2020
658 Clear 24 1018 36 10000 1.5 70 10:40 27.06.2020
659 Clear 23 1018 38 10000 1 0 10:19 27.06.2020
660 Clear 23 1018 37 10000 1 0 09:57 27.06.2020
661 Clear 22 1018 41 10000 1 0 09:37 27.06.2020
662 Clear 21 1018 46 10000 1 0 09:19 27.06.2020
663 Clear 20 1018 60 10000 1 260 08:41 27.06.2020
664 Clouds 20 1018 59 10000 0.5 0 08:22 27.06.2020
665 Clouds 19 1018 59 10000 0.5 0 08:22 27.06.2020
666 Clouds 19 1018 59 10000 0.5 0 07:46 27.06.2020
667 Clouds 19 1017 59 10000 2.1 300 07:25 27.06.2020
668 Clouds 20 1017 56 10000 3.1 290 06:50 27.06.2020
669 Clouds 20 1017 56 10000 3.6 290 06:31 27.06.2020
670 Clouds 21 1016 45 10000 2.1 270 04:24 27.06.2020
671 Clouds 21 1016 42 10000 2.6 260 03:54 27.06.2020
672 Clouds 22 1016 42 10000 2.6 260 03:30 27.06.2020
673 Clouds 23 1016 30 10000 1.5 100 02:39 27.06.2020
674 Clouds 23 1016 30 10000 1 140 02:20 27.06.2020
675 Clouds 23 1016 32 10000 3.1 260 01:24 27.06.2020
676 Clouds 24 1016 28 10000 3.1 260 00:41 27.06.2020
677 Clouds 25 1016 23 10000 3.6 260 23:47 26.06.2020
678 Clouds 25 1015 23 10000 4.6 260 23:27 26.06.2020
679 Clouds 26 1015 22 10000 6.2 230 22:57 26.06.2020
680 Clouds 26 1015 22 10000 6.2 230 22:39 26.06.2020
681 Clouds 27 1015 22 10000 8.2 240 22:20 26.06.2020
682 Clouds 27 1014 26 10000 7.7 240 21:57 26.06.2020
683 Clouds 27 1014 26 10000 7.7 240 21:38 26.06.2020
684 Clouds 28 1014 23 10000 7.2 230 21:20 26.06.2020
685 Clouds 28 1014 23 10000 7.2 230 21:20 26.06.2020
686 Clouds 28 1014 21 10000 6.7 240 20:46 26.06.2020
687 Clouds 29 1014 20 10000 6.2 230 20:26 26.06.2020
688 Clouds 29 1014 17 10000 6.7 230 19:47 26.06.2020
689 Clouds 30 1014 16 10000 6.2 230 19:24 26.06.2020
690 Clouds 30 1014 16 10000 7.2 230 18:58 26.06.2020
691 Clouds 30 1014 16 10000 7.2 230 18:38 26.06.2020
692 Clouds 31 1014 20 10000 6.7 240 18:20 26.06.2020
693 Clouds 31 1015 18 10000 6.2 230 17:44 26.06.2020
694 Clouds 30 1015 20 10000 5.7 200 17:26 26.06.2020
695 Clouds 30 1015 23 10000 5.1 210 16:51 26.06.2020
696 Clouds 30 1015 23 10000 6.2 230 16:28 26.06.2020
697 Clouds 30 1016 27 10000 6.7 230 15:58 26.06.2020
698 Clouds 30 1016 27 10000 6.7 230 15:39 26.06.2020
699 Clouds 29 1016 22 10000 6.7 230 15:21 26.06.2020
700 Clouds 29 1016 27 10000 6.2 220 14:57 26.06.2020
701 Clouds 29 1016 27 10000 6.2 220 14:57 26.06.2020
702 Clouds 29 1016 27 10000 6.2 220 14:38 26.06.2020
703 Clouds 29 1016 27 10000 5.1 210 14:20 26.06.2020
704 Clouds 29 1016 23 10000 4.6 220 13:44 26.06.2020
705 Clouds 29 1016 26 10000 4.6 220 13:23 26.06.2020
706 Clouds 28 1016 30 10000 4.1 210 12:56 26.06.2020
707 Clouds 28 1016 30 10000 4.1 210 12:38 26.06.2020
708 Clouds 27 1016 32 10000 4.6 230 12:18 26.06.2020
709 Clouds 27 1016 32 10000 4.6 230 11:56 26.06.2020
710 Clouds 27 1016 34 10000 2.6 170 11:37 26.06.2020
711 Clouds 26 1016 34 10000 1.5 140 11:18 26.06.2020
712 Clouds 25 1016 39 10000 1.5 50 10:55 26.06.2020
713 Clouds 25 1016 39 10000 1.5 50 10:37 26.06.2020
714 Clouds 25 1016 41 10000 1.5 50 10:18 26.06.2020
715 Clouds 24 1016 41 10000 1.5 0 09:41 26.06.2020
716 Clouds 23 1016 44 10000 1.5 350 09:19 26.06.2020
717 Clouds 22 1016 46 10000 1.5 50 08:45 26.06.2020
718 Clouds 22 1016 49 10000 1 0 08:27 26.06.2020
719 Clouds 21 1016 60 10000 1 0 07:48 26.06.2020
720 Clear 21 1015 60 10000 1 0 07:23 26.06.2020
721 Clear 21 1015 60 10000 1.5 350 06:49 26.06.2020
722 Clear 21 1015 60 10000 1.5 350 06:30 26.06.2020
723 Clear 22 1015 64 10000 1.5 350 05:52 26.06.2020
724 Clear 22 1015 64 10000 1.5 350 05:18 26.06.2020
725 Clouds 23 1015 53 10000 2.6 350 02:32 26.06.2020
726 Clouds 24 1015 50 10000 2.1 0 01:35 26.06.2020
727 Clouds 25 1015 34 10000 1.5 340 00:50 26.06.2020
728 Clouds 27 1015 34 10000 1.5 340 00:30 26.06.2020
729 Clouds 28 1015 36 10000 1.5 280 23:47 25.06.2020
730 Clouds 29 1014 34 10000 3.1 260 23:22 25.06.2020
731 Clouds 29 1014 30 10000 3.1 260 22:58 25.06.2020
732 Clouds 30 1014 30 10000 3.1 260 22:39 25.06.2020
733 Clouds 30 1014 30 10000 3.6 260 22:20 25.06.2020
734 Clouds 31 1013 27 10000 5.1 260 21:57 25.06.2020
735 Clouds 31 1013 27 10000 5.1 260 21:39 25.06.2020
736 Clouds 31 1013 25 10000 6.2 250 21:20 25.06.2020
737 Clouds 32 1013 25 10000 6.2 250 20:57 25.06.2020
738 Clouds 33 1013 24 10000 6.7 240 20:39 25.06.2020
739 Clouds 33 1013 23 10000 5.7 230 20:21 25.06.2020
740 Clouds 33 1013 23 10000 5.7 220 19:41 25.06.2020
741 Clouds 33 1013 23 10000 5.7 220 19:21 25.06.2020
742 Clouds 33 1013 23 10000 6.2 220 19:00 25.06.2020
743 Clouds 33 1013 23 10000 6.2 220 18:59 25.06.2020
744 Clouds 34 1013 23 10000 6.2 220 18:39 25.06.2020
745 Clouds 33 1014 23 10000 5.1 220 18:20 25.06.2020
746 Clouds 34 1014 23 10000 5.7 190 17:45 25.06.2020
747 Clouds 34 1014 22 10000 5.1 200 17:20 25.06.2020
748 Clouds 34 1014 22 10000 5.1 200 17:20 25.06.2020
749 Clouds 34 1014 21 10000 5.7 200 16:58 25.06.2020
750 Clouds 34 1014 21 10000 5.7 200 16:38 25.06.2020
751 Clouds 33 1015 24 10000 2.6 190 16:19 25.06.2020
752 Clouds 33 1015 26 10000 2.6 0 15:43 25.06.2020
753 Clear 32 1016 26 10000 2.1 0 15:25 25.06.2020
754 Clear 32 1016 26 10000 1.5 0 14:55 25.06.2020
755 Clouds 32 1016 26 10000 1.5 0 14:37 25.06.2020
756 Clouds 31 1016 29 10000 2.1 0 14:18 25.06.2020
757 Clouds 30 1017 31 10000 2.1 190 13:42 25.06.2020
758 Clouds 30 1017 31 10000 2.1 0 13:20 25.06.2020
759 Clouds 30 1017 31 10000 2.1 0 12:59 25.06.2020
760 Clouds 29 1017 30 10000 1 100 12:59 25.06.2020
761 Clouds 29 1017 30 10000 1 100 12:40 25.06.2020
762 Clouds 28 1017 34 10000 1.5 0 12:20 25.06.2020
763 Clouds 27 1017 36 10000 2.6 90 11:43 25.06.2020
764 Clouds 27 1017 39 10000 2.6 70 11:22 25.06.2020
765 Clouds 26 1017 39 10000 2.1 90 10:45 25.06.2020
766 Clear 26 1017 41 10000 2.1 50 10:26 25.06.2020
767 Clear 25 1017 44 10000 2.6 60 09:59 25.06.2020
768 Clear 24 1017 44 10000 2.6 60 09:40 25.06.2020
769 Clear 23 1017 53 10000 1.5 340 09:20 25.06.2020
770 Clear 23 1017 49 10000 1.5 30 08:43 25.06.2020
771 Clouds 21 1017 53 10000 1.5 10 08:19 25.06.2020
772 Clouds 21 1017 53 10000 1.5 10 07:45 25.06.2020
773 Clouds 21 1017 49 10000 2.1 50 07:26 25.06.2020
774 Clouds 21 1017 49 10000 2.1 50 07:26 25.06.2020
775 Clouds 21 1017 49 10000 2.6 60 06:48 25.06.2020
776 Clouds 22 1017 49 10000 2.6 60 06:26 25.06.2020
777 Clouds 22 1017 49 9000 2.6 60 05:51 25.06.2020
778 Clouds 23 1017 56 10000 2.1 350 03:56 25.06.2020
779 Clouds 24 1017 56 10000 2.1 350 03:26 25.06.2020
780 Clouds 25 1017 39 10000 2.1 70 02:41 25.06.2020
781 Clouds 25 1017 36 10000 3.1 50 01:55 25.06.2020
782 Rain 26 1018 36 10000 2.1 60 01:19 25.06.2020
783 Rain 26 1017 34 10000 2.1 40 00:42 25.06.2020
784 Rain 27 1017 39 10000 6.37 49 00:20 25.06.2020
785 Clouds 28 1016 30 10000 1 0 23:44 24.06.2020
786 Clouds 28 1016 30 10000 1 0 23:25 24.06.2020
787 Clouds 29 1016 30 10000 1 0 22:57 24.06.2020
788 Clouds 29 1016 30 10000 1 0 22:38 24.06.2020
789 Clouds 30 1016 27 10000 0.5 0 22:19 24.06.2020
790 Clouds 31 1016 25 10000 1.5 60 21:55 24.06.2020
791 Clouds 31 1016 25 10000 1.5 60 21:36 24.06.2020
792 Clouds 32 1016 23 10000 2.1 50 21:18 24.06.2020
793 Clouds 32 1016 23 10000 2.1 50 20:56 24.06.2020
794 Clouds 33 1016 21 10000 2.6 70 20:38 24.06.2020
795 Clear 33 1017 22 10000 2.1 30 20:19 24.06.2020
796 Clear 33 1017 24 10000 2.1 30 19:55 24.06.2020
797 Clear 34 1017 24 10000 2.1 30 19:36 24.06.2020
798 Clear 32 1017 25 10000 2.1 0 19:18 24.06.2020
799 Clear 33 1017 27 10000 2.6 0 18:56 24.06.2020
800 Clear 32 1017 27 10000 2.6 0 18:37 24.06.2020
801 Clear 33 1018 27 10000 2.1 0 18:19 24.06.2020
802 Clouds 32 1018 27 10000 2.6 0 17:43 24.06.2020
803 Clear 32 1018 29 10000 3.1 0 17:19 24.06.2020
804 Clear 31 1018 30 10000 4.1 40 16:58 24.06.2020
805 Clear 31 1018 30 10000 4.1 40 16:40 24.06.2020
806 Clouds 30 1019 31 10000 4.6 40 16:21 24.06.2020
807 Clouds 29 1019 37 10000 4.1 80 15:57 24.06.2020
808 Clouds 29 1019 37 10000 4.1 80 15:39 24.06.2020
809 Clouds 28 1019 37 10000 4.1 100 15:20 24.06.2020
810 Clouds 28 1019 39 10000 4.6 110 14:54 24.06.2020
811 Clouds 27 1019 39 10000 4.6 110 14:36 24.06.2020
812 Clouds 27 1018 39 10000 4.1 20 14:18 24.06.2020
813 Clouds 27 1018 41 10000 3.6 100 13:41 24.06.2020
814 Clouds 26 1019 41 10000 2.6 90 13:19 24.06.2020
815 Clouds 26 1019 39 10000 4.6 120 12:41 24.06.2020
816 Clouds 26 1019 39 10000 5.1 130 12:20 24.06.2020
817 Clouds 27 1018 34 10000 3.1 110 11:57 24.06.2020
818 Clouds 27 1018 34 10000 3.1 110 11:38 24.06.2020
819 Clouds 26 1018 39 10000 3.6 90 11:19 24.06.2020
820 Clouds 26 1018 39 10000 3.1 100 10:43 24.06.2020
821 Clouds 26 1018 44 10000 1 0 10:19 24.06.2020
822 Clouds 26 1018 44 10000 1 0 10:19 24.06.2020
823 Clouds 25 1018 41 10000 1.5 330 09:44 24.06.2020
824 Clouds 25 1018 44 10000 1.5 320 09:23 24.06.2020
825 Clouds 24 1017 44 10000 2.1 100 08:45 24.06.2020
826 Clouds 25 1017 44 10000 1.5 80 08:26 24.06.2020
827 Clouds 24 1017 49 10000 1 0 07:58 24.06.2020
828 Clouds 24 1017 49 10000 1 0 07:40 24.06.2020
829 Clouds 24 1017 47 10000 1 0 07:18 24.06.2020
830 Clouds 24 1017 44 10000 1 0 06:40 24.06.2020
831 Clouds 24 1017 44 10000 2.1 80 06:21 24.06.2020
832 Clouds 25 1017 44 10000 1.5 70 05:32 24.06.2020
833 Clouds 26 1016 41 10000 2.1 60 04:37 24.06.2020
834 Thunderstorm 26 1017 34 10000 3.1 70 03:37 24.06.2020
835 Clouds 27 1017 32 10000 2.6 40 02:53 24.06.2020
836 Rain 28 1017 28 10000 2.6 50 01:59 24.06.2020
837 Clear 29 1017 28 10000 3.1 90 00:50 24.06.2020
838 Clear 29 1017 28 10000 3.1 90 00:31 24.06.2020
839 Clear 30 1016 25 10000 5.23 147 23:47 23.06.2020
840 Clear 31 1016 25 10000 0.5 260 23:21 23.06.2020
841 Clear 31 1015 20 10000 1 200 22:57 23.06.2020
842 Clear 32 1015 20 10000 1 200 22:39 23.06.2020
843 Clear 33 1015 18 10000 2.1 210 22:18 23.06.2020
844 Clear 33 1015 18 10000 2.1 210 22:18 23.06.2020
845 Clear 34 1015 16 10000 2.6 200 21:42 23.06.2020
846 Clear 35 1015 16 10000 2.6 160 21:20 23.06.2020
847 Clouds 35 1015 14 10000 1 200 20:57 23.06.2020
848 Clouds 36 1015 14 10000 1 200 20:39 23.06.2020
849 Clouds 36 1015 13 10000 1.5 250 20:19 23.06.2020
850 Clouds 36 1015 13 10000 2.1 0 19:59 23.06.2020
851 Clouds 36 1015 13 10000 2.1 0 19:40 23.06.2020
852 Clouds 36 1015 13 10000 2.1 0 19:22 23.06.2020
853 Clouds 36 1015 13 10000 3.1 130 18:38 23.06.2020
854 Clouds 36 1016 15 10000 2.1 150 18:18 23.06.2020
855 Clouds 36 1016 19 10000 2.1 0 17:42 23.06.2020
856 Clouds 36 1016 18 10000 1.5 260 17:23 23.06.2020
857 Clouds 36 1016 18 10000 1.5 260 16:57 23.06.2020
858 Clear 35 1017 22 10000 2.1 0 16:38 23.06.2020
859 Clear 35 1017 20 10000 3.1 190 16:20 23.06.2020
860 Clear 34 1017 20 10000 3.1 190 15:57 23.06.2020
861 Clear 34 1017 23 10000 1.5 0 15:38 23.06.2020
862 Clear 33 1018 24 10000 2.1 0 15:18 23.06.2020
863 Clear 33 1018 26 10000 2.1 0 14:42 23.06.2020
864 Clear 32 1019 27 10000 2.1 0 14:19 23.06.2020
865 Clear 31 1019 31 10000 2.6 0 13:57 23.06.2020
866 Clear 30 1019 31 10000 2.6 0 13:39 23.06.2020
867 Clear 30 1019 31 10000 2.1 0 13:20 23.06.2020
868 Clear 29 1019 32 10000 2.1 40 12:44 23.06.2020
869 Clear 28 1019 34 10000 2.1 0 12:22 23.06.2020
870 Clear 28 1019 34 10000 2.1 0 11:58 23.06.2020
871 Clear 27 1019 39 10000 3.1 90 11:40 23.06.2020
872 Clear 27 1020 39 10000 2.6 80 11:19 23.06.2020
873 Clear 26 1020 39 10000 2.6 80 10:56 23.06.2020
874 Clear 26 1020 41 10000 2.6 90 10:38 23.06.2020
875 Clear 25 1020 41 10000 2.6 90 10:20 23.06.2020
876 Clear 24 1020 44 10000 2.6 70 09:42 23.06.2020
877 Clear 24 1020 47 10000 2.1 70 09:20 23.06.2020
878 Clear 23 1019 50 10000 2.1 60 08:57 23.06.2020
879 Clear 23 1019 50 10000 2.1 60 08:38 23.06.2020
880 Clear 22 1019 46 10000 2.1 60 08:19 23.06.2020
881 Clear 22 1019 46 10000 2.1 60 07:40 23.06.2020
882 Clear 22 1019 46 10000 2.1 50 07:21 23.06.2020
883 Clear 22 1019 46 10000 2.1 50 06:49 23.06.2020
884 Clear 22 1019 46 10000 1.5 50 06:30 23.06.2020
885 Clear 22 1019 46 10000 1 0 05:39 23.06.2020
886 Clear 24 1020 36 10000 1.5 20 03:39 23.06.2020
887 Clear 25 1019 31 10000 1.5 40 02:56 23.06.2020
888 Clear 25 1019 34 10000 2.1 20 02:36 23.06.2020
889 Clear 26 1019 31 10000 1.5 10 01:51 23.06.2020
890 Clear 26 1019 31 10000 1.5 10 01:32 23.06.2020
891 Clear 27 1018 27 10000 1.5 360 00:56 23.06.2020
892 Clear 28 1019 29 10000 1 60 00:24 23.06.2020
893 Clear 29 1019 26 10000 0.5 60 23:56 22.06.2020
894 Clear 29 1019 26 10000 0.5 60 23:38 22.06.2020
895 Clear 30 1018 25 10000 1 0 23:19 22.06.2020
896 Clear 30 1018 25 10000 1 0 22:56 22.06.2020
897 Clear 30 1018 23 10000 0.5 0 22:37 22.06.2020
898 Clear 31 1018 19 10000 1 0 22:19 22.06.2020
899 Clear 32 1018 19 10000 1 0 21:57 22.06.2020
900 Clear 33 1018 16 10000 1 0 21:38 22.06.2020
901 Clear 34 1018 17 10000 1.5 300 21:20 22.06.2020
902 Clear 34 1018 17 10000 1.5 300 21:20 22.06.2020
903 Clear 34 1018 16 10000 1 0 20:41 22.06.2020
904 Clouds 34 1018 15 10000 0.5 10 20:23 22.06.2020
905 Clear 34 1019 16 10000 2.6 240 19:56 22.06.2020
906 Clear 34 1019 16 10000 2.6 240 19:37 22.06.2020
907 Clouds 35 1019 18 10000 1.5 20 19:18 22.06.2020
908 Clouds 35 1019 18 10000 1.5 20 18:40 22.06.2020
909 Clear 34 1019 16 10000 2.6 180 18:21 22.06.2020
910 Clear 34 1019 16 10000 2.6 180 17:57 22.06.2020
911 Clear 34 1020 17 10000 1.5 0 17:38 22.06.2020
912 Clear 34 1021 19 10000 2.6 230 17:19 22.06.2020
913 Clear 34 1021 19 10000 2.6 230 16:55 22.06.2020
914 Clear 33 1021 19 10000 1.5 240 16:37 22.06.2020
915 Clouds 33 1021 21 10000 1.5 0 16:18 22.06.2020
916 Clear 33 1022 22 10000 2.1 40 15:42 22.06.2020
917 Clear 32 1022 22 10000 2.1 40 15:24 22.06.2020
918 Clear 32 1022 22 10000 1.5 0 14:56 22.06.2020
919 Clear 31 1023 27 10000 2.1 80 14:36 22.06.2020
920 Clear 31 1023 27 10000 2.1 0 14:18 22.06.2020
921 Clear 30 1023 29 10000 2.1 0 13:39 22.06.2020
922 Clear 30 1023 29 10000 2.1 0 13:39 22.06.2020
923 Clear 29 1024 28 10000 2.1 0 13:21 22.06.2020
924 Clear 29 1024 28 10000 2.1 0 12:57 22.06.2020
925 Clear 28 1024 32 10000 2.6 0 12:39 22.06.2020
926 Clear 28 1024 32 10000 2.6 0 12:39 22.06.2020
927 Clear 28 1024 32 10000 2.6 0 12:21 22.06.2020
928 Clear 26 1024 39 10000 2.6 10 11:37 22.06.2020
929 Clear 25 1024 39 10000 2.6 20 11:19 22.06.2020
930 Clear 25 1024 39 10000 2.6 20 10:57 22.06.2020
931 Clear 24 1025 41 10000 2.6 20 10:38 22.06.2020
932 Clear 23 1024 44 10000 3.1 0 10:19 22.06.2020
933 Clear 23 1024 44 10000 3.1 0 09:56 22.06.2020
934 Clear 22 1025 46 10000 2.6 20 09:38 22.06.2020
935 Clear 21 1025 46 10000 3.1 10 09:18 22.06.2020
936 Clear 21 1025 46 10000 3.1 10 08:54 22.06.2020
937 Clear 20 1025 49 10000 2.6 10 08:36 22.06.2020
938 Clear 20 1025 52 10000 3.1 360 08:18 22.06.2020
939 Clear 19 1024 52 10000 2.6 10 07:45 22.06.2020
940 Clear 19 1024 52 10000 2.6 10 07:24 22.06.2020
941 Clear 19 1024 52 10000 4.1 360 06:38 22.06.2020
942 Clear 20 1024 49 10000 3.1 20 06:19 22.06.2020
943 Clear 20 1024 52 10000 4.1 360 05:41 22.06.2020
944 Clear 21 1024 49 10000 2.6 30 03:41 22.06.2020
945 Clear 24 1023 38 10000 5.1 50 01:48 22.06.2020
946 Clear 26 1024 24 10000 2.1 10 00:54 22.06.2020
947 Clear 27 1024 24 10000 1.5 30 00:29 22.06.2020
948 Clear 27 1023 26 10000 1 0 23:56 21.06.2020
949 Clear 28 1023 24 10000 1.5 340 23:37 21.06.2020
950 Clear 28 1023 24 10000 1.5 340 23:19 21.06.2020
951 Clear 29 1023 23 10000 1.5 320 22:55 21.06.2020
952 Clear 29 1022 21 10000 2.6 320 22:36 21.06.2020
953 Clear 30 1022 20 10000 3.1 310 22:18 21.06.2020
954 Clear 30 1022 20 10000 3.1 310 21:55 21.06.2020
955 Clear 31 1022 22 10000 2.6 310 21:37 21.06.2020
956 Clear 32 1021 21 10000 2.6 280 21:18 21.06.2020
957 Clear 33 1021 21 10000 2.6 280 20:54 21.06.2020
958 Clear 33 1021 19 10000 2.1 310 20:36 21.06.2020
959 Clear 33 1021 17 10000 1.5 230 20:18 21.06.2020
960 Clear 34 1022 17 10000 3.1 200 19:41 21.06.2020
961 Clear 33 1022 17 10000 3.1 200 19:20 21.06.2020
962 Clear 33 1022 18 10000 3.1 0 18:56 21.06.2020
963 Clear 33 1022 17 10000 2.6 160 18:38 21.06.2020
964 Clear 33 1022 17 10000 2.6 160 18:19 21.06.2020
965 Clear 33 1023 14 10000 3.1 0 17:41 21.06.2020
966 Clear 33 1023 14 10000 3.1 0 17:22 21.06.2020
967 Clear 33 1023 17 10000 3.6 200 16:57 21.06.2020
968 Clear 33 1023 17 10000 3.1 0 16:39 21.06.2020
969 Clear 32 1023 18 10000 2.6 0 16:21 21.06.2020
970 Clear 32 1024 22 10000 2.1 190 15:41 21.06.2020
971 Clear 32 1024 22 10000 2.1 190 15:41 21.06.2020
972 Clear 31 1024 21 10000 2.6 210 15:23 21.06.2020
973 Clear 31 1024 21 10000 2.6 210 14:59 21.06.2020
974 Clear 30 1024 19 10000 2.6 0 14:37 21.06.2020
975 Clear 30 1024 19 10000 2.6 0 14:19 21.06.2020
976 Clear 30 1024 21 10000 2.6 0 13:55 21.06.2020
977 Clear 29 1025 20 10000 3.1 170 13:36 21.06.2020
978 Clear 29 1025 23 10000 2.1 170 13:18 21.06.2020
979 Clear 28 1025 25 10000 2.1 170 12:43 21.06.2020
980 Clear 28 1025 25 10000 2.1 170 12:24 21.06.2020
981 Clear 27 1025 26 10000 1.5 80 11:43 21.06.2020
982 Clear 27 1025 26 10000 1.5 80 11:43 21.06.2020
983 Clear 26 1025 26 10000 1.5 80 11:25 21.06.2020
984 Clear 26 1025 28 10000 1 0 10:59 21.06.2020
985 Clear 25 1024 36 10000 0.5 210 10:41 21.06.2020
986 Clear 24 1025 27 10000 1.5 150 10:22 21.06.2020
987 Clear 24 1025 27 10000 1.5 150 09:58 21.06.2020
988 Clear 23 1024 29 10000 0.5 0 09:36 21.06.2020
989 Clear 22 1024 43 10000 1.3 24 09:18 21.06.2020
990 Clear 21 1024 43 10000 1.5 260 08:55 21.06.2020
991 Clear 21 1024 43 10000 1.5 260 08:36 21.06.2020
992 Clear 19 1024 48 10000 0.5 250 08:18 21.06.2020
993 Clear 19 1023 51 10000 0.5 270 07:41 21.06.2020
994 Clear 20 1023 40 10000 1.1 11 07:21 21.06.2020
995 Clear 21 1023 40 10000 1.1 11 06:48 21.06.2020
996 Clear 22 1023 37 10000 1 0 05:59 21.06.2020
997 Clear 22 1023 35 10000 1.5 340 05:25 21.06.2020
998 Clear 22 1023 37 10000 2.6 260 03:21 21.06.2020
999 Clear 23 1023 37 10000 2.6 260 02:54 21.06.2020
1000 Clear 24 1023 40 10000 2.6 250 01:54 21.06.2020
1001 Clear 24 1023 35 10000 4.1 270 01:21 21.06.2020
1002 Clear 25 1023 38 10000 3.6 270 00:56 21.06.2020
1003 Clear 26 1022 28 10000 1.5 320 00:38 21.06.2020
1004 Clear 26 1022 28 10000 1.5 310 00:18 21.06.2020
1005 Clear 26 1022 31 10000 4.6 250 23:43 20.06.2020
1006 Clear 27 1022 29 10000 4.1 240 23:21 20.06.2020
1007 Clear 27 1022 29 10000 4.1 240 22:55 20.06.2020
1008 Clear 28 1021 28 10000 4.6 240 22:37 20.06.2020
1009 Clear 28 1021 28 10000 5.1 230 22:18 20.06.2020
1010 Clear 29 1021 28 10000 5.1 230 21:56 20.06.2020
1011 Clear 29 1021 23 10000 4.6 220 21:38 20.06.2020
1012 Clear 30 1021 22 10000 4.1 240 21:19 20.06.2020
1013 Clear 31 1021 22 10000 4.1 240 20:56 20.06.2020
1014 Clear 31 1021 19 10000 4.1 220 20:38 20.06.2020
1015 Clear 31 1021 17 10000 4.6 230 20:19 20.06.2020
1016 Clear 31 1021 17 10000 4.6 230 20:19 20.06.2020
1017 Clear 31 1021 15 10000 3.6 220 19:43 20.06.2020
1018 Clear 31 1021 15 10000 3.6 220 19:23 20.06.2020
1019 Clear 32 1021 15 10000 5.1 220 18:55 20.06.2020
1020 Clear 32 1021 15 10000 5.7 210 18:37 20.06.2020
1021 Clear 31 1021 15 10000 5.7 210 18:19 20.06.2020
1022 Clear 31 1021 15 10000 5.1 190 17:56 20.06.2020
1023 Clear 31 1021 14 10000 4.1 200 17:37 20.06.2020
1024 Clear 31 1022 14 10000 4.1 240 17:18 20.06.2020
1025 Clear 31 1022 15 10000 4.6 220 16:40 20.06.2020
1026 Clear 31 1022 15 10000 4.6 220 16:19 20.06.2020
1027 Clear 31 1022 16 10000 4.6 260 15:55 20.06.2020
1028 Clear 30 1022 18 10000 4.1 200 15:37 20.06.2020
1029 Clear 30 1022 19 10000 4.1 0 15:18 20.06.2020
1030 Clear 29 1023 19 10000 3.6 230 14:42 20.06.2020
1031 Clear 29 1023 20 10000 4.1 0 14:19 20.06.2020
1032 Clear 28 1023 22 10000 1.5 230 13:41 20.06.2020
1033 Clear 28 1023 22 10000 1.5 230 13:20 20.06.2020
1034 Clear 27 1023 21 10000 4.1 220 12:56 20.06.2020
1035 Clear 27 1023 23 10000 1.5 0 12:38 20.06.2020
1036 Clear 26 1023 28 10000 1.5 0 12:18 20.06.2020
1037 Clear 25 1022 31 10000 1 10 11:39 20.06.2020
1038 Clear 24 1022 31 10000 1 10 11:20 20.06.2020
1039 Clear 24 1022 33 10000 1 50 10:58 20.06.2020
1040 Clear 23 1022 37 10000 1 0 10:40 20.06.2020
1041 Clear 22 1022 40 10000 0.5 30 10:20 20.06.2020
1042 Clear 21 1022 33 10000 1.5 50 09:43 20.06.2020
1043 Clear 21 1022 40 10000 1 0 09:25 20.06.2020
1044 Clear 20 1022 37 10000 1 0 08:58 20.06.2020
1045 Clear 20 1022 43 10000 0.5 0 08:39 20.06.2020
1046 Clear 18 1022 48 10000 1 260 08:21 20.06.2020
1047 Clear 19 1021 45 10000 0.5 0 07:50 20.06.2020
1048 Clear 17 1021 44 10000 0.5 0 07:25 20.06.2020
1049 Clear 18 1021 48 10000 1.5 270 06:44 20.06.2020
1050 Clear 18 1021 45 10000 1.5 270 06:20 20.06.2020
1051 Clear 19 1021 39 10000 2.1 270 05:47 20.06.2020
1052 Clear 21 1021 37 10000 2.1 260 03:53 20.06.2020
1053 Clear 22 1020 40 10000 1.5 350 01:54 20.06.2020
1054 Clear 22 1021 45 10000 3.1 270 01:36 20.06.2020
1055 Clear 23 1020 43 10000 3.1 250 00:47 20.06.2020
1056 Clear 24 1019 29 10000 3.6 270 00:20 20.06.2020
1057 Clear 25 1020 38 10000 3.6 250 23:44 19.06.2020
1058 Clear 26 1019 28 10000 6.2 240 23:20 19.06.2020
1059 Clear 26 1019 31 10000 4.1 240 22:56 19.06.2020
1060 Clear 26 1019 31 10000 4.6 240 22:37 19.06.2020
1061 Clear 26 1019 31 10000 4.6 240 22:19 19.06.2020
1062 Clear 27 1019 28 10000 4.6 230 21:55 19.06.2020
1063 Clear 27 1018 28 10000 5.1 230 21:37 19.06.2020
1064 Clear 28 1018 28 10000 5.1 230 21:18 19.06.2020
1065 Clear 28 1018 23 10000 4.1 220 20:56 19.06.2020
1066 Clear 29 1018 23 10000 3.1 210 20:38 19.06.2020
1067 Clear 29 1018 23 10000 3.1 210 20:20 19.06.2020
1068 Clear 29 1018 20 10000 3.6 220 19:54 19.06.2020
1069 Clear 29 1018 16 10000 3.1 200 19:36 19.06.2020
1070 Clear 30 1018 17 10000 4.6 230 19:18 19.06.2020
1071 Clear 29 1018 18 10000 4.1 220 18:40 19.06.2020
1072 Clear 29 1018 18 10000 4.6 200 18:21 19.06.2020
1073 Clear 29 1018 16 10000 4.6 220 17:43 19.06.2020
1074 Clear 29 1018 16 10000 4.6 220 17:23 19.06.2020
1075 Clouds 29 1018 19 10000 4.6 200 16:59 19.06.2020
1076 Clouds 29 1018 19 10000 5.1 0 16:41 19.06.2020
1077 Clouds 29 1018 19 10000 5.1 0 16:22 19.06.2020
1078 Clouds 28 1019 23 10000 6.2 230 15:49 19.06.2020
1079 Clouds 28 1019 25 10000 3.6 0 15:27 19.06.2020
1080 Clouds 28 1019 28 10000 4.6 230 14:59 19.06.2020
1081 Clouds 27 1019 30 10000 4.1 230 14:40 19.06.2020
1082 Clouds 27 1019 30 10000 4.1 230 14:21 19.06.2020
1083 Clouds 26 1019 34 10000 2.1 260 13:59 19.06.2020
1084 Clouds 26 1019 39 10000 2.1 0 13:40 19.06.2020
1085 Clouds 26 1019 39 10000 2.1 0 13:22 19.06.2020
1086 Clear 25 1019 44 10000 1.5 0 12:45 19.06.2020
1087 Clear 24 1019 44 10000 1.5 0 12:22 19.06.2020
1088 Clear 23 1019 53 10000 1.5 70 11:57 19.06.2020
1089 Clear 22 1019 53 10000 1.5 0 11:36 19.06.2020
1090 Clouds 21 1019 60 10000 1.5 0 11:18 19.06.2020
1091 Clouds 21 1019 68 10000 2.6 100 10:43 19.06.2020
1092 Clouds 21 1019 68 10000 2.6 100 10:25 19.06.2020
1093 Clouds 19 1019 72 10000 2.6 100 09:57 19.06.2020
1094 Clouds 18 1019 68 10000 1.5 60 09:39 19.06.2020
1095 Clouds 18 1019 68 10000 1.5 60 09:19 19.06.2020
1096 Clear 18 1018 63 10000 1 0 08:41 19.06.2020
1097 Clear 17 1018 63 10000 1 0 08:23 19.06.2020
1098 Clear 17 1018 67 10000 1.5 10 07:55 19.06.2020
1099 Clear 16 1018 72 10000 1 0 07:36 19.06.2020
1100 Clear 16 1018 72 10000 2.6 360 07:18 19.06.2020
1101 Clear 17 1017 67 10000 2.6 360 06:23 19.06.2020
1102 Clear 17 1017 67 10000 2.6 360 05:41 19.06.2020
1103 Clear 18 1016 63 10000 2.6 10 04:23 19.06.2020
1104 Clear 20 1016 46 10000 1.5 20 02:27 19.06.2020
1105 Clear 22 1015 40 10000 2.1 340 00:47 19.06.2020
1106 Clouds 23 1015 40 10000 2.1 340 00:22 19.06.2020
1107 Clouds 23 1016 43 10000 2.6 0 23:58 18.06.2020
1108 Clouds 23 1015 37 10000 2.1 260 23:40 18.06.2020
1109 Clouds 23 1015 37 10000 2.1 260 23:22 18.06.2020
1110 Clouds 24 1014 33 10000 2.6 340 22:57 18.06.2020
1111 Clouds 25 1014 36 10000 2.6 280 22:36 18.06.2020
1112 Clouds 25 1014 33 10000 2.6 270 22:18 18.06.2020
1113 Clouds 26 1014 27 10000 5.1 240 21:38 18.06.2020
1114 Clouds 27 1013 24 10000 5.7 230 21:19 18.06.2020
1115 Clouds 27 1013 24 10000 5.7 230 20:55 18.06.2020
1116 Clouds 27 1013 22 10000 4.1 210 20:36 18.06.2020
1117 Clouds 28 1013 22 10000 4.1 210 20:18 18.06.2020
1118 Clouds 28 1013 21 10000 4.6 220 19:42 18.06.2020
1119 Clouds 28 1013 21 10000 4.6 220 19:20 18.06.2020
1120 Clouds 28 1013 21 10000 6.2 200 18:57 18.06.2020
1121 Clouds 28 1013 20 10000 6.2 210 18:37 18.06.2020
1122 Clouds 28 1013 20 10000 6.2 210 18:18 18.06.2020
1123 Clouds 28 1013 22 10000 6.7 230 17:43 18.06.2020
1124 Clouds 28 1013 23 10000 4.6 250 17:25 18.06.2020
1125 Clouds 27 1013 23 10000 4.6 250 16:55 18.06.2020
1126 Clouds 27 1014 24 10000 4.6 200 16:37 18.06.2020
1127 Clouds 27 1014 26 10000 2.6 0 16:18 18.06.2020
1128 Clouds 27 1014 25 10000 4.1 220 15:40 18.06.2020
1129 Clouds 26 1013 24 10000 4.1 220 15:21 18.06.2020
1130 Clouds 26 1014 26 10000 3.1 0 14:58 18.06.2020
1131 Clouds 26 1014 26 10000 3.1 0 14:58 18.06.2020
1132 Clouds 26 1014 28 10000 2.6 0 14:40 18.06.2020
1133 Clouds 25 1014 31 10000 2.6 240 14:21 18.06.2020
1134 Clouds 24 1014 31 10000 2.6 240 13:56 18.06.2020
1135 Clouds 25 1015 29 10000 2.6 0 13:38 18.06.2020
1136 Clouds 24 1015 29 10000 2.6 0 13:19 18.06.2020
1137 Clear 24 1014 31 10000 2.6 170 12:55 18.06.2020
1138 Clear 23 1015 36 10000 2.1 0 12:37 18.06.2020
1139 Clear 23 1015 36 10000 1.5 0 12:19 18.06.2020
1140 Clear 22 1015 40 10000 2.1 100 11:46 18.06.2020
1141 Clear 21 1015 46 10000 1 0 11:21 18.06.2020
1142 Clear 20 1015 46 10000 1 0 10:41 18.06.2020
1143 Clear 20 1015 46 10000 1 0 10:20 18.06.2020
1144 Clear 19 1015 49 10000 1.5 0 09:58 18.06.2020
1145 Clear 19 1015 49 10000 1.5 350 09:40 18.06.2020
1146 Clear 18 1015 49 10000 1.5 350 09:21 18.06.2020
1147 Clear 17 1014 55 10000 1.5 350 08:41 18.06.2020
1148 Clear 17 1014 55 10000 1.5 350 08:22 18.06.2020
1149 Clear 16 1014 63 10000 1.5 10 07:57 18.06.2020
1150 Clear 16 1014 62 10000 2.1 350 07:37 18.06.2020
1151 Clear 16 1014 62 10000 2.1 350 07:37 18.06.2020
1152 Clear 16 1014 62 10000 2.1 350 07:19 18.06.2020
1153 Clear 16 1014 59 10000 2.1 360 06:22 18.06.2020
1154 Clear 18 1014 45 10000 2.1 350 04:26 18.06.2020
1155 Clouds 18 1015 45 10000 1 0 03:18 18.06.2020
1156 Clouds 20 1015 40 10000 1 0 01:30 18.06.2020
1157 Clouds 21 1015 37 10000 1.5 360 00:59 18.06.2020
1158 Clouds 21 1015 37 10000 1.5 340 00:39 18.06.2020
1159 Clouds 21 1015 35 10000 1.5 310 00:21 18.06.2020
1160 Clouds 22 1015 33 10000 1.5 290 23:45 17.06.2020
1161 Clouds 22 1015 33 10000 1.5 290 23:22 17.06.2020
1162 Clouds 22 1014 33 10000 2.1 290 22:58 17.06.2020
1163 Clouds 23 1014 37 10000 2.6 250 22:40 17.06.2020
1164 Clouds 23 1014 33 10000 3.1 260 22:21 17.06.2020
1165 Clouds 23 1014 37 10000 2.6 250 22:21 17.06.2020
1166 Clouds 23 1014 37 10000 2.6 250 22:21 17.06.2020
1167 Clouds 23 1014 33 10000 3.1 260 21:55 17.06.2020
1168 Clouds 24 1014 35 10000 3.1 260 21:37 17.06.2020
1169 Clouds 24 1014 31 10000 3.1 270 21:19 17.06.2020
1170 Clouds 24 1014 29 10000 3.6 260 20:38 17.06.2020
1171 Clouds 25 1014 29 10000 3.6 260 20:38 17.06.2020
1172 Clouds 25 1014 29 10000 3.6 260 20:20 17.06.2020
1173 Clouds 25 1014 29 10000 3.1 240 19:57 17.06.2020
1174 Clouds 25 1014 31 10000 3.1 210 19:39 17.06.2020
1175 Clouds 25 1014 29 10000 4.1 230 19:19 17.06.2020
1176 Clouds 25 1015 25 10000 5.1 270 18:45 17.06.2020
1177 Clouds 25 1015 25 10000 5.1 270 18:27 17.06.2020
1178 Clouds 25 1015 24 10000 4.1 240 17:46 17.06.2020
1179 Clouds 25 1015 24 10000 4.1 240 17:23 17.06.2020
1180 Clouds 25 1015 24 10000 3.6 170 16:58 17.06.2020
1181 Clouds 25 1016 29 10000 3.1 0 16:40 17.06.2020
1182 Clouds 25 1016 29 10000 3.1 0 16:21 17.06.2020
1183 Clouds 24 1016 26 10000 2.1 0 15:58 17.06.2020
1184 Clouds 24 1016 26 10000 2.6 0 15:39 17.06.2020
1185 Clouds 24 1016 26 10000 2.6 0 15:20 17.06.2020
1186 Clouds 23 1016 26 10000 3.1 0 14:58 17.06.2020
1187 Clouds 23 1017 31 10000 3.1 230 14:39 17.06.2020
1188 Clouds 23 1017 29 10000 2.6 300 14:19 17.06.2020
1189 Clouds 22 1017 29 10000 2.6 300 13:57 17.06.2020
1190 Clouds 22 1017 31 10000 2.1 190 13:38 17.06.2020
1191 Clouds 22 1017 31 10000 2.1 190 13:20 17.06.2020
1192 Clouds 21 1017 37 10000 2.1 0 12:43 17.06.2020
1193 Clouds 21 1017 37 10000 2.1 0 12:23 17.06.2020
1194 Clouds 21 1017 37 10000 2.6 0 11:58 17.06.2020
1195 Clouds 20 1017 37 10000 1.5 160 11:38 17.06.2020
1196 Clouds 20 1018 37 10000 2.1 0 11:20 17.06.2020
1197 Clouds 20 1018 40 10000 2.1 60 10:39 17.06.2020
1198 Clouds 18 1018 42 10000 1.5 60 10:19 17.06.2020
1199 Clouds 19 1018 40 10000 2.1 60 10:19 17.06.2020
1200 Clouds 18 1018 42 10000 1.5 60 09:58 17.06.2020
1201 Clouds 18 1018 48 10000 0.5 0 09:40 17.06.2020
1202 Clouds 17 1017 51 10000 1.5 310 09:20 17.06.2020
1203 Clouds 16 1017 51 10000 2.6 300 08:45 17.06.2020
1204 Clouds 17 1017 51 10000 2.6 300 08:21 17.06.2020
1205 Clouds 15 1017 54 10000 2.6 310 07:56 17.06.2020
1206 Clouds 15 1017 62 10000 1 0 07:37 17.06.2020
1207 Clouds 15 1017 62 10000 2.6 240 07:19 17.06.2020
1208 Clouds 15 1017 62 10000 2.6 240 06:55 17.06.2020
1209 Clouds 15 1017 54 10000 0.5 0 06:37 17.06.2020
1210 Clouds 16 1017 54 10000 2.1 0 06:19 17.06.2020
1211 Clouds 17 1017 51 10000 0.5 0 04:53 17.06.2020
1212 Clouds 18 1018 52 10000 5.7 280 02:55 17.06.2020
1213 Clouds 19 1019 45 10000 5.7 300 01:29 17.06.2020
1214 Clouds 20 1019 42 10000 3.6 280 00:38 17.06.2020
1215 Clouds 20 1019 42 10000 3.6 280 00:20 17.06.2020
1216 Clouds 20 1019 42 10000 3.6 280 23:56 16.06.2020
1217 Clouds 20 1019 49 10000 2.6 280 23:37 16.06.2020
1218 Clouds 20 1019 49 10000 2.6 280 23:19 16.06.2020
1219 Clouds 20 1018 55 10000 1.5 280 22:54 16.06.2020
1220 Clouds 20 1018 52 10000 1.5 200 22:36 16.06.2020
1221 Clouds 21 1018 52 10000 4.1 200 22:18 16.06.2020
1222 Clouds 22 1018 46 10000 6.2 200 21:45 16.06.2020
1223 Clouds 22 1018 46 10000 6.2 200 21:23 16.06.2020
1224 Clouds 23 1018 40 10000 2.6 240 20:57 16.06.2020
1225 Rain 22 1018 49 10000 8.2 240 20:39 16.06.2020
1226 Rain 23 1018 49 10000 8.2 240 20:19 16.06.2020
1227 Clouds 24 1017 31 10000 5.7 270 19:56 16.06.2020
1228 Clouds 24 1017 33 10000 5.1 280 19:38 16.06.2020
1229 Clouds 25 1017 31 10000 5.7 310 19:19 16.06.2020
1230 Clouds 25 1017 31 10000 3.6 290 18:45 16.06.2020
1231 Clouds 25 1017 31 10000 3.6 290 18:45 16.06.2020
1232 Clouds 25 1017 31 10000 3.6 290 18:22 16.06.2020
1233 Clouds 25 1018 31 10000 6.2 280 17:58 16.06.2020
1234 Clouds 25 1018 26 10000 4.6 280 17:39 16.06.2020
1235 Clouds 25 1018 26 10000 4.6 280 17:21 16.06.2020
1236 Clouds 25 1018 28 10000 3.1 0 16:59 16.06.2020
1237 Clouds 25 1018 26 10000 5.7 270 16:40 16.06.2020
1238 Clouds 25 1019 26 10000 5.7 280 16:20 16.06.2020
1239 Clouds 25 1019 26 10000 5.7 280 15:57 16.06.2020
1240 Clouds 24 1019 25 10000 6.7 280 15:39 16.06.2020
1241 Clouds 24 1019 29 10000 7.2 260 15:21 16.06.2020
1242 Clouds 24 1019 29 10000 7.2 260 14:56 16.06.2020
1243 Clouds 24 1019 29 10000 5.7 240 14:38 16.06.2020
1244 Clouds 23 1020 31 10000 4.1 290 14:19 16.06.2020
1245 Clouds 23 1020 36 10000 4.6 270 13:45 16.06.2020
1246 Clouds 22 1020 36 10000 4.6 270 13:25 16.06.2020
1247 Clouds 22 1020 36 10000 4.1 260 12:55 16.06.2020
1248 Clouds 21 1020 40 10000 3.1 0 12:37 16.06.2020
1249 Clouds 21 1020 46 10000 3.1 270 12:18 16.06.2020
1250 Clouds 20 1020 52 10000 0.5 60 11:41 16.06.2020
1251 Clouds 20 1020 52 10000 0.5 60 11:23 16.06.2020
1252 Clouds 19 1020 49 10000 2.1 300 10:59 16.06.2020
1253 Clouds 19 1021 49 10000 2.1 290 10:40 16.06.2020
1254 Clouds 19 1021 49 10000 2.1 290 10:20 16.06.2020
1255 Clouds 19 1021 45 10000 2.1 250 09:47 16.06.2020
1256 Clouds 18 1020 55 10000 2.1 270 09:24 16.06.2020
1257 Clouds 17 1020 55 10000 2.1 270 08:58 16.06.2020
1258 Clouds 17 1020 59 10000 1.5 280 08:40 16.06.2020
1259 Clouds 17 1020 59 10000 1.5 280 08:22 16.06.2020
1260 Clouds 17 1020 62 10000 1 230 07:42 16.06.2020
1261 Clouds 17 1020 62 10000 1 230 07:24 16.06.2020
1262 Clouds 17 1020 59 10000 1 0 06:34 16.06.2020
1263 Clouds 17 1020 59 10000 1 0 05:52 16.06.2020
1264 Clouds 17 1020 55 10000 0.5 0 05:19 16.06.2020
1265 Clouds 18 1019 52 10000 0.5 0 04:26 16.06.2020
1266 Clouds 19 1021 55 10000 2.6 310 02:47 16.06.2020
1267 Clouds 20 1021 48 10000 2.1 310 01:34 16.06.2020
1268 Rain 20 1021 45 10000 4.1 300 00:58 16.06.2020
1269 Rain 21 1021 45 10000 4.6 290 00:29 16.06.2020
1270 Clouds 21 1021 46 10000 4.1 290 23:59 15.06.2020
1271 Clouds 21 1021 49 10000 2.6 300 23:41 15.06.2020
1272 Clouds 22 1021 49 10000 2.6 300 23:21 15.06.2020
1273 Clouds 22 1021 49 10000 2.6 300 23:21 15.06.2020
1274 Clouds 23 1020 46 10000 4.1 270 22:42 15.06.2020
1275 Clouds 23 1020 46 10000 4.1 270 22:42 15.06.2020
1276 Clouds 23 1020 46 10000 4.1 270 22:23 15.06.2020
1277 Clouds 23 1020 43 10000 3.1 250 21:59 15.06.2020
1278 Clouds 24 1020 43 10000 3.6 260 21:38 15.06.2020
1279 Clouds 24 1020 43 10000 3.6 260 21:20 15.06.2020
1280 Clouds 24 1020 36 10000 4.1 270 20:59 15.06.2020
1281 Clouds 25 1020 36 10000 3.1 290 20:39 15.06.2020
1282 Clouds 25 1020 36 10000 3.1 290 20:20 15.06.2020
1283 Clouds 25 1020 38 10000 4.6 280 20:00 15.06.2020
1284 Clouds 25 1020 36 10000 7.7 290 19:40 15.06.2020
1285 Clouds 26 1020 36 10000 7.7 290 19:22 15.06.2020
1286 Clouds 26 1020 28 10000 5.1 230 18:58 15.06.2020
1287 Clouds 26 1020 26 10000 5.1 210 18:39 15.06.2020
1288 Clear 27 1020 26 10000 4.6 0 18:20 15.06.2020
1289 Clear 27 1020 26 10000 4.6 0 17:58 15.06.2020
1290 Clear 27 1020 26 10000 4.1 200 17:40 15.06.2020
1291 Clear 26 1021 26 10000 3.6 200 17:19 15.06.2020
1292 Clear 26 1021 26 10000 3.6 200 17:19 15.06.2020
1293 Clear 26 1021 26 10000 3.6 200 16:54 15.06.2020
1294 Clear 26 1021 27 10000 3.1 0 16:36 15.06.2020
1295 Clear 26 1021 30 10000 4.1 200 16:18 15.06.2020
1296 Clear 25 1021 29 10000 3.1 0 15:40 15.06.2020
1297 Clear 25 1021 29 10000 3.1 0 15:20 15.06.2020
1298 Clear 24 1022 31 10000 3.1 0 14:57 15.06.2020
1299 Clouds 24 1022 33 10000 3.6 0 14:39 15.06.2020
1300 Clouds 24 1022 33 10000 3.6 0 14:18 15.06.2020
1301 Clouds 23 1022 33 10000 2.6 0 13:43 15.06.2020
1302 Clouds 23 1022 33 10000 2.6 0 13:24 15.06.2020
1303 Clouds 23 1022 36 10000 3.1 0 12:59 15.06.2020
1304 Clouds 22 1022 40 10000 3.1 0 12:41 15.06.2020
1305 Clouds 22 1022 40 10000 3.1 0 12:41 15.06.2020
1306 Clouds 22 1022 40 10000 3.6 210 12:21 15.06.2020
1307 Clouds 21 1022 43 10000 2.6 0 11:46 15.06.2020
1308 Clouds 21 1022 43 10000 2.6 0 11:26 15.06.2020
1309 Clouds 20 1022 46 10000 2.1 240 10:58 15.06.2020
1310 Clouds 20 1023 46 10000 2.1 0 10:39 15.06.2020
1311 Clouds 19 1022 49 10000 2.1 200 10:20 15.06.2020
1312 Clouds 19 1022 49 10000 1.5 210 09:43 15.06.2020
1313 Clear 18 1022 49 10000 1.5 210 09:23 15.06.2020
1314 Clear 17 1022 52 10000 0.69 164 08:46 15.06.2020
1315 Clouds 16 1022 59 10000 0.5 0 08:26 15.06.2020
1316 Clouds 16 1022 71 10000 1.5 270 07:57 15.06.2020
1317 Clouds 15 1022 71 10000 3.1 260 07:37 15.06.2020
1318 Clouds 15 1022 71 10000 3.1 260 07:19 15.06.2020
1319 Clouds 16 1021 67 10000 1.5 240 06:27 15.06.2020
1320 Clouds 16 1021 67 10000 2.1 250 05:51 15.06.2020
1321 Clouds 16 1021 67 10000 2.1 250 05:29 15.06.2020
1322 Clouds 18 1021 52 10000 1.5 350 04:22 15.06.2020
1323 Clouds 18 1021 48 10000 2.1 310 03:48 15.06.2020
1324 Clouds 19 1022 48 10000 2.1 290 02:56 15.06.2020
1325 Clouds 19 1022 48 10000 2.6 290 02:26 15.06.2020
1326 Clouds 19 1021 45 10000 2.6 280 01:44 15.06.2020
1327 Clouds 20 1021 45 10000 2.6 280 01:24 15.06.2020
1328 Clouds 20 1021 45 10000 2.6 260 00:44 15.06.2020
1329 Clouds 20 1021 42 10000 3.1 270 00:23 15.06.2020
1330 Clouds 21 1020 40 10000 1.5 360 23:57 14.06.2020
1331 Clouds 22 1020 40 10000 5.1 240 23:39 14.06.2020
1332 Clouds 22 1020 40 10000 5.1 240 23:21 14.06.2020
1333 Clouds 22 1020 40 10000 5.1 240 22:56 14.06.2020
1334 Clouds 22 1020 40 10000 5.1 240 22:37 14.06.2020
1335 Clouds 23 1020 40 10000 5.1 240 22:18 14.06.2020
1336 Clouds 23 1020 38 10000 5.7 230 21:56 14.06.2020
1337 Clouds 23 1019 35 10000 5.7 220 21:37 14.06.2020
1338 Clouds 24 1019 36 10000 4.6 230 21:18 14.06.2020
1339 Clouds 24 1019 36 10000 4.6 230 20:56 14.06.2020
1340 Clouds 25 1019 31 10000 3.1 200 20:37 14.06.2020
1341 Clouds 25 1019 31 10000 3.1 200 20:18 14.06.2020
1342 Clouds 25 1019 33 10000 2.6 250 19:55 14.06.2020
1343 Clouds 25 1019 27 10000 1 0 19:37 14.06.2020
1344 Clouds 25 1019 28 10000 4.6 300 19:18 14.06.2020
1345 Clouds 25 1019 28 10000 4.6 300 18:55 14.06.2020
1346 Clouds 25 1019 28 10000 4.1 200 18:37 14.06.2020
1347 Clouds 25 1019 27 10000 4.1 200 18:18 14.06.2020
1348 Clouds 25 1019 27 10000 4.1 200 17:55 14.06.2020
1349 Clouds 25 1019 29 10000 3.1 270 17:36 14.06.2020
1350 Clouds 25 1020 29 10000 3.6 0 17:18 14.06.2020
1351 Clouds 24 1020 27 10000 3.1 200 16:40 14.06.2020
1352 Clouds 24 1020 29 10000 3.6 250 16:20 14.06.2020
1353 Clouds 24 1020 29 10000 3.6 250 15:57 14.06.2020
1354 Clouds 24 1020 29 10000 3.6 240 15:38 14.06.2020
1355 Clouds 23 1021 29 10000 4.1 230 15:18 14.06.2020
1356 Clouds 23 1021 29 10000 4.1 230 14:55 14.06.2020
1357 Rain 23 1021 31 10000 4.6 240 14:36 14.06.2020
1358 Rain 22 1021 33 10000 4.1 240 14:18 14.06.2020
1359 Rain 22 1021 33 10000 5.7 230 13:41 14.06.2020
1360 Rain 22 1021 35 10000 4.1 220 13:22 14.06.2020
1361 Rain 21 1021 35 10000 4.1 220 12:59 14.06.2020
1362 Clouds 21 1021 35 10000 4.1 210 12:40 14.06.2020
1363 Clouds 20 1021 37 10000 2.6 270 12:21 14.06.2020
1364 Clouds 20 1021 37 10000 2.6 270 11:58 14.06.2020
1365 Clouds 19 1021 48 10000 1.5 180 11:39 14.06.2020
1366 Clouds 19 1021 48 10000 1.5 180 11:20 14.06.2020
1367 Clouds 18 1021 45 10000 1 0 10:43 14.06.2020
1368 Clouds 18 1020 51 10000 1 120 10:21 14.06.2020
1369 Clouds 17 1021 45 10000 1 0 09:58 14.06.2020
1370 Clouds 16 1020 48 10000 1.5 330 09:40 14.06.2020
1371 Clouds 16 1020 52 10000 0.75 17 09:21 14.06.2020
1372 Clouds 15 1020 59 10000 0.75 17 08:42 14.06.2020
1373 Clear 14 1020 67 10000 1 0 08:22 14.06.2020
1374 Clear 14 1020 67 10000 1 0 07:52 14.06.2020
1375 Clear 13 1019 71 10000 1.14 336 07:34 14.06.2020
1376 Clear 13 1019 76 10000 0.5 0 06:51 14.06.2020
1377 Clear 14 1019 71 10000 1 260 05:51 14.06.2020
1378 Clear 14 1019 71 10000 1.5 260 05:29 14.06.2020
1379 Rain 15 1019 62 10000 2.6 290 04:38 14.06.2020
1380 Clear 15 1019 66 10000 3.1 250 03:54 14.06.2020
1381 Clouds 16 1018 51 10000 2.85 241 02:35 14.06.2020
1382 Clear 16 1018 51 10000 1.5 360 01:55 14.06.2020
1383 Clouds 16 1018 48 10000 1 0 01:26 14.06.2020
1384 Clear 17 1019 58 9000 3.1 240 00:47 14.06.2020
1385 Clouds 18 1019 48 10000 3.6 250 00:20 14.06.2020
1386 Clouds 18 1018 48 10000 3.6 240 23:46 13.06.2020
1387 Clouds 18 1018 48 10000 3.6 240 23:26 13.06.2020
1388 Clouds 19 1018 45 10000 4.1 240 22:58 13.06.2020
1389 Clouds 19 1018 42 10000 5.1 240 22:38 13.06.2020
1390 Clouds 20 1017 40 10000 5.1 230 22:19 13.06.2020
1391 Clouds 20 1017 40 10000 5.1 230 21:57 13.06.2020
1392 Clouds 21 1017 37 10000 5.7 230 21:39 13.06.2020
1393 Clouds 21 1017 37 10000 5.7 230 21:21 13.06.2020
1394 Clouds 22 1017 35 10000 5.7 250 20:44 13.06.2020
1395 Clouds 22 1017 35 10000 5.7 250 20:20 13.06.2020
1396 Clouds 23 1016 29 10000 5.1 230 19:59 13.06.2020
1397 Clouds 22 1016 28 10000 5.1 240 19:38 13.06.2020
1398 Clouds 23 1016 29 10000 4.1 240 19:19 13.06.2020
1399 Clouds 23 1016 29 10000 4.1 240 18:57 13.06.2020
1400 Clouds 23 1016 29 10000 3.1 200 18:38 13.06.2020
1401 Clouds 23 1016 29 10000 3.1 200 18:19 13.06.2020
1402 Clouds 23 1016 28 10000 3.1 240 17:55 13.06.2020
1403 Clouds 23 1016 27 10000 4.6 210 17:37 13.06.2020
1404 Clouds 22 1016 27 10000 4.6 210 17:19 13.06.2020
1405 Clouds 22 1016 31 10000 4.6 220 16:41 13.06.2020
1406 Clouds 22 1016 31 10000 4.6 220 16:20 13.06.2020
1407 Clouds 21 1017 35 10000 2.6 180 15:59 13.06.2020
1408 Clouds 21 1017 37 10000 3.6 180 15:39 13.06.2020
1409 Clouds 21 1017 37 10000 3.6 180 15:20 13.06.2020
1410 Clouds 20 1017 40 10000 1.5 220 14:43 13.06.2020
1411 Clouds 20 1016 37 10000 1 90 14:23 13.06.2020
1412 Clouds 19 1016 37 10000 1 90 13:56 13.06.2020
1413 Clouds 19 1017 42 10000 3.1 250 13:37 13.06.2020
1414 Clouds 19 1017 42 10000 3.1 250 13:37 13.06.2020
1415 Clouds 19 1017 42 10000 2.1 0 13:18 13.06.2020
1416 Clouds 18 1017 45 10000 3.1 240 12:43 13.06.2020
1417 Clouds 18 1017 45 10000 3.1 240 12:25 13.06.2020
1418 Clouds 17 1016 48 10000 2.6 220 11:55 13.06.2020
1419 Clouds 17 1016 51 10000 4.1 270 11:55 13.06.2020
1420 Clouds 17 1016 51 10000 4.1 270 11:37 13.06.2020
1421 Clouds 16 1016 59 10000 4.1 280 11:18 13.06.2020
1422 Clouds 16 1016 63 10000 4.1 270 10:49 13.06.2020
1423 Clouds 15 1016 63 10000 4.1 270 10:27 13.06.2020
1424 Clear 14 1016 71 10000 3.6 270 09:56 13.06.2020
1425 Clear 13 1015 82 10000 3.6 250 09:38 13.06.2020
1426 Clear 13 1015 82 10000 3.6 250 09:19 13.06.2020
1427 Clear 11 1015 87 10000 5.1 240 08:44 13.06.2020
1428 Clear 11 1015 87 10000 5.1 240 08:26 13.06.2020
1429 Clear 10 1014 93 10000 1.5 240 07:45 13.06.2020
1430 Clear 10 1014 93 10000 1.5 240 07:26 13.06.2020
1431 Clear 11 1013 93 10000 2.6 230 06:44 13.06.2020
1432 Clear 11 1013 93 10000 2.6 230 06:26 13.06.2020
1433 Clear 11 1013 93 10000 1.5 180 05:30 13.06.2020
1434 Clear 12 1013 93 10000 2.6 210 04:41 13.06.2020
1435 Clear 12 1013 93 10000 3.6 230 03:43 13.06.2020
1436 Clear 12 1013 87 10000 3.6 240 02:52 13.06.2020
1437 Clouds 13 1012 87 10000 3.1 220 01:50 13.06.2020
1438 Clouds 13 1012 82 10000 3.6 200 01:24 13.06.2020
1439 Clouds 13 1012 87 10000 2.6 220 00:55 13.06.2020
1440 Clouds 13 1012 87 10000 3.1 200 00:29 13.06.2020
1441 Clouds 13 1012 87 10000 2.6 220 23:59 12.06.2020
1442 Rain 13 1011 87 10000 2.6 220 23:38 12.06.2020
1443 Rain 13 1010 87 10000 3.6 310 23:18 12.06.2020
1444 Rain 14 1011 62 8000 8.7 240 22:54 12.06.2020
1445 Rain 14 1011 62 8000 8.7 240 22:36 12.06.2020
1446 Clouds 16 1010 51 10000 5.1 280 22:18 12.06.2020
1447 Clouds 17 1009 51 10000 6.7 240 21:42 12.06.2020
1448 Clouds 18 1009 51 10000 6.7 240 21:23 12.06.2020
1449 Clouds 18 1008 45 10000 7.2 240 20:57 12.06.2020
1450 Clouds 18 1008 45 10000 7.2 240 20:37 12.06.2020
1451 Clouds 19 1008 37 10000 9.3 240 20:19 12.06.2020
1452 Clouds 19 1008 37 10000 8.2 230 19:42 12.06.2020
1453 Clouds 20 1008 37 10000 8.2 230 19:21 12.06.2020
1454 Clouds 20 1007 37 10000 9.3 240 18:58 12.06.2020
1455 Clouds 20 1007 40 10000 8.7 230 18:37 12.06.2020
1456 Clouds 19 1008 40 10000 9.8 230 18:18 12.06.2020
1457 Clouds 20 1007 37 10000 8.7 220 17:43 12.06.2020
1458 Clouds 20 1007 37 10000 8.7 220 17:25 12.06.2020
1459 Clouds 19 1007 42 10000 8.7 220 16:47 12.06.2020
1460 Clouds 19 1007 42 10000 8.7 220 16:22 12.06.2020
1461 Clouds 19 1007 37 10000 7.2 220 15:53 12.06.2020
1462 Clouds 20 1007 37 10000 7.2 210 15:29 12.06.2020
1463 Clouds 19 1007 35 10000 6.7 210 14:59 12.06.2020
1464 Clouds 18 1008 37 10000 7.7 220 14:41 12.06.2020
1465 Clouds 18 1008 37 10000 7.7 220 14:21 12.06.2020
1466 Clouds 17 1008 45 10000 6.7 220 13:44 12.06.2020
1467 Clouds 17 1008 45 10000 6.7 220 13:22 12.06.2020
1468 Clouds 17 1008 45 10000 6.7 220 12:57 12.06.2020
1469 Clouds 16 1008 45 10000 6.2 220 12:39 12.06.2020
1470 Clouds 16 1007 48 10000 5.7 210 12:18 12.06.2020
1471 Clouds 15 1008 48 10000 5.1 220 11:44 12.06.2020
1472 Clouds 14 1008 51 10000 5.1 210 11:23 12.06.2020
1473 Clouds 14 1008 51 10000 5.1 210 10:54 12.06.2020
1474 Clouds 14 1008 54 10000 4.6 210 10:36 12.06.2020
1475 Clouds 12 1008 62 10000 4.6 220 10:18 12.06.2020
1476 Clear 12 1008 58 10000 4.1 220 09:43 12.06.2020
1477 Clear 12 1008 62 10000 5.1 220 09:19 12.06.2020
1478 Clear 12 1007 66 10000 5.1 220 08:41 12.06.2020
1479 Clouds 11 1007 66 10000 5.1 220 08:23 12.06.2020
1480 Clouds 11 1007 71 10000 5.7 230 07:42 12.06.2020
1481 Clouds 11 1007 71 10000 5.7 230 07:24 12.06.2020
1482 Clouds 11 1007 71 10000 5.7 230 06:41 12.06.2020
1483 Clouds 11 1007 71 10000 5.7 230 06:21 12.06.2020
1484 Clouds 12 1006 66 9000 5.1 230 05:49 12.06.2020
1485 Clouds 13 1006 66 10000 4.6 230 05:23 12.06.2020
1486 Clouds 13 1006 54 9000 5.1 270 03:53 12.06.2020
1487 Clouds 15 1007 51 9000 5.1 270 02:42 12.06.2020
1488 Clouds 15 1007 55 10000 7.2 240 01:39 12.06.2020
1489 Clouds 16 1006 55 9000 7.7 240 00:59 12.06.2020
1490 Clouds 16 1006 51 10000 5.1 240 00:39 12.06.2020
1491 Clouds 16 1006 51 10000 5.1 240 00:20 12.06.2020
1492 Clouds 17 1006 51 10000 8.7 230 23:57 11.06.2020
1493 Clouds 18 1006 51 10000 9.3 240 23:38 11.06.2020
1494 Clouds 18 1006 51 10000 9.3 240 23:19 11.06.2020
1495 Clouds 18 1005 52 9000 9.3 250 22:54 11.06.2020
1496 Clouds 18 1005 63 10000 6.7 260 22:36 11.06.2020
1497 Clouds 18 1005 49 10000 9.8 260 22:18 11.06.2020
1498 Clouds 21 1005 46 10000 10.8 240 21:42 11.06.2020
1499 Clouds 21 1004 43 10000 10.8 220 21:20 11.06.2020
1500 Clouds 21 1004 43 10000 10.8 220 20:57 11.06.2020
1501 Clouds 22 1004 37 10000 9.3 220 20:39 11.06.2020
1502 Clouds 22 1004 37 10000 9.3 220 20:20 11.06.2020
1503 Clouds 23 1005 38 10000 10.8 240 19:43 11.06.2020
1504 Clouds 23 1005 38 10000 10.8 240 19:22 11.06.2020
1505 Clouds 23 1005 36 10000 9.3 220 18:54 11.06.2020
1506 Clouds 23 1005 36 10000 9.3 220 18:36 11.06.2020
1507 Clouds 23 1005 36 10000 9.8 230 18:18 11.06.2020
1508 Clouds 23 1006 38 10000 8.7 230 17:55 11.06.2020
1509 Clouds 23 1006 38 10000 8.7 230 17:37 11.06.2020
1510 Clouds 23 1006 38 10000 5.1 270 17:18 11.06.2020
1511 Clouds 22 1006 38 10000 6.2 260 16:42 11.06.2020
1512 Clouds 23 1007 40 10000 5.7 250 16:23 11.06.2020
1513 Clouds 23 1007 40 10000 5.7 240 15:57 11.06.2020
1514 Clouds 23 1007 40 10000 5.7 240 15:38 11.06.2020
1515 Clouds 23 1007 36 10000 5.7 230 15:20 11.06.2020
1516 Clouds 23 1008 38 10000 5.1 240 14:44 11.06.2020
1517 Clear 23 1008 38 10000 6.2 210 14:21 11.06.2020
1518 Clear 22 1008 38 10000 5.1 220 13:57 11.06.2020
1519 Clear 22 1008 38 10000 5.1 220 13:39 11.06.2020
1520 Clear 22 1009 40 10000 5.1 220 13:20 11.06.2020
1521 Clear 22 1009 40 10000 5.7 220 12:56 11.06.2020
1522 Clear 22 1009 40 10000 5.7 220 12:56 11.06.2020
1523 Clear 21 1009 40 10000 5.7 220 12:38 11.06.2020
1524 Clear 21 1009 43 10000 5.7 220 12:19 11.06.2020
1525 Clear 20 1009 43 10000 5.7 220 11:57 11.06.2020
1526 Clear 20 1009 43 10000 5.7 220 11:38 11.06.2020
1527 Clear 20 1009 49 10000 5.7 230 11:20 11.06.2020
1528 Clear 20 1009 49 10000 5.7 230 10:57 11.06.2020
1529 Clear 19 1010 49 10000 6.2 230 10:38 11.06.2020
1530 Clear 19 1010 52 10000 6.2 230 10:18 11.06.2020
1531 Clear 18 1010 55 10000 6.7 230 09:40 11.06.2020
1532 Clear 18 1010 55 10000 6.7 230 09:40 11.06.2020
1533 Clear 17 1010 55 10000 5.1 230 09:22 11.06.2020
1534 Clear 17 1010 59 10000 2.1 210 08:44 11.06.2020
1535 Clouds 16 1011 62 10000 3.1 210 08:20 11.06.2020
1536 Clouds 15 1011 67 10000 3.1 200 07:42 11.06.2020
1537 Clouds 15 1011 62 10000 3.1 200 07:24 11.06.2020
1538 Clouds 16 1011 62 9000 3.6 210 06:40 11.06.2020
1539 Clouds 16 1011 59 9000 3.1 210 06:22 11.06.2020
1540 Clouds 16 1012 44 10000 3.6 230 05:29 11.06.2020
1541 Clouds 18 1013 44 8000 3.6 240 03:30 11.06.2020
1542 Clouds 18 1013 42 10000 4.1 250 02:52 11.06.2020
1543 Clouds 19 1013 42 10000 4.1 250 02:32 11.06.2020
1544 Clouds 19 1013 39 10000 3.1 240 01:47 11.06.2020
1545 Clouds 20 1013 37 9000 3.6 240 01:24 11.06.2020
1546 Clouds 20 1013 37 10000 3.1 240 00:49 11.06.2020
1547 Clouds 21 1013 32 10000 3.6 240 00:27 11.06.2020
1548 Clouds 22 1013 30 10000 3.6 250 23:46 10.06.2020
1549 Clouds 22 1013 30 10000 4.1 240 23:27 10.06.2020
1550 Clouds 22 1013 26 10000 4.1 240 22:56 10.06.2020
1551 Clouds 23 1013 26 10000 4.1 240 22:38 10.06.2020
1552 Clouds 23 1013 25 10000 5.1 240 22:19 10.06.2020
1553 Clouds 23 1013 27 10000 5.7 250 21:56 10.06.2020
1554 Clouds 24 1013 27 10000 5.7 250 21:38 10.06.2020
1555 Clouds 25 1013 26 10000 5.1 240 21:18 10.06.2020
1556 Clouds 25 1013 29 10000 5.1 250 20:56 10.06.2020
1557 Clouds 25 1013 29 10000 5.1 250 20:38 10.06.2020
1558 Clouds 25 1013 27 10000 3.1 220 20:20 10.06.2020
1559 Clouds 25 1014 27 10000 3.1 230 19:41 10.06.2020
1560 Clouds 25 1014 26 10000 4.1 220 19:20 10.06.2020
1561 Clouds 25 1014 24 10000 2.1 0 18:58 10.06.2020
1562 Clouds 25 1014 24 10000 2.1 0 18:40 10.06.2020
1563 Clouds 25 1014 26 10000 2.1 0 18:19 10.06.2020
1564 Clouds 25 1015 24 10000 3.1 0 17:55 10.06.2020
1565 Clouds 25 1015 24 10000 3.1 0 17:37 10.06.2020
1566 Clouds 25 1015 24 10000 2.1 240 17:19 10.06.2020
1567 Clouds 25 1015 25 10000 3.1 210 16:56 10.06.2020
1568 Clouds 25 1015 25 10000 3.1 210 16:38 10.06.2020
1569 Clouds 24 1016 27 10000 3.1 330 16:18 10.06.2020
1570 Clouds 24 1016 25 10000 2.1 0 15:40 10.06.2020
1571 Clouds 23 1017 29 10000 4.1 250 15:21 10.06.2020
1572 Clouds 23 1017 27 10000 2.6 0 14:56 10.06.2020
1573 Clouds 22 1017 27 10000 2.6 0 14:38 10.06.2020
1574 Clouds 22 1017 28 10000 2.1 0 14:19 10.06.2020
1575 Clouds 21 1018 33 10000 1 0 13:40 10.06.2020
1576 Clouds 21 1018 33 10000 1 0 13:40 10.06.2020
1577 Clouds 21 1018 33 10000 1.5 0 13:21 10.06.2020
1578 Clouds 20 1018 35 10000 1 0 12:44 10.06.2020
1579 Clouds 18 1019 39 10000 1 120 12:20 10.06.2020
1580 Clouds 18 1019 37 10000 1 10 11:58 10.06.2020
1581 Clouds 18 1019 37 10000 1 10 11:40 10.06.2020
1582 Clouds 17 1019 39 10000 1.5 0 11:19 10.06.2020
1583 Clouds 16 1019 48 10000 2.1 90 10:57 10.06.2020
1584 Clouds 17 1019 48 10000 2.1 90 10:39 10.06.2020
1585 Clouds 16 1019 45 10000 1.5 40 10:20 10.06.2020
1586 Clouds 15 1019 51 10000 2.1 0 09:41 10.06.2020
1587 Clouds 15 1019 51 10000 2.1 0 09:41 10.06.2020
1588 Clouds 15 1019 51 10000 2.1 0 09:41 10.06.2020
1589 Clouds 14 1019 54 10000 2.6 10 09:23 10.06.2020
1590 Clouds 13 1019 62 10000 2.1 360 08:44 10.06.2020
1591 Clouds 12 1019 66 10000 2.1 360 08:24 10.06.2020
1592 Clouds 12 1019 66 10000 2.1 360 07:58 10.06.2020
1593 Clouds 11 1019 66 10000 2.6 360 07:38 10.06.2020
1594 Clouds 11 1019 71 10000 2.6 360 07:20 10.06.2020
1595 Clouds 12 1019 62 7000 2.6 360 06:44 10.06.2020
1596 Clouds 12 1019 58 9000 2.6 350 06:22 10.06.2020
1597 Clouds 12 1019 66 10000 1 0 05:55 10.06.2020
1598 Clouds 12 1019 62 10000 0.5 60 05:25 10.06.2020
1599 Clouds 13 1019 58 10000 4.13 56 04:35 10.06.2020
1600 Clouds 14 1019 47 10000 2.6 50 02:56 10.06.2020
1601 Clouds 15 1019 47 10000 2.6 10 02:21 10.06.2020
1602 Clouds 15 1019 44 10000 1 0 01:36 10.06.2020
1603 Clouds 16 1019 41 10000 2.6 10 00:40 10.06.2020
1604 Clear 17 1019 36 10000 2.6 20 00:21 10.06.2020
1605 Clear 17 1019 36 10000 2.6 20 00:21 10.06.2020
1606 Clear 17 1018 36 10000 2.6 10 23:57 09.06.2020
1607 Clear 17 1018 36 10000 2.6 10 23:38 09.06.2020
1608 Clear 17 1018 36 10000 2.6 20 23:20 09.06.2020
1609 Clear 18 1018 34 10000 2.6 10 22:56 09.06.2020
1610 Clear 18 1018 34 10000 2.6 10 22:37 09.06.2020
1611 Clear 19 1017 32 10000 3.1 10 22:19 09.06.2020
1612 Clear 20 1017 30 10000 2.1 20 21:56 09.06.2020
1613 Clear 20 1017 30 10000 2.1 20 21:38 09.06.2020
1614 Clear 20 1017 28 10000 3.1 20 21:19 09.06.2020
1615 Clear 22 1017 25 10000 3.1 310 20:56 09.06.2020
1616 Clouds 22 1017 25 10000 3.1 310 20:38 09.06.2020
1617 Clouds 22 1017 23 10000 3.6 320 20:18 09.06.2020
1618 Clouds 22 1017 22 10000 3.6 340 19:56 09.06.2020
1619 Clouds 22 1017 22 10000 3.6 340 19:38 09.06.2020
1620 Clouds 22 1017 23 10000 2.6 290 19:20 09.06.2020
1621 Clouds 22 1017 25 10000 4.1 320 18:45 09.06.2020
1622 Clouds 22 1017 22 10000 4.1 290 18:26 09.06.2020
1623 Clouds 23 1017 22 10000 4.1 290 17:58 09.06.2020
1624 Clouds 22 1017 25 10000 4.6 0 17:40 09.06.2020
1625 Clouds 23 1017 22 10000 4.1 280 17:22 09.06.2020
1626 Clouds 22 1017 28 10000 4.1 360 16:58 09.06.2020
1627 Clouds 23 1017 28 10000 4.1 360 16:39 09.06.2020
1628 Clouds 22 1017 27 10000 4.1 350 16:20 09.06.2020
1629 Clouds 22 1018 28 10000 3.1 310 15:40 09.06.2020
1630 Clouds 22 1018 28 10000 3.1 280 15:22 09.06.2020
1631 Clouds 21 1018 35 10000 1.5 0 14:59 09.06.2020
1632 Clouds 21 1018 35 10000 1.5 0 14:39 09.06.2020
1633 Clouds 20 1019 33 10000 1 220 14:19 09.06.2020
1634 Clouds 20 1019 35 10000 2.6 0 13:55 09.06.2020
1635 Clouds 20 1019 35 10000 2.6 0 13:37 09.06.2020
1636 Clear 19 1019 35 10000 2.1 0 13:19 09.06.2020
1637 Clear 19 1019 37 10000 1 330 12:42 09.06.2020
1638 Clear 18 1020 39 10000 1 0 12:20 09.06.2020
1639 Clear 17 1020 42 10000 1 50 11:58 09.06.2020
1640 Clear 17 1020 42 10000 1 50 11:40 09.06.2020
1641 Clear 16 1020 45 10000 1 0 11:20 09.06.2020
1642 Clear 15 1020 54 10000 1.5 50 10:55 09.06.2020
1643 Clear 15 1020 54 10000 1.5 50 10:36 09.06.2020
1644 Clear 14 1020 51 10000 2.6 50 10:18 09.06.2020
1645 Clear 13 1020 54 10000 2.1 20 09:41 09.06.2020
1646 Clear 12 1019 62 10000 2.1 10 09:22 09.06.2020
1647 Clear 12 1019 58 10000 2.1 60 08:55 09.06.2020
1648 Clear 12 1019 58 10000 2.1 60 08:36 09.06.2020
1649 Clear 11 1019 58 10000 2.1 60 08:18 09.06.2020
1650 Clear 10 1019 66 10000 1.5 50 07:37 09.06.2020
1651 Clear 10 1019 70 10000 2.87 59 07:18 09.06.2020
1652 Clear 10 1019 76 10000 0.5 0 06:52 09.06.2020
1653 Clear 10 1019 62 10000 2.1 50 06:28 09.06.2020
1654 Clear 11 1019 66 10000 1 0 04:39 09.06.2020
1655 Clear 13 1019 62 10000 1.5 50 02:52 09.06.2020
1656 Clouds 14 1019 55 10000 3.1 40 01:40 09.06.2020
1657 Clouds 15 1018 51 10000 3.6 60 01:19 09.06.2020
1658 Clouds 16 1018 39 10000 3.6 40 00:44 09.06.2020
1659 Clouds 16 1018 42 10000 2.6 60 00:20 09.06.2020
1660 Clouds 17 1018 39 10000 1.5 40 23:54 08.06.2020
1661 Clouds 17 1018 39 10000 1.5 40 23:36 08.06.2020
1662 Clouds 17 1017 39 10000 3.1 360 23:18 08.06.2020
1663 Clouds 18 1017 34 10000 4.1 360 22:39 08.06.2020
1664 Clouds 18 1016 32 10000 4.6 360 22:20 08.06.2020
1665 Clouds 19 1016 32 10000 4.6 350 21:57 08.06.2020
1666 Clouds 19 1016 32 10000 4.6 350 21:38 08.06.2020
1667 Clouds 20 1016 30 10000 2.6 350 21:20 08.06.2020
1668 Clouds 20 1016 30 10000 2.6 350 20:55 08.06.2020
1669 Clouds 21 1015 30 10000 3.6 350 20:37 08.06.2020
1670 Clouds 21 1015 27 10000 3.1 350 20:19 08.06.2020
1671 Clouds 20 1015 28 10000 3.6 360 19:44 08.06.2020
1672 Clouds 21 1015 27 10000 3.6 350 19:22 08.06.2020
1673 Clouds 21 1015 26 10000 2.6 0 18:58 08.06.2020
1674 Clouds 21 1015 26 10000 2.6 0 18:39 08.06.2020
1675 Clouds 21 1015 28 10000 2.1 0 18:18 08.06.2020
1676 Clouds 22 1015 27 10000 1.5 0 17:54 08.06.2020
1677 Clouds 21 1015 25 10000 1.5 40 17:36 08.06.2020
1678 Clouds 21 1015 32 10000 2.6 40 17:18 08.06.2020
1679 Clouds 22 1015 28 10000 2.1 0 16:42 08.06.2020
1680 Clouds 21 1015 32 10000 0.75 136 16:22 08.06.2020
1681 Clouds 21 1015 33 10000 1.5 0 15:44 08.06.2020
1682 Clouds 20 1016 34 10000 2.1 0 15:22 08.06.2020
1683 Clouds 20 1016 34 10000 2.1 0 14:59 08.06.2020
1684 Clear 20 1016 30 10000 1 0 14:40 08.06.2020
1685 Clouds 20 1016 32 10000 1 290 14:20 08.06.2020
1686 Clouds 19 1016 32 10000 2.6 0 13:44 08.06.2020
1687 Clouds 19 1016 34 10000 2.1 60 13:25 08.06.2020
1688 Clouds 19 1016 34 10000 1.5 50 12:54 08.06.2020
1689 Clouds 18 1016 34 10000 1.5 50 12:36 08.06.2020
1690 Clouds 17 1016 39 10000 2.6 60 12:18 08.06.2020
1691 Clouds 16 1016 41 10000 3.6 360 11:41 08.06.2020
1692 Clouds 16 1016 44 10000 2.6 30 11:23 08.06.2020
1693 Clouds 15 1016 47 10000 1.5 0 10:59 08.06.2020
1694 Clouds 15 1016 47 10000 1.5 0 10:40 08.06.2020
1695 Clouds 13 1016 47 10000 3.1 10 10:21 08.06.2020
1696 Clouds 13 1016 47 10000 3.1 10 09:58 08.06.2020
1697 Clouds 13 1015 50 10000 2.6 50 09:58 08.06.2020
1698 Clouds 12 1015 50 10000 2.6 50 09:40 08.06.2020
1699 Clouds 12 1015 54 10000 2.6 60 09:22 08.06.2020
1700 Clouds 12 1015 54 10000 3.1 40 08:47 08.06.2020
1701 Clouds 12 1015 50 10000 3.1 30 08:23 08.06.2020
1702 Clouds 11 1014 58 10000 2.6 40 07:46 08.06.2020
1703 Clouds 11 1014 62 10000 3.1 30 07:24 08.06.2020
1704 Clouds 11 1014 66 10000 2.1 30 06:51 08.06.2020
1705 Clouds 11 1014 66 10000 2.1 30 06:33 08.06.2020
1706 Clouds 11 1014 71 10000 3.1 60 05:52 08.06.2020
1707 Clouds 12 1014 66 10000 4.1 60 04:29 08.06.2020
1708 Clouds 13 1014 71 10000 3.6 40 02:46 08.06.2020
1709 Clouds 13 1014 76 10000 2.1 50 02:21 08.06.2020
1710 Clouds 14 1014 67 10000 3.1 0 01:34 08.06.2020
1711 Clouds 15 1013 77 10000 2.1 60 00:33 08.06.2020
1712 Clouds 15 1013 77 10000 2.1 60 23:59 07.06.2020
1713 Clouds 16 1013 72 10000 3.6 90 23:37 07.06.2020
1714 Clouds 16 1012 72 10000 3.6 80 23:18 07.06.2020
1715 Clouds 18 1012 52 10000 4.1 60 22:40 07.06.2020
1716 Clouds 18 1012 55 10000 2.6 70 22:20 07.06.2020
1717 Clouds 19 1012 55 10000 2.6 70 21:59 07.06.2020
1718 Clouds 20 1011 46 10000 3.6 350 21:39 07.06.2020
1719 Rain 20 1010 40 10000 3.1 280 21:20 07.06.2020
1720 Rain 20 1010 40 10000 3.1 280 21:20 07.06.2020
1721 Rain 20 1010 43 10000 3.1 290 20:57 07.06.2020
1722 Rain 21 1010 43 10000 3.1 290 20:38 07.06.2020
1723 Rain 21 1010 49 10000 5.7 230 20:19 07.06.2020
1724 Rain 22 1010 46 10000 6.2 230 19:56 07.06.2020
1725 Rain 22 1010 46 10000 6.2 230 19:38 07.06.2020
1726 Rain 22 1009 60 10000 4.6 220 19:19 07.06.2020
1727 Clouds 22 1009 64 10000 5.7 240 18:55 07.06.2020
1728 Clouds 22 1009 64 10000 5.7 240 18:37 07.06.2020
1729 Rain 23 1009 46 10000 5.7 260 18:18 07.06.2020
1730 Clouds 25 1009 34 10000 6.2 270 17:55 07.06.2020
1731 Clouds 24 1009 34 10000 6.2 270 17:36 07.06.2020
1732 Clouds 25 1009 36 10000 7.2 240 17:18 07.06.2020
1733 Clouds 24 1009 38 10000 8.7 230 16:42 07.06.2020
1734 Clouds 23 1009 43 10000 5.7 240 16:21 07.06.2020
1735 Clouds 23 1009 43 10000 5.7 240 16:21 07.06.2020
1736 Clouds 24 1010 38 10000 6.2 230 15:40 07.06.2020
1737 Rain 22 1010 40 10000 3.1 220 15:20 07.06.2020
1738 Thunderstorm 23 1010 38 10000 5.1 220 14:40 07.06.2020
1739 Clouds 24 1010 41 10000 4.6 190 14:21 07.06.2020
1740 Clouds 23 1010 41 10000 4.1 210 13:47 07.06.2020
1741 Clouds 22 1010 43 10000 3.6 210 13:21 07.06.2020
1742 Clouds 22 1010 43 10000 3.1 230 12:55 07.06.2020
1743 Clouds 22 1010 43 10000 3.1 230 12:36 07.06.2020
1744 Clouds 21 1010 46 10000 3.1 240 12:18 07.06.2020
1745 Clouds 20 1010 49 10000 4.1 230 11:55 07.06.2020
1746 Clouds 20 1010 49 10000 4.1 230 11:36 07.06.2020
1747 Clouds 20 1010 49 10000 4.1 210 11:18 07.06.2020
1748 Clouds 19 1010 52 10000 3.6 220 10:42 07.06.2020
1749 Clouds 19 1010 52 10000 3.6 230 10:20 07.06.2020
1750 Clouds 18 1010 63 10000 2.6 250 09:57 07.06.2020
1751 Clouds 17 1010 63 10000 2.6 250 09:38 07.06.2020
1752 Clouds 17 1009 63 10000 2.6 250 09:20 07.06.2020
1753 Clouds 17 1009 67 10000 2.1 240 08:48 07.06.2020
1754 Clouds 17 1009 67 10000 2.1 240 08:24 07.06.2020
1755 Clouds 16 1009 72 10000 3.1 240 07:57 07.06.2020
1756 Clouds 15 1009 71 10000 2.6 230 07:30 07.06.2020
1757 Clouds 16 1009 67 10000 2.1 230 06:51 07.06.2020
1758 Clouds 16 1009 59 10000 2.6 250 05:50 07.06.2020
1759 Clouds 17 1008 54 9000 2.6 260 04:21 07.06.2020
1760 Clouds 19 1008 52 10000 1.5 350 02:57 07.06.2020
1761 Clouds 20 1008 39 10000 3.6 260 01:58 07.06.2020
1762 Clouds 20 1008 42 9000 3.1 280 01:25 07.06.2020
1763 Clouds 21 1009 37 9000 4.6 260 00:47 07.06.2020
1764 Clouds 21 1009 37 9000 4.6 260 00:20 07.06.2020
1765 Clouds 21 1008 35 10000 5.7 240 23:58 06.06.2020
1766 Clouds 21 1008 35 10000 5.7 240 23:37 06.06.2020
1767 Clouds 22 1008 37 9000 5.7 250 23:19 06.06.2020
1768 Clouds 22 1008 37 9000 5.7 250 22:56 06.06.2020
1769 Clouds 23 1008 37 10000 4.6 250 22:38 06.06.2020
1770 Clouds 23 1008 35 10000 6.7 240 22:19 06.06.2020
1771 Clouds 23 1008 35 10000 6.7 240 22:19 06.06.2020
1772 Clouds 24 1008 31 10000 7.2 240 21:46 06.06.2020
1773 Clear 25 1008 31 10000 7.7 240 21:22 06.06.2020
1774 Clear 25 1008 31 10000 7.7 240 20:58 06.06.2020
1775 Clear 25 1007 31 10000 8.7 240 20:39 06.06.2020
1776 Clear 26 1007 27 10000 8.2 230 20:18 06.06.2020
1777 Clear 26 1008 28 10000 8.2 230 19:57 06.06.2020
1778 Clear 26 1008 28 10000 8.2 230 19:38 06.06.2020
1779 Clear 26 1008 26 10000 8.7 240 19:20 06.06.2020
1780 Clear 27 1008 26 10000 7.2 210 18:43 06.06.2020
1781 Clouds 26 1008 30 10000 7.2 230 18:24 06.06.2020
1782 Clouds 26 1008 30 10000 7.2 230 17:58 06.06.2020
1783 Clouds 26 1009 31 10000 7.2 220 17:40 06.06.2020
1784 Clouds 26 1009 30 10000 6.7 220 17:19 06.06.2020
1785 Clouds 26 1009 30 10000 6.7 220 17:19 06.06.2020
1786 Clouds 26 1009 30 10000 7.2 200 16:48 06.06.2020
1787 Clouds 26 1009 28 10000 6.7 190 16:23 06.06.2020
1788 Clouds 26 1010 26 10000 6.7 210 15:58 06.06.2020
1789 Clouds 26 1010 26 10000 6.7 210 15:40 06.06.2020
1790 Clouds 25 1010 29 10000 7.2 210 15:20 06.06.2020
1791 Clouds 25 1011 31 10000 6.7 210 14:54 06.06.2020
1792 Clouds 25 1011 31 10000 6.7 210 14:36 06.06.2020
1793 Clouds 24 1011 33 10000 6.7 210 14:18 06.06.2020
1794 Clouds 24 1011 31 10000 5.1 220 13:41 06.06.2020
1795 Clouds 24 1011 36 10000 6.2 210 13:19 06.06.2020
1796 Clouds 24 1012 36 10000 6.2 230 12:55 06.06.2020
1797 Clouds 23 1012 36 10000 6.2 230 12:37 06.06.2020
1798 Clouds 23 1012 41 10000 7.2 230 12:18 06.06.2020
1799 Clouds 22 1012 43 10000 7.2 230 11:40 06.06.2020
1800 Clear 22 1012 49 10000 6.2 220 11:20 06.06.2020
1801 Clear 22 1012 49 10000 6.2 220 10:59 06.06.2020
1802 Clear 21 1012 49 10000 5.1 230 10:40 06.06.2020
1803 Clear 20 1013 56 10000 3.6 210 10:22 06.06.2020
1804 Clear 20 1013 60 10000 3.1 220 09:59 06.06.2020
1805 Clear 19 1013 60 10000 3.1 220 09:41 06.06.2020
1806 Clear 18 1012 59 10000 4.1 230 09:22 06.06.2020
1807 Clear 18 1012 68 10000 3.1 220 08:45 06.06.2020
1808 Clear 17 1012 67 10000 3.6 220 08:24 06.06.2020
1809 Clear 17 1012 67 10000 3.6 230 07:55 06.06.2020
1810 Clear 17 1012 67 10000 3.6 230 07:36 06.06.2020
1811 Clear 17 1012 67 10000 2.1 220 07:18 06.06.2020
1812 Clear 17 1012 67 10000 2.1 220 06:42 06.06.2020
1813 Clear 17 1012 63 10000 3.1 240 06:23 06.06.2020
1814 Clear 18 1012 55 10000 4.1 230 05:32 06.06.2020
1815 Clear 18 1012 63 9000 3.1 250 04:47 06.06.2020
1816 Clouds 19 1013 52 10000 4.1 250 03:28 06.06.2020
1817 Clear 20 1013 52 10000 4.1 230 01:58 06.06.2020
1818 Clear 21 1013 52 10000 3.6 230 01:21 06.06.2020
1819 Clear 21 1013 49 9000 4.1 230 00:56 06.06.2020
1820 Clear 22 1013 49 10000 3.6 240 00:37 06.06.2020
1821 Clear 22 1013 49 10000 3.6 240 00:19 06.06.2020
1822 Clear 22 1012 46 10000 3.6 250 23:39 05.06.2020
1823 Clear 23 1012 40 9000 4.1 240 23:19 05.06.2020
1824 Clear 24 1012 38 10000 4.1 230 22:56 05.06.2020
1825 Clear 24 1012 38 10000 4.1 230 22:37 05.06.2020
1826 Clear 25 1012 36 10000 4.1 230 22:19 05.06.2020
1827 Clear 25 1012 29 10000 4.6 230 21:42 05.06.2020
1828 Clear 26 1012 28 10000 4.6 220 21:22 05.06.2020
1829 Clear 27 1011 28 10000 3.6 220 20:58 05.06.2020
1830 Clear 27 1011 28 10000 3.6 220 20:39 05.06.2020
1831 Clear 27 1011 26 10000 4.6 210 20:21 05.06.2020
1832 Clear 27 1011 26 10000 4.1 210 19:43 05.06.2020
1833 Clear 27 1011 24 10000 5.1 200 19:24 05.06.2020
1834 Clear 27 1012 26 10000 4.6 190 18:57 05.06.2020
1835 Clear 27 1012 26 10000 4.6 190 18:39 05.06.2020
1836 Clear 27 1012 25 10000 3.1 0 18:20 05.06.2020
1837 Clear 27 1012 25 10000 3.1 0 17:58 05.06.2020
1838 Clear 26 1012 24 10000 3.1 0 17:39 05.06.2020
1839 Clear 26 1012 26 10000 2.6 0 17:19 05.06.2020
1840 Clear 26 1013 28 10000 2.1 190 16:39 05.06.2020
1841 Clear 26 1013 28 10000 2.6 0 16:21 05.06.2020
1842 Clear 25 1013 29 10000 3.1 0 15:57 05.06.2020
1843 Clear 25 1013 29 10000 3.1 0 15:37 05.06.2020
1844 Clear 25 1013 29 10000 2.1 0 15:19 05.06.2020
1845 Clear 24 1014 29 10000 2.1 0 14:55 05.06.2020
1846 Clear 24 1014 29 10000 2.1 0 14:37 05.06.2020
1847 Clear 23 1014 33 10000 2.1 150 14:19 05.06.2020
1848 Clear 22 1014 29 10000 3.6 270 13:42 05.06.2020
1849 Clear 22 1014 43 10000 1 80 13:23 05.06.2020
1850 Clear 21 1014 35 10000 3.6 250 12:43 05.06.2020
1851 Clear 20 1014 42 10000 2.1 110 12:20 05.06.2020
1852 Clear 20 1015 43 10000 1.5 150 11:57 05.06.2020
1853 Clear 19 1015 43 10000 1.5 150 11:39 05.06.2020
1854 Clear 18 1015 45 10000 2.1 0 11:20 05.06.2020
1855 Clear 18 1015 48 10000 1.5 0 10:55 05.06.2020
1856 Clear 18 1015 48 10000 1.5 0 10:36 05.06.2020
1857 Clear 17 1015 52 10000 2.1 110 10:18 05.06.2020
1858 Clear 17 1015 55 10000 2.1 0 09:55 05.06.2020
1859 Clear 16 1015 55 10000 2.1 0 09:36 05.06.2020
1860 Clear 15 1014 59 10000 2.1 110 09:18 05.06.2020
1861 Clear 15 1014 59 10000 2.1 110 09:18 05.06.2020
1862 Clear 15 1014 62 10000 2.1 120 08:41 05.06.2020
1863 Clear 14 1014 76 10000 1.5 130 08:20 05.06.2020
1864 Clear 13 1014 76 10000 1.5 130 07:58 05.06.2020
1865 Clear 13 1014 76 10000 1.5 140 07:39 05.06.2020
1866 Clear 13 1013 71 10000 1 120 07:19 05.06.2020
1867 Clear 13 1013 71 10000 1.27 101 05:58 05.06.2020
1868 Clear 14 1013 67 10000 1.62 74 05:19 05.06.2020
1869 Clear 14 1013 62 10000 2.6 10 03:54 05.06.2020
1870 Clear 15 1013 58 9000 1 0 02:53 05.06.2020
1871 Clear 15 1013 51 10000 2.1 330 02:21 05.06.2020
1872 Clear 16 1013 51 9000 1.5 330 01:52 05.06.2020
1873 Clear 17 1013 45 9000 1 0 01:20 05.06.2020
1874 Clear 17 1013 45 10000 3.1 320 00:41 05.06.2020
1875 Clear 18 1012 42 9000 3.1 310 00:20 05.06.2020
1876 Clear 18 1012 45 10000 2.6 290 23:46 04.06.2020
1877 Clouds 18 1011 42 10000 3.1 330 23:26 04.06.2020
1878 Clouds 19 1011 42 10000 2.1 310 22:55 04.06.2020
1879 Clouds 19 1011 42 10000 2.1 310 22:36 04.06.2020
1880 Clouds 19 1010 40 10000 4.6 310 22:18 04.06.2020
1881 Clouds 19 1010 40 10000 4.6 310 22:18 04.06.2020
1882 Clouds 20 1010 37 10000 4.6 290 21:55 04.06.2020
1883 Clear 20 1010 37 10000 4.6 290 21:36 04.06.2020
1884 Clear 21 1009 37 10000 6.2 310 21:18 04.06.2020
1885 Clouds 21 1009 37 10000 6.2 310 20:40 04.06.2020
1886 Clouds 22 1008 31 10000 7.2 300 20:21 04.06.2020
1887 Clouds 22 1008 33 10000 5.1 290 19:59 04.06.2020
1888 Clouds 22 1008 28 10000 5.1 300 19:38 04.06.2020
1889 Clouds 22 1008 28 10000 5.1 300 19:20 04.06.2020
1890 Clouds 23 1008 31 10000 7.2 290 18:54 04.06.2020
1891 Clouds 22 1008 31 10000 7.2 290 18:36 04.06.2020
1892 Clouds 23 1007 29 10000 7.2 300 18:18 04.06.2020
1893 Clouds 23 1007 28 10000 8.2 290 17:41 04.06.2020
1894 Clouds 23 1007 33 10000 7.7 280 17:21 04.06.2020
1895 Clouds 23 1007 31 10000 6.7 300 16:41 04.06.2020
1896 Clouds 22 1008 35 10000 6.7 320 16:21 04.06.2020
1897 Clouds 22 1008 31 10000 8.2 270 15:58 04.06.2020
1898 Clouds 22 1008 31 10000 8.2 270 15:40 04.06.2020
1899 Clouds 21 1008 33 10000 7.7 290 15:22 04.06.2020
1900 Clouds 21 1008 33 10000 7.7 290 15:22 04.06.2020
1901 Clouds 22 1008 33 10000 6.7 260 14:39 04.06.2020
1902 Clouds 21 1008 37 10000 6.2 280 14:20 04.06.2020
1903 Clouds 20 1008 45 10000 7.2 290 13:56 04.06.2020
1904 Clouds 20 1008 45 10000 7.2 290 13:37 04.06.2020
1905 Rain 19 1008 45 10000 6.7 290 13:19 04.06.2020
1906 Rain 19 1008 48 10000 4.6 310 12:54 04.06.2020
1907 Rain 19 1007 52 10000 8.2 280 12:36 04.06.2020
1908 Rain 19 1007 52 10000 8.2 280 12:18 04.06.2020
1909 Rain 18 1007 60 10000 7.7 260 11:39 04.06.2020
1910 Clouds 18 1007 77 10000 5.7 260 11:20 04.06.2020
1911 Rain 17 1007 87 10000 4.1 260 10:58 04.06.2020
1912 Rain 17 1007 87 10000 4.1 260 10:38 04.06.2020
1913 Rain 16 1007 93 10000 3.6 260 10:20 04.06.2020
1914 Rain 16 1006 100 10000 3.6 260 09:45 04.06.2020
1915 Rain 16 1006 93 10000 4.6 240 09:27 04.06.2020
1916 Rain 16 1006 82 10000 4.6 240 08:50 04.06.2020
1917 Rain 16 1006 82 10000 4.6 240 08:30 04.06.2020
1918 Clouds 16 1005 82 10000 4.1 230 07:59 04.06.2020
1919 Rain 16 1005 82 9000 4.6 230 07:30 04.06.2020
1920 Rain 17 1005 82 9000 4.6 220 06:45 04.06.2020
1921 Clouds 17 1005 82 9000 4.6 230 06:26 04.06.2020
1922 Rain 17 1006 82 10000 4.1 230 05:51 04.06.2020
1923 Rain 17 1006 82 10000 4.1 230 05:30 04.06.2020
1924 Clouds 19 1007 68 10000 4.1 260 03:31 04.06.2020
1925 Clouds 19 1008 68 10000 3.1 250 01:59 04.06.2020
1926 Clouds 19 1008 64 9000 4.1 260 01:20 04.06.2020
1927 Clouds 20 1008 60 10000 5.1 260 00:53 04.06.2020
1928 Rain 21 1008 60 10000 4.6 260 23:56 03.06.2020
1929 Rain 21 1008 60 10000 4.6 260 23:36 03.06.2020
1930 Rain 22 1008 46 10000 5.1 250 23:18 03.06.2020
1931 Rain 23 1007 43 10000 7.2 240 22:40 03.06.2020
1932 Clouds 24 1007 41 10000 7.2 250 22:19 03.06.2020
1933 Clouds 23 1007 41 10000 7.2 250 21:59 03.06.2020
1934 Clouds 23 1007 41 10000 7.2 250 21:59 03.06.2020
1935 Clouds 23 1007 41 10000 7.2 250 21:40 03.06.2020
1936 Clouds 25 1007 41 10000 7.2 240 21:21 03.06.2020
1937 Clouds 25 1007 41 10000 7.2 240 21:21 03.06.2020
1938 Clouds 26 1007 36 10000 8.7 230 20:58 03.06.2020
1939 Clouds 26 1007 36 10000 8.7 230 20:39 03.06.2020
1940 Clouds 26 1007 39 10000 8.7 250 20:20 03.06.2020
1941 Clouds 26 1007 36 10000 8.2 220 19:57 03.06.2020
1942 Clouds 26 1007 36 10000 8.2 220 19:37 03.06.2020
1943 Clouds 26 1007 36 10000 8.2 220 19:37 03.06.2020
1944 Clouds 27 1008 37 10000 7.7 230 19:19 03.06.2020
1945 Clouds 27 1008 37 10000 7.7 220 18:55 03.06.2020
1946 Clouds 27 1008 37 10000 7.7 220 18:37 03.06.2020
1947 Clouds 27 1008 36 10000 8.7 220 18:18 03.06.2020
1948 Clouds 27 1008 37 10000 8.7 210 17:42 03.06.2020
1949 Clouds 27 1008 37 10000 7.7 230 17:21 03.06.2020
1950 Clouds 27 1009 32 10000 6.7 250 16:56 03.06.2020
1951 Clouds 27 1009 32 10000 6.7 250 16:38 03.06.2020
1952 Clouds 27 1009 32 10000 6.7 250 16:38 03.06.2020
1953 Clouds 27 1009 32 10000 5.7 220 16:19 03.06.2020
1954 Clouds 26 1010 34 10000 7.2 210 15:41 03.06.2020
1955 Clouds 26 1010 34 10000 5.7 220 15:21 03.06.2020
1956 Clouds 26 1011 36 10000 4.6 230 14:59 03.06.2020
1957 Clouds 26 1011 36 10000 4.6 230 14:40 03.06.2020
1958 Clouds 26 1011 36 10000 4.1 210 14:21 03.06.2020
1959 Clouds 25 1011 41 10000 5.1 220 13:39 03.06.2020
1960 Clouds 25 1012 41 10000 4.6 220 13:20 03.06.2020
1961 Clouds 25 1012 41 10000 4.6 220 12:43 03.06.2020
1962 Clouds 24 1012 41 10000 4.6 230 12:22 03.06.2020
1963 Clouds 24 1012 44 10000 4.6 230 11:57 03.06.2020
1964 Clouds 24 1012 44 10000 4.6 230 11:39 03.06.2020
1965 Clouds 23 1012 49 10000 4.1 240 11:21 03.06.2020
1966 Clouds 22 1013 49 10000 2.6 220 10:42 03.06.2020
1967 Clouds 21 1013 53 10000 2.6 210 10:24 03.06.2020
1968 Clouds 20 1013 56 10000 1 0 09:45 03.06.2020
1969 Clouds 19 1013 63 10000 2.1 260 09:21 03.06.2020
1970 Clouds 18 1013 63 10000 2.1 260 08:59 03.06.2020
1971 Clouds 18 1013 63 10000 0.5 0 08:40 03.06.2020
1972 Clouds 18 1012 63 10000 3.26 227 08:19 03.06.2020
1973 Clouds 17 1012 67 10000 0.5 0 07:43 03.06.2020
1974 Clouds 17 1012 67 9000 3.06 229 07:20 03.06.2020
1975 Clouds 17 1012 72 9000 2.1 240 06:54 03.06.2020
1976 Clouds 17 1012 72 9000 2.1 240 06:32 03.06.2020
1977 Clouds 18 1012 67 9000 2.6 240 05:47 03.06.2020
1978 Clouds 19 1013 63 10000 1.5 240 04:57 03.06.2020
1979 Clouds 19 1013 63 10000 3.1 250 03:51 03.06.2020
1980 Clouds 20 1013 63 10000 3.1 260 03:20 03.06.2020
1981 Clouds 22 1013 40 10000 2.1 260 01:53 03.06.2020
1982 Clear 23 1014 38 10000 3.1 250 00:44 03.06.2020
1983 Clouds 23 1014 36 10000 3.1 250 00:25 03.06.2020
1984 Clouds 23 1014 49 10000 3.1 270 23:52 02.06.2020
1985 Clear 24 1014 46 10000 3.6 260 23:28 02.06.2020
1986 Clear 24 1014 46 10000 3.6 260 23:28 02.06.2020
1987 Clear 25 1014 35 10000 3.6 240 22:58 02.06.2020
1988 Clear 25 1014 35 10000 3.6 240 22:39 02.06.2020
1989 Clear 26 1013 29 10000 4.1 240 22:19 02.06.2020
1990 Clear 26 1013 29 10000 4.1 240 22:19 02.06.2020
1991 Clear 26 1013 28 10000 5.1 240 21:56 02.06.2020
1992 Clear 27 1013 28 10000 5.1 240 21:38 02.06.2020
1993 Clear 27 1013 24 10000 5.7 230 21:19 02.06.2020
1994 Clouds 28 1013 28 10000 5.1 240 20:58 02.06.2020
1995 Clouds 28 1013 28 10000 5.1 240 20:39 02.06.2020
1996 Clouds 29 1013 23 10000 3.6 250 20:20 02.06.2020
1997 Clouds 29 1013 22 10000 4.1 240 19:43 02.06.2020
1998 Clouds 29 1013 20 10000 4.6 250 19:25 02.06.2020
1999 Clouds 30 1014 22 10000 2.6 0 18:58 02.06.2020
2000 Clouds 29 1014 22 10000 2.6 0 18:39 02.06.2020
2001 Clouds 29 1014 23 10000 2.6 190 18:20 02.06.2020
2002 Clouds 29 1014 27 10000 1 130 17:55 02.06.2020
2003 Clouds 29 1014 27 10000 1 130 17:37 02.06.2020
2004 Clouds 29 1015 32 10000 3.6 210 17:18 02.06.2020
2005 Clouds 29 1015 30 10000 2.6 190 16:41 02.06.2020
2006 Clouds 28 1015 30 10000 2.6 0 16:21 02.06.2020
2007 Clouds 28 1016 30 10000 3.1 180 15:59 02.06.2020
2008 Clouds 27 1016 30 10000 3.1 180 15:40 02.06.2020
2009 Clouds 27 1016 36 10000 2.6 150 15:20 02.06.2020
2010 Clouds 27 1016 39 10000 2.1 0 14:46 02.06.2020
2011 Clouds 27 1016 39 10000 2.1 0 14:27 02.06.2020
2012 Clouds 26 1017 41 10000 2.6 180 13:55 02.06.2020
2013 Clouds 25 1017 41 10000 2.6 180 13:36 02.06.2020
2014 Clouds 25 1017 47 10000 1.5 340 13:18 02.06.2020
2015 Clouds 25 1017 47 10000 2.1 0 12:54 02.06.2020
2016 Clouds 24 1017 47 10000 2.1 0 12:36 02.06.2020
2017 Clouds 25 1017 47 10000 2.1 0 12:36 02.06.2020
2018 Clouds 24 1017 44 10000 1.5 80 12:18 02.06.2020
2019 Clouds 23 1017 50 10000 1.5 0 11:40 02.06.2020
2020 Clouds 22 1017 56 10000 2.1 100 11:21 02.06.2020
2021 Clouds 22 1017 56 10000 1.5 0 10:55 02.06.2020
2022 Clouds 22 1017 56 10000 1.5 0 10:37 02.06.2020
2023 Clouds 21 1017 60 10000 1.5 0 10:18 02.06.2020
2024 Clouds 20 1017 64 10000 2.1 90 09:42 02.06.2020
2025 Clouds 19 1017 64 10000 1.5 90 09:21 02.06.2020
2026 Clouds 19 1016 64 10000 1 0 08:53 02.06.2020
2027 Clouds 19 1016 64 10000 1 0 08:28 02.06.2020
2028 Clouds 18 1016 72 10000 2.1 80 07:55 02.06.2020
2029 Clouds 18 1016 72 8000 1.5 80 07:32 02.06.2020
2030 Clouds 18 1016 72 10000 1 0 06:58 02.06.2020
2031 Clouds 18 1016 72 10000 1 0 06:36 02.06.2020
2032 Clouds 19 1015 63 10000 0.5 0 05:37 02.06.2020
2033 Clouds 20 1016 68 10000 1 0 04:20 02.06.2020
2034 Clouds 22 1016 52 10000 0.63 351 02:37 02.06.2020
2035 Clouds 22 1016 56 10000 0.49 304 01:48 02.06.2020
2036 Clouds 23 1016 46 10000 1 0 00:40 02.06.2020
2037 Clouds 24 1016 44 10000 1.5 320 00:20 02.06.2020
2038 Clouds 24 1016 44 10000 1.5 310 23:39 01.06.2020
2039 Clouds 24 1016 44 10000 2.1 310 23:19 01.06.2020
2040 Clouds 25 1015 44 10000 2.1 310 22:56 01.06.2020
2041 Clouds 25 1015 44 10000 2.1 310 22:38 01.06.2020
2042 Clouds 25 1015 41 10000 2.6 290 22:18 01.06.2020
2043 Clouds 26 1015 39 10000 3.1 290 21:42 01.06.2020
2044 Clouds 26 1015 36 10000 3.1 270 21:21 01.06.2020
2045 Clouds 27 1015 36 10000 3.1 280 20:59 01.06.2020
2046 Clouds 27 1015 36 10000 3.1 280 20:41 01.06.2020
2047 Clouds 27 1015 32 10000 3.6 220 20:20 01.06.2020
2048 Clouds 27 1015 32 10000 3.6 220 19:58 01.06.2020
2049 Clouds 28 1015 32 10000 3.6 220 19:39 01.06.2020
2050 Clouds 28 1015 30 10000 3.6 220 19:20 01.06.2020
2051 Clouds 28 1015 30 10000 1 220 18:57 01.06.2020
2052 Clouds 28 1015 30 10000 1 220 18:38 01.06.2020
2053 Clouds 28 1015 27 10000 2.6 0 18:19 01.06.2020
2054 Clouds 28 1015 32 10000 3.1 230 17:41 01.06.2020
2055 Clouds 27 1015 34 10000 2.1 0 17:21 01.06.2020
2056 Clouds 27 1015 34 10000 2.1 0 16:58 01.06.2020
2057 Clouds 27 1016 36 10000 2.6 0 16:39 01.06.2020
2058 Clouds 27 1016 36 10000 1.5 140 16:18 01.06.2020
2059 Clouds 27 1016 34 10000 2.1 0 15:54 01.06.2020
2060 Clouds 27 1016 34 10000 2.1 0 15:36 01.06.2020
2061 Clouds 26 1016 37 10000 1.5 80 15:18 01.06.2020
2062 Clouds 26 1016 37 10000 1.5 170 14:41 01.06.2020
2063 Clouds 26 1016 39 10000 1.5 190 14:23 01.06.2020
2064 Clouds 25 1016 39 10000 1.5 190 13:58 01.06.2020
2065 Clouds 25 1017 39 10000 2.1 0 13:39 01.06.2020
2066 Clouds 24 1016 53 10000 1 290 13:20 01.06.2020
2067 Clouds 24 1016 53 10000 1 290 12:57 01.06.2020
2068 Clouds 23 1017 50 10000 1 0 12:39 01.06.2020
2069 Clouds 23 1016 56 10000 1.5 180 12:20 01.06.2020
2070 Clouds 22 1017 53 10000 1 0 11:41 01.06.2020
2071 Clouds 22 1017 53 10000 1 0 11:23 01.06.2020
2072 Clouds 21 1017 56 10000 1 0 10:59 01.06.2020
2073 Clouds 21 1017 60 10000 2.1 240 10:39 01.06.2020
2074 Clear 21 1017 60 10000 2.1 240 10:20 01.06.2020
2075 Clear 19 1016 82 10000 1 0 09:56 01.06.2020
2076 Clear 19 1016 60 10000 1.22 82 09:38 01.06.2020
2077 Clear 19 1016 60 10000 1.75 73 09:19 01.06.2020
2078 Clear 17 1016 88 10000 1 0 08:46 01.06.2020
2079 Clouds 17 1016 82 10000 0.5 0 08:25 01.06.2020
2080 Clouds 16 1016 87 10000 1 0 07:45 01.06.2020
2081 Clouds 16 1016 87 10000 1 0 07:27 01.06.2020
2082 Clouds 16 1015 87 10000 1 0 06:57 01.06.2020
2083 Clouds 16 1015 93 10000 1.5 340 06:24 01.06.2020
2084 Clouds 16 1015 93 10000 1 360 05:53 01.06.2020
2085 Clouds 17 1015 88 10000 2.1 360 04:25 01.06.2020
2086 Clouds 17 1015 93 10000 1.5 10 03:47 01.06.2020
2087 Clouds 17 1016 88 10000 3.1 80 03:24 01.06.2020
2088 Rain 17 1016 88 10000 3.1 80 02:19 01.06.2020
2089 Clouds 17 1017 93 10000 0.5 0 01:34 01.06.2020
2090 Rain 17 1017 77 10000 4.1 100 00:58 01.06.2020
2091 Clouds 17 1016 88 10000 1 0 00:39 01.06.2020
2092 Rain 18 1016 68 10000 2.1 70 00:21 01.06.2020
2093 Rain 18 1016 68 10000 2.1 70 00:21 01.06.2020
2094 Rain 18 1016 68 10000 1.5 20 23:56 31.05.2020
2095 Rain 19 1016 72 10000 1.5 20 23:38 31.05.2020
2096 Rain 18 1016 72 10000 1.5 20 23:20 31.05.2020
2097 Rain 19 1015 64 10000 2.6 0 22:44 31.05.2020
2098 Rain 19 1015 72 10000 5.7 90 22:44 31.05.2020
2099 Thunderstorm 19 1015 72 10000 5.7 90 22:26 31.05.2020
2100 Rain 18 1013 82 10000 3.1 340 21:59 31.05.2020
2101 Rain 18 1012 82 10000 5.1 350 21:41 31.05.2020
2102 Rain 19 1012 82 10000 5.1 350 21:23 31.05.2020
2103 Rain 19 1011 72 10000 4.1 350 20:57 31.05.2020
2104 Thunderstorm 19 1012 77 10000 4.6 350 20:38 31.05.2020
2105 Thunderstorm 21 1013 72 10000 2.6 60 20:19 31.05.2020
2106 Thunderstorm 21 1013 72 10000 2.6 60 19:55 31.05.2020
2107 Thunderstorm 25 1012 64 10000 6.7 170 19:36 31.05.2020
2108 Thunderstorm 25 1012 64 10000 6.7 170 19:18 31.05.2020
2109 Rain 27 1011 36 10000 2.6 30 18:43 31.05.2020
2110 Thunderstorm 28 1011 36 10000 2.6 30 18:25 31.05.2020
2111 Thunderstorm 29 1011 34 10000 4.1 320 17:46 31.05.2020
2112 Thunderstorm 29 1011 34 10000 4.1 320 17:25 31.05.2020
2113 Clouds 29 1011 28 10000 5.7 320 16:59 31.05.2020
2114 Clouds 29 1011 27 10000 2.1 0 16:40 31.05.2020
2115 Clouds 29 1011 27 10000 2.1 0 16:21 31.05.2020
2116 Clouds 29 1012 30 10000 1.5 0 15:40 31.05.2020
2117 Clouds 28 1012 27 10000 1.5 0 15:21 31.05.2020
2118 Clouds 27 1013 30 10000 2.1 0 14:47 31.05.2020
2119 Clouds 27 1013 30 10000 2.1 0 14:22 31.05.2020
2120 Clouds 26 1013 32 10000 1.5 40 13:57 31.05.2020
2121 Clouds 25 1013 36 10000 2.1 80 13:38 31.05.2020
2122 Clouds 25 1013 36 10000 2.1 80 13:20 31.05.2020
2123 Rain 24 1014 38 10000 2.1 80 12:58 31.05.2020
2124 Rain 24 1014 44 10000 1.5 80 12:38 31.05.2020
2125 Clouds 23 1014 44 10000 1.5 80 12:19 31.05.2020
2126 Clouds 23 1014 41 10000 2.1 120 11:49 31.05.2020
2127 Clouds 23 1014 46 10000 2.1 90 11:24 31.05.2020
2128 Clouds 22 1014 40 10000 2.1 70 10:57 31.05.2020
2129 Clouds 22 1014 40 10000 3.1 110 10:39 31.05.2020
2130 Clouds 22 1014 40 10000 3.1 110 10:20 31.05.2020
2131 Clouds 21 1013 46 10000 3.6 100 09:42 31.05.2020
2132 Clouds 20 1013 46 10000 3.6 100 09:23 31.05.2020
2133 Clouds 20 1013 46 10000 3.1 90 08:59 31.05.2020
2134 Clouds 20 1013 49 10000 3.1 80 08:40 31.05.2020
2135 Clouds 19 1013 49 10000 3.1 80 08:21 31.05.2020
2136 Clouds 20 1013 49 10000 1.5 60 07:46 31.05.2020
2137 Clouds 19 1013 49 10000 1.5 60 07:21 31.05.2020
2138 Clouds 19 1013 49 10000 2.1 70 06:54 31.05.2020
2139 Clouds 20 1013 49 10000 2.1 60 06:32 31.05.2020
2140 Clouds 20 1012 46 10000 2.1 70 05:45 31.05.2020
2141 Clouds 21 1013 43 10000 1.5 70 04:33 31.05.2020
2142 Clouds 21 1013 43 10000 3.1 90 03:56 31.05.2020
2143 Clouds 23 1013 38 10000 2.6 80 02:59 31.05.2020
2144 Clouds 24 1013 43 10000 1 0 01:51 31.05.2020
2145 Clouds 24 1013 43 10000 1 0 01:30 31.05.2020
2146 Clouds 25 1013 38 10000 1.5 330 00:33 31.05.2020
2147 Clouds 25 1012 38 10000 3.1 350 23:59 30.05.2020
2148 Clouds 26 1012 34 10000 3.6 310 23:41 30.05.2020
2149 Clouds 26 1012 34 10000 3.6 310 23:23 30.05.2020
2150 Clouds 26 1012 34 10000 3.6 310 22:42 30.05.2020
2151 Clouds 27 1012 34 10000 3.6 310 22:23 30.05.2020
2152 Clouds 27 1012 34 10000 5.1 300 21:58 30.05.2020
2153 Clouds 28 1012 24 10000 1 0 21:39 30.05.2020
2154 Clouds 29 1012 23 10000 1.5 260 21:20 30.05.2020
2155 Clouds 29 1012 23 10000 1.5 260 20:57 30.05.2020
2156 Clouds 30 1011 20 10000 1.5 210 20:39 30.05.2020
2157 Clouds 30 1011 20 10000 1.5 210 20:20 30.05.2020
2158 Clouds 31 1012 19 10000 1.5 0 19:43 30.05.2020
2159 Clouds 31 1012 19 10000 2.1 240 19:22 30.05.2020
2160 Clouds 31 1012 19 10000 2.1 240 18:56 30.05.2020
2161 Clouds 32 1012 21 10000 2.6 190 18:38 30.05.2020
2162 Clouds 32 1012 21 10000 2.6 190 18:18 30.05.2020
2163 Clouds 31 1012 21 10000 1.5 0 17:39 30.05.2020
2164 Clouds 31 1013 21 10000 2.1 0 17:20 30.05.2020
2165 Clouds 31 1013 24 10000 3.6 180 16:44 30.05.2020
2166 Clear 30 1013 24 10000 3.6 180 16:23 30.05.2020
2167 Clear 30 1014 23 10000 1.5 190 15:58 30.05.2020
2168 Clear 29 1014 25 10000 2.1 0 15:39 30.05.2020
2169 Clouds 29 1014 25 10000 2.1 0 15:21 30.05.2020
2170 Clouds 28 1015 28 10000 2.6 120 14:42 30.05.2020
2171 Clear 28 1015 28 10000 2.6 120 14:22 30.05.2020
2172 Clear 27 1015 32 10000 1.5 0 13:42 30.05.2020
2173 Clear 26 1015 32 10000 1.5 0 13:20 30.05.2020
2174 Clear 25 1016 33 10000 2.1 0 12:42 30.05.2020
2175 Clear 24 1016 33 10000 2.1 0 12:20 30.05.2020
2176 Clear 24 1016 36 10000 2.6 90 11:56 30.05.2020
2177 Clear 23 1016 38 10000 2.1 0 11:38 30.05.2020
2178 Clear 23 1016 38 10000 2.1 0 11:20 30.05.2020
2179 Clear 22 1016 43 10000 2.6 100 10:39 30.05.2020
2180 Clear 22 1016 43 10000 2.6 100 10:21 30.05.2020
2181 Clear 21 1016 46 10000 2.1 0 09:48 30.05.2020
2182 Clear 20 1016 46 10000 2.1 0 09:30 30.05.2020
2183 Clear 20 1016 43 10000 2.1 60 08:47 30.05.2020
2184 Clear 19 1016 45 10000 2.1 60 08:28 30.05.2020
2185 Clear 19 1016 52 10000 1.5 60 07:44 30.05.2020
2186 Clear 18 1016 52 10000 1.5 60 07:23 30.05.2020
2187 Clear 18 1015 48 10000 1.5 60 06:39 30.05.2020
2188 Clear 19 1015 48 10000 1.5 60 06:20 30.05.2020
2189 Clear 19 1015 48 10000 1.5 80 05:49 30.05.2020
2190 Clear 21 1015 52 9000 1 0 03:39 30.05.2020
2191 Clouds 22 1014 43 10000 2.1 360 02:30 30.05.2020
2192 Clouds 23 1015 40 10000 2.1 270 01:48 30.05.2020
2193 Clouds 24 1015 43 10000 1 250 00:38 30.05.2020
2194 Clouds 24 1015 43 10000 1 250 00:19 30.05.2020
2195 Clouds 25 1014 35 10000 1.46 310 23:57 29.05.2020
2196 Clouds 25 1014 38 10000 0.5 0 23:37 29.05.2020
2197 Clouds 25 1014 38 10000 0.5 0 23:18 29.05.2020
2198 Clouds 26 1014 33 10000 1.5 150 22:40 29.05.2020
2199 Clouds 27 1014 33 10000 1.5 150 22:19 29.05.2020
2200 Clouds 27 1014 27 10000 2.1 130 21:58 29.05.2020
2201 Clouds 28 1013 28 10000 2.6 110 21:38 29.05.2020
2202 Clouds 29 1014 25 10000 1.5 110 21:20 29.05.2020
2203 Clouds 29 1014 25 10000 1 0 20:45 29.05.2020
2204 Clouds 30 1014 25 10000 1 0 20:21 29.05.2020
2205 Clouds 30 1014 22 10000 2.6 130 19:59 29.05.2020
2206 Clouds 30 1014 21 10000 0.5 340 19:40 29.05.2020
2207 Clouds 30 1014 21 10000 0.5 340 19:22 29.05.2020
2208 Clouds 31 1014 21 10000 1 0 18:47 29.05.2020
2209 Clouds 30 1014 22 10000 2.1 100 18:20 29.05.2020
2210 Clouds 30 1015 22 10000 1.5 0 17:56 29.05.2020
2211 Clouds 30 1015 22 10000 2.1 210 17:38 29.05.2020
2212 Clouds 30 1015 22 10000 2.1 210 17:19 29.05.2020
2213 Clear 29 1015 23 10000 2.1 70 16:44 29.05.2020
2214 Clear 29 1015 23 10000 2.1 70 16:25 29.05.2020
2215 Clear 29 1016 22 10000 1.5 0 15:57 29.05.2020
2216 Clear 28 1016 25 10000 2.1 150 15:38 29.05.2020
2217 Clear 28 1016 25 10000 2.1 150 15:19 29.05.2020
2218 Clear 28 1017 26 10000 1.5 130 14:50 29.05.2020
2219 Clear 27 1017 28 10000 1.5 210 14:23 29.05.2020
2220 Clear 26 1018 34 10000 1 0 13:58 29.05.2020
2221 Clear 26 1018 34 10000 1 0 13:58 29.05.2020
2222 Clear 26 1018 32 10000 1.5 110 13:39 29.05.2020
2223 Clear 25 1019 32 10000 1.5 0 13:18 29.05.2020
2224 Clear 25 1019 33 10000 1.5 80 12:43 29.05.2020
2225 Clear 24 1019 38 10000 1.5 230 12:24 29.05.2020
2226 Clear 23 1020 36 10000 2.1 100 11:46 29.05.2020
2227 Clear 23 1020 36 10000 2.1 100 11:46 29.05.2020
2228 Clear 22 1020 36 10000 2.1 100 11:27 29.05.2020
2229 Clear 23 1020 36 10000 2.1 100 11:27 29.05.2020
2230 Clear 22 1020 35 10000 2.1 0 10:58 29.05.2020
2231 Clear 21 1020 40 10000 2.1 80 10:38 29.05.2020
2232 Clear 21 1020 40 10000 2.1 80 10:20 29.05.2020
2233 Clear 20 1020 40 10000 2.1 100 09:45 29.05.2020
2234 Clear 19 1020 40 10000 2.1 100 09:21 29.05.2020
2235 Clear 19 1020 42 10000 2.1 80 08:57 29.05.2020
2236 Clear 18 1020 45 10000 1.5 90 08:39 29.05.2020
2237 Clear 18 1020 52 10000 1.5 50 08:20 29.05.2020
2238 Clear 17 1020 55 10000 1.5 60 07:44 29.05.2020
2239 Clear 17 1020 55 10000 1.5 60 07:26 29.05.2020
2240 Clear 17 1020 55 10000 2.1 60 06:49 29.05.2020
2241 Clear 17 1020 55 10000 1 0 06:28 29.05.2020
2242 Clear 18 1021 52 10000 1.5 60 05:53 29.05.2020
2243 Clear 19 1021 59 10000 2.1 80 03:44 29.05.2020
2244 Clear 21 1021 49 10000 3.1 120 01:46 29.05.2020
2245 Clear 21 1021 49 10000 3.1 120 01:23 29.05.2020
2246 Clear 22 1021 49 10000 3.1 120 00:47 29.05.2020
2247 Clear 22 1021 49 10000 3.1 120 00:22 29.05.2020
2248 Clear 23 1021 43 10000 2.6 120 23:40 28.05.2020
2249 Clear 23 1021 43 10000 2.6 120 23:19 28.05.2020
2250 Clear 24 1020 38 10000 1.5 130 22:45 28.05.2020
2251 Clear 24 1020 38 10000 1.5 130 22:45 28.05.2020
2252 Clear 24 1020 36 10000 3.1 130 22:27 28.05.2020
2253 Clear 25 1020 31 10000 3.6 150 21:59 28.05.2020
2254 Clear 26 1020 29 10000 3.1 150 21:40 28.05.2020
2255 Clear 26 1020 29 10000 3.1 150 21:21 28.05.2020
2256 Clear 27 1020 30 10000 4.1 160 20:58 28.05.2020
2257 Clear 27 1020 28 10000 3.6 150 20:40 28.05.2020
2258 Clear 28 1020 28 10000 3.6 150 20:19 28.05.2020
2259 Clear 28 1020 24 10000 3.1 110 19:57 28.05.2020
2260 Clear 28 1020 25 10000 1.5 0 19:39 28.05.2020
2261 Clear 28 1020 25 10000 1.5 0 19:20 28.05.2020
2262 Clear 28 1021 22 10000 1 140 18:46 28.05.2020
2263 Clear 28 1021 22 10000 1 140 18:27 28.05.2020
2264 Clear 28 1021 22 10000 1 60 17:59 28.05.2020
2265 Clear 28 1021 25 10000 2.6 140 17:39 28.05.2020
2266 Clear 28 1021 25 10000 2.6 140 17:20 28.05.2020
2267 Clear 28 1022 26 10000 2.1 110 16:46 28.05.2020
2268 Clear 28 1022 26 10000 3.1 0 16:21 28.05.2020
2269 Clear 27 1022 24 10000 2.1 0 15:55 28.05.2020
2270 Clear 26 1023 28 10000 3.1 70 15:36 28.05.2020
2271 Clear 26 1023 28 10000 3.1 70 15:18 28.05.2020
2272 Clear 26 1023 31 10000 2.6 40 14:42 28.05.2020
2273 Clear 25 1023 31 10000 2.6 40 14:22 28.05.2020
2274 Clear 25 1024 33 10000 3.1 70 13:46 28.05.2020
2275 Clear 24 1024 33 10000 3.1 70 13:27 28.05.2020
2276 Clear 23 1025 40 10000 2.6 0 12:44 28.05.2020
2277 Clear 23 1025 40 10000 2.6 0 12:20 28.05.2020
2278 Clear 22 1025 35 10000 3.6 90 11:57 28.05.2020
2279 Clear 22 1025 40 10000 3.1 90 11:39 28.05.2020
2280 Clear 22 1025 40 10000 3.1 90 11:20 28.05.2020
2281 Clear 21 1025 37 10000 3.6 80 10:46 28.05.2020
2282 Clear 21 1026 40 10000 2.1 0 10:28 28.05.2020
2283 Clear 20 1026 40 10000 2.1 60 09:57 28.05.2020
2284 Clear 19 1026 42 10000 3.6 50 09:38 28.05.2020
2285 Clear 19 1026 42 10000 3.6 50 09:18 28.05.2020
2286 Clear 18 1026 48 10000 1.5 60 08:44 28.05.2020
2287 Clear 18 1026 48 10000 1.5 60 08:24 28.05.2020
2288 Clear 17 1026 55 10000 2.1 90 07:43 28.05.2020
2289 Clear 17 1026 55 10000 2.1 90 07:23 28.05.2020
2290 Clear 18 1026 51 10000 3.6 90 06:45 28.05.2020
2291 Clear 18 1026 51 10000 3.6 90 06:27 28.05.2020
2292 Clear 18 1026 55 10000 3.6 90 05:39 28.05.2020
2293 Clear 18 1026 63 10000 2.1 100 04:39 28.05.2020
2294 Clear 18 1026 59 10000 2.6 100 04:20 28.05.2020
2295 Clear 19 1025 55 10000 1 0 02:59 28.05.2020
2296 Clear 20 1026 55 10000 2.1 140 02:38 28.05.2020
2297 Clear 21 1026 46 10000 4.1 110 01:45 28.05.2020
2298 Clear 21 1026 46 10000 5.1 120 00:50 28.05.2020
2299 Clear 22 1025 43 10000 5.1 130 00:21 28.05.2020
2300 Clear 22 1025 40 10000 4.1 120 23:56 27.05.2020
2301 Clear 23 1025 43 10000 3.6 120 23:38 27.05.2020
2302 Clear 23 1025 43 10000 3.6 120 23:19 27.05.2020
2303 Clear 24 1024 38 10000 4.6 130 22:42 27.05.2020
2304 Clear 24 1024 38 10000 4.6 130 22:23 27.05.2020
2305 Clear 25 1023 38 10000 5.1 130 21:57 27.05.2020
2306 Clear 25 1023 36 10000 5.1 130 21:39 27.05.2020
2307 Clear 26 1023 36 10000 5.1 130 21:20 27.05.2020
2308 Clear 27 1023 32 10000 6.7 130 20:58 27.05.2020
2309 Clear 27 1023 30 10000 5.7 130 20:39 27.05.2020
2310 Clear 28 1023 30 10000 5.7 130 20:20 27.05.2020
2311 Clear 28 1023 30 10000 4.6 110 19:46 27.05.2020
2312 Clear 28 1023 30 10000 4.6 110 19:21 27.05.2020
2313 Clouds 29 1023 27 10000 2.6 0 18:56 27.05.2020
2314 Clouds 29 1023 27 10000 3.6 120 18:37 27.05.2020
2315 Clouds 29 1023 26 10000 4.1 0 18:18 27.05.2020
2316 Clouds 29 1023 28 10000 3.6 0 17:42 27.05.2020
2317 Clouds 29 1023 28 10000 3.6 0 17:24 27.05.2020
2318 Clouds 29 1024 26 10000 3.6 90 16:56 27.05.2020
2319 Clear 28 1024 26 10000 3.6 0 16:38 27.05.2020
2320 Clear 29 1024 26 10000 3.6 0 16:20 27.05.2020
2321 Clear 28 1024 28 10000 4.1 90 15:49 27.05.2020
2322 Clear 27 1025 30 10000 2.6 0 15:23 27.05.2020
2323 Clear 27 1025 30 10000 4.1 0 14:57 27.05.2020
2324 Clear 27 1025 30 10000 4.1 0 14:39 27.05.2020
2325 Clear 26 1026 32 10000 2.6 70 14:20 27.05.2020
2326 Clear 25 1026 34 10000 4.1 90 13:42 27.05.2020
2327 Clear 25 1026 34 10000 4.1 90 13:23 27.05.2020
2328 Clear 25 1026 38 10000 3.6 80 12:43 27.05.2020
2329 Clear 24 1027 36 10000 4.6 90 12:24 27.05.2020
2330 Clear 24 1027 36 10000 4.6 90 11:59 27.05.2020
2331 Clear 23 1027 38 10000 3.1 80 11:37 27.05.2020
2332 Clear 23 1027 38 10000 3.1 70 11:19 27.05.2020
2333 Clear 22 1027 38 10000 3.1 70 10:55 27.05.2020
2334 Clear 22 1027 40 10000 4.1 80 10:36 27.05.2020
2335 Clear 21 1027 46 10000 4.1 90 10:18 27.05.2020
2336 Clear 20 1027 46 10000 3.1 80 09:40 27.05.2020
2337 Clear 20 1027 46 10000 3.1 80 09:21 27.05.2020
2338 Clear 19 1026 72 10000 1 0 08:43 27.05.2020
2339 Clear 19 1026 72 10000 1 0 08:25 27.05.2020
2340 Clear 18 1026 82 10000 1 0 07:57 27.05.2020
2341 Clear 17 1026 82 10000 1.5 10 07:38 27.05.2020
2342 Clear 17 1026 82 10000 1.5 10 07:20 27.05.2020
2343 Clear 17 1026 77 10000 1 0 06:41 27.05.2020
2344 Clear 17 1026 82 10000 1 0 06:19 27.05.2020
2345 Clear 17 1025 72 10000 1 0 05:47 27.05.2020
2346 Clear 18 1026 68 10000 1 0 04:19 27.05.2020
2347 Clouds 19 1026 56 10000 2.6 70 02:30 27.05.2020
2348 Clouds 19 1026 77 10000 1 350 01:53 27.05.2020
2349 Clouds 20 1025 68 10000 1 0 01:23 27.05.2020
2350 Clouds 21 1026 60 10000 2.6 60 00:45 27.05.2020
2351 Clouds 21 1025 64 10000 0.5 100 00:19 27.05.2020
2352 Clouds 21 1025 60 10000 1.5 10 23:44 26.05.2020
2353 Clouds 22 1025 60 10000 1.5 10 23:25 26.05.2020
2354 Clouds 22 1024 60 10000 2.1 360 22:59 26.05.2020
2355 Clouds 22 1024 60 10000 2.1 360 22:39 26.05.2020
2356 Clouds 22 1024 60 10000 2.1 360 22:20 26.05.2020
2357 Clouds 22 1024 60 10000 2.1 360 22:20 26.05.2020
2358 Clouds 23 1024 56 10000 2.6 350 21:57 26.05.2020
2359 Clouds 24 1024 50 10000 2.1 360 21:39 26.05.2020
2360 Clouds 24 1024 50 10000 2.1 360 21:20 26.05.2020
2361 Clouds 25 1024 47 10000 2.1 30 20:43 26.05.2020
2362 Clouds 25 1024 47 10000 2.1 30 20:43 26.05.2020
2363 Clouds 25 1024 47 10000 2.1 30 20:21 26.05.2020
2364 Clouds 25 1024 47 10000 2.1 50 19:57 26.05.2020
2365 Clouds 25 1024 44 10000 2.1 0 19:37 26.05.2020
2366 Clouds 25 1024 44 10000 2.1 0 19:19 26.05.2020
2367 Clouds 26 1024 42 10000 3.1 0 18:43 26.05.2020
2368 Clouds 26 1024 42 10000 3.1 0 18:22 26.05.2020
2369 Clouds 26 1024 44 10000 3.1 60 17:57 26.05.2020
2370 Clouds 26 1025 44 10000 2.6 0 17:38 26.05.2020
2371 Clouds 26 1025 44 10000 2.6 0 17:20 26.05.2020
2372 Clouds 26 1025 39 10000 3.6 120 16:42 26.05.2020
2373 Clouds 26 1025 39 10000 3.6 120 16:19 26.05.2020
2374 Clouds 25 1026 47 10000 3.1 100 15:55 26.05.2020
2375 Clouds 25 1026 44 10000 2.6 120 15:36 26.05.2020
2376 Clouds 24 1026 53 10000 3.1 120 15:18 26.05.2020
2377 Clouds 23 1026 50 10000 3.1 140 14:43 26.05.2020
2378 Clouds 23 1026 50 10000 3.1 140 14:22 26.05.2020
2379 Clouds 23 1027 49 10000 2.6 110 13:55 26.05.2020
2380 Clouds 23 1027 53 10000 2.6 0 13:37 26.05.2020
2381 Clouds 22 1027 56 10000 2.6 100 13:18 26.05.2020
2382 Clouds 22 1027 60 10000 2.1 100 12:41 26.05.2020
2383 Clouds 21 1027 60 10000 2.1 100 12:20 26.05.2020
2384 Clouds 21 1027 64 10000 2.6 110 11:57 26.05.2020
2385 Clouds 20 1027 72 10000 2.1 120 11:39 26.05.2020
2386 Clouds 20 1027 72 10000 2.1 120 11:18 26.05.2020
2387 Clouds 19 1027 72 10000 2.6 50 10:41 26.05.2020
2388 Clouds 19 1027 72 10000 2.6 50 10:41 26.05.2020
2389 Clouds 19 1027 77 10000 2.1 60 10:19 26.05.2020
2390 Clouds 18 1027 77 10000 2.1 50 09:39 26.05.2020
2391 Clouds 18 1027 77 10000 2.6 30 09:20 26.05.2020
2392 Rain 18 1026 77 10000 2.6 30 08:43 26.05.2020
2393 Rain 17 1026 82 10000 2.6 20 08:22 26.05.2020
2394 Rain 17 1026 82 10000 2.6 20 07:57 26.05.2020
2395 Rain 17 1026 82 10000 1.5 40 07:37 26.05.2020
2396 Rain 16 1026 82 10000 1.5 40 07:18 26.05.2020
2397 Rain 16 1026 82 10000 1 0 06:44 26.05.2020
2398 Rain 17 1026 82 10000 1 0 05:55 26.05.2020
2399 Rain 17 1025 82 10000 1.5 20 05:33 26.05.2020
2400 Rain 17 1025 77 10000 2.1 10 04:54 26.05.2020
2401 Clouds 17 1025 77 10000 2.1 30 04:33 26.05.2020
2402 Clouds 17 1026 77 10000 1.5 40 03:59 26.05.2020
2403 Clouds 17 1026 77 10000 2.6 10 02:45 26.05.2020
2404 Clouds 17 1026 82 10000 2.1 10 01:49 26.05.2020
2405 Rain 17 1026 82 10000 2.1 10 01:27 26.05.2020
2406 Clouds 17 1026 82 10000 1.5 360 00:39 26.05.2020
2407 Rain 18 1026 68 10000 2.1 50 00:19 26.05.2020
2408 Rain 18 1026 68 10000 2.1 50 23:56 25.05.2020
2409 Clouds 19 1026 64 10000 2.1 60 23:37 25.05.2020
2410 Clouds 19 1026 64 10000 2.1 60 23:18 25.05.2020
2411 Clouds 19 1026 64 10000 2.1 50 22:55 25.05.2020
2412 Clouds 19 1025 64 10000 3.6 50 22:36 25.05.2020
2413 Rain 19 1025 64 10000 3.6 20 22:18 25.05.2020
2414 Clouds 20 1025 64 10000 3.6 60 21:55 25.05.2020
2415 Clouds 20 1024 68 10000 2.1 130 21:36 25.05.2020
2416 Clouds 22 1023 57 10000 2.1 100 21:18 25.05.2020
2417 Clouds 23 1023 64 10000 2.6 120 20:42 25.05.2020
2418 Clouds 23 1023 64 10000 2.6 120 20:42 25.05.2020
2419 Clouds 22 1023 64 10000 2.6 120 20:22 25.05.2020
2420 Rain 22 1023 78 10000 2.1 120 19:59 25.05.2020
2421 Rain 22 1023 77 10000 4.6 110 19:41 25.05.2020
2422 Rain 22 1023 77 10000 4.6 110 19:19 25.05.2020
2423 Thunderstorm 22 1024 82 9000 9.3 140 18:57 25.05.2020
2424 Thunderstorm 23 1023 64 10000 3.6 60 18:38 25.05.2020
2425 Thunderstorm 23 1023 64 10000 3.6 60 18:20 25.05.2020
2426 Thunderstorm 25 1023 50 10000 3.1 20 17:44 25.05.2020
2427 Thunderstorm 28 1023 39 10000 3.6 110 17:23 25.05.2020
2428 Thunderstorm 28 1023 37 10000 3.6 130 16:57 25.05.2020
2429 Clouds 28 1023 40 10000 3.1 120 16:39 25.05.2020
2430 Clouds 28 1023 39 10000 3.6 150 16:20 25.05.2020
2431 Clouds 28 1024 39 10000 5.1 120 15:44 25.05.2020
2432 Clouds 28 1024 39 10000 5.1 120 15:20 25.05.2020
2433 Clouds 28 1024 39 10000 3.1 120 14:59 25.05.2020
2434 Clouds 28 1024 37 10000 2.6 130 14:38 25.05.2020
2435 Clouds 27 1024 37 10000 2.6 130 14:20 25.05.2020
2436 Clouds 27 1024 44 10000 2.6 150 13:40 25.05.2020
2437 Clouds 26 1024 44 10000 2.6 150 13:21 25.05.2020
2438 Clouds 26 1025 44 10000 2.6 130 12:58 25.05.2020
2439 Clouds 25 1025 47 10000 2.1 0 12:39 25.05.2020
2440 Clouds 24 1025 53 10000 2.6 0 12:20 25.05.2020
2441 Clouds 24 1025 53 10000 2.1 90 11:40 25.05.2020
2442 Clouds 23 1025 56 10000 2.6 0 11:21 25.05.2020
2443 Clouds 23 1025 56 10000 2.6 0 10:59 25.05.2020
2444 Clouds 23 1025 56 10000 2.6 100 10:41 25.05.2020
2445 Clouds 22 1025 56 10000 2.6 100 10:20 25.05.2020
2446 Clouds 21 1025 60 10000 1.5 110 09:55 25.05.2020
2447 Clouds 21 1025 68 10000 2.1 110 09:36 25.05.2020
2448 Clouds 21 1025 68 10000 2.1 110 09:18 25.05.2020
2449 Clouds 20 1025 68 10000 1.5 90 09:18 25.05.2020
2450 Clouds 20 1025 68 10000 1.5 80 08:40 25.05.2020
2451 Clouds 20 1025 68 10000 1.5 80 08:21 25.05.2020
2452 Clouds 19 1025 72 10000 1.5 80 07:58 25.05.2020
2453 Clouds 19 1025 77 10000 2.1 100 07:38 25.05.2020
2454 Clouds 19 1025 77 10000 2.1 100 07:19 25.05.2020
2455 Clouds 19 1025 72 10000 2.6 90 06:41 25.05.2020
2456 Clouds 20 1025 77 10000 3.6 90 06:19 25.05.2020
2457 Clouds 21 1025 60 10000 1 0 03:31 25.05.2020
2458 Clouds 22 1025 52 10000 3.1 130 02:52 25.05.2020
2459 Clouds 22 1025 52 10000 3.1 130 02:34 25.05.2020
2460 Clouds 23 1025 46 10000 2.6 130 01:42 25.05.2020
2461 Clouds 24 1025 46 10000 3.1 140 00:49 25.05.2020
2462 Clouds 24 1025 46 10000 3.1 140 00:31 25.05.2020
2463 Clouds 25 1024 50 10000 0.5 0 23:59 24.05.2020
2464 Clouds 26 1024 44 10000 1 10 23:39 24.05.2020
2465 Clouds 26 1024 44 10000 1 10 23:21 24.05.2020
2466 Clouds 26 1024 41 10000 1 0 22:56 24.05.2020
2467 Clouds 27 1023 39 10000 1.5 360 22:37 24.05.2020
2468 Clouds 27 1024 36 10000 2.1 280 22:18 24.05.2020
2469 Clouds 27 1024 36 10000 2.1 280 21:55 24.05.2020
2470 Clouds 28 1024 39 10000 2.6 270 21:36 24.05.2020
2471 Clouds 28 1024 34 10000 3.1 260 21:18 24.05.2020
2472 Clouds 29 1023 32 10000 2.1 270 20:43 24.05.2020
2473 Clouds 29 1024 34 10000 2.1 290 20:21 24.05.2020
2474 Clouds 29 1024 34 10000 2.1 290 19:56 24.05.2020
2475 Clouds 30 1024 31 10000 1 0 19:38 24.05.2020
2476 Clouds 30 1024 31 10000 2.1 310 19:18 24.05.2020
2477 Clouds 31 1024 29 10000 0.5 190 18:42 24.05.2020
2478 Clouds 30 1024 29 10000 0.5 190 18:23 24.05.2020
2479 Clouds 30 1024 33 10000 1.5 0 17:58 24.05.2020
2480 Clouds 29 1024 35 10000 2.6 0 17:40 24.05.2020
2481 Clouds 29 1024 35 10000 2.6 0 17:21 24.05.2020
2482 Clouds 29 1025 35 10000 1.5 270 16:56 24.05.2020
2483 Clouds 29 1025 35 10000 1 140 16:38 24.05.2020
2484 Clouds 29 1025 35 10000 1 140 16:19 24.05.2020
2485 Clouds 29 1026 33 10000 1 340 15:55 24.05.2020
2486 Clouds 28 1026 37 10000 1.5 0 15:37 24.05.2020
2487 Clouds 27 1026 37 10000 1.5 0 15:18 24.05.2020
2488 Clouds 27 1026 37 10000 1.5 70 14:44 24.05.2020
2489 Clouds 27 1026 37 10000 1.5 70 14:24 24.05.2020
2490 Clouds 26 1027 41 10000 2.1 80 13:57 24.05.2020
2491 Clouds 26 1027 39 10000 2.1 0 13:38 24.05.2020
2492 Clouds 25 1027 39 10000 2.1 0 13:20 24.05.2020
2493 Clouds 25 1027 41 10000 2.6 0 12:57 24.05.2020
2494 Clouds 25 1027 44 10000 3.1 0 12:38 24.05.2020
2495 Clouds 25 1027 44 10000 3.1 0 12:38 24.05.2020
2496 Clouds 24 1027 44 10000 3.1 0 12:20 24.05.2020
2497 Clouds 23 1027 44 10000 3.1 0 11:56 24.05.2020
2498 Clouds 23 1027 44 10000 3.1 0 11:56 24.05.2020
2499 Clouds 23 1027 46 10000 2.6 0 11:38 24.05.2020
2500 Clouds 22 1027 46 10000 2.6 0 11:20 24.05.2020
2501 Clouds 22 1028 43 10000 3.6 90 10:55 24.05.2020
2502 Clouds 22 1028 46 10000 3.1 110 10:36 24.05.2020
2503 Clouds 20 1028 46 10000 2.6 70 10:18 24.05.2020
2504 Clouds 21 1028 56 10000 1.5 50 09:41 24.05.2020
2505 Clouds 20 1028 56 10000 1.5 50 09:18 24.05.2020
2506 Clouds 18 1027 63 10000 2.1 30 08:54 24.05.2020
2507 Clouds 18 1027 63 10000 2.1 30 08:36 24.05.2020
2508 Clouds 18 1027 63 10000 2.1 30 08:18 24.05.2020
2509 Clouds 17 1027 68 10000 2.1 40 07:41 24.05.2020
2510 Clouds 17 1027 68 10000 2.1 40 07:22 24.05.2020
2511 Clouds 17 1026 68 10000 2.6 20 06:47 24.05.2020
2512 Clouds 18 1026 68 10000 2.6 360 05:50 24.05.2020
2513 Clouds 18 1026 63 10000 3.1 10 04:52 24.05.2020
2514 Clouds 19 1027 63 10000 2.1 10 03:41 24.05.2020
2515 Clouds 20 1026 64 10000 2.6 350 02:31 24.05.2020
2516 Clouds 22 1026 53 10000 3.6 30 01:46 24.05.2020
2517 Clouds 23 1025 53 10000 5.7 50 00:39 24.05.2020
2518 Clouds 25 1026 47 10000 3.6 30 00:21 24.05.2020
2519 Clouds 25 1025 47 10000 2.1 20 23:43 23.05.2020
2520 Clouds 26 1025 47 10000 2.1 20 23:23 23.05.2020
2521 Clouds 26 1025 44 10000 1 0 22:57 23.05.2020
2522 Clouds 27 1024 44 10000 2.1 310 22:38 23.05.2020
2523 Clouds 28 1024 42 10000 2.1 290 22:20 23.05.2020
2524 Clouds 28 1024 42 10000 2.1 290 21:57 23.05.2020
2525 Clouds 28 1024 39 10000 2.6 290 21:37 23.05.2020
2526 Clouds 30 1024 28 10000 2.1 220 21:19 23.05.2020
2527 Clouds 30 1024 28 10000 2.1 220 21:19 23.05.2020
2528 Clouds 30 1024 28 10000 2.1 220 20:57 23.05.2020
2529 Clouds 31 1024 29 10000 2.6 240 20:38 23.05.2020
2530 Clear 31 1024 29 10000 2.6 240 20:18 23.05.2020
2531 Clear 32 1024 27 10000 2.6 0 19:41 23.05.2020
2532 Clear 32 1024 27 10000 2.1 0 19:20 23.05.2020
2533 Clear 32 1024 27 10000 2.1 0 18:58 23.05.2020
2534 Clear 32 1024 27 10000 2.6 260 18:40 23.05.2020
2535 Clouds 32 1024 27 10000 2.6 260 18:21 23.05.2020
2536 Clouds 32 1024 22 10000 1.5 230 17:55 23.05.2020
2537 Clouds 32 1025 24 10000 2.6 0 17:37 23.05.2020
2538 Clouds 32 1025 24 10000 2.6 0 17:19 23.05.2020
2539 Clouds 32 1025 24 10000 2.6 250 16:56 23.05.2020
2540 Clouds 32 1025 24 10000 1 300 16:37 23.05.2020
2541 Clouds 31 1025 21 10000 2.1 0 16:19 23.05.2020
2542 Clouds 31 1026 27 10000 3.1 210 15:42 23.05.2020
2543 Clouds 30 1026 27 10000 3.1 210 15:23 23.05.2020
2544 Clouds 30 1026 30 10000 3.1 0 14:57 23.05.2020
2545 Clouds 30 1026 30 10000 3.1 0 14:57 23.05.2020
2546 Clouds 29 1026 29 10000 3.1 200 14:38 23.05.2020
2547 Clouds 29 1026 29 10000 3.1 200 14:20 23.05.2020
2548 Clouds 29 1027 35 10000 1 0 13:40 23.05.2020
2549 Clouds 28 1027 35 10000 1 0 13:19 23.05.2020
2550 Clouds 27 1026 39 10000 2.1 180 12:55 23.05.2020
2551 Clouds 27 1027 39 10000 1 0 12:36 23.05.2020
2552 Clouds 26 1027 39 10000 1 0 12:18 23.05.2020
2553 Clouds 25 1027 47 10000 2.1 0 11:42 23.05.2020
2554 Clouds 25 1027 44 10000 1.5 30 11:21 23.05.2020
2555 Clouds 24 1026 50 10000 1.5 110 10:56 23.05.2020
2556 Clouds 24 1027 47 10000 1.5 50 10:38 23.05.2020
2557 Clouds 24 1027 47 10000 1.5 50 10:19 23.05.2020
2558 Clouds 22 1027 50 10000 1.5 60 09:56 23.05.2020
2559 Clouds 22 1026 53 10000 0.5 0 09:38 23.05.2020
2560 Clouds 21 1026 56 10000 1.5 360 09:19 23.05.2020
2561 Clouds 20 1026 56 10000 1 0 08:42 23.05.2020
2562 Clouds 20 1026 63 10000 1.5 360 08:19 23.05.2020
2563 Clouds 20 1026 63 10000 1.5 360 08:19 23.05.2020
2564 Clouds 20 1026 63 10000 1.5 330 07:46 23.05.2020
2565 Clouds 19 1026 63 10000 1.5 330 07:28 23.05.2020
2566 Clouds 19 1025 59 10000 1 0 06:53 23.05.2020
2567 Clouds 19 1025 59 10000 2.1 10 06:35 23.05.2020
2568 Clouds 21 1025 49 10000 1.5 340 04:40 23.05.2020
2569 Clouds 22 1025 52 10000 2.1 300 03:29 23.05.2020
2570 Clouds 23 1025 60 10000 2.6 260 02:48 23.05.2020
2571 Clouds 23 1025 60 10000 3.1 250 01:53 23.05.2020
2572 Clouds 23 1025 60 10000 3.1 250 01:20 23.05.2020
2573 Clouds 25 1025 46 10000 2.1 270 00:45 23.05.2020
2574 Clouds 25 1024 44 10000 1.5 350 00:23 23.05.2020
2575 Clouds 25 1024 44 10000 1.5 350 23:55 22.05.2020
2576 Clouds 26 1024 44 10000 2.6 280 23:36 22.05.2020
2577 Clouds 27 1023 32 10000 3.1 280 23:18 22.05.2020
2578 Clouds 27 1024 50 10000 3.1 260 22:42 22.05.2020
2579 Clouds 28 1023 28 10000 3.1 290 22:21 22.05.2020
2580 Clouds 28 1023 30 10000 2.6 310 21:56 22.05.2020
2581 Clouds 29 1024 39 10000 3.1 260 21:38 22.05.2020
2582 Clouds 29 1024 39 10000 3.1 260 21:20 22.05.2020
2583 Clouds 30 1023 28 10000 3.1 250 20:45 22.05.2020
2584 Clouds 31 1023 29 10000 3.1 250 20:21 22.05.2020
2585 Clouds 31 1023 29 10000 3.1 250 19:54 22.05.2020
2586 Clouds 31 1023 29 10000 2.6 240 19:36 22.05.2020
2587 Clouds 31 1023 29 10000 2.6 240 19:18 22.05.2020
2588 Clouds 31 1024 27 10000 3.1 230 18:39 22.05.2020
2589 Clouds 31 1024 27 10000 3.1 230 18:19 22.05.2020
2590 Clouds 31 1024 25 10000 2.6 250 17:56 22.05.2020
2591 Clouds 31 1024 29 10000 3.6 270 17:36 22.05.2020
2592 Clouds 31 1024 29 10000 3.6 270 17:18 22.05.2020
2593 Clouds 31 1025 29 10000 4.6 240 16:41 22.05.2020
2594 Clouds 31 1025 29 10000 4.6 240 16:20 22.05.2020
2595 Clouds 31 1025 31 10000 3.1 0 15:57 22.05.2020
2596 Clouds 31 1025 31 10000 3.6 0 15:39 22.05.2020
2597 Clear 30 1025 33 10000 4.1 240 15:19 22.05.2020
2598 Clear 30 1025 33 10000 3.6 210 14:42 22.05.2020
2599 Clouds 29 1025 33 10000 3.6 210 14:24 22.05.2020
2600 Clouds 28 1026 32 10000 2.1 0 13:45 22.05.2020
2601 Clouds 28 1026 32 10000 2.1 0 13:20 22.05.2020
2602 Clouds 26 1026 42 10000 1 140 12:44 22.05.2020
2603 Clouds 26 1026 42 10000 1 140 12:25 22.05.2020
2604 Clouds 26 1026 42 10000 1 140 12:25 22.05.2020
2605 Clouds 25 1026 44 10000 1 0 11:58 22.05.2020
2606 Clouds 24 1026 41 10000 1.5 0 11:40 22.05.2020
2607 Clouds 24 1026 41 10000 1.5 0 11:19 22.05.2020
2608 Clouds 22 1025 49 10000 1 0 10:41 22.05.2020
2609 Clouds 22 1025 49 10000 1 0 10:22 22.05.2020
2610 Clouds 21 1025 53 10000 1 0 09:59 22.05.2020
2611 Clouds 20 1025 60 10000 1 0 09:41 22.05.2020
2612 Clouds 20 1025 60 10000 1 0 09:19 22.05.2020
2613 Clear 18 1024 63 10000 0.5 0 08:43 22.05.2020
2614 Clouds 18 1024 63 10000 0.5 0 08:20 22.05.2020
2615 Clouds 18 1024 72 10000 1 0 07:56 22.05.2020
2616 Clouds 18 1023 67 10000 1 0 07:24 22.05.2020
2617 Clouds 18 1023 77 10000 0.5 290 06:57 22.05.2020
2618 Clouds 17 1023 67 10000 1.54 50 06:36 22.05.2020
2619 Clouds 18 1023 72 10000 0.5 0 05:39 22.05.2020
2620 Clouds 18 1023 72 10000 0.5 0 05:39 22.05.2020
2621 Clouds 20 1023 59 10000 2.05 43 04:51 22.05.2020
2622 Clouds 20 1023 59 10000 2.18 33 04:24 22.05.2020
2623 Clouds 20 1023 63 10000 0.5 0 03:47 22.05.2020
2624 Clear 21 1023 63 10000 3.6 270 02:59 22.05.2020
2625 Clouds 22 1023 59 10000 1 0 01:56 22.05.2020
2626 Clear 23 1022 52 10000 2.1 150 01:28 22.05.2020
2627 Clear 23 1022 43 10000 1.5 110 00:46 22.05.2020
2628 Clouds 24 1022 43 10000 1.5 110 00:27 22.05.2020
2629 Clouds 25 1022 36 10000 3.1 260 23:43 21.05.2020
2630 Clear 25 1022 36 10000 3.1 260 23:24 21.05.2020
2631 Clear 26 1021 34 10000 4.1 260 22:58 21.05.2020
2632 Clear 26 1021 32 10000 3.6 250 22:38 21.05.2020
2633 Clear 26 1021 32 10000 3.6 250 22:20 21.05.2020
2634 Clear 27 1021 30 10000 4.1 250 21:56 21.05.2020
2635 Clear 27 1021 39 10000 3.6 230 21:38 21.05.2020
2636 Clear 28 1021 32 10000 4.6 230 21:18 21.05.2020
2637 Clear 29 1021 28 10000 4.6 240 20:42 21.05.2020
2638 Clouds 30 1021 28 10000 4.6 240 20:22 21.05.2020
2639 Clouds 30 1021 22 10000 2.6 230 19:41 21.05.2020
2640 Clouds 31 1021 22 10000 2.6 230 19:21 21.05.2020
2641 Clouds 31 1021 22 10000 3.1 250 18:59 21.05.2020
2642 Clouds 31 1020 20 10000 2.6 160 18:39 21.05.2020
2643 Clouds 31 1020 20 10000 2.6 160 18:19 21.05.2020
2644 Clouds 31 1020 19 10000 1.5 0 17:56 21.05.2020
2645 Clouds 30 1021 19 10000 2.6 230 17:38 21.05.2020
2646 Clouds 31 1021 19 10000 2.6 230 17:38 21.05.2020
2647 Clouds 30 1021 18 10000 3.1 240 17:19 21.05.2020
2648 Clouds 30 1021 18 10000 2.6 0 16:44 21.05.2020
2649 Clouds 31 1021 18 10000 2.6 0 16:22 21.05.2020
2650 Clouds 30 1021 22 10000 1 160 15:44 21.05.2020
2651 Clouds 30 1021 22 10000 1 160 15:24 21.05.2020
2652 Clouds 29 1022 25 10000 2.6 240 14:43 21.05.2020
2653 Clouds 29 1022 25 10000 2.6 240 14:25 21.05.2020
2654 Clouds 28 1022 30 10000 0.5 310 14:00 21.05.2020
2655 Clouds 28 1022 28 10000 1.5 260 13:38 21.05.2020
2656 Clouds 28 1022 28 10000 1.5 260 13:20 21.05.2020
2657 Clouds 26 1022 34 10000 1 0 12:40 21.05.2020
2658 Clouds 25 1022 34 10000 1 0 12:22 21.05.2020
2659 Clouds 24 1022 34 10000 1 0 11:59 21.05.2020
2660 Clouds 23 1021 40 10000 0.5 190 11:39 21.05.2020
2661 Clouds 23 1021 40 10000 0.5 190 11:21 21.05.2020
2662 Clouds 22 1022 40 10000 1.5 0 10:54 21.05.2020
2663 Clouds 22 1022 35 10000 0.5 90 10:36 21.05.2020
2664 Clouds 20 1022 43 10000 1 0 10:18 21.05.2020
2665 Clouds 19 1022 55 10000 1.5 120 09:42 21.05.2020
2666 Clouds 19 1022 55 10000 1.5 120 09:24 21.05.2020
2667 Clouds 17 1021 52 10000 1.5 130 08:57 21.05.2020
2668 Clouds 16 1021 55 10000 1 140 08:38 21.05.2020
2669 Clouds 17 1021 55 10000 1.5 350 08:20 21.05.2020
2670 Clouds 16 1020 58 10000 2.6 360 07:42 21.05.2020
2671 Clouds 18 1020 58 10000 2.6 360 07:22 21.05.2020
2672 Clouds 18 1020 51 10000 2.1 360 06:37 21.05.2020
2673 Clouds 17 1020 58 10000 1.48 29 05:50 21.05.2020
2674 Clouds 18 1020 51 10000 1.5 270 04:25 21.05.2020
2675 Clouds 19 1020 51 10000 0.5 0 03:21 21.05.2020
2676 Clouds 19 1020 51 10000 0.5 0 03:21 21.05.2020
2677 Clouds 19 1020 51 10000 0.5 0 03:21 21.05.2020
2678 Clouds 19 1020 51 10000 0.5 0 03:21 21.05.2020
2679 Clear 19 1020 55 10000 2.2 55 02:31 21.05.2020
2680 Clear 20 1020 48 10000 2.2 55 01:52 21.05.2020
2681 Clear 20 1019 42 10000 0.5 0 01:24 21.05.2020
2682 Clear 21 1019 48 10000 1 260 00:59 21.05.2020
2683 Clear 21 1019 42 10000 2.1 250 00:41 21.05.2020
2684 Clear 22 1019 40 10000 2.1 280 00:19 21.05.2020
2685 Clear 23 1019 40 10000 2.6 270 23:40 20.05.2020
2686 Clear 23 1019 40 10000 2.6 270 23:19 20.05.2020
2687 Clear 24 1017 33 10000 2.1 320 22:55 20.05.2020
2688 Clear 25 1017 21 10000 2.6 260 22:36 20.05.2020
2689 Clear 25 1018 29 10000 2.6 280 22:18 20.05.2020
2690 Clear 27 1017 26 10000 2.6 280 21:40 20.05.2020
2691 Clouds 28 1017 23 10000 3.6 270 21:20 20.05.2020
2692 Clouds 29 1017 18 10000 4.1 280 20:44 20.05.2020
2693 Clouds 29 1017 18 10000 4.1 280 20:24 20.05.2020
2694 Clouds 30 1017 16 10000 4.1 260 19:54 20.05.2020
2695 Clouds 30 1017 20 10000 5.1 250 19:36 20.05.2020
2696 Clouds 30 1017 20 10000 5.1 250 19:18 20.05.2020
2697 Clouds 30 1017 15 10000 3.6 260 18:42 20.05.2020
2698 Clouds 30 1017 14 10000 3.6 260 18:21 20.05.2020
2699 Clouds 31 1017 19 10000 1.5 220 17:41 20.05.2020
2700 Clear 30 1017 23 10000 2.6 240 17:22 20.05.2020
2701 Clear 30 1017 23 10000 2.6 240 16:55 20.05.2020
2702 Clear 30 1017 19 10000 3.6 290 16:37 20.05.2020
2703 Clear 30 1017 19 10000 2.6 0 16:18 20.05.2020
2704 Clear 29 1018 25 10000 2.1 0 15:43 20.05.2020
2705 Clear 29 1018 25 10000 2.1 0 15:25 20.05.2020
2706 Clear 28 1018 23 10000 2.1 240 14:44 20.05.2020
2707 Clear 28 1018 23 10000 2.1 240 14:23 20.05.2020
2708 Clear 27 1018 24 10000 1 0 13:55 20.05.2020
2709 Clear 27 1019 28 10000 1.5 0 13:37 20.05.2020
2710 Clear 26 1019 30 10000 1 230 13:18 20.05.2020
2711 Clear 25 1019 27 10000 1 0 12:42 20.05.2020
2712 Clear 25 1019 27 10000 1 0 12:20 20.05.2020
2713 Clear 23 1019 36 10000 2.1 60 11:37 20.05.2020
2714 Clear 22 1019 36 10000 1.5 0 11:19 20.05.2020
2715 Clear 21 1019 43 10000 1 0 10:44 20.05.2020
2716 Clear 21 1019 43 10000 1 0 10:22 20.05.2020
2717 Clear 20 1019 46 10000 1.5 30 09:57 20.05.2020
2718 Clear 19 1019 45 10000 1.5 10 09:38 20.05.2020
2719 Clear 18 1019 45 10000 1.5 10 09:19 20.05.2020
2720 Clear 17 1019 59 10000 2.1 360 08:41 20.05.2020
2721 Clear 16 1019 59 10000 2.1 360 08:19 20.05.2020
2722 Clear 16 1018 67 10000 2.1 360 07:49 20.05.2020
2723 Clear 16 1018 72 10000 1.5 360 07:23 20.05.2020
2724 Clear 16 1018 67 10000 1 0 06:52 20.05.2020
2725 Clear 16 1018 67 10000 1.5 10 05:59 20.05.2020
2726 Clear 17 1019 63 10000 1.5 10 04:38 20.05.2020
2727 Clear 18 1019 63 10000 1.5 360 03:58 20.05.2020
2728 Clear 19 1019 63 10000 1.5 350 03:27 20.05.2020
2729 Clear 20 1019 68 10000 0.5 10 01:33 20.05.2020
2730 Clear 21 1019 60 10000 0.5 0 00:57 20.05.2020
2731 Clear 22 1019 60 10000 2.37 23 00:38 20.05.2020
2732 Clear 22 1019 60 10000 0.95 24 00:19 20.05.2020
2733 Clear 24 1019 41 10000 0.5 0 23:36 19.05.2020
2734 Clear 24 1019 40 10000 0.5 0 23:18 19.05.2020
2735 Clear 24 1019 40 10000 0.5 0 22:54 19.05.2020
2736 Clouds 24 1019 43 10000 1.5 280 22:36 19.05.2020
2737 Clouds 25 1018 44 10000 2.6 260 22:18 19.05.2020
2738 Clouds 25 1018 44 10000 2.6 260 21:54 19.05.2020
2739 Clouds 26 1018 39 10000 2.6 260 21:36 19.05.2020
2740 Clouds 26 1018 39 10000 2.6 260 21:18 19.05.2020
2741 Clouds 27 1018 25 10000 0.5 20 20:54 19.05.2020
2742 Clouds 27 1018 30 10000 2.6 310 20:36 19.05.2020
2743 Clear 28 1018 28 10000 2.6 320 20:18 19.05.2020
2744 Clear 28 1018 26 10000 2.1 280 19:37 19.05.2020
2745 Clear 28 1018 26 10000 2.1 280 19:19 19.05.2020
2746 Clear 28 1019 26 10000 2.6 280 18:44 19.05.2020
2747 Clear 28 1019 30 10000 2.1 300 18:22 19.05.2020
2748 Clear 28 1019 30 10000 2.1 300 17:57 19.05.2020
2749 Clear 28 1019 28 10000 2.1 0 17:38 19.05.2020
2750 Clear 28 1019 28 10000 2.1 0 17:19 19.05.2020
2751 Clear 28 1019 28 10000 2.1 0 17:19 19.05.2020
2752 Clear 28 1019 28 10000 2.6 290 16:41 19.05.2020
2753 Clear 28 1019 28 10000 2.6 290 16:22 19.05.2020
2754 Clear 27 1020 26 10000 1 110 15:56 19.05.2020
2755 Clear 26 1020 30 10000 1 270 15:38 19.05.2020
2756 Clear 27 1020 30 10000 1 270 15:19 19.05.2020
2757 Clear 26 1021 27 10000 1 0 14:43 19.05.2020
2758 Clear 26 1021 27 10000 1 0 14:22 19.05.2020
2759 Clear 24 1021 31 10000 1.5 0 13:59 19.05.2020
2760 Clear 24 1021 36 10000 1 190 13:40 19.05.2020
2761 Clear 23 1022 38 10000 1 0 13:22 19.05.2020
2762 Clear 23 1022 38 10000 1 0 12:59 19.05.2020
2763 Clear 23 1022 41 10000 1 0 12:40 19.05.2020
2764 Clear 22 1022 41 10000 1 0 12:22 19.05.2020
2765 Clear 21 1022 40 10000 1 0 11:58 19.05.2020
2766 Clear 21 1022 40 10000 0.5 130 11:40 19.05.2020
2767 Clear 21 1022 40 10000 0.5 130 11:40 19.05.2020
2768 Clear 20 1021 49 10000 1 0 11:21 19.05.2020
2769 Clear 19 1022 49 10000 1.5 70 10:48 19.05.2020
2770 Clear 19 1022 48 10000 1.5 60 10:29 19.05.2020
2771 Clear 17 1022 48 10000 1.5 30 09:58 19.05.2020
2772 Clear 17 1022 48 10000 1.5 30 09:58 19.05.2020
2773 Clear 16 1022 52 10000 1.5 0 09:40 19.05.2020
2774 Clear 16 1022 52 10000 1.5 0 09:22 19.05.2020
2775 Clear 15 1022 59 10000 0.5 0 08:43 19.05.2020
2776 Clear 15 1022 59 10000 0.5 0 08:24 19.05.2020
2777 Clear 15 1022 59 10000 0.5 0 08:24 19.05.2020
2778 Clear 14 1021 71 10000 0.5 0 07:44 19.05.2020
2779 Clear 14 1021 71 10000 0.5 0 07:26 19.05.2020
2780 Clear 14 1021 76 10000 2.21 61 06:51 19.05.2020
2781 Clear 15 1021 71 10000 1 0 06:25 19.05.2020
2782 Clear 15 1022 67 10000 1 360 05:41 19.05.2020
2783 Clear 15 1022 62 10000 1.5 350 04:56 19.05.2020
2784 Clear 15 1022 67 10000 1 360 04:32 19.05.2020
2785 Clear 19 1022 55 10000 1.5 70 01:31 19.05.2020
2786 Clear 20 1022 45 10000 3.1 10 00:44 19.05.2020
2787 Clear 20 1022 45 10000 3.1 10 00:24 19.05.2020
2788 Clear 20 1022 45 10000 1.5 330 23:58 18.05.2020
2789 Clear 21 1022 42 10000 1 0 23:39 18.05.2020
2790 Clear 21 1022 42 10000 1 0 23:19 18.05.2020
2791 Clear 22 1021 37 10000 2.1 340 22:41 18.05.2020
2792 Clear 22 1021 37 10000 2.1 340 22:22 18.05.2020
2793 Clear 23 1021 35 10000 2.6 320 21:56 18.05.2020
2794 Clear 24 1021 36 10000 3.6 290 21:38 18.05.2020
2795 Clear 24 1021 36 10000 3.6 290 21:38 18.05.2020
2796 Clear 24 1021 31 10000 3.6 290 21:18 18.05.2020
2797 Clear 26 1021 29 10000 4.1 280 20:43 18.05.2020
2798 Clear 26 1021 29 10000 4.1 280 20:22 18.05.2020
2799 Clear 26 1021 29 10000 4.1 270 19:59 18.05.2020
2800 Clear 27 1021 26 10000 1.5 260 19:40 18.05.2020
2801 Clear 27 1021 30 10000 2.6 210 19:19 18.05.2020
2802 Clear 27 1021 28 10000 1.5 210 18:46 18.05.2020
2803 Clear 27 1021 28 10000 1.5 210 18:25 18.05.2020
2804 Clear 27 1021 30 10000 2.1 0 17:55 18.05.2020
2805 Clear 27 1022 24 10000 1 320 17:36 18.05.2020
2806 Clear 27 1022 26 10000 3.1 250 17:18 18.05.2020
2807 Clear 26 1022 29 10000 2.6 230 16:43 18.05.2020
2808 Clear 26 1022 29 10000 2.6 230 16:21 18.05.2020
2809 Clear 26 1022 29 10000 2.1 230 15:58 18.05.2020
2810 Clear 25 1023 29 10000 1 250 15:39 18.05.2020
2811 Clear 25 1023 29 10000 1 250 15:20 18.05.2020
2812 Clear 25 1023 31 10000 2.1 0 14:56 18.05.2020
2813 Clear 24 1023 36 10000 1 0 14:38 18.05.2020
2814 Clear 24 1023 33 10000 1 140 14:19 18.05.2020
2815 Clear 23 1023 40 10000 1.5 200 13:41 18.05.2020
2816 Clear 23 1023 40 10000 1.5 200 13:20 18.05.2020
2817 Clear 22 1024 40 10000 1 0 12:58 18.05.2020
2818 Clear 21 1024 40 10000 1 50 12:40 18.05.2020
2819 Clear 20 1024 40 10000 0.5 310 12:19 18.05.2020
2820 Clear 19 1024 45 10000 0.5 210 11:57 18.05.2020
2821 Clear 19 1024 45 10000 1 0 11:38 18.05.2020
2822 Clear 18 1024 52 10000 1.5 20 11:20 18.05.2020
2823 Clear 18 1024 52 10000 0.5 0 10:42 18.05.2020
2824 Clear 17 1024 52 10000 0.5 0 10:22 18.05.2020
2825 Clear 16 1024 59 10000 1 0 09:45 18.05.2020
2826 Clear 15 1024 59 10000 1 0 09:26 18.05.2020
2827 Clear 14 1024 63 10000 1 0 08:54 18.05.2020
2828 Clear 13 1024 67 10000 0.5 0 08:36 18.05.2020
2829 Clear 12 1023 76 10000 1 0 08:18 18.05.2020
2830 Clear 12 1023 81 10000 1 0 07:41 18.05.2020
2831 Clear 12 1023 81 10000 1 0 07:20 18.05.2020
2832 Clear 12 1023 76 10000 1 0 06:46 18.05.2020
2833 Clear 12 1023 76 10000 0.5 0 06:21 18.05.2020
2834 Clear 13 1023 76 10000 1.96 50 05:42 18.05.2020
2835 Clear 14 1023 81 10000 0.5 0 03:37 18.05.2020
2836 Clouds 15 1023 62 10000 2.1 310 02:31 18.05.2020
2837 Clouds 17 1024 63 10000 1.5 350 01:34 18.05.2020
2838 Clouds 18 1023 51 10000 3.6 360 00:28 18.05.2020
2839 Clouds 18 1023 59 10000 2.6 300 23:59 17.05.2020
2840 Clouds 18 1023 59 10000 2.6 290 23:40 17.05.2020
2841 Clouds 19 1023 55 10000 3.1 290 23:20 17.05.2020
2842 Clouds 19 1023 55 10000 3.1 290 22:58 17.05.2020
2843 Clouds 19 1022 59 10000 3.1 270 22:39 17.05.2020
2844 Clouds 19 1022 55 10000 2.6 270 22:21 17.05.2020
2845 Clouds 20 1022 55 10000 2.6 270 21:58 17.05.2020
2846 Clouds 21 1022 49 10000 2.1 270 21:40 17.05.2020
2847 Clouds 22 1022 40 10000 2.1 290 21:19 17.05.2020
2848 Clouds 22 1021 35 10000 1.5 0 20:43 17.05.2020
2849 Clouds 22 1021 35 10000 1.5 0 20:22 17.05.2020
2850 Clouds 23 1021 33 10000 1 0 19:58 17.05.2020
2851 Clouds 23 1021 33 10000 1.5 0 19:40 17.05.2020
2852 Clouds 23 1021 33 10000 1.5 0 19:22 17.05.2020
2853 Clouds 22 1021 38 10000 2.1 360 18:55 17.05.2020
2854 Clouds 22 1021 38 10000 2.1 0 18:37 17.05.2020
2855 Clouds 23 1021 38 10000 2.1 0 18:19 17.05.2020
2856 Clouds 22 1021 40 10000 2.6 0 17:40 17.05.2020
2857 Clouds 22 1021 40 10000 2.6 0 17:40 17.05.2020
2858 Clouds 22 1021 40 10000 2.6 0 17:21 17.05.2020
2859 Clouds 22 1022 43 10000 3.1 70 16:55 17.05.2020
2860 Clouds 21 1022 43 10000 2.6 0 16:37 17.05.2020
2861 Clouds 21 1022 43 10000 2.6 0 16:19 17.05.2020
2862 Clouds 20 1022 40 10000 1.5 340 15:41 17.05.2020
2863 Clouds 20 1023 46 10000 2.6 340 15:23 17.05.2020
2864 Clouds 20 1023 46 10000 2.6 340 14:56 17.05.2020
2865 Clouds 19 1023 48 10000 3.6 0 14:37 17.05.2020
2866 Clouds 19 1023 45 10000 1.5 350 14:19 17.05.2020
2867 Clouds 18 1023 45 10000 2.1 0 13:41 17.05.2020
2868 Clouds 18 1023 45 10000 2.1 0 13:20 17.05.2020
2869 Clouds 11 1021 58 10000 3.6 30 04:54 17.05.2020
2870 Clouds 12 1022 62 10000 3.1 50 03:30 17.05.2020
2871 Clouds 13 1022 66 10000 2.6 50 02:24 17.05.2020
2872 Clouds 13 1022 62 10000 4.1 60 01:50 17.05.2020
2873 Clouds 13 1021 71 10000 1.5 50 00:45 17.05.2020
2874 Clouds 14 1021 71 10000 1.5 50 00:24 17.05.2020
2875 Clouds 14 1021 72 10000 3.1 40 23:42 16.05.2020
2876 Clouds 15 1021 72 10000 3.1 40 23:21 16.05.2020
2877 Clouds 15 1020 67 10000 3.1 40 22:59 16.05.2020
2878 Drizzle 15 1020 82 10000 2.1 30 22:41 16.05.2020
2879 Clouds 16 1019 59 10000 1.5 50 22:21 16.05.2020
2880 Clouds 16 1019 59 10000 1.5 50 21:55 16.05.2020
2881 Clouds 17 1019 59 10000 1 0 21:37 16.05.2020
2882 Clouds 17 1019 59 10000 1 0 21:19 16.05.2020
2883 Clouds 17 1019 59 10000 1.5 20 20:55 16.05.2020
2884 Clouds 17 1019 63 10000 1.5 10 20:36 16.05.2020
2885 Clouds 17 1018 63 10000 2.1 350 20:18 16.05.2020
2886 Clouds 17 1018 67 10000 1.5 360 19:41 16.05.2020
2887 Clouds 17 1018 67 10000 1.5 360 19:22 16.05.2020
2888 Clouds 17 1018 63 10000 3.1 350 18:57 16.05.2020
2889 Clouds 18 1018 63 10000 3.1 340 18:36 16.05.2020
2890 Clouds 18 1018 63 10000 3.1 340 18:18 16.05.2020
2891 Clouds 18 1018 55 10000 4.6 0 17:41 16.05.2020
2892 Clouds 18 1018 63 10000 4.6 330 17:20 16.05.2020
2893 Clouds 18 1018 63 10000 4.6 330 17:20 16.05.2020
2894 Clouds 20 1018 45 10000 2.6 30 16:43 16.05.2020
2895 Clouds 20 1018 45 10000 2.6 30 16:24 16.05.2020
2896 Clouds 19 1018 49 10000 2.6 0 15:59 16.05.2020
2897 Clouds 19 1018 55 10000 3.1 60 15:41 16.05.2020
2898 Clouds 19 1018 55 10000 3.1 60 15:20 16.05.2020
2899 Clouds 19 1018 59 10000 3.1 50 14:56 16.05.2020
2900 Clouds 19 1019 55 10000 3.1 40 14:37 16.05.2020
2901 Clouds 19 1019 55 10000 3.1 40 14:37 16.05.2020
2902 Clouds 18 1019 55 10000 3.1 40 14:19 16.05.2020
2903 Clouds 18 1019 59 10000 3.1 30 13:42 16.05.2020
2904 Clouds 17 1019 59 10000 3.1 30 13:23 16.05.2020
2905 Clouds 17 1019 59 10000 3.6 60 12:58 16.05.2020
2906 Clouds 16 1019 59 10000 3.6 60 12:39 16.05.2020
2907 Clouds 16 1019 59 10000 3.6 60 12:18 16.05.2020
2908 Clouds 15 1018 67 10000 3.1 30 11:41 16.05.2020
2909 Rain 14 1018 71 10000 3.6 50 11:23 16.05.2020
2910 Rain 14 1018 71 10000 3.6 50 10:58 16.05.2020
2911 Rain 14 1018 71 10000 4.1 50 10:39 16.05.2020
2912 Clouds 13 1018 76 10000 2.6 0 10:20 16.05.2020
2913 Clouds 12 1018 81 10000 2.6 40 09:46 16.05.2020
2914 Clouds 12 1018 81 10000 2.6 40 09:28 16.05.2020
2915 Clouds 12 1017 81 10000 3.1 30 08:55 16.05.2020
2916 Clouds 12 1017 81 10000 2.6 0 08:36 16.05.2020
2917 Clouds 11 1017 81 10000 2.6 0 08:18 16.05.2020
2918 Clouds 11 1017 87 10000 2.6 360 07:42 16.05.2020
2919 Clouds 11 1016 93 10000 2.1 10 07:21 16.05.2020
2920 Clouds 11 1016 87 10000 1.5 20 06:47 16.05.2020
2921 Clouds 11 1016 93 10000 2.1 10 06:20 16.05.2020
2922 Clouds 11 1016 87 10000 2.1 360 05:42 16.05.2020
2923 Clouds 11 1016 87 10000 2.1 10 05:22 16.05.2020
2924 Clouds 11 1016 93 10000 1.5 20 03:28 16.05.2020
2925 Clouds 12 1017 93 10000 2.6 360 02:45 16.05.2020
2926 Clouds 12 1017 93 10000 2.6 360 02:19 16.05.2020
2927 Clouds 12 1017 93 10000 2.6 40 01:40 16.05.2020
2928 Clouds 12 1016 93 10000 2.6 50 00:58 16.05.2020
2929 Clouds 12 1016 93 10000 2.1 60 00:40 16.05.2020
2930 Clouds 12 1016 93 10000 2.1 60 00:20 16.05.2020
2931 Clouds 12 1016 87 10000 2.6 30 23:40 15.05.2020
2932 Clouds 12 1016 87 10000 2.6 30 23:19 15.05.2020
2933 Rain 12 1015 93 10000 1 0 22:42 15.05.2020
2934 Rain 12 1015 87 10000 2.1 20 22:21 15.05.2020
2935 Rain 12 1015 87 10000 2.1 20 21:57 15.05.2020
2936 Rain 13 1014 87 10000 3.1 350 21:39 15.05.2020
2937 Rain 13 1014 87 10000 2.1 340 21:21 15.05.2020
2938 Clouds 14 1014 87 10000 2.1 340 20:56 15.05.2020
2939 Clouds 14 1014 93 10000 3.1 360 20:38 15.05.2020
2940 Clouds 14 1014 93 10000 3.1 360 20:19 15.05.2020
2941 Rain 13 1013 100 9000 1.5 100 19:44 15.05.2020
2942 Rain 13 1013 100 9000 1.5 100 19:24 15.05.2020
2943 Rain 13 1013 93 7000 2.1 110 18:58 15.05.2020
2944 Rain 13 1013 100 4500 2.1 70 18:39 15.05.2020
2945 Rain 14 1014 93 9000 3.1 80 18:18 15.05.2020
2946 Thunderstorm 13 1013 82 9000 2.1 40 17:39 15.05.2020
2947 Thunderstorm 14 1013 82 9000 2.1 40 17:19 15.05.2020
2948 Thunderstorm 15 1012 77 9000 2.6 100 16:56 15.05.2020
2949 Rain 16 1013 82 9000 2.1 130 16:38 15.05.2020
2950 Rain 16 1012 77 10000 4.1 140 16:19 15.05.2020
2951 Clouds 17 1012 55 10000 1 0 15:41 15.05.2020
2952 Clouds 17 1012 55 10000 1 0 15:22 15.05.2020
2953 Clouds 17 1012 63 10000 2.1 320 14:58 15.05.2020
2954 Clouds 18 1013 52 10000 1.5 0 14:40 15.05.2020
2955 Clouds 18 1013 52 10000 1.5 0 14:22 15.05.2020
2956 Clouds 17 1013 59 10000 1.5 70 13:43 15.05.2020
2957 Clouds 17 1013 59 10000 1.5 70 13:23 15.05.2020
2958 Clouds 17 1013 67 10000 1.5 0 12:59 15.05.2020
2959 Clouds 16 1013 63 10000 1 360 12:39 15.05.2020
2960 Clouds 16 1013 63 10000 0.5 140 12:18 15.05.2020
2961 Clouds 15 1013 63 10000 0.5 140 11:56 15.05.2020
2962 Clouds 15 1013 63 10000 0.5 10 11:38 15.05.2020
2963 Clouds 14 1013 72 10000 1 0 11:19 15.05.2020
2964 Clouds 14 1013 72 10000 1 0 10:56 15.05.2020
2965 Clouds 14 1013 76 10000 1.5 280 10:38 15.05.2020
2966 Clouds 13 1013 76 10000 1.5 280 10:20 15.05.2020
2967 Clouds 13 1013 87 10000 1 0 09:40 15.05.2020
2968 Clouds 12 1013 87 10000 1 0 09:20 15.05.2020
2969 Clouds 12 1013 93 10000 0.72 11 08:59 15.05.2020
2970 Clouds 11 1012 93 10000 0.5 0 08:38 15.05.2020
2971 Clouds 11 1012 93 10000 0.5 0 08:20 15.05.2020
2972 Clouds 10 1012 100 10000 1 180 07:46 15.05.2020
2973 Clouds 10 1012 100 10000 1 180 07:46 15.05.2020
2974 Clouds 10 1012 100 10000 1 180 07:28 15.05.2020
2975 Clouds 10 1011 100 10000 1.5 150 06:59 15.05.2020
2976 Clouds 11 1011 93 8000 1 200 05:56 15.05.2020
2977 Clouds 12 1011 76 10000 1.5 250 04:38 15.05.2020
2978 Clouds 12 1011 93 10000 2.6 260 03:50 15.05.2020
2979 Clouds 12 1011 87 10000 2.1 240 02:49 15.05.2020
2980 Clouds 13 1011 87 10000 1.5 230 01:36 15.05.2020
2981 Clouds 13 1011 82 10000 1.5 210 00:58 15.05.2020
2982 Clouds 13 1011 82 10000 1 0 00:39 15.05.2020
2983 Clouds 13 1010 82 10000 3.1 200 00:21 15.05.2020
2984 Clouds 13 1010 71 10000 2.1 190 23:41 14.05.2020
2985 Clouds 13 1010 71 10000 2.1 190 23:41 14.05.2020
2986 Clouds 14 1010 71 10000 2.1 180 23:18 14.05.2020
2987 Clouds 13 1009 76 10000 1.5 150 22:42 14.05.2020
2988 Clouds 13 1009 76 10000 1.5 150 22:23 14.05.2020
2989 Clouds 13 1009 76 10000 2.1 140 21:58 14.05.2020
2990 Clouds 14 1008 76 10000 1.5 140 21:40 14.05.2020
2991 Clouds 14 1008 67 10000 2.1 190 21:20 14.05.2020
2992 Clouds 14 1008 76 10000 1.5 140 21:20 14.05.2020
2993 Clouds 14 1008 67 10000 2.1 190 20:57 14.05.2020
2994 Clouds 15 1007 62 10000 2.1 190 20:38 14.05.2020
2995 Clouds 15 1007 62 10000 2.1 190 20:19 14.05.2020
2996 Clouds 15 1007 62 10000 2.1 200 19:56 14.05.2020
2997 Clouds 15 1007 62 10000 2.6 190 19:37 14.05.2020
2998 Clouds 15 1007 62 10000 1.5 180 19:19 14.05.2020
2999 Clouds 15 1007 62 10000 1.5 180 18:56 14.05.2020
3000 Clouds 15 1007 62 10000 2.1 200 18:37 14.05.2020
3001 Clouds 15 1007 62 10000 2.1 200 18:18 14.05.2020
3002 Clouds 16 1007 55 10000 2.6 230 17:56 14.05.2020
3003 Clouds 15 1007 59 10000 3.1 250 17:36 14.05.2020
3004 Clouds 15 1006 62 10000 2.6 230 17:18 14.05.2020
3005 Clouds 15 1007 62 10000 3.1 210 16:39 14.05.2020
3006 Clouds 14 1007 62 10000 3.1 210 16:21 14.05.2020
3007 Clouds 14 1006 67 10000 2.6 230 15:58 14.05.2020
3008 Clouds 14 1007 72 10000 2.6 230 15:40 14.05.2020
3009 Clouds 13 1007 76 10000 2.1 230 15:20 14.05.2020
3010 Clouds 13 1007 76 10000 2.1 230 14:56 14.05.2020
3011 Clouds 13 1007 87 10000 2.6 220 14:38 14.05.2020
3012 Rain 13 1007 87 10000 2.6 210 14:19 14.05.2020
3013 Rain 13 1007 87 10000 2.6 210 14:19 14.05.2020
3014 Rain 12 1007 87 10000 2.6 210 13:55 14.05.2020
3015 Rain 12 1007 93 10000 2.6 200 13:37 14.05.2020
3016 Rain 11 1007 93 10000 2.6 200 13:18 14.05.2020
3017 Rain 11 1007 87 10000 1 0 12:57 14.05.2020
3018 Rain 11 1007 87 8000 0.5 0 12:37 14.05.2020
3019 Rain 11 1006 93 8000 1.5 320 12:18 14.05.2020
3020 Rain 10 1006 93 8000 1.5 320 11:55 14.05.2020
3021 Rain 10 1006 93 8000 2.1 250 11:37 14.05.2020
3022 Rain 10 1006 93 8000 2.1 250 11:19 14.05.2020
3023 Rain 10 1006 93 9000 2.1 260 10:41 14.05.2020
3024 Rain 10 1006 93 9000 2.1 260 10:41 14.05.2020
3025 Rain 10 1006 93 8000 1.5 250 10:22 14.05.2020
3026 Rain 10 1006 93 8000 1.5 250 09:45 14.05.2020
3027 Rain 10 1006 93 8000 2.1 220 09:25 14.05.2020
3028 Rain 10 1005 93 7000 4.1 230 08:59 14.05.2020
3029 Rain 10 1005 100 7000 3.1 210 08:37 14.05.2020
3030 Rain 10 1005 100 7000 3.1 210 08:18 14.05.2020
3031 Rain 10 1004 93 9000 6.2 230 07:44 14.05.2020
3032 Rain 10 1004 93 9000 6.2 230 07:21 14.05.2020
3033 Clouds 11 1004 93 10000 5.1 250 06:43 14.05.2020
3034 Clouds 11 1004 93 10000 5.1 250 06:24 14.05.2020
3035 Clouds 12 1004 93 10000 2.63 93 05:42 14.05.2020
3036 Clouds 12 1004 87 10000 0.5 0 04:45 14.05.2020
3037 Clouds 13 1004 82 10000 1 0 03:39 14.05.2020
3038 Clouds 13 1004 82 10000 1 0 03:19 14.05.2020
3039 Clouds 13 1005 76 10000 1 0 02:35 14.05.2020
3040 Clouds 14 1005 71 10000 1.5 50 01:49 14.05.2020
3041 Clouds 14 1005 71 10000 1 0 00:53 14.05.2020
3042 Clouds 14 1005 71 10000 1.5 10 00:27 14.05.2020
3043 Clouds 15 1006 67 10000 0.5 0 23:45 13.05.2020
3044 Clouds 15 1006 67 10000 0.5 0 23:25 13.05.2020
3045 Clouds 15 1006 67 10000 1 0 22:59 13.05.2020
3046 Clouds 15 1006 72 10000 1.5 250 22:41 13.05.2020
3047 Clouds 16 1006 72 10000 1.5 250 22:22 13.05.2020
3048 Clouds 16 1005 67 10000 1.5 210 21:58 13.05.2020
3049 Clouds 16 1005 59 10000 2.1 210 21:39 13.05.2020
3050 Clouds 17 1005 59 10000 2.1 210 21:19 13.05.2020
3051 Clouds 17 1005 52 10000 1.5 170 20:55 13.05.2020
3052 Clouds 18 1005 55 10000 2.6 200 20:37 13.05.2020
3053 Clouds 18 1005 55 10000 2.6 200 20:37 13.05.2020
3054 Clouds 17 1005 55 10000 2.6 190 20:19 13.05.2020
3055 Clouds 17 1005 59 10000 2.6 210 19:41 13.05.2020
3056 Clouds 18 1005 59 10000 2.6 210 19:23 13.05.2020
3057 Clouds 18 1005 52 10000 1.5 0 18:44 13.05.2020
3058 Clouds 18 1005 52 10000 1.5 0 18:22 13.05.2020
3059 Clouds 18 1005 52 10000 1.5 0 18:22 13.05.2020
3060 Clouds 18 1005 55 10000 3.1 190 17:58 13.05.2020
3061 Clouds 18 1005 59 10000 4.1 210 17:38 13.05.2020
3062 Clouds 18 1005 52 10000 3.6 200 17:18 13.05.2020
3063 Clouds 18 1006 52 10000 3.6 190 16:40 13.05.2020
3064 Clouds 18 1006 52 10000 3.6 190 16:19 13.05.2020
3065 Clouds 17 1006 55 10000 3.6 200 15:55 13.05.2020
3066 Clouds 17 1006 55 10000 5.1 200 15:37 13.05.2020
3067 Clouds 18 1006 55 10000 3.6 190 15:18 13.05.2020
3068 Clouds 17 1006 55 10000 3.1 210 14:42 13.05.2020
3069 Clouds 17 1006 55 10000 3.1 210 14:24 13.05.2020
3070 Clouds 16 1007 59 10000 4.1 190 13:59 13.05.2020
3071 Clouds 16 1007 59 10000 4.1 190 13:59 13.05.2020
3072 Clouds 16 1007 63 10000 3.1 200 13:41 13.05.2020
3073 Clouds 16 1007 63 10000 3.1 200 13:22 13.05.2020
3074 -273 0 0 0 0 0 12:59 13.05.2020
3075 Clouds 15 1007 72 10000 5.1 230 12:41 13.05.2020
3076 Clouds 15 1007 72 10000 5.1 230 12:20 13.05.2020
3077 Clouds 14 1007 77 10000 5.1 220 11:56 13.05.2020
3078 Rain 14 1007 77 10000 5.1 220 11:37 13.05.2020
3079 Rain 14 1007 77 10000 5.1 220 11:19 13.05.2020
3080 Rain 13 1007 76 10000 5.1 230 10:57 13.05.2020
3081 Clouds 13 1007 87 10000 5.1 240 10:38 13.05.2020
3082 Clouds 12 1007 87 10000 5.1 220 10:19 13.05.2020
3083 Clouds 11 1007 93 10000 5.1 220 09:46 13.05.2020
3084 Clouds 11 1007 93 10000 5.1 220 09:24 13.05.2020
3085 Clouds 11 1006 93 10000 4.1 230 08:58 13.05.2020
3086 Clouds 10 1007 93 10000 4.1 220 08:39 13.05.2020
3087 Mist 10 1007 100 5000 3.6 230 08:20 13.05.2020
3088 Mist 10 1007 100 5000 3.6 230 07:51 13.05.2020
3089 Mist 10 1006 93 5000 4.1 230 07:31 13.05.2020
3090 Clouds 10 1006 93 10000 4.1 230 06:52 13.05.2020
3091 Clouds 10 1006 93 10000 4.1 230 06:33 13.05.2020
3092 Clouds 10 1006 100 10000 4.6 230 05:34 13.05.2020
3093 Clouds 10 1007 93 10000 3.1 220 03:37 13.05.2020
3094 Clouds 10 1007 93 10000 3.6 230 02:34 13.05.2020
3095 Rain 10 1007 93 10000 3.6 230 01:46 13.05.2020
3096 Rain 10 1008 100 10000 4.1 230 00:56 13.05.2020
3097 Rain 10 1008 100 10000 4.6 240 00:23 13.05.2020
3098 Rain 10 1008 100 7000 5.1 240 23:58 12.05.2020
3099 Rain 11 1007 93 5000 3.1 250 23:39 12.05.2020
3100 Rain 11 1007 93 5000 3.1 250 23:18 12.05.2020
3101 Rain 11 1007 93 6000 3.6 80 22:42 12.05.2020
3102 Rain 11 1007 93 6000 3.6 80 22:22 12.05.2020
3103 Rain 11 1007 100 5000 2.6 100 21:56 12.05.2020
3104 Rain 11 1007 100 5000 2.6 110 21:38 12.05.2020
3105 Rain 11 1007 100 7000 2.6 150 21:19 12.05.2020
3106 Rain 11 1007 100 7000 2.6 150 20:58 12.05.2020
3107 Rain 11 1007 93 1500 2.1 80 20:39 12.05.2020
3108 Rain 11 1007 93 1500 2.1 80 20:20 12.05.2020
3109 Rain 12 1007 93 7000 2.6 100 19:57 12.05.2020
3110 Rain 12 1007 93 7000 1.5 120 19:39 12.05.2020
3111 Rain 12 1007 93 7000 1.5 120 19:20 12.05.2020
3112 Rain 12 1007 93 10000 1.5 120 18:55 12.05.2020
3113 Rain 13 1008 87 10000 1 0 18:36 12.05.2020
3114 Rain 13 1008 87 10000 1.5 140 18:18 12.05.2020
3115 Rain 13 1008 87 10000 1 0 17:41 12.05.2020
3116 Rain 13 1008 87 10000 1 0 17:23 12.05.2020
3117 Rain 13 1008 87 9000 3.1 140 16:47 12.05.2020
3118 Rain 12 1009 87 7000 4.6 130 16:26 12.05.2020
3119 Rain 13 1009 87 8000 5.1 150 15:56 12.05.2020
3120 Rain 13 1009 93 5000 5.7 140 15:38 12.05.2020
3121 Rain 15 1009 77 10000 5.7 130 15:19 12.05.2020
3122 Rain 15 1009 77 10000 5.7 130 14:57 12.05.2020
3123 Clouds 15 1010 67 10000 5.1 120 14:37 12.05.2020
3124 Clouds 15 1010 77 10000 3.1 110 14:19 12.05.2020
3125 Clouds 16 1010 77 10000 3.1 110 13:57 12.05.2020
3126 Clouds 16 1010 77 10000 3.1 110 13:57 12.05.2020
3127 Clouds 15 1010 82 10000 2.6 130 13:39 12.05.2020
3128 Rain 15 1010 82 10000 2.6 110 13:19 12.05.2020
3129 Rain 15 1010 82 10000 2.6 110 12:57 12.05.2020
3130 Rain 15 1011 77 10000 2.6 100 12:39 12.05.2020
3131 Clouds 15 1011 77 10000 2.6 100 12:21 12.05.2020
3132 Clouds 15 1011 77 10000 2.6 100 12:21 12.05.2020
3133 Clouds 15 1011 77 10000 1.5 80 11:57 12.05.2020
3134 Clouds 15 1010 77 10000 1 0 11:38 12.05.2020
3135 Clouds 15 1010 77 10000 1 0 11:20 12.05.2020
3136 Clouds 14 1011 77 10000 1 0 10:57 12.05.2020
3137 Clouds 14 1011 82 10000 1.5 360 10:39 12.05.2020
3138 Clouds 14 1011 82 10000 1.5 360 10:20 12.05.2020
3139 Clouds 14 1010 87 10000 2.1 350 09:58 12.05.2020
3140 Clouds 13 1011 87 10000 1.5 350 09:39 12.05.2020
3141 Clouds 13 1011 93 10000 1 0 09:20 12.05.2020
3142 Clouds 13 1011 87 10000 2.1 360 08:42 12.05.2020
3143 Clouds 13 1011 87 10000 2.1 360 08:22 12.05.2020
3144 Clouds 13 1011 87 10000 1 0 07:58 12.05.2020
3145 Clouds 13 1011 93 10000 0.5 0 07:40 12.05.2020
3146 Clouds 12 1011 93 10000 0.5 0 07:20 12.05.2020
3147 Clouds 12 1012 100 10000 1 0 06:38 12.05.2020
3148 Clouds 12 1011 93 10000 1 0 06:20 12.05.2020
3149 Clouds 12 1010 93 10000 1.5 340 05:46 12.05.2020
3150 Fog 12 1011 100 600 1 0 04:41 12.05.2020
3151 Mist 12 1011 100 1200 2.1 260 03:24 12.05.2020
3152 Clouds 12 1012 93 10000 2.6 200 02:27 12.05.2020
3153 Clouds 13 1012 93 10000 3.1 190 01:48 12.05.2020
3154 Clouds 13 1012 93 10000 2.1 210 00:59 12.05.2020
3155 Clouds 14 1012 93 10000 2.6 230 00:24 12.05.2020
3156 Clouds 13 1012 93 10000 2.6 250 23:57 11.05.2020
3157 Clouds 14 1012 87 10000 3.1 220 23:38 11.05.2020
3158 Clear 14 1012 82 10000 3.1 240 23:20 11.05.2020
3159 Clear 14 1012 82 10000 3.1 240 22:58 11.05.2020
3160 Clouds 15 1012 82 10000 3.6 230 22:40 11.05.2020
3161 Clouds 15 1011 77 10000 5.7 220 22:19 11.05.2020
3162 Clouds 16 1011 77 10000 5.7 220 21:55 11.05.2020
3163 Clouds 16 1011 77 10000 5.1 220 21:37 11.05.2020
3164 Clouds 17 1011 72 10000 6.2 230 21:18 11.05.2020
3165 Clouds 17 1011 72 10000 6.2 230 20:57 11.05.2020
3166 Clouds 17 1010 63 10000 4.6 240 20:38 11.05.2020
3167 Clouds 17 1010 63 10000 4.6 240 20:18 11.05.2020
3168 Clouds 19 1010 55 10000 6.7 230 19:41 11.05.2020
3169 Clouds 19 1010 52 10000 6.2 220 19:22 11.05.2020
3170 Clouds 19 1010 52 10000 6.2 220 18:58 11.05.2020
3171 Clouds 19 1010 59 10000 6.2 230 18:39 11.05.2020
3172 Clouds 19 1010 59 10000 6.2 230 18:20 11.05.2020
3173 Clouds 19 1010 55 10000 7.2 230 17:58 11.05.2020
3174 Clouds 18 1010 63 10000 7.2 220 17:40 11.05.2020
3175 Clouds 18 1010 63 10000 7.2 220 17:21 11.05.2020
3176 Clouds 18 1010 77 10000 5.1 210 16:57 11.05.2020
3177 Clouds 18 1009 45 10000 6.7 220 16:38 11.05.2020
3178 Clouds 19 1010 52 10000 6.2 210 16:19 11.05.2020
3179 Clouds 18 1010 52 10000 6.7 210 15:42 11.05.2020
3180 Clouds 18 1010 55 10000 4.6 220 15:21 11.05.2020
3181 Clouds 18 1010 55 10000 4.6 220 14:59 11.05.2020
3182 Clouds 18 1010 52 10000 4.6 210 14:41 11.05.2020
3183 Clouds 18 1010 52 10000 4.6 210 14:22 11.05.2020
3184 Clouds 18 1010 55 10000 6.2 200 13:55 11.05.2020
3185 Clouds 18 1010 55 10000 6.2 200 13:55 11.05.2020
3186 Clouds 17 1010 59 10000 5.7 220 13:37 11.05.2020
3187 Clouds 17 1010 59 10000 5.7 210 13:18 11.05.2020
3188 Clouds 16 1010 59 10000 5.7 210 12:55 11.05.2020
3189 Clouds 16 1010 67 10000 5.1 210 12:37 11.05.2020
3190 Clouds 16 1010 67 10000 5.1 210 12:19 11.05.2020
3191 Clouds 15 1010 63 10000 5.7 230 11:41 11.05.2020
3192 Clouds 14 1010 71 10000 6.2 230 11:22 11.05.2020
3193 Clouds 13 1010 71 10000 6.2 230 10:58 11.05.2020
3194 Clouds 14 1010 71 10000 5.1 230 10:40 11.05.2020
3195 Clouds 14 1010 71 10000 5.1 230 10:22 11.05.2020
3196 Clouds 13 1010 82 10000 6.2 230 09:59 11.05.2020
3197 Clouds 13 1009 82 10000 5.1 230 09:41 11.05.2020
3198 Clouds 12 1009 82 10000 5.1 240 09:20 11.05.2020
3199 Clouds 12 1009 82 10000 5.1 240 08:56 11.05.2020
3200 Clouds 12 1009 87 10000 3.6 240 08:37 11.05.2020
3201 Clouds 12 1009 87 10000 3.6 240 08:18 11.05.2020
3202 Clouds 11 1009 93 10000 5.1 230 07:46 11.05.2020
3203 Clouds 11 1009 93 10000 5.1 230 07:27 11.05.2020
3204 Clouds 11 1008 93 10000 4.6 240 06:51 11.05.2020
3205 Clouds 11 1008 93 10000 4.6 240 05:58 11.05.2020
3206 Clouds 11 1008 93 10000 6.2 230 05:25 11.05.2020
3207 Clouds 12 1008 87 10000 4.6 240 04:32 11.05.2020
3208 Clear 13 1008 81 10000 4.1 240 03:32 11.05.2020
3209 Clear 13 1009 71 10000 5.1 240 02:33 11.05.2020
3210 Clear 14 1009 67 10000 5.1 230 01:43 11.05.2020
3211 Clouds 14 1009 71 10000 4.1 240 00:53 11.05.2020
3212 Clouds 14 1009 71 10000 6.2 240 00:21 11.05.2020
3213 Clouds 14 1009 71 10000 4.6 240 23:44 10.05.2020
3214 Clouds 14 1009 71 10000 4.6 240 23:26 10.05.2020
3215 Clouds 14 1008 67 10000 5.1 240 22:57 10.05.2020
3216 Clouds 15 1008 71 10000 5.1 240 22:38 10.05.2020
3217 Clouds 15 1008 62 10000 6.7 240 22:20 10.05.2020
3218 Clouds 15 1007 62 10000 6.2 240 21:44 10.05.2020
3219 Clouds 16 1007 62 10000 6.2 240 21:20 10.05.2020
3220 Clouds 17 1007 59 10000 7.7 240 20:56 10.05.2020
3221 Clouds 17 1007 51 10000 7.2 230 20:38 10.05.2020
3222 Clouds 18 1007 51 10000 7.2 230 20:19 10.05.2020
3223 Clouds 18 1007 48 10000 6.7 240 19:41 10.05.2020
3224 Clouds 18 1007 48 10000 6.7 240 19:22 10.05.2020
3225 Clouds 18 1006 48 10000 6.7 230 18:57 10.05.2020
3226 Clouds 19 1007 45 10000 7.7 240 18:37 10.05.2020
3227 Clouds 19 1007 45 10000 7.7 240 18:19 10.05.2020
3228 Clouds 18 1006 48 10000 8.7 230 17:59 10.05.2020
3229 Clouds 18 1006 45 10000 7.7 220 17:40 10.05.2020
3230 Clouds 18 1007 48 10000 8.7 230 17:22 10.05.2020
3231 Clouds 18 1007 48 10000 8.7 230 16:58 10.05.2020
3232 Clouds 18 1007 48 10000 8.2 230 16:40 10.05.2020
3233 Clouds 18 1007 48 10000 7.2 210 16:19 10.05.2020
3234 Clouds 18 1007 48 10000 7.2 210 15:55 10.05.2020
3235 Clouds 19 1007 40 10000 7.2 240 15:36 10.05.2020
3236 Clouds 18 1007 45 10000 6.7 240 15:18 10.05.2020
3237 Clouds 18 1007 48 10000 5.7 220 14:38 10.05.2020
3238 Clouds 18 1007 48 10000 5.7 220 14:20 10.05.2020
3239 Clouds 17 1007 52 10000 6.7 230 13:59 10.05.2020
3240 Clouds 17 1007 45 10000 8.2 230 13:39 10.05.2020
3241 Clouds 16 1007 59 10000 6.7 240 13:20 10.05.2020
3242 Clouds 16 1007 59 10000 6.7 240 12:58 10.05.2020
3243 Clouds 16 1007 59 10000 6.7 240 12:40 10.05.2020
3244 Clouds 15 1008 59 10000 5.7 220 12:21 10.05.2020
3245 Clouds 15 1008 59 10000 5.7 220 11:58 10.05.2020
3246 Clouds 15 1008 62 10000 5.7 230 11:39 10.05.2020
3247 Clouds 15 1008 62 10000 5.7 230 11:20 10.05.2020
3248 Clouds 14 1008 71 10000 5.7 230 10:47 10.05.2020
3249 Clouds 13 1008 76 10000 7.2 230 10:29 10.05.2020
3250 Clouds 12 1008 81 10000 7.2 230 09:59 10.05.2020
3251 Clouds 11 1008 81 10000 7.2 240 09:40 10.05.2020
3252 Clouds 11 1008 81 10000 7.2 240 09:21 10.05.2020
3253 Clouds 10 1007 93 10000 5.7 230 08:52 10.05.2020
3254 Clouds 10 1007 93 10000 5.7 230 08:24 10.05.2020
3255 Clouds 10 1007 93 10000 5.7 230 07:46 10.05.2020
3256 Clouds 10 1007 93 10000 5.7 230 07:21 10.05.2020
3257 Rain 11 1007 93 10000 5.1 220 06:58 10.05.2020
3258 Rain 11 1007 87 10000 6.2 230 06:37 10.05.2020
3259 Clouds 12 1008 93 10000 4.6 220 06:18 10.05.2020
3260 Rain 12 1008 93 10000 4.1 240 05:41 10.05.2020
3261 Rain 12 1008 93 9000 4.1 210 04:39 10.05.2020
3262 Rain 13 1008 93 9000 4.1 210 04:20 10.05.2020
3263 Clouds 13 1008 93 10000 2.6 240 03:39 10.05.2020
3264 Clouds 13 1009 93 10000 3.6 250 02:53 10.05.2020
3265 Rain 13 1009 93 10000 3.6 250 02:24 10.05.2020
3266 Rain 14 1009 93 10000 4.6 230 01:43 10.05.2020
3267 Clouds 14 1009 93 10000 3.6 240 01:23 10.05.2020
3268 Clouds 14 1009 93 10000 3.6 240 00:57 10.05.2020
3269 Clouds 14 1009 93 10000 4.6 250 00:36 10.05.2020
3270 Clouds 15 1010 93 6000 7.2 250 00:18 10.05.2020
3271 Clouds 16 1010 67 10000 8.2 230 23:39 09.05.2020
3272 Rain 16 1009 63 10000 5.7 240 23:20 09.05.2020
3273 Rain 17 1009 63 10000 5.7 240 22:54 09.05.2020
3274 Clouds 18 1009 63 10000 4.6 240 22:36 09.05.2020
3275 Clouds 18 1009 59 10000 4.1 240 22:18 09.05.2020
3276 Clouds 19 1009 59 10000 4.1 240 21:55 09.05.2020
3277 Clouds 19 1008 55 10000 4.6 240 21:36 09.05.2020
3278 Clouds 19 1008 55 10000 4.6 240 21:36 09.05.2020
3279 Clouds 20 1008 48 10000 5.1 240 21:18 09.05.2020
3280 Clouds 20 1008 48 10000 5.1 240 20:54 09.05.2020
3281 Clouds 21 1008 43 10000 6.7 240 20:36 09.05.2020
3282 Clouds 21 1008 40 10000 4.6 240 20:18 09.05.2020
3283 Clouds 22 1008 38 10000 3.6 230 19:39 09.05.2020
3284 Clouds 23 1009 40 10000 3.1 230 19:20 09.05.2020
3285 Clouds 23 1009 40 10000 3.1 230 18:54 09.05.2020
3286 Clouds 23 1009 38 10000 3.1 230 18:36 09.05.2020
3287 Clouds 23 1009 40 10000 4.1 240 18:18 09.05.2020
3288 Clouds 23 1010 43 10000 4.1 200 17:40 09.05.2020
3289 Clouds 23 1010 43 10000 4.1 200 17:21 09.05.2020
3290 Clouds 23 1010 38 10000 3.6 220 16:41 09.05.2020
3291 Clouds 22 1010 38 10000 3.6 220 16:20 09.05.2020
3292 Clouds 22 1011 46 10000 4.1 200 15:46 09.05.2020
3293 Clouds 21 1011 46 10000 4.1 200 15:27 09.05.2020
3294 Clouds 21 1011 46 10000 4.1 190 14:59 09.05.2020
3295 Clouds 21 1012 52 10000 3.6 210 14:41 09.05.2020
3296 Clouds 21 1012 52 10000 3.6 210 14:20 09.05.2020
3297 Clouds 20 1012 52 10000 3.6 210 13:58 09.05.2020
3298 Clouds 20 1012 55 10000 3.1 190 13:40 09.05.2020
3299 Clouds 20 1012 55 10000 3.1 190 13:20 09.05.2020
3300 Clouds 20 1013 60 10000 4.1 230 12:43 09.05.2020
3301 Clouds 19 1013 60 10000 4.1 230 12:23 09.05.2020
3302 Clouds 19 1013 59 10000 4.1 200 11:58 09.05.2020
3303 Clouds 19 1013 59 10000 4.1 200 11:58 09.05.2020
3304 Clouds 18 1013 72 10000 4.6 200 11:40 09.05.2020
3305 Clouds 18 1013 68 10000 3.6 200 11:18 09.05.2020
3306 Clouds 18 1013 68 10000 3.6 200 10:47 09.05.2020
3307 Clouds 18 1013 72 10000 4.1 240 10:25 09.05.2020
3308 Clouds 17 1013 77 10000 4.1 220 09:58 09.05.2020
3309 Clouds 16 1013 82 10000 5.1 230 09:39 09.05.2020
3310 Clouds 16 1013 82 10000 4.6 230 09:19 09.05.2020
3311 Clouds 16 1013 82 10000 4.6 230 08:51 09.05.2020
3312 Clouds 15 1013 87 10000 4.1 230 08:33 09.05.2020
3313 Clouds 15 1013 82 10000 3.6 210 07:51 09.05.2020
3314 Clouds 15 1013 82 10000 3.6 210 07:33 09.05.2020
3315 Clouds 15 1012 87 10000 2.6 200 06:55 09.05.2020
3316 Rain 16 1013 82 10000 2.6 210 06:26 09.05.2020
3317 Rain 16 1013 72 10000 2.6 220 05:49 09.05.2020
3318 Clouds 18 1013 72 10000 5.1 230 04:20 09.05.2020
3319 Clouds 18 1013 68 10000 3.6 210 03:38 09.05.2020
3320 Clouds 20 1013 63 10000 3.1 200 02:50 09.05.2020
3321 Rain 20 1014 56 10000 3.6 140 01:54 09.05.2020
3322 Rain 21 1013 56 10000 3.1 130 01:25 09.05.2020
3323 Clouds 22 1013 46 10000 2.1 130 00:59 09.05.2020
3324 Clouds 21 1012 46 10000 2.1 130 00:38 09.05.2020
3325 Clouds 22 1012 38 10000 2.6 250 23:57 08.05.2020
3326 Clouds 22 1012 38 10000 4.1 260 23:39 08.05.2020
3327 Clouds 22 1013 59 10000 3.6 250 23:19 08.05.2020
3328 Clouds 23 1012 41 10000 3.6 260 22:54 08.05.2020
3329 Clouds 23 1012 60 10000 3.6 240 22:36 08.05.2020
3330 Clouds 23 1012 52 10000 3.6 250 22:18 08.05.2020
3331 Clouds 24 1012 41 10000 3.1 220 21:42 08.05.2020
3332 Clouds 25 1012 36 10000 3.1 200 21:19 08.05.2020
3333 Clouds 26 1012 36 10000 3.1 200 21:19 08.05.2020
3334 Clouds 26 1012 36 10000 3.1 200 20:59 08.05.2020
3335 Clouds 26 1012 34 10000 2.6 180 20:41 08.05.2020
3336 Clouds 26 1012 34 10000 2.6 180 20:23 08.05.2020
3337 Clouds 26 1012 36 10000 2.1 0 19:55 08.05.2020
3338 Clouds 27 1012 34 10000 3.1 180 19:37 08.05.2020
3339 Clouds 27 1012 34 10000 3.1 180 19:19 08.05.2020
3340 Clear 27 1013 34 10000 2.6 0 18:43 08.05.2020
3341 Clear 27 1013 34 10000 2.6 0 18:25 08.05.2020
3342 Clouds 26 1013 36 10000 2.6 210 17:42 08.05.2020
3343 Clouds 26 1013 36 10000 2.6 210 17:19 08.05.2020
3344 Clouds 26 1014 36 10000 1.5 230 16:54 08.05.2020
3345 Clouds 26 1014 39 10000 1 200 16:36 08.05.2020
3346 Clouds 26 1014 39 10000 1 200 16:18 08.05.2020
3347 Clear 26 1015 41 10000 2.1 0 15:42 08.05.2020
3348 Clear 25 1015 41 10000 2.1 0 15:19 08.05.2020
3349 Clear 25 1015 41 10000 3.1 140 14:55 08.05.2020
3350 Clear 24 1016 44 10000 2.1 0 14:37 08.05.2020
3351 Clear 24 1016 44 10000 2.1 0 14:18 08.05.2020
3352 Clear 23 1016 40 10000 2.6 0 13:41 08.05.2020
3353 Clear 23 1016 40 10000 2.6 0 13:20 08.05.2020
3354 Clear 22 1016 40 10000 2.6 0 12:55 08.05.2020
3355 Clear 21 1016 46 10000 2.6 0 12:37 08.05.2020
3356 Clear 21 1016 46 10000 2.6 0 12:18 08.05.2020
3357 Clear 20 1017 52 10000 2.1 50 11:44 08.05.2020
3358 Clouds 19 1017 52 10000 2.1 50 11:23 08.05.2020
3359 Clouds 19 1017 52 10000 2.1 50 10:58 08.05.2020
3360 Clouds 19 1017 52 10000 2.1 80 10:40 08.05.2020
3361 Clouds 18 1017 52 10000 2.1 80 10:19 08.05.2020
3362 Clouds 18 1017 52 10000 2.6 60 09:54 08.05.2020
3363 Clouds 18 1017 55 10000 3.1 70 09:36 08.05.2020
3364 Clouds 16 1017 59 10000 2.1 60 09:18 08.05.2020
3365 Clouds 16 1017 55 10000 2.6 70 08:40 08.05.2020
3366 Clouds 16 1016 63 10000 3.1 90 08:21 08.05.2020
3367 Clouds 16 1016 63 10000 2.1 60 07:43 08.05.2020
3368 Clouds 16 1016 63 10000 2.1 60 07:43 08.05.2020
3369 Rain 16 1017 63 10000 2.1 70 07:23 08.05.2020
3370 Rain 16 1017 63 10000 1.5 0 06:50 08.05.2020
3371 Rain 16 1017 63 10000 1.5 0 06:22 08.05.2020
3372 Rain 16 1017 67 10000 1.5 60 05:41 08.05.2020
3373 Thunderstorm 17 1017 59 10000 1 0 04:30 08.05.2020
3374 Clouds 18 1017 59 10000 4.1 90 02:32 08.05.2020
3375 Rain 19 1017 55 10000 4.1 100 01:47 08.05.2020
3376 Clouds 19 1017 55 10000 4.1 100 01:27 08.05.2020
3377 Clouds 20 1018 55 10000 4.1 90 00:51 08.05.2020
3378 Clouds 20 1018 52 10000 4.1 100 00:29 08.05.2020
3379 Clouds 20 1017 52 10000 5.1 100 23:58 07.05.2020
3380 Clouds 21 1017 49 10000 5.1 100 23:40 07.05.2020
3381 Clouds 20 1017 49 10000 5.1 100 23:40 07.05.2020
3382 Clouds 20 1017 49 10000 5.1 100 23:40 07.05.2020
3383 Clouds 21 1017 52 10000 7.2 100 23:21 07.05.2020
3384 Clouds 21 1017 52 10000 7.2 100 22:55 07.05.2020
3385 Clouds 21 1016 49 10000 6.2 100 22:37 07.05.2020
3386 Clouds 22 1016 49 10000 6.2 100 22:19 07.05.2020
3387 Clouds 22 1016 46 10000 5.1 90 21:55 07.05.2020
3388 Clouds 23 1016 38 10000 4.6 110 21:36 07.05.2020
3389 Clouds 23 1016 38 10000 4.6 110 21:18 07.05.2020
3390 Clouds 25 1016 36 10000 5.7 120 20:42 07.05.2020
3391 Clouds 25 1015 33 10000 6.2 120 20:22 07.05.2020
3392 Clouds 26 1015 33 10000 6.2 120 19:54 07.05.2020
3393 Clouds 26 1015 34 10000 4.6 110 19:36 07.05.2020
3394 Clouds 26 1016 39 10000 3.1 130 19:18 07.05.2020
3395 Clouds 26 1016 41 10000 4.6 120 18:43 07.05.2020
3396 Clouds 26 1016 41 10000 4.6 120 18:25 07.05.2020
3397 Clouds 25 1016 41 10000 5.1 110 17:44 07.05.2020
3398 Clouds 26 1016 36 10000 5.7 110 17:21 07.05.2020
3399 Clouds 26 1016 36 10000 5.7 110 16:59 07.05.2020
3400 Clouds 26 1016 36 10000 5.1 110 16:40 07.05.2020
3401 Clouds 26 1016 36 10000 5.1 110 16:18 07.05.2020
3402 Clouds 26 1016 38 10000 5.7 110 15:56 07.05.2020
3403 Clouds 25 1016 38 10000 5.1 100 15:37 07.05.2020
3404 Clouds 25 1016 38 10000 5.1 100 15:37 07.05.2020
3405 Clouds 25 1016 38 10000 5.7 90 15:18 07.05.2020
3406 Clouds 25 1017 38 10000 4.6 100 14:43 07.05.2020
3407 Clouds 25 1017 38 10000 5.1 120 14:21 07.05.2020
3408 Clouds 24 1017 38 10000 5.1 120 13:45 07.05.2020
3409 Clouds 24 1017 38 10000 5.1 120 13:26 07.05.2020
3410 Clouds 23 1018 46 10000 3.6 90 12:54 07.05.2020
3411 Clouds 23 1018 49 10000 3.1 80 12:36 07.05.2020
3412 Clouds 22 1018 49 10000 3.1 80 12:18 07.05.2020
3413 Clouds 21 1018 49 10000 3.1 60 11:39 07.05.2020
3414 Clouds 21 1018 49 10000 3.1 60 11:21 07.05.2020
3415 Clouds 20 1018 49 10000 2.6 40 10:43 07.05.2020
3416 Clouds 19 1017 52 10000 2.1 360 10:25 07.05.2020
3417 Clouds 18 1017 52 10000 2.1 360 09:56 07.05.2020
3418 Clouds 17 1018 55 10000 1 0 09:38 07.05.2020
3419 Clouds 16 1018 55 10000 1.5 20 09:18 07.05.2020
3420 Clouds 16 1018 55 10000 1.5 20 09:18 07.05.2020
3421 Clouds 15 1018 58 10000 1.5 20 08:42 07.05.2020
3422 Clouds 15 1018 58 10000 1.5 20 08:22 07.05.2020
3423 Clouds 15 1018 62 10000 2.1 360 07:57 07.05.2020
3424 Clouds 15 1018 62 10000 2.1 360 07:57 07.05.2020
3425 Clouds 15 1017 54 10000 2.1 10 07:39 07.05.2020
3426 Clouds 15 1017 54 10000 1.5 10 07:18 07.05.2020
3427 Clouds 15 1017 54 10000 1.5 10 06:37 07.05.2020
3428 Clouds 15 1017 51 10000 2.6 20 05:56 07.05.2020
3429 Clouds 16 1017 58 10000 2.1 10 04:27 07.05.2020
3430 Clouds 16 1018 58 10000 0.5 0 03:29 07.05.2020
3431 Clouds 17 1018 55 10000 1 360 02:59 07.05.2020
3432 Clouds 17 1018 55 10000 1 0 02:26 07.05.2020
3433 Clouds 17 1018 48 10000 1 0 01:27 07.05.2020
3434 Clouds 18 1018 45 10000 1 0 00:52 07.05.2020
3435 Clouds 19 1019 45 10000 1 0 00:31 07.05.2020
3436 Clouds 19 1019 51 10000 1.5 250 23:58 06.05.2020
3437 Clouds 20 1018 42 10000 0.5 0 23:39 06.05.2020
3438 Clouds 20 1018 42 10000 0.5 0 23:39 06.05.2020
3439 Clouds 19 1018 48 10000 1.5 280 23:21 06.05.2020
3440 Clouds 20 1018 48 10000 1.5 280 22:55 06.05.2020
3441 Clouds 20 1018 42 10000 1 260 22:37 06.05.2020
3442 Clouds 21 1018 37 10000 1.5 260 22:18 06.05.2020
3443 Rain 22 1018 37 10000 2.1 250 21:42 06.05.2020
3444 Rain 23 1017 25 10000 1 100 21:23 06.05.2020
3445 Clear 24 1017 29 10000 1.5 250 20:58 06.05.2020
3446 Clear 24 1017 27 10000 1.5 230 20:39 06.05.2020
3447 Clouds 25 1017 27 10000 1.5 230 20:21 06.05.2020
3448 Clouds 25 1017 23 10000 1 0 19:56 06.05.2020
3449 Clouds 25 1018 22 10000 2.1 210 19:38 06.05.2020
3450 Clouds 25 1018 22 10000 1.5 0 19:18 06.05.2020
3451 Clouds 25 1018 22 10000 1.5 0 19:18 06.05.2020
3452 Clouds 25 1018 22 10000 1.5 0 18:56 06.05.2020
3453 Clouds 25 1018 23 10000 2.1 270 18:37 06.05.2020
3454 Clouds 24 1018 23 10000 2.1 270 18:19 06.05.2020
3455 Clouds 24 1018 23 10000 2.6 260 17:55 06.05.2020
3456 Clouds 24 1018 23 10000 1.5 0 17:36 06.05.2020
3457 Clouds 24 1018 23 10000 1.5 0 17:36 06.05.2020
3458 Clouds 24 1018 21 10000 0.5 350 17:18 06.05.2020
3459 Clouds 24 1018 21 10000 0.5 350 16:57 06.05.2020
3460 Clouds 24 1018 23 10000 1.5 180 16:39 06.05.2020
3461 Clouds 24 1018 23 10000 1.5 180 16:20 06.05.2020
3462 Clouds 24 1019 29 10000 1 330 15:48 06.05.2020
3463 Clouds 23 1019 27 10000 1.5 170 15:23 06.05.2020
3464 Clouds 23 1019 27 10000 1.5 170 14:59 06.05.2020
3465 Clouds 22 1019 33 10000 1.5 0 14:39 06.05.2020
3466 Clouds 22 1020 35 10000 1.5 220 14:19 06.05.2020
3467 Clouds 22 1020 35 10000 1.5 220 14:19 06.05.2020
3468 Clouds 22 1020 35 10000 1.5 220 13:58 06.05.2020
3469 Clouds 21 1020 35 10000 1 0 13:39 06.05.2020
3470 Clouds 21 1020 35 10000 1.5 0 13:19 06.05.2020
3471 Clouds 20 1020 39 10000 1 200 12:43 06.05.2020
3472 Clouds 19 1020 35 10000 1 0 12:25 06.05.2020
3473 Clouds 18 1020 45 10000 1 0 11:42 06.05.2020
3474 Clouds 17 1020 45 10000 1 0 11:23 06.05.2020
3475 Clouds 17 1020 45 10000 1.5 100 10:58 06.05.2020
3476 Clouds 16 1020 48 10000 1 0 10:40 06.05.2020
3477 Clouds 15 1020 48 10000 1 0 10:20 06.05.2020
3478 Clouds 14 1019 51 10000 1 0 09:59 06.05.2020
3479 Clouds 14 1019 58 10000 0.5 0 09:38 06.05.2020
3480 Clouds 14 1019 58 10000 0.5 0 09:20 06.05.2020
3481 Clouds 12 1019 66 10000 1.5 350 08:44 06.05.2020
3482 Clouds 11 1019 66 10000 1.5 350 08:21 06.05.2020
3483 Clouds 11 1019 71 10000 1 0 07:57 06.05.2020
3484 Clouds 10 1018 76 10000 1 0 07:38 06.05.2020
3485 Clouds 10 1018 76 10000 1 0 07:19 06.05.2020
3486 Clouds 11 1018 66 10000 2.1 300 06:49 06.05.2020
3487 Clouds 11 1018 66 10000 2.1 300 06:21 06.05.2020
3488 Clouds 12 1018 66 10000 0.5 0 05:50 06.05.2020
3489 Clouds 12 1018 66 10000 0.5 0 05:32 06.05.2020
3490 Clouds 13 1018 66 10000 2.6 260 03:54 06.05.2020
3491 Clear 13 1018 71 10000 2.6 260 03:31 06.05.2020
3492 Clear 13 1018 66 10000 3.6 260 02:58 06.05.2020
3493 Clear 14 1018 66 10000 3.6 260 02:28 06.05.2020
3494 Clear 15 1018 41 10000 0.5 0 01:46 06.05.2020
3495 Clear 16 1018 38 10000 0.5 0 01:26 06.05.2020
3496 Clear 17 1018 24 10000 4.6 260 00:45 06.05.2020
3497 Clear 17 1018 24 10000 4.6 260 00:23 06.05.2020
3498 Clear 18 1017 22 10000 4.6 280 23:42 05.05.2020
3499 Clear 18 1017 22 10000 4.6 280 23:20 05.05.2020
3500 Clear 19 1018 31 10000 2.1 220 22:57 05.05.2020
3501 Clear 19 1017 19 10000 4.1 260 22:39 05.05.2020
3502 Clear 19 1017 19 10000 4.1 260 22:19 05.05.2020
3503 Clear 20 1016 15 10000 4.1 260 21:55 05.05.2020
3504 Clear 21 1017 22 10000 4.6 250 21:37 05.05.2020
3505 Clear 22 1016 21 10000 5.1 230 21:19 05.05.2020
3506 Clear 22 1017 26 10000 4.1 240 20:42 05.05.2020
3507 Clouds 23 1017 26 10000 4.1 240 20:20 05.05.2020
3508 Clouds 23 1017 26 10000 4.1 240 20:20 05.05.2020
3509 Clouds 23 1017 25 10000 5.1 220 20:00 05.05.2020
3510 Clouds 23 1016 23 10000 5.7 220 19:41 05.05.2020
3511 Clouds 23 1016 21 10000 5.7 220 19:23 05.05.2020
3512 Clouds 23 1017 27 10000 5.7 230 18:57 05.05.2020
3513 Clouds 24 1017 25 10000 5.1 220 18:39 05.05.2020
3514 Clouds 24 1017 25 10000 5.1 220 18:19 05.05.2020
3515 Clouds 23 1017 22 10000 5.1 250 17:57 05.05.2020
3516 Clouds 23 1017 22 10000 5.1 250 17:57 05.05.2020
3517 Clouds 24 1017 21 10000 4.1 210 17:38 05.05.2020
3518 Clouds 23 1017 25 10000 5.1 220 17:20 05.05.2020
3519 Clouds 23 1017 31 10000 4.1 200 16:40 05.05.2020
3520 Clouds 23 1017 25 10000 4.1 200 16:21 05.05.2020
3521 Clouds 23 1017 25 10000 4.1 200 15:59 05.05.2020
3522 Clouds 22 1017 28 10000 4.6 210 15:39 05.05.2020
3523 Clouds 22 1017 28 10000 4.6 210 15:39 05.05.2020
3524 Clouds 21 1017 28 10000 5.1 210 15:21 05.05.2020
3525 Clouds 21 1017 28 10000 5.1 210 14:55 05.05.2020
3526 Clouds 21 1017 33 10000 3.6 220 14:37 05.05.2020
3527 Clouds 21 1017 35 10000 4.1 230 14:19 05.05.2020
3528 Clouds 21 1017 35 10000 4.1 230 13:56 05.05.2020
3529 Clouds 21 1017 35 10000 4.1 200 13:38 05.05.2020
3530 Clouds 21 1017 35 10000 4.1 200 13:38 05.05.2020
3531 Clouds 21 1018 32 10000 4.1 230 13:19 05.05.2020
3532 Clouds 20 1018 32 10000 4.1 230 12:56 05.05.2020
3533 Clouds 20 1018 37 10000 4.1 230 12:37 05.05.2020
3534 Clouds 19 1018 40 10000 4.6 220 12:19 05.05.2020
3535 Clouds 19 1017 52 10000 4.6 230 11:41 05.05.2020
3536 Clouds 18 1017 52 10000 4.6 250 11:20 05.05.2020
3537 Clouds 18 1017 52 10000 4.6 250 10:56 05.05.2020
3538 Clouds 18 1017 52 10000 4.6 240 10:38 05.05.2020
3539 Clouds 17 1017 52 10000 4.6 240 10:19 05.05.2020
3540 Clouds 16 1017 63 10000 4.6 220 09:55 05.05.2020
3541 Clouds 15 1017 67 10000 3.6 240 09:36 05.05.2020
3542 Clouds 15 1017 71 10000 2.6 230 09:18 05.05.2020
3543 Clouds 14 1017 76 10000 2.1 190 08:41 05.05.2020
3544 Clouds 14 1017 76 10000 2.1 190 08:19 05.05.2020
3545 Clouds 14 1016 76 10000 3.1 180 07:45 05.05.2020
3546 Clouds 14 1016 76 10000 3.1 180 07:23 05.05.2020
3547 Clouds 14 1016 81 10000 2.6 160 06:59 05.05.2020
3548 Clouds 14 1016 82 10000 2.1 190 06:40 05.05.2020
3549 Clouds 14 1016 82 10000 1.5 180 06:20 05.05.2020
3550 Clouds 15 1016 76 10000 1 0 05:28 05.05.2020
3551 Clouds 17 1016 59 10000 2.6 120 03:19 05.05.2020
3552 Clouds 19 1016 59 10000 2.6 170 01:23 05.05.2020
3553 Clouds 19 1016 52 10000 3.1 210 00:49 05.05.2020
3554 Clouds 20 1016 52 10000 3.1 210 00:18 05.05.2020
3555 Clouds 20 1016 59 10000 4.1 250 23:42 04.05.2020
3556 Clouds 20 1016 59 10000 4.1 250 23:21 04.05.2020
3557 Clouds 21 1015 59 10000 5.1 240 22:55 04.05.2020
3558 Clouds 21 1014 60 10000 6.7 240 22:37 04.05.2020
3559 Clouds 23 1014 60 10000 8.2 240 22:18 04.05.2020
3560 Clouds 23 1014 60 10000 8.2 240 21:52 04.05.2020
3561 Clouds 23 1014 60 10000 8.2 240 21:52 04.05.2020
3562 Clouds 24 1013 50 10000 5.7 230 21:52 04.05.2020
3563 Clouds 24 1013 50 10000 5.7 230 21:52 04.05.2020
3564 Clouds 23 1014 60 10000 8.2 240 21:52 04.05.2020
3565 Clouds 25 1013 50 10000 5.7 230 21:26 04.05.2020
3566 Clouds 25 1013 50 10000 5.7 230 21:26 04.05.2020
3567 Clouds 25 1013 50 10000 5.7 230 21:26 04.05.2020
3568 Clouds 25 1013 50 10000 5.7 230 21:26 04.05.2020
3569 Clouds 25 1013 50 10000 5.7 230 21:26 04.05.2020
3570 Clouds 27 1012 39 10000 8.7 230 20:43 04.05.2020
3571 Clouds 27 1012 39 10000 8.7 230 20:43 04.05.2020
3572 Clouds 27 1012 39 10000 8.7 230 20:43 04.05.2020
3573 Clouds 27 1012 39 10000 8.7 230 20:21 04.05.2020
3574 Clouds 28 1012 32 10000 7.7 220 19:59 04.05.2020
3575 Clouds 28 1012 32 10000 7.7 220 19:59 04.05.2020
3576 Clouds 28 1012 30 10000 7.7 210 19:40 04.05.2020
3577 Clouds 29 1012 30 10000 8.7 230 19:19 04.05.2020
3578 Clouds 29 1012 30 10000 8.7 230 18:54 04.05.2020
3579 Clouds 29 1011 32 10000 9.3 230 18:36 04.05.2020
3580 Clouds 30 1011 27 10000 9.3 210 18:18 04.05.2020
3581 Clouds 30 1011 27 10000 9.3 210 17:54 04.05.2020
3582 Clouds 30 1011 27 10000 8.7 200 17:36 04.05.2020
3583 Clouds 30 1011 27 10000 8.7 200 17:18 04.05.2020
3584 Clouds 28 1012 45 10000 1 0 16:41 04.05.2020
3585 Clouds 28 1012 45 10000 1 0 16:20 04.05.2020
3586 Clouds 27 1012 44 10000 1.5 40 15:45 04.05.2020
3587 Clouds 27 1012 44 10000 2.6 80 15:24 04.05.2020
3588 Clouds 25 1013 47 10000 2.6 90 14:54 04.05.2020
3589 Rain 25 1013 47 10000 4.6 90 14:33 04.05.2020
3590 Rain 25 1013 47 10000 4.6 90 14:33 04.05.2020
3591 Rain 25 1013 47 10000 4.6 90 14:33 04.05.2020
3592 Rain 25 1013 47 10000 4.6 90 14:33 04.05.2020
3593 Clouds 24 1014 50 10000 2.6 60 13:40 04.05.2020
3594 Clouds 24 1014 50 10000 2.6 60 13:40 04.05.2020
3595 Clouds 24 1014 50 10000 2.6 60 13:40 04.05.2020
3596 Clouds 24 1014 50 10000 2.6 60 13:40 04.05.2020
3597 Clouds 22 1015 53 10000 2.1 60 12:45 04.05.2020
3598 Clouds 22 1015 53 10000 2.1 60 12:45 04.05.2020
3599 Clouds 22 1015 53 10000 2.1 60 12:45 04.05.2020
3600 Clouds 23 1015 53 10000 2.1 60 12:45 04.05.2020
3601 Clouds 21 1014 52 10000 2.6 0 11:31 04.05.2020
3602 Clouds 21 1014 52 10000 2.6 0 11:31 04.05.2020
3603 Clouds 21 1014 52 10000 2.6 0 11:31 04.05.2020
3604 Clouds 19 1015 59 10000 2.1 30 09:32 04.05.2020
3605 Clouds 19 1015 59 10000 2.1 30 09:32 04.05.2020
3606 Clouds 19 1015 59 10000 2.1 30 09:32 04.05.2020
3607 Clouds 19 1015 59 10000 2.1 30 09:32 04.05.2020
3608 Clouds 17 1015 72 10000 1 0 07:59 04.05.2020
3609 Clouds 17 1015 72 10000 1.5 20 07:40 04.05.2020
3610 Clouds 17 1015 77 10000 1 0 06:31 04.05.2020
3611 Clouds 17 1015 77 10000 1 0 06:31 04.05.2020
3612 Clouds 17 1015 77 10000 1 0 06:31 04.05.2020
3613 Clouds 17 1015 77 10000 1 0 06:31 04.05.2020
3614 Clouds 17 1015 77 10000 1 0 06:31 04.05.2020
3615 Clouds 18 1015 68 10000 1 0 04:55 04.05.2020
3616 Clouds 19 1016 63 10000 1 0 03:18 04.05.2020
3617 Clouds 20 1016 59 10000 1.5 360 02:30 04.05.2020
3618 Clouds 22 1017 52 10000 1 10 00:36 04.05.2020
3619 Clouds 22 1017 49 10000 1.5 360 23:45 03.05.2020
3620 Clouds 23 1017 46 10000 0.5 0 23:24 03.05.2020
3621 Clouds 24 1017 53 10000 1 340 22:56 03.05.2020
3622 Clouds 24 1016 49 10000 1.31 175 22:38 03.05.2020
3623 Clouds 25 1016 43 10000 1.31 175 22:18 03.05.2020
3624 Clouds 26 1016 38 10000 1.5 110 21:41 03.05.2020
3625 Clouds 27 1016 38 10000 1.5 110 21:20 03.05.2020
3626 Clouds 27 1016 36 10000 2.1 120 20:47 03.05.2020
3627 Clouds 28 1016 37 10000 1.5 120 20:23 03.05.2020
3628 Clouds 29 1017 30 10000 1.5 0 19:55 03.05.2020
3629 Clouds 29 1017 30 10000 1.5 0 19:55 03.05.2020
3630 Clouds 28 1016 34 10000 2.1 160 19:55 03.05.2020
3631 Clouds 28 1017 30 10000 1.5 0 19:36 03.05.2020
3632 Clouds 28 1017 30 10000 1.5 0 19:18 03.05.2020
3633 Clouds 28 1017 34 10000 2.6 160 18:39 03.05.2020
3634 Clouds 28 1017 34 10000 2.6 160 18:39 03.05.2020
3635 Clouds 28 1017 34 10000 2.6 160 18:20 03.05.2020
3636 Clouds 28 1018 37 10000 2.1 0 17:42 03.05.2020
3637 Clouds 28 1018 37 10000 2.1 0 17:22 03.05.2020
3638 Clouds 28 1018 34 10000 2.1 220 16:57 03.05.2020
3639 Clouds 28 1018 34 10000 2.1 0 16:39 03.05.2020
3640 Clouds 27 1019 39 10000 3.6 210 16:18 03.05.2020
3641 Rain 27 1019 39 10000 3.6 210 15:55 03.05.2020
3642 Rain 27 1019 39 10000 3.1 0 15:37 03.05.2020
3643 Clouds 26 1019 39 10000 2.1 180 15:19 03.05.2020
3644 Clouds 25 1020 41 10000 1 0 14:41 03.05.2020
3645 Clouds 25 1020 41 10000 1 0 14:22 03.05.2020
3646 Clouds 25 1020 41 10000 1 0 14:22 03.05.2020
3647 Clouds 24 1020 47 10000 1.5 0 14:00 03.05.2020
3648 Clouds 24 1020 50 10000 2.1 110 13:34 03.05.2020
3649 Clouds 22 1021 53 10000 1 0 12:48 03.05.2020
3650 Clouds 21 1020 60 10000 0.5 190 12:25 03.05.2020
3651 Clouds 21 1020 60 10000 0.5 190 12:25 03.05.2020
3652 Clouds 21 1020 60 10000 0.5 190 12:25 03.05.2020
3653 Clouds 20 1020 60 10000 1 220 11:57 03.05.2020
3654 Clouds 20 1020 60 10000 1.43 99 11:39 03.05.2020
3655 Clouds 19 1021 64 10000 1 0 11:20 03.05.2020
3656 Clouds 18 1021 64 10000 1 0 10:52 03.05.2020
3657 Clouds 18 1021 63 10000 1 0 10:24 03.05.2020
3658 Clouds 16 1020 77 10000 1 0 09:39 03.05.2020
3659 Clouds 14 1020 77 10000 1 0 08:58 03.05.2020
3660 Clouds 14 1020 87 10000 0.5 0 08:35 03.05.2020
3661 Clouds 14 1020 87 10000 0.5 0 08:35 03.05.2020
3662 Clouds 13 1020 100 10000 0.5 0 07:42 03.05.2020
3663 Clouds 13 1020 100 10000 0.5 0 07:42 03.05.2020
3664 Clouds 13 1020 100 10000 0.5 0 07:42 03.05.2020
3665 Clouds 13 1020 100 10000 0.5 0 07:42 03.05.2020
3666 Clouds 13 1020 100 10000 0.5 0 07:42 03.05.2020
3667 Clouds 14 1020 87 10000 0.5 0 06:44 03.05.2020
3668 Clouds 14 1020 93 10000 0.5 0 05:54 03.05.2020
3669 Clouds 15 1020 93 10000 0.5 0 05:35 03.05.2020
3670 Clouds 15 1020 87 10000 1 0 04:27 03.05.2020
3671 Clouds 16 1020 87 10000 1 230 03:38 03.05.2020
3672 Clouds 17 1021 77 10000 1 0 02:31 03.05.2020
3673 -273 0 0 0 0 0 01:59 03.05.2020
3674 Clouds 17 1021 82 9000 2.6 230 01:39 03.05.2020
3675 Clouds 18 1020 67 10000 1.5 150 01:20 03.05.2020
3676 Clouds 19 1021 77 10000 3.1 240 00:38 03.05.2020
3677 Clouds 19 1021 77 10000 3.1 240 00:20 03.05.2020
3678 Clouds 20 1020 52 10000 2.6 150 23:46 02.05.2020
3679 Clouds 20 1020 52 10000 2.6 150 23:27 02.05.2020
3680 Clouds 21 1020 46 10000 1 180 22:56 02.05.2020
3681 Clouds 21 1019 40 10000 3.1 250 22:38 02.05.2020
3682 Clouds 22 1019 40 10000 3.1 250 22:19 02.05.2020
3683 Clouds 23 1020 49 10000 3.6 250 21:41 02.05.2020
3684 Clouds 24 1020 43 10000 4.6 240 21:20 02.05.2020
3685 Clouds 24 1020 43 10000 4.6 240 20:58 02.05.2020
3686 Clouds 24 1020 43 10000 4.6 240 20:58 02.05.2020
3687 Clouds 24 1020 41 10000 5.1 230 20:38 02.05.2020
3688 Clouds 25 1020 38 10000 5.1 230 20:20 02.05.2020
3689 Clouds 25 1020 38 10000 5.1 230 19:58 02.05.2020
3690 Clouds 25 1020 38 10000 6.2 210 19:39 02.05.2020
3691 Clouds 25 1020 41 10000 5.7 250 19:20 02.05.2020
3692 Clouds 25 1020 41 10000 5.7 250 18:56 02.05.2020
3693 Clouds 25 1020 44 10000 5.1 240 18:38 02.05.2020
3694 Clouds 26 1020 44 10000 5.1 240 18:19 02.05.2020
3695 Clouds 25 1020 39 10000 6.2 230 17:56 02.05.2020
3696 Clouds 25 1021 44 10000 5.7 220 17:38 02.05.2020
3697 Clouds 25 1021 41 10000 5.1 220 17:19 02.05.2020
3698 Clouds 25 1021 47 10000 4.1 240 16:44 02.05.2020
3699 Clouds 24 1021 47 10000 4.1 240 16:26 02.05.2020
3700 Clouds 24 1022 47 10000 4.6 220 15:56 02.05.2020
3701 Clouds 23 1022 47 10000 4.6 220 15:37 02.05.2020
3702 Clouds 23 1022 50 10000 4.1 190 15:19 02.05.2020
3703 Clouds 23 1022 47 10000 4.6 220 15:19 02.05.2020
3704 Clouds 22 1022 53 10000 3.1 230 14:41 02.05.2020
3705 Clouds 22 1023 49 10000 2.6 0 14:23 02.05.2020
3706 Clouds 22 1023 49 10000 2.6 0 13:58 02.05.2020
3707 Clouds 21 1023 60 10000 2.1 200 13:38 02.05.2020
3708 Clouds 21 1023 60 10000 2.1 200 13:18 02.05.2020
3709 Clouds 19 1023 68 10000 2.1 0 12:40 02.05.2020
3710 Clouds 19 1023 68 10000 2.1 0 12:20 02.05.2020
3711 Clouds 18 1023 68 10000 1.5 230 11:57 02.05.2020
3712 Clouds 18 1023 68 10000 1.5 240 11:38 02.05.2020
3713 Clouds 17 1023 68 10000 1.5 240 11:20 02.05.2020
3714 Clouds 17 1023 72 10000 0.5 160 10:40 02.05.2020
3715 Clouds 16 1023 72 10000 0.5 160 10:22 02.05.2020
3716 Clouds 16 1023 72 10000 1.54 212 09:59 02.05.2020
3717 Clouds 15 1023 82 10000 1.54 212 09:40 02.05.2020
3718 Clouds 14 1022 93 10000 0.5 0 09:22 02.05.2020
3719 Clouds 13 1022 100 10000 1.5 260 08:55 02.05.2020
3720 Clouds 13 1022 100 10000 1.5 210 08:37 02.05.2020
3721 Clouds 13 1022 100 10000 1.5 210 08:37 02.05.2020
3722 Clouds 12 1022 100 10000 0.5 0 08:19 02.05.2020
3723 Clouds 13 1022 100 10000 1.5 250 07:42 02.05.2020
3724 Clouds 13 1022 100 10000 1.5 270 07:23 02.05.2020
3725 Clouds 13 1022 93 10000 1.5 240 06:43 02.05.2020
3726 Clouds 14 1022 100 10000 1 0 05:28 02.05.2020
3727 Clouds 14 1022 100 10000 1.5 230 04:30 02.05.2020
3728 Clouds 14 1022 93 10000 2.1 250 03:56 02.05.2020
3729 Clouds 15 1023 93 10000 3.1 250 02:42 02.05.2020
3730 Clouds 15 1023 93 10000 3.6 240 01:58 02.05.2020
3731 Clouds 15 1023 87 10000 4.1 250 01:27 02.05.2020
3732 Clouds 16 1022 87 10000 3.6 240 00:43 02.05.2020
3733 Clouds 16 1022 87 10000 3.6 240 00:24 02.05.2020
3734 Clouds 16 1022 82 10000 4.1 250 23:55 01.05.2020
3735 Clouds 16 1022 82 10000 4.6 250 23:37 01.05.2020
3736 Clouds 16 1022 82 10000 4.6 250 23:18 01.05.2020
3737 Clouds 17 1021 82 10000 4.6 240 22:39 01.05.2020
3738 Clouds 17 1021 77 10000 5.1 240 22:20 01.05.2020
3739 Clouds 17 1021 77 10000 5.1 240 21:57 01.05.2020
3740 Clouds 19 1021 72 10000 6.2 240 21:39 01.05.2020
3741 Clouds 19 1021 72 10000 5.1 230 21:20 01.05.2020
3742 Clouds 19 1021 72 10000 5.1 230 20:57 01.05.2020
3743 Clouds 19 1021 68 10000 6.2 230 20:39 01.05.2020
3744 Clouds 20 1021 68 10000 6.2 230 20:20 01.05.2020
3745 Clouds 20 1020 64 10000 6.2 230 19:56 01.05.2020
3746 Clouds 21 1021 64 10000 7.2 230 19:38 01.05.2020
3747 Clouds 21 1021 64 10000 7.2 230 19:19 01.05.2020
3748 Clouds 22 1020 60 10000 6.2 220 18:55 01.05.2020
3749 Clouds 21 1020 60 10000 6.2 220 18:37 01.05.2020
3750 Clouds 22 1020 60 10000 5.1 230 18:18 01.05.2020
3751 Clouds 22 1021 64 10000 5.7 230 17:40 01.05.2020
3752 Clouds 21 1021 64 10000 5.7 230 17:21 01.05.2020
3753 Clouds 21 1021 60 10000 5.7 230 16:57 01.05.2020
3754 Clouds 21 1021 64 10000 5.7 230 16:39 01.05.2020
3755 Clouds 21 1021 64 10000 5.7 230 16:20 01.05.2020
3756 Clouds 20 1021 68 10000 5.1 230 15:57 01.05.2020
3757 Clouds 20 1021 64 10000 6.2 220 15:39 01.05.2020
3758 Clouds 19 1021 68 10000 7.2 210 15:19 01.05.2020
3759 Clouds 19 1021 68 10000 7.2 210 15:19 01.05.2020
3760 Clouds 19 1021 68 10000 6.7 220 14:43 01.05.2020
3761 Clouds 19 1021 68 10000 6.7 220 14:24 01.05.2020
3762 Clouds 18 1022 72 10000 7.2 220 13:55 01.05.2020
3763 Clouds 18 1022 72 10000 5.1 220 13:36 01.05.2020
3764 Clouds 18 1022 72 10000 5.1 220 13:36 01.05.2020
3765 Clouds 17 1022 77 10000 6.7 230 13:18 01.05.2020
3766 Clouds 17 1022 77 10000 6.7 230 12:54 01.05.2020
3767 Clouds 16 1022 77 10000 7.7 220 12:36 01.05.2020
3768 Clouds 15 1021 77 10000 8.2 230 12:18 01.05.2020
3769 Clouds 14 1022 87 10000 8.2 230 11:41 01.05.2020
3770 Clouds 14 1022 87 10000 8.2 230 11:23 01.05.2020
3771 Clouds 13 1021 82 10000 9.3 230 10:56 01.05.2020
3772 Clouds 14 1021 87 10000 8.2 240 10:38 01.05.2020
3773 Clouds 13 1021 87 10000 8.2 240 10:19 01.05.2020
3774 Clouds 13 1021 87 10000 8.2 230 09:43 01.05.2020
3775 Clouds 12 1021 93 10000 7.2 230 09:19 01.05.2020
3776 Clouds 12 1021 93 10000 7.2 230 08:55 01.05.2020
3777 Clouds 11 1020 87 10000 6.7 240 08:37 01.05.2020
3778 Clouds 11 1020 93 10000 4.6 230 08:19 01.05.2020
3779 Clouds 11 1020 93 10000 5.1 240 07:42 01.05.2020
3780 Clouds 11 1020 93 10000 5.1 240 07:22 01.05.2020
3781 Clouds 11 1020 93 10000 4.6 230 06:39 01.05.2020
3782 Clouds 12 1020 87 10000 6.2 230 05:32 01.05.2020
3783 Clouds 12 1020 87 10000 5.7 240 04:20 01.05.2020
3784 Clouds 12 1020 87 10000 6.2 230 03:23 01.05.2020
3785 Clouds 13 1021 82 10000 6.2 230 02:42 01.05.2020
3786 Clouds 13 1021 82 10000 5.7 230 01:59 01.05.2020
3787 Clouds 13 1021 82 10000 5.7 230 01:28 01.05.2020
3788 Clouds 13 1021 87 10000 5.1 250 00:56 01.05.2020
3789 Clouds 13 1021 76 10000 4.6 240 00:36 01.05.2020
3790 Clouds 13 1021 82 10000 4.6 250 00:18 01.05.2020
3791 Clouds 14 1021 82 10000 4.6 250 23:54 30.04.2020
3792 Clouds 14 1020 76 10000 6.2 240 23:36 30.04.2020
3793 Clouds 14 1020 76 10000 6.2 240 23:18 30.04.2020
3794 Clouds 14 1020 71 10000 5.1 240 22:40 30.04.2020
3795 Clouds 14 1019 71 10000 5.1 230 22:19 30.04.2020
3796 Clouds 15 1019 71 10000 5.1 230 21:55 30.04.2020
3797 Clouds 15 1019 72 10000 6.2 230 21:37 30.04.2020
3798 Clouds 16 1019 67 10000 6.7 220 21:18 30.04.2020
3799 Clouds 16 1019 67 10000 6.7 230 20:42 30.04.2020
3800 Clouds 17 1019 67 10000 7.2 240 20:19 30.04.2020
3801 Clouds 17 1019 67 10000 7.2 240 19:58 30.04.2020
3802 Clouds 17 1019 63 10000 7.7 240 19:38 30.04.2020
3803 Clouds 18 1018 63 10000 7.2 240 19:18 30.04.2020
3804 Clouds 17 1018 63 10000 7.2 240 18:55 30.04.2020
3805 Clouds 18 1018 59 10000 7.2 230 18:36 30.04.2020
3806 Clouds 18 1018 59 10000 7.2 230 18:18 30.04.2020
3807 Clouds 18 1018 55 10000 5.7 220 17:40 30.04.2020
3808 Clouds 18 1018 55 10000 6.2 220 17:22 30.04.2020
3809 Clouds 18 1018 55 10000 6.2 220 16:59 30.04.2020
3810 Clouds 17 1019 59 10000 5.7 240 16:40 30.04.2020
3811 Clouds 18 1019 59 10000 5.7 240 16:20 30.04.2020
3812 Clouds 18 1019 63 10000 5.7 220 15:57 30.04.2020
3813 Clouds 18 1018 59 10000 5.7 230 15:39 30.04.2020
3814 Clouds 17 1018 59 10000 5.7 230 15:21 30.04.2020
3815 Clouds 17 1018 59 10000 4.6 220 14:40 30.04.2020
3816 Clouds 17 1018 59 10000 4.6 220 14:20 30.04.2020
3817 Clouds 17 1018 55 10000 6.7 220 13:58 30.04.2020
3818 Clouds 17 1018 59 10000 6.2 230 13:39 30.04.2020
3819 Clouds 17 1018 59 10000 6.2 230 13:39 30.04.2020
3820 Clouds 16 1018 59 10000 6.2 230 13:21 30.04.2020
3821 Clouds 16 1018 59 10000 5.1 220 12:55 30.04.2020
3822 Clouds 15 1018 63 10000 6.2 230 12:37 30.04.2020
3823 Clouds 15 1018 67 10000 6.7 230 12:18 30.04.2020
3824 Clouds 15 1018 62 10000 6.2 220 11:38 30.04.2020
3825 Clouds 14 1018 71 10000 6.2 230 11:18 30.04.2020
3826 Clouds 14 1018 71 10000 6.2 230 10:56 30.04.2020
3827 Clouds 13 1018 76 10000 6.7 240 10:38 30.04.2020
3828 Clouds 12 1018 81 10000 6.2 240 10:18 30.04.2020
3829 Clouds 12 1017 81 10000 5.7 230 09:44 30.04.2020
3830 Clouds 12 1017 81 10000 5.7 230 09:23 30.04.2020
3831 Clouds 11 1017 87 10000 5.1 240 08:57 30.04.2020
3832 Clouds 11 1017 87 10000 4.6 220 08:39 30.04.2020
3833 Clouds 11 1017 87 10000 4.6 220 08:20 30.04.2020
3834 Clouds 11 1017 87 10000 4.6 230 07:43 30.04.2020
3835 Clouds 11 1017 87 10000 4.6 230 07:24 30.04.2020
3836 Clouds 11 1017 87 10000 4.6 220 06:48 30.04.2020
3837 Clouds 11 1017 87 10000 4.6 230 05:49 30.04.2020
3838 Clouds 12 1017 81 10000 7.2 230 05:28 30.04.2020
3839 Clouds 12 1017 87 10000 6.7 220 04:32 30.04.2020
3840 Clouds 12 1017 87 10000 5.7 220 03:53 30.04.2020
3841 Clouds 13 1018 87 10000 7.2 230 02:43 30.04.2020
3842 Clouds 13 1018 87 10000 7.2 230 02:23 30.04.2020
3843 Clouds 13 1018 93 10000 6.2 230 01:35 30.04.2020
3844 Clouds 13 1018 93 9000 5.7 230 00:42 30.04.2020
3845 Clouds 13 1018 93 9000 5.7 230 00:19 30.04.2020
3846 Clouds 13 1018 87 10000 4.6 230 23:56 29.04.2020
3847 Clouds 14 1018 76 10000 4.6 230 23:36 29.04.2020
3848 Clouds 14 1018 76 10000 4.6 240 23:18 29.04.2020
3849 Clouds 14 1018 76 10000 4.6 240 22:40 29.04.2020
3850 Clouds 14 1018 76 10000 4.6 240 22:21 29.04.2020
3851 Clouds 15 1018 71 10000 4.6 240 21:57 29.04.2020
3852 Clouds 15 1018 62 10000 6.7 240 21:37 29.04.2020
3853 Clouds 16 1018 59 10000 6.7 240 21:18 29.04.2020
3854 Clouds 16 1018 59 10000 6.7 240 20:55 29.04.2020
3855 Clouds 16 1017 59 10000 8.7 230 20:36 29.04.2020
3856 Clouds 16 1017 59 10000 8.7 230 20:18 29.04.2020
3857 Clouds 17 1017 55 10000 8.2 230 19:42 29.04.2020
3858 Clouds 17 1017 55 10000 8.7 230 19:20 29.04.2020
3859 Clouds 17 1017 51 10000 7.2 220 18:43 29.04.2020
3860 Clouds 17 1017 51 10000 7.2 220 18:25 29.04.2020
3861 Clouds 18 1017 45 10000 8.7 220 17:58 29.04.2020
3862 Clouds 18 1017 45 10000 9.3 220 17:40 29.04.2020
3863 Clouds 19 1017 45 10000 9.3 220 17:21 29.04.2020
3864 Clouds 19 1018 45 10000 9.3 240 16:39 29.04.2020
3865 Clouds 18 1018 45 10000 7.7 220 16:20 29.04.2020
3866 Clouds 19 1018 45 10000 7.7 220 15:58 29.04.2020
3867 Clouds 18 1018 45 10000 7.7 220 15:39 29.04.2020
3868 Clouds 18 1018 45 10000 7.7 220 15:21 29.04.2020
3869 Clouds 17 1019 45 10000 7.7 230 14:57 29.04.2020
3870 Clear 17 1019 51 10000 6.2 230 14:39 29.04.2020
3871 Clear 17 1019 55 10000 5.7 220 14:20 29.04.2020
3872 Clear 16 1019 55 10000 4.6 230 13:42 29.04.2020
3873 Clear 16 1019 55 10000 4.6 230 13:20 29.04.2020
3874 Clear 16 1020 63 10000 5.1 240 13:20 29.04.2020
3875 Clear 15 1020 63 10000 5.1 240 12:59 29.04.2020
3876 Clear 15 1020 58 10000 5.7 230 12:40 29.04.2020
3877 Clear 15 1020 58 10000 5.7 230 12:19 29.04.2020
3878 Clear 14 1019 58 10000 5.1 230 11:58 29.04.2020
3879 Clear 14 1019 67 10000 4.1 210 11:36 29.04.2020
3880 Clear 13 1019 67 10000 4.1 210 11:18 29.04.2020
3881 Clear 13 1019 71 10000 3.1 200 10:37 29.04.2020
3882 Clear 12 1019 71 10000 3.1 200 10:19 29.04.2020
3883 Clear 11 1019 76 10000 2.6 210 09:57 29.04.2020
3884 Clear 10 1019 81 10000 2.6 230 09:38 29.04.2020
3885 Clear 10 1019 81 10000 2.1 200 09:18 29.04.2020
3886 Clear 9 1019 93 10000 2.1 210 08:43 29.04.2020
3887 Clouds 8 1019 93 10000 2.1 210 08:24 29.04.2020
3888 Clouds 8 1018 100 10000 2.6 220 07:50 29.04.2020
3889 Clouds 8 1018 100 10000 2.6 220 07:26 29.04.2020
3890 Clouds 8 1018 93 10000 3.1 250 06:52 29.04.2020
3891 Clouds 8 1018 93 10000 2.1 240 06:31 29.04.2020
3892 Clear 9 1018 81 10000 2.6 190 05:38 29.04.2020
3893 Clear 9 1018 93 10000 3.1 250 05:18 29.04.2020
3894 Clear 9 1018 87 10000 2.6 240 04:19 29.04.2020
3895 Clear 10 1018 66 10000 2.6 250 02:50 29.04.2020
3896 Clouds 11 1018 58 10000 0.5 270 01:45 29.04.2020
3897 Clouds 11 1018 58 10000 0.5 270 01:26 29.04.2020
3898 Clouds 12 1018 81 10000 3.1 250 00:51 29.04.2020
3899 Clouds 12 1018 81 10000 3.1 250 00:21 29.04.2020
3900 Clouds 12 1018 76 10000 4.6 250 23:56 28.04.2020
3901 Clouds 12 1018 71 10000 3.6 250 23:37 28.04.2020
3902 Clouds 13 1018 71 10000 3.6 250 23:18 28.04.2020
3903 Clouds 13 1017 71 10000 3.6 240 22:38 28.04.2020
3904 Clouds 13 1017 71 10000 3.6 240 22:20 28.04.2020
3905 Clouds 14 1017 62 10000 5.7 240 21:58 28.04.2020
3906 Clouds 15 1017 62 10000 6.7 240 21:40 28.04.2020
3907 Clouds 15 1016 62 10000 7.7 240 21:21 28.04.2020
3908 Clouds 15 1016 62 10000 7.7 240 20:56 28.04.2020
3909 Clouds 15 1016 58 10000 7.7 230 20:38 28.04.2020
3910 Clouds 15 1016 58 10000 7.7 230 20:20 28.04.2020
3911 Clouds 16 1016 55 10000 6.2 240 19:43 28.04.2020
3912 Clouds 16 1016 55 10000 6.2 240 19:22 28.04.2020
3913 Clouds 17 1015 48 10000 4.6 230 19:22 28.04.2020
3914 Rain 17 1015 48 10000 4.6 230 18:59 28.04.2020
3915 Rain 17 1015 48 10000 5.1 230 18:41 28.04.2020
3916 Rain 17 1015 48 10000 5.1 230 18:41 28.04.2020
3917 Rain 17 1015 48 10000 5.1 230 18:20 28.04.2020
3918 Rain 17 1015 48 10000 5.1 230 18:20 28.04.2020
3919 Clouds 17 1015 48 10000 5.1 230 17:59 28.04.2020
3920 Clouds 16 1015 48 10000 4.6 240 17:37 28.04.2020
3921 Clouds 17 1015 48 10000 4.6 240 17:18 28.04.2020
3922 Clouds 17 1015 48 10000 4.1 250 16:54 28.04.2020
3923 Clouds 17 1016 48 10000 4.1 230 16:36 28.04.2020
3924 Clouds 16 1016 51 10000 4.1 240 16:18 28.04.2020
3925 Clouds 16 1016 48 10000 4.1 230 16:18 28.04.2020
3926 Clouds 16 1016 51 10000 4.1 240 15:54 28.04.2020
3927 Clouds 17 1016 48 10000 4.1 240 15:36 28.04.2020
3928 Clouds 16 1016 48 10000 4.1 240 15:18 28.04.2020
3929 Clouds 16 1016 51 10000 4.1 240 14:41 28.04.2020
3930 Clouds 16 1016 51 10000 4.1 240 14:22 28.04.2020
3931 Rain 15 1016 58 10000 4.1 250 13:59 28.04.2020
3932 Rain 15 1016 58 10000 4.1 250 13:59 28.04.2020
3933 Rain 14 1016 54 10000 3.1 290 13:39 28.04.2020
3934 Rain 14 1016 58 10000 4.1 260 13:21 28.04.2020
3935 Clouds 15 1016 54 10000 3.1 220 12:57 28.04.2020
3936 Clouds 14 1016 62 10000 3.6 220 12:37 28.04.2020
3937 Clouds 13 1016 62 10000 4.1 250 12:19 28.04.2020
3938 Clouds 13 1016 71 10000 4.1 260 11:41 28.04.2020
3939 Clouds 13 1016 71 10000 4.1 260 11:21 28.04.2020
3940 Clouds 12 1016 71 10000 4.1 230 10:56 28.04.2020
3941 Clouds 11 1016 87 10000 4.1 250 10:37 28.04.2020
3942 Clouds 11 1015 87 10000 4.6 250 10:18 28.04.2020
3943 Clouds 10 1015 87 9000 5.1 240 09:42 28.04.2020
3944 Clouds 10 1015 87 9000 5.1 240 09:42 28.04.2020
3945 Clouds 9 1015 87 9000 5.1 240 09:24 28.04.2020
3946 Clouds 9 1015 93 9000 4.6 240 08:50 28.04.2020
3947 Clouds 8 1015 100 8000 4.1 220 08:30 28.04.2020
3948 Clouds 8 1014 100 10000 3.6 230 07:59 28.04.2020
3949 Clear 8 1014 93 10000 3.1 220 07:40 28.04.2020
3950 Clear 8 1014 93 10000 3.1 220 07:18 28.04.2020
3951 Clear 9 1014 93 10000 4.1 220 06:31 28.04.2020
3952 Clear 8 1014 100 10000 1 0 05:48 28.04.2020
3953 Clear 8 1014 87 10000 2.1 260 05:30 28.04.2020
3954 Clear 9 1014 93 10000 2.1 260 04:33 28.04.2020
3955 Clouds 10 1014 87 10000 3.1 240 02:38 28.04.2020
3956 Clouds 10 1014 81 10000 4.1 220 01:28 28.04.2020
3957 Clouds 11 1014 87 10000 1.5 210 00:59 28.04.2020
3958 Clouds 11 1014 87 10000 2.6 200 00:31 28.04.2020
3959 Clouds 11 1014 76 10000 2.1 100 23:56 27.04.2020
3960 Clouds 11 1014 76 10000 2.6 260 23:38 27.04.2020
3961 Clouds 11 1014 76 10000 2.6 260 23:19 27.04.2020
3962 Clouds 12 1013 81 10000 2.1 230 22:42 27.04.2020
3963 Clouds 12 1013 81 10000 2.1 230 22:23 27.04.2020
3964 Clouds 12 1013 71 10000 3.1 220 21:57 27.04.2020
3965 Rain 14 1012 62 10000 4.1 280 21:38 27.04.2020
3966 Rain 13 1012 62 10000 4.1 280 21:38 27.04.2020
3967 Clouds 15 1012 62 10000 5.7 230 21:19 27.04.2020
3968 Clouds 15 1012 62 10000 5.7 230 20:56 27.04.2020
3969 Clouds 15 1012 58 10000 6.2 230 20:38 27.04.2020
3970 Clouds 15 1012 58 10000 6.2 230 20:19 27.04.2020
3971 Clouds 16 1011 51 10000 6.2 230 19:40 27.04.2020
3972 Clouds 16 1011 55 10000 6.2 200 19:22 27.04.2020
3973 Clouds 16 1011 55 10000 6.2 200 18:59 27.04.2020
3974 Clouds 16 1011 59 10000 5.7 220 18:40 27.04.2020
3975 Clouds 16 1011 51 10000 6.7 210 18:20 27.04.2020
3976 Clouds 16 1011 51 10000 6.7 210 17:58 27.04.2020
3977 Clouds 16 1011 55 10000 6.2 230 17:40 27.04.2020
3978 Clouds 16 1011 55 10000 6.2 230 17:19 27.04.2020
3979 Clouds 17 1011 51 10000 7.2 210 16:40 27.04.2020
3980 Clouds 17 1011 51 10000 7.2 210 16:40 27.04.2020
3981 Clouds 17 1011 51 10000 7.2 210 16:22 27.04.2020
3982 Clouds 17 1012 55 10000 7.2 220 15:57 27.04.2020
3983 Clouds 17 1012 51 10000 6.2 220 15:38 27.04.2020
3984 Clouds 17 1012 55 10000 5.7 240 15:19 27.04.2020
3985 Clouds 17 1012 55 10000 5.7 240 14:58 27.04.2020
3986 Clouds 17 1012 55 10000 5.7 220 14:40 27.04.2020
3987 Clouds 16 1012 55 10000 5.7 220 14:19 27.04.2020
3988 Clouds 16 1012 55 10000 6.7 220 13:56 27.04.2020
3989 Clouds 16 1013 59 10000 5.1 220 13:36 27.04.2020
3990 Clouds 16 1013 59 10000 5.7 230 13:18 27.04.2020
3991 Clouds 15 1013 58 10000 6.7 240 12:42 27.04.2020
3992 Clouds 15 1013 58 10000 6.7 240 12:21 27.04.2020
3993 Clouds 14 1013 67 10000 7.2 230 11:42 27.04.2020
3994 Clouds 14 1013 67 10000 7.2 230 11:22 27.04.2020
3995 Clouds 13 1013 76 10000 5.1 230 10:59 27.04.2020
3996 Clouds 13 1013 76 10000 4.6 240 10:40 27.04.2020
3997 Clouds 12 1013 76 10000 4.6 240 10:22 27.04.2020
3998 Clouds 12 1013 81 10000 5.1 230 09:55 27.04.2020
3999 Clouds 11 1012 76 10000 4.1 230 09:36 27.04.2020
4000 Clouds 11 1012 76 10000 4.1 230 09:18 27.04.2020
4001 Clouds 11 1012 93 10000 3.6 210 08:45 27.04.2020
4002 Clouds 10 1012 93 10000 3.6 210 08:27 27.04.2020
4003 Clouds 10 1012 93 10000 4.1 200 07:45 27.04.2020
4004 Clouds 10 1012 93 10000 4.1 200 07:23 27.04.2020
4005 Clouds 10 1012 87 10000 3.6 210 06:57 27.04.2020
4006 Clouds 10 1012 87 10000 2.6 210 06:28 27.04.2020
4007 Clouds 11 1012 93 10000 3.6 200 05:55 27.04.2020
4008 Clouds 11 1012 87 10000 4.1 240 04:55 27.04.2020
4009 Clouds 11 1012 87 10000 1.5 190 04:36 27.04.2020
4010 Clouds 12 1013 81 10000 3.1 210 03:43 27.04.2020
4011 Clouds 13 1013 71 10000 4.1 230 01:51 27.04.2020
4012 Clouds 13 1013 66 10000 4.6 230 01:19 27.04.2020
4013 Clouds 13 1013 71 10000 3.1 240 00:21 27.04.2020
4014 Clouds 14 1013 66 10000 4.1 230 23:59 26.04.2020
4015 Clouds 13 1013 71 10000 3.6 230 23:41 26.04.2020
4016 Clouds 14 1013 71 10000 3.6 230 23:22 26.04.2020
4017 Clouds 14 1013 71 10000 3.6 240 22:58 26.04.2020
4018 Rain 15 1012 66 10000 4.1 240 22:39 26.04.2020
4019 Rain 14 1012 66 10000 4.1 240 22:39 26.04.2020
4020 Rain 14 1012 66 10000 4.1 240 22:21 26.04.2020
4021 Clouds 15 1012 62 10000 4.1 240 21:58 26.04.2020
4022 Clouds 15 1012 67 10000 5.1 240 21:39 26.04.2020
4023 Clouds 16 1012 63 10000 7.2 230 21:18 26.04.2020
4024 Clouds 16 1012 63 10000 7.2 230 21:18 26.04.2020
4025 Clouds 16 1012 63 10000 7.2 230 20:55 26.04.2020
4026 Clouds 17 1011 55 10000 7.2 230 20:37 26.04.2020
4027 Clouds 17 1011 55 10000 7.2 230 20:37 26.04.2020
4028 Clouds 17 1011 55 10000 6.7 240 20:19 26.04.2020
4029 Clouds 17 1011 55 10000 6.7 240 19:57 26.04.2020
4030 Clouds 17 1011 55 10000 6.7 240 19:36 26.04.2020
4031 Clouds 17 1011 55 10000 6.2 230 19:18 26.04.2020
4032 Clouds 17 1011 59 10000 6.7 240 18:43 26.04.2020
4033 Clouds 17 1011 59 10000 6.7 240 18:24 26.04.2020
4034 Clouds 18 1011 55 10000 6.2 220 17:44 26.04.2020
4035 Clouds 18 1011 55 10000 6.2 220 17:23 26.04.2020
4036 Clouds 19 1011 48 10000 7.2 230 16:58 26.04.2020
4037 Clouds 20 1011 52 10000 7.2 230 16:39 26.04.2020
4038 Clouds 19 1011 49 10000 6.2 220 16:20 26.04.2020
4039 Clouds 19 1011 49 10000 6.2 220 15:57 26.04.2020
4040 Clouds 19 1012 59 10000 6.7 230 15:37 26.04.2020
4041 Clouds 19 1012 52 10000 5.1 210 15:18 26.04.2020
4042 Clouds 18 1012 55 10000 5.1 220 14:41 26.04.2020
4043 Clouds 18 1012 63 10000 4.6 210 14:19 26.04.2020
4044 Clouds 18 1012 55 10000 5.1 220 14:19 26.04.2020
4045 Clouds 18 1012 63 10000 4.6 210 13:59 26.04.2020
4046 Clouds 18 1012 63 10000 3.1 210 13:40 26.04.2020
4047 Clouds 17 1012 63 10000 3.1 210 13:22 26.04.2020
4048 Clouds 17 1013 72 10000 2.1 0 12:57 26.04.2020
4049 Clouds 15 1013 77 10000 2.1 180 12:39 26.04.2020
4050 Clouds 15 1013 72 10000 2.1 240 12:20 26.04.2020
4051 Clouds 15 1013 77 10000 1.5 250 11:55 26.04.2020
4052 Clouds 14 1012 82 10000 2.1 250 11:36 26.04.2020
4053 Clouds 14 1012 87 10000 3.1 240 11:18 26.04.2020
4054 Clouds 13 1012 87 10000 3.1 230 10:43 26.04.2020
4055 Clouds 13 1012 93 10000 3.1 240 10:24 26.04.2020
4056 Clouds 13 1012 93 10000 3.1 240 09:58 26.04.2020
4057 Clouds 13 1011 93 10000 2.1 230 09:39 26.04.2020
4058 Clouds 12 1011 93 10000 2.1 250 09:20 26.04.2020
4059 Clouds 12 1011 100 10000 1.5 220 08:41 26.04.2020
4060 Clouds 12 1011 100 10000 1.5 220 08:23 26.04.2020
4061 Clouds 12 1010 93 10000 1 0 07:50 26.04.2020
4062 Clouds 12 1010 93 10000 1 0 07:25 26.04.2020
4063 Clouds 12 1011 93 10000 3.1 220 06:55 26.04.2020
4064 Clouds 12 1011 93 10000 1.5 220 06:33 26.04.2020
4065 Clouds 13 1011 100 10000 2.1 250 05:54 26.04.2020
4066 Clouds 13 1011 93 10000 2.1 250 05:35 26.04.2020
4067 Clouds 13 1011 82 10000 1.5 190 04:43 26.04.2020
4068 Clouds 13 1011 76 10000 1.5 210 03:50 26.04.2020
4069 Clouds 14 1011 93 10000 1.5 260 02:44 26.04.2020
4070 Rain 14 1011 93 10000 1.5 260 02:21 26.04.2020
4071 Rain 14 1011 77 10000 1 310 01:38 26.04.2020
4072 Rain 15 1011 72 10000 1.5 10 01:19 26.04.2020
4073 Rain 15 1011 72 10000 2.6 340 00:38 26.04.2020
4074 Rain 15 1010 72 10000 2.6 320 00:18 26.04.2020
4075 Rain 16 1010 63 10000 4.1 280 23:38 25.04.2020
4076 Rain 16 1010 63 10000 4.1 280 23:20 25.04.2020
4077 Rain 17 1010 63 10000 1 0 22:55 25.04.2020
4078 Clouds 16 1010 72 10000 2.6 110 22:37 25.04.2020
4079 Clouds 16 1010 72 10000 2.6 110 22:18 25.04.2020
4080 Rain 16 1009 63 10000 2.6 0 22:18 25.04.2020
4081 Clouds 18 1009 63 10000 2.1 260 21:40 25.04.2020
4082 Clouds 17 1009 63 10000 2.1 260 21:20 25.04.2020
4083 Clouds 18 1008 63 10000 2.1 260 20:57 25.04.2020
4084 Clouds 19 1008 59 10000 2.1 260 20:39 25.04.2020
4085 Clouds 20 1008 56 10000 1.5 260 20:20 25.04.2020
4086 Clouds 20 1008 59 10000 1.5 310 19:42 25.04.2020
4087 Clouds 20 1008 59 10000 1.5 310 19:23 25.04.2020
4088 Clouds 20 1008 52 10000 2.6 320 18:59 25.04.2020
4089 Clouds 21 1008 56 10000 3.1 310 18:39 25.04.2020
4090 Clouds 21 1008 56 10000 3.1 310 18:21 25.04.2020
4091 Clouds 21 1008 52 10000 4.1 310 17:58 25.04.2020
4092 Clouds 21 1008 52 10000 4.6 330 17:38 25.04.2020
4093 Clouds 21 1008 52 10000 4.6 330 17:19 25.04.2020
4094 Clouds 22 1008 46 10000 2.1 0 16:55 25.04.2020
4095 Clouds 22 1008 43 10000 2.6 0 16:37 25.04.2020
4096 Clouds 22 1009 53 10000 1.5 0 16:18 25.04.2020
4097 Clouds 21 1009 52 10000 2.6 130 15:41 25.04.2020
4098 Clouds 21 1009 52 10000 2.6 130 15:41 25.04.2020
4099 Clouds 21 1009 52 10000 2.6 160 15:20 25.04.2020
4100 Clouds 21 1009 52 10000 2.6 160 15:20 25.04.2020
4101 Clouds 21 1009 52 10000 2.6 160 14:58 25.04.2020
4102 Clouds 21 1010 52 10000 2.6 100 14:39 25.04.2020
4103 Clouds 20 1010 52 10000 2.6 100 14:20 25.04.2020
4104 Clouds 20 1010 52 10000 2.6 100 14:20 25.04.2020
4105 Clouds 20 1010 55 10000 1 270 13:43 25.04.2020
4106 Clouds 19 1010 52 10000 1 0 13:22 25.04.2020
4107 Clouds 18 1010 63 10000 1.5 0 12:59 25.04.2020
4108 Clouds 18 1011 55 10000 1 0 12:41 25.04.2020
4109 Clouds 18 1010 55 10000 1 0 12:21 25.04.2020
4110 Clouds 17 1011 59 10000 1 0 11:59 25.04.2020
4111 Clouds 17 1011 63 10000 1.5 100 11:40 25.04.2020
4112 Clouds 17 1011 63 10000 1.5 100 11:22 25.04.2020
4113 Clouds 15 1011 67 10000 1.5 100 10:45 25.04.2020
4114 Clouds 15 1011 67 10000 1.5 100 10:25 25.04.2020
4115 Clouds 14 1011 71 10000 2.1 90 09:55 25.04.2020
4116 Rain 14 1011 67 10000 1 0 09:36 25.04.2020
4117 Rain 13 1010 76 10000 0.5 0 09:18 25.04.2020
4118 Rain 12 1010 81 10000 2.1 350 08:40 25.04.2020
4119 Clouds 12 1010 76 10000 1.5 80 08:21 25.04.2020
4120 Clouds 11 1010 76 10000 1.5 80 07:59 25.04.2020
4121 Clouds 11 1010 81 10000 1.5 80 07:40 25.04.2020
4122 Clouds 12 1010 71 10000 1.5 50 06:56 25.04.2020
4123 Rain 12 1011 81 10000 1.5 80 06:36 25.04.2020
4124 Rain 12 1011 71 10000 3.1 100 05:42 25.04.2020
4125 Rain 12 1011 71 10000 3.1 100 05:23 25.04.2020
4126 Rain 14 1011 71 10000 2.1 80 03:29 25.04.2020
4127 Clouds 15 1012 72 10000 2.6 90 02:28 25.04.2020
4128 Clouds 15 1012 72 10000 2.6 90 01:56 25.04.2020
4129 Clouds 15 1012 72 10000 2.6 90 01:37 25.04.2020
4130 Clouds 16 1012 72 10000 2.6 90 01:19 25.04.2020
4131 Clouds 16 1012 67 10000 3.1 100 00:38 25.04.2020
4132 Clouds 17 1012 67 10000 2.1 90 23:59 24.04.2020
4133 Clouds 17 1012 63 10000 2.1 110 23:40 24.04.2020
4134 Clouds 17 1012 63 10000 2.1 110 23:20 24.04.2020
4135 Clouds 18 1011 59 10000 3.1 140 22:41 24.04.2020
4136 Clouds 18 1011 59 10000 3.1 140 22:20 24.04.2020
4137 Clouds 19 1011 59 10000 2.1 140 21:58 24.04.2020
4138 Clouds 19 1011 52 10000 2.6 150 21:40 24.04.2020
4139 Clouds 19 1011 52 10000 2.6 150 21:22 24.04.2020
4140 Clouds 20 1011 49 10000 3.1 140 20:56 24.04.2020
4141 Clouds 20 1011 45 10000 3.1 130 20:38 24.04.2020
4142 Clouds 21 1011 52 10000 4.1 140 20:18 24.04.2020
4143 Clouds 21 1011 43 10000 2.6 140 19:44 24.04.2020
4144 Clouds 21 1011 43 10000 2.6 140 19:25 24.04.2020
4145 Clouds 22 1011 46 10000 4.1 120 18:56 24.04.2020
4146 Clouds 22 1011 49 10000 3.6 110 18:38 24.04.2020
4147 Clouds 22 1011 49 10000 3.6 110 18:38 24.04.2020
4148 Clouds 22 1011 49 10000 3.6 110 18:19 24.04.2020
4149 Clouds 22 1012 43 10000 3.6 120 17:42 24.04.2020
4150 Clouds 22 1012 43 10000 3.6 120 17:23 24.04.2020
4151 Clouds 22 1012 46 10000 3.1 110 16:59 24.04.2020
4152 Clouds 21 1013 53 10000 2.1 0 16:40 24.04.2020
4153 Clouds 21 1013 53 10000 2.1 0 16:40 24.04.2020
4154 Clouds 21 1013 53 10000 2.1 0 16:40 24.04.2020
4155 Clouds 22 1013 53 10000 2.1 0 16:21 24.04.2020
4156 Clouds 21 1013 52 10000 1.5 0 15:59 24.04.2020
4157 Clouds 21 1013 49 10000 3.1 100 15:37 24.04.2020
4158 Clouds 21 1013 49 10000 3.1 100 15:18 24.04.2020
4159 Clouds 20 1014 56 10000 3.1 100 14:40 24.04.2020
4160 Clouds 20 1014 56 10000 3.1 100 14:20 24.04.2020
4161 Clouds 20 1014 56 10000 3.1 100 14:20 24.04.2020
4162 Clouds 19 1015 59 10000 3.1 90 13:55 24.04.2020
4163 Clouds 19 1015 63 10000 3.1 90 13:36 24.04.2020
4164 Clouds 19 1016 68 10000 3.6 100 13:18 24.04.2020
4165 Clouds 18 1016 68 10000 3.1 90 12:41 24.04.2020
4166 Clouds 18 1016 68 10000 3.1 90 12:21 24.04.2020
4167 Clouds 17 1016 63 10000 3.1 90 11:58 24.04.2020
4168 Clouds 17 1016 67 10000 2.6 70 11:37 24.04.2020
4169 Clouds 16 1016 67 10000 2.6 90 11:19 24.04.2020
4170 Clouds 16 1016 67 10000 2.6 90 10:54 24.04.2020
4171 Clouds 16 1016 77 10000 2.6 90 10:36 24.04.2020
4172 Clouds 15 1016 77 10000 1.5 60 10:18 24.04.2020
4173 Clouds 15 1016 77 10000 1.5 80 09:45 24.04.2020
4174 Clouds 13 1016 77 10000 1.5 80 09:24 24.04.2020
4175 Clouds 13 1016 77 10000 1 0 08:55 24.04.2020
4176 Clouds 12 1016 87 10000 1 0 08:37 24.04.2020
4177 Clouds 12 1016 87 10000 1 0 08:18 24.04.2020
4178 Clouds 12 1016 82 10000 1.5 50 07:44 24.04.2020
4179 Clouds 12 1016 82 10000 1.5 50 07:26 24.04.2020
4180 Clouds 12 1016 87 10000 1 0 06:50 24.04.2020
4181 Clouds 12 1016 82 10000 2.1 60 06:31 24.04.2020
4182 Clouds 13 1016 82 10000 1 0 05:42 24.04.2020
4183 Clouds 13 1016 82 10000 1 0 05:42 24.04.2020
4184 Clouds 13 1016 76 10000 1.5 60 04:25 24.04.2020
4185 Clouds 14 1017 82 10000 1 0 02:58 24.04.2020
4186 Rain 14 1017 77 10000 1.5 50 02:37 24.04.2020
4187 Rain 14 1017 77 10000 1 0 01:58 24.04.2020
4188 Rain 15 1017 82 10000 1 0 00:58 24.04.2020
4189 Rain 15 1017 72 10000 0.5 0 00:21 24.04.2020
4190 Rain 16 1017 77 10000 1.5 80 23:55 23.04.2020
4191 Rain 16 1017 77 10000 1.5 80 23:37 23.04.2020
4192 Rain 16 1017 82 10000 2.1 100 23:18 23.04.2020
4193 Rain 16 1017 82 10000 2.1 100 22:54 23.04.2020
4194 Rain 16 1016 77 10000 2.6 110 22:36 23.04.2020
4195 Rain 16 1016 77 10000 2.6 110 22:18 23.04.2020
4196 Rain 17 1016 72 10000 2.6 110 21:55 23.04.2020
4197 Rain 17 1016 72 10000 2.6 110 21:55 23.04.2020
4198 Rain 17 1016 67 10000 2.6 100 21:37 23.04.2020
4199 Rain 17 1016 67 10000 2.6 100 21:37 23.04.2020
4200 Rain 18 1016 67 10000 2.6 100 21:18 23.04.2020
4201 Clouds 19 1016 59 10000 2.1 100 20:41 23.04.2020
4202 Clouds 19 1016 59 10000 2.1 100 20:22 23.04.2020
4203 Clouds 19 1016 59 10000 2.6 110 19:58 23.04.2020
4204 Clouds 19 1016 59 10000 2.1 130 19:40 23.04.2020
4205 Clouds 19 1016 59 10000 2.1 130 19:21 23.04.2020
4206 Clouds 20 1017 56 10000 2.6 110 18:56 23.04.2020
4207 Clouds 19 1017 59 10000 2.6 140 18:36 23.04.2020
4208 Clouds 19 1017 59 10000 2.6 90 18:18 23.04.2020
4209 Clouds 19 1017 59 10000 2.6 90 17:55 23.04.2020
4210 Clouds 19 1017 63 10000 2.1 80 17:36 23.04.2020
4211 Clouds 19 1017 63 10000 2.1 80 17:18 23.04.2020
4212 Clouds 19 1018 55 10000 2.1 130 16:43 23.04.2020
4213 Clouds 19 1018 55 10000 2.1 130 16:19 23.04.2020
4214 Clouds 19 1018 60 10000 2.1 0 15:43 23.04.2020
4215 Clouds 19 1018 60 10000 2.1 0 15:23 23.04.2020
4216 Clouds 19 1018 60 10000 2.1 0 15:23 23.04.2020
4217 Clouds 18 1018 63 10000 2.1 70 14:59 23.04.2020
4218 Clouds 18 1019 67 10000 2.1 80 14:39 23.04.2020
4219 Clouds 18 1019 67 10000 2.1 80 14:39 23.04.2020
4220 Clouds 17 1019 72 10000 1.5 0 14:21 23.04.2020
4221 Clouds 17 1019 72 10000 1.5 0 13:57 23.04.2020
4222 Rain 17 1020 72 10000 1.5 90 13:38 23.04.2020
4223 Clouds 16 1020 77 10000 2.1 90 13:19 23.04.2020
4224 Clouds 15 1020 77 10000 2.1 90 12:55 23.04.2020
4225 Clouds 15 1020 82 10000 2.1 110 12:37 23.04.2020
4226 Clouds 14 1020 82 10000 2.6 80 12:18 23.04.2020
4227 Clouds 14 1020 82 10000 2.6 100 11:43 23.04.2020
4228 Clouds 13 1020 82 10000 2.6 100 11:25 23.04.2020
4229 Clouds 13 1019 82 10000 3.1 100 10:43 23.04.2020
4230 Clouds 13 1019 82 10000 3.1 100 10:24 23.04.2020
4231 Clouds 13 1019 87 10000 3.1 90 09:58 23.04.2020
4232 Clouds 13 1019 87 10000 2.6 90 09:37 23.04.2020
4233 Clouds 13 1019 87 10000 2.6 90 09:18 23.04.2020
4234 Clouds 12 1018 93 10000 3.1 90 08:46 23.04.2020
4235 Clouds 12 1018 93 10000 3.1 90 08:27 23.04.2020
4236 Clouds 12 1017 87 10000 1.5 80 07:43 23.04.2020
4237 Clouds 12 1017 87 10000 1.5 80 07:24 23.04.2020
4238 Clouds 12 1018 87 10000 2.1 100 06:49 23.04.2020
4239 Clouds 12 1018 87 10000 2.1 100 06:28 23.04.2020
4240 Clouds 13 1017 87 10000 2.1 90 05:31 23.04.2020
4241 Clouds 13 1018 76 10000 0.5 0 04:53 23.04.2020
4242 Clouds 14 1018 72 10000 1.5 10 02:25 23.04.2020
4243 Clouds 14 1018 67 10000 1.5 60 01:55 23.04.2020
4244 Clouds 14 1018 67 10000 1.5 60 01:33 23.04.2020
4245 Clouds 14 1018 63 10000 1.5 60 00:49 23.04.2020
4246 Clouds 15 1018 63 10000 1.5 40 00:24 23.04.2020
4247 Clouds 15 1018 63 10000 1 0 23:53 22.04.2020
4248 Clouds 15 1018 63 10000 1 0 23:26 22.04.2020
4249 Clouds 16 1017 59 10000 1 0 22:58 22.04.2020
4250 Clouds 16 1017 59 10000 1 0 22:39 22.04.2020
4251 Clouds 16 1017 59 10000 1 0 22:19 22.04.2020
4252 Clouds 16 1017 59 10000 1 0 21:56 22.04.2020
4253 Clouds 16 1016 59 10000 1.5 320 21:38 22.04.2020
4254 Clouds 17 1016 55 10000 2.1 300 21:20 22.04.2020
4255 Clouds 17 1016 55 10000 2.1 300 20:54 22.04.2020
4256 Clouds 17 1016 55 10000 2.6 280 20:36 22.04.2020
4257 Clouds 18 1016 59 10000 3.1 260 20:18 22.04.2020
4258 Clouds 18 1016 59 10000 3.1 260 19:54 22.04.2020
4259 Clouds 18 1015 59 10000 3.1 260 19:36 22.04.2020
4260 Clouds 18 1015 59 10000 3.1 260 19:36 22.04.2020
4261 Clouds 18 1015 59 10000 3.1 260 19:18 22.04.2020
4262 Clouds 18 1015 52 10000 2.1 260 18:55 22.04.2020
4263 Clouds 18 1015 52 10000 2.1 260 18:36 22.04.2020
4264 Clouds 19 1015 52 10000 2.6 210 18:18 22.04.2020
4265 Clouds 19 1015 42 10000 2.1 0 17:42 22.04.2020
4266 Clouds 19 1015 52 10000 2.1 0 17:23 22.04.2020
4267 Clouds 19 1015 40 10000 1 180 16:46 22.04.2020
4268 Clouds 19 1015 43 10000 1.5 0 16:28 22.04.2020
4269 Clouds 19 1015 52 10000 1 0 15:58 22.04.2020
4270 Clouds 19 1015 48 10000 1.5 30 15:38 22.04.2020
4271 Clouds 18 1015 48 10000 1.5 240 15:19 22.04.2020
4272 Clouds 18 1015 48 10000 1.5 240 14:55 22.04.2020
4273 Clouds 18 1015 48 10000 1 0 14:36 22.04.2020
4274 Clouds 17 1015 48 10000 1.5 0 14:18 22.04.2020
4275 Clouds 17 1015 52 10000 1.5 170 13:43 22.04.2020
4276 Clouds 17 1015 55 10000 1 0 13:20 22.04.2020
4277 Clouds 16 1015 59 10000 1.5 70 12:43 22.04.2020
4278 Clouds 16 1015 59 10000 1.5 70 12:23 22.04.2020
4279 Clouds 15 1015 59 10000 1.5 90 11:58 22.04.2020
4280 Clouds 14 1015 54 10000 1.5 0 11:39 22.04.2020
4281 Clouds 14 1015 54 10000 1.5 0 11:19 22.04.2020
4282 Clouds 14 1015 58 10000 2.1 60 10:44 22.04.2020
4283 Clouds 13 1015 62 10000 1 0 10:24 22.04.2020
4284 Clouds 12 1014 76 10000 1.5 90 09:55 22.04.2020
4285 Clouds 11 1014 76 10000 1.5 90 09:36 22.04.2020
4286 Clouds 11 1014 76 10000 1.5 90 09:18 22.04.2020
4287 Clouds 10 1014 87 10000 1 90 08:41 22.04.2020
4288 Clouds 10 1014 87 10000 1 90 08:23 22.04.2020
4289 Clouds 10 1013 87 10000 1.31 11 07:55 22.04.2020
4290 Clouds 10 1013 93 10000 1.31 11 07:36 22.04.2020
4291 Clouds 10 1013 81 10000 0.5 0 07:18 22.04.2020
4292 Clouds 10 1012 76 10000 1.31 11 06:41 22.04.2020
4293 Clouds 10 1012 76 10000 1.73 343 05:40 22.04.2020
4294 Clouds 10 1012 76 10000 1.73 343 05:40 22.04.2020
4295 Clouds 10 1012 76 10000 1 0 04:46 22.04.2020
4296 Clouds 11 1012 71 10000 2.06 319 02:59 22.04.2020
4297 Clouds 11 1012 71 10000 2.6 310 02:28 22.04.2020
4298 Clouds 12 1011 71 10000 3.1 360 01:41 22.04.2020
4299 Clouds 12 1011 71 10000 3.1 360 01:21 22.04.2020
4300 Clouds 12 1011 62 10000 3.1 10 00:41 22.04.2020
4301 Clouds 12 1011 62 10000 3.1 10 00:20 22.04.2020
4302 Rain 12 1011 76 10000 1 0 23:44 21.04.2020
4303 Rain 12 1011 76 10000 1 0 23:22 21.04.2020
4304 Rain 12 1011 76 10000 1 0 22:58 21.04.2020
4305 Rain 13 1011 76 10000 2.6 300 22:39 21.04.2020
4306 Rain 13 1011 76 10000 2.6 300 22:19 21.04.2020
4307 Rain 13 1010 67 10000 3.1 300 21:55 21.04.2020
4308 Clouds 13 1009 67 10000 3.6 300 21:37 21.04.2020
4309 Clouds 13 1009 67 10000 3.6 300 21:18 21.04.2020
4310 Clouds 14 1008 59 10000 1.5 320 20:40 21.04.2020
4311 Rain 15 1008 55 10000 3.1 300 20:22 21.04.2020
4312 Rain 15 1008 55 10000 3.1 300 19:58 21.04.2020
4313 Rain 15 1008 55 10000 4.1 290 19:38 21.04.2020
4314 Clouds 16 1008 55 10000 4.1 290 19:18 21.04.2020
4315 Clouds 15 1008 59 10000 3.6 280 18:55 21.04.2020
4316 Clouds 15 1008 63 10000 2.1 320 18:36 21.04.2020
4317 Clouds 15 1008 67 10000 3.1 240 18:18 21.04.2020
4318 Clouds 15 1008 72 10000 3.1 230 17:39 21.04.2020
4319 Clouds 15 1008 72 10000 3.1 230 17:20 21.04.2020
4320 Clouds 15 1008 67 10000 3.6 250 16:57 21.04.2020
4321 Clouds 14 1008 67 10000 3.6 250 16:37 21.04.2020
4322 Clouds 14 1008 67 10000 3.6 250 16:18 21.04.2020
4323 Clouds 14 1008 71 10000 3.6 230 15:55 21.04.2020
4324 Clouds 13 1008 71 10000 3.1 240 15:37 21.04.2020
4325 Clouds 13 1008 71 10000 3.1 230 15:18 21.04.2020
4326 Clouds 13 1008 76 10000 2.6 230 14:45 21.04.2020
4327 Clouds 13 1008 76 10000 2.6 230 14:24 21.04.2020
4328 Clouds 12 1008 76 10000 3.1 250 13:56 21.04.2020
4329 Clouds 11 1009 81 10000 3.1 250 13:37 21.04.2020
4330 Clouds 11 1009 81 10000 3.1 240 13:18 21.04.2020
4331 Clouds 11 1008 81 10000 4.1 250 12:38 21.04.2020
4332 Clouds 10 1008 87 10000 4.1 250 12:19 21.04.2020
4333 Clouds 10 1008 87 10000 4.1 250 11:57 21.04.2020
4334 Clouds 10 1008 87 10000 3.6 230 11:38 21.04.2020
4335 Clouds 9 1008 93 10000 4.6 230 11:19 21.04.2020
4336 Clouds 9 1008 93 10000 4.6 230 10:59 21.04.2020
4337 Clouds 9 1008 93 10000 3.6 220 10:39 21.04.2020
4338 Clouds 9 1007 93 10000 3.6 230 10:21 21.04.2020
4339 Clouds 9 1007 93 10000 3.6 230 09:55 21.04.2020
4340 Clouds 8 1007 100 9000 3.1 240 09:36 21.04.2020
4341 Clouds 8 1007 100 10000 3.1 230 09:18 21.04.2020
4342 Clouds 8 1007 100 10000 3.6 250 08:43 21.04.2020
4343 Clouds 8 1007 100 10000 3.6 250 08:24 21.04.2020
4344 Clouds 8 1007 100 10000 3.6 230 07:50 21.04.2020
4345 Clouds 8 1007 100 10000 3.6 230 07:27 21.04.2020
4346 Clouds 8 1007 100 10000 3.1 220 06:50 21.04.2020
4347 Clouds 8 1007 100 10000 3.1 220 06:31 21.04.2020
4348 Rain 9 1007 93 10000 3.6 230 05:49 21.04.2020
4349 Clouds 9 1007 93 10000 5.1 230 04:55 21.04.2020
4350 Clouds 9 1007 93 8000 4.1 230 03:45 21.04.2020
4351 Clouds 10 1008 93 10000 3.6 240 02:40 21.04.2020
4352 Clouds 11 1008 81 10000 2.6 220 01:30 21.04.2020
4353 Clouds 12 1008 71 10000 1.5 190 00:38 21.04.2020
4354 Clouds 13 1008 71 10000 1.5 190 23:55 20.04.2020
4355 Clouds 12 1008 76 10000 2.1 210 23:37 20.04.2020
4356 Clouds 13 1008 66 10000 2.6 200 23:19 20.04.2020
4357 Clouds 13 1008 66 10000 2.6 200 22:54 20.04.2020
4358 Clouds 13 1008 71 10000 2.6 200 22:36 20.04.2020
4359 Clouds 14 1008 71 10000 2.6 220 22:18 20.04.2020
4360 Clouds 14 1008 71 10000 2.6 220 21:54 20.04.2020
4361 Clouds 14 1007 62 10000 4.1 210 21:36 20.04.2020
4362 Clouds 15 1007 58 10000 5.7 210 21:18 20.04.2020
4363 Clouds 15 1007 62 10000 4.1 210 20:40 20.04.2020
4364 Clouds 16 1007 62 10000 4.6 200 20:19 20.04.2020
4365 Clouds 16 1007 62 10000 4.6 200 19:59 20.04.2020
4366 Clouds 16 1007 62 10000 5.7 220 19:40 20.04.2020
4367 Clouds 16 1007 62 10000 5.7 220 19:20 20.04.2020
4368 Clouds 16 1007 59 10000 7.2 220 18:55 20.04.2020
4369 Clouds 17 1008 59 10000 7.2 230 18:36 20.04.2020
4370 Clouds 17 1008 59 10000 7.2 230 18:18 20.04.2020
4371 Clouds 17 1008 63 10000 8.7 220 17:43 20.04.2020
4372 Clouds 17 1008 63 10000 8.7 220 17:22 20.04.2020
4373 Clouds 17 1008 63 10000 7.7 220 16:59 20.04.2020
4374 Clouds 17 1008 59 10000 6.7 230 16:40 20.04.2020
4375 Clouds 17 1009 67 10000 8.2 220 16:19 20.04.2020
4376 Clouds 17 1009 67 10000 8.2 220 15:55 20.04.2020
4377 Clouds 17 1009 63 10000 6.2 200 15:36 20.04.2020
4378 Clouds 17 1009 63 10000 6.2 200 15:18 20.04.2020
4379 Clouds 17 1009 59 10000 4.1 200 14:40 20.04.2020
4380 Clouds 17 1009 59 10000 4.1 200 14:19 20.04.2020
4381 Clouds 17 1010 63 10000 3.1 210 13:56 20.04.2020
4382 Clouds 17 1010 63 10000 3.1 210 13:56 20.04.2020
4383 Clouds 17 1010 63 10000 3.1 210 13:56 20.04.2020
4384 Clouds 16 1010 63 10000 3.6 210 13:37 20.04.2020
4385 Clouds 16 1010 63 10000 3.6 210 13:37 20.04.2020
4386 Clouds 16 1010 63 10000 3.6 210 13:19 20.04.2020
4387 Clouds 15 1010 67 10000 2.6 170 12:43 20.04.2020
4388 Clouds 15 1010 67 10000 2.6 170 12:43 20.04.2020
4389 Clouds 15 1010 67 10000 2.6 170 12:22 20.04.2020
4390 Clouds 14 1010 67 10000 1.5 160 11:54 20.04.2020
4391 Clouds 14 1010 62 10000 1.5 0 11:36 20.04.2020
4392 Clouds 13 1010 81 10000 1 170 11:18 20.04.2020
4393 Clouds 13 1010 81 10000 1 170 10:54 20.04.2020
4394 Clouds 12 1010 71 10000 1 0 10:36 20.04.2020
4395 Clouds 12 1010 76 10000 1 0 10:18 20.04.2020
4396 Clear 11 1010 81 10000 1.5 310 09:40 20.04.2020
4397 Clear 9 1010 81 10000 1.5 250 09:21 20.04.2020
4398 Clear 9 1010 87 10000 0.5 0 08:43 20.04.2020
4399 Clear 9 1010 87 10000 0.5 0 08:23 20.04.2020
4400 Clear 9 1010 87 10000 0.5 0 07:59 20.04.2020
4401 Clear 9 1009 87 10000 1 0 07:39 20.04.2020
4402 Clear 9 1009 87 10000 0.5 0 07:19 20.04.2020
4403 Clear 9 1009 87 10000 1.5 260 06:37 20.04.2020
4404 Clear 9 1010 87 10000 2.1 260 05:57 20.04.2020
4405 Clear 10 1010 93 10000 1.5 230 04:46 20.04.2020
4406 Clouds 11 1011 93 10000 2.6 200 02:48 20.04.2020
4407 Clouds 11 1011 93 10000 2.6 200 02:27 20.04.2020
4408 Clouds 11 1010 87 10000 2 346 01:29 20.04.2020
4409 Clouds 12 1010 76 10000 2.1 340 00:45 20.04.2020
4410 Rain 12 1010 87 10000 2.6 300 00:21 20.04.2020
4411 Rain 13 1010 76 10000 4.1 270 23:39 19.04.2020
4412 Rain 13 1010 76 10000 4.1 270 23:21 19.04.2020
4413 Rain 13 1010 87 10000 2.6 270 22:56 19.04.2020
4414 Clouds 13 1010 87 10000 2.6 260 22:37 19.04.2020
4415 Clouds 14 1010 87 10000 2.6 250 22:19 19.04.2020
4416 Clouds 14 1009 87 10000 2.1 260 21:42 19.04.2020
4417 Clouds 14 1009 87 10000 2.1 260 21:23 19.04.2020
4418 Clouds 15 1009 77 10000 2.6 300 20:58 19.04.2020
4419 Rain 15 1009 63 10000 2.6 320 20:40 19.04.2020
4420 Rain 13 1009 87 10000 1.5 80 20:20 19.04.2020
4421 Rain 13 1009 87 10000 1.5 80 19:56 19.04.2020
4422 Rain 13 1010 87 10000 3.6 230 19:38 19.04.2020
4423 Rain 13 1010 87 10000 3.6 230 19:20 19.04.2020
4424 Thunderstorm 14 1010 93 10000 3.1 260 18:57 19.04.2020
4425 Thunderstorm 15 1009 87 4000 8.7 280 18:38 19.04.2020
4426 Thunderstorm 16 1009 87 4000 8.7 280 18:19 19.04.2020
4427 Thunderstorm 16 1009 87 4000 8.7 280 18:19 19.04.2020
4428 Thunderstorm 18 1009 59 10000 6.2 290 18:19 19.04.2020
4429 Thunderstorm 18 1009 59 10000 6.2 290 17:56 19.04.2020
4430 Clouds 19 1008 59 10000 1 0 17:38 19.04.2020
4431 Clouds 18 1009 59 10000 2.1 130 17:19 19.04.2020
4432 Clouds 18 1009 63 10000 0.5 0 16:41 19.04.2020
4433 Clouds 17 1009 59 10000 1 100 16:21 19.04.2020
4434 Clouds 17 1009 59 10000 1 100 15:59 19.04.2020
4435 Clouds 17 1010 55 10000 1 0 15:40 19.04.2020
4436 Clouds 17 1010 59 10000 1 230 15:19 19.04.2020
4437 Clouds 17 1011 59 10000 0.5 0 14:39 19.04.2020
4438 Clouds 17 1011 59 10000 0.5 0 14:21 19.04.2020
4439 Clouds 17 1011 67 10000 2.1 170 13:58 19.04.2020
4440 Clouds 16 1011 63 10000 0.5 340 13:38 19.04.2020
4441 Clouds 16 1011 67 10000 1.5 0 13:19 19.04.2020
4442 Clouds 15 1011 67 10000 1 340 12:49 19.04.2020
4443 Clouds 15 1011 67 10000 1 340 12:25 19.04.2020
4444 Clouds 15 1011 63 10000 1 360 11:55 19.04.2020
4445 Clouds 14 1011 72 10000 2.1 100 11:37 19.04.2020
4446 Clouds 14 1011 82 10000 0.5 0 11:18 19.04.2020
4447 Clouds 14 1011 77 10000 1.5 0 10:55 19.04.2020
4448 Clouds 13 1011 82 10000 0.5 0 10:55 19.04.2020
4449 Clouds 12 1011 93 0 0.5 0 10:37 19.04.2020
4450 Clouds 12 1011 87 10000 2.1 60 10:18 19.04.2020
4451 Clouds 12 1011 93 10000 1 0 09:43 19.04.2020
4452 Clouds 11 1011 93 10000 1 0 09:25 19.04.2020
4453 Clouds 11 1011 100 10000 1.5 20 08:40 19.04.2020
4454 Clouds 11 1011 100 10000 1.5 40 08:21 19.04.2020
4455 Clouds 11 1011 100 10000 1.5 40 07:58 19.04.2020
4456 Rain 11 1011 93 10000 1.5 20 07:40 19.04.2020
4457 Rain 11 1012 93 10000 1.5 30 07:21 19.04.2020
4458 Rain 11 1011 93 10000 1.5 50 06:27 19.04.2020
4459 Rain 12 1011 100 7000 3.1 10 05:46 19.04.2020
4460 Rain 12 1011 93 10000 1.5 10 04:28 19.04.2020
4461 Clouds 13 1012 87 10000 1.5 80 02:59 19.04.2020
4462 Rain 13 1012 87 10000 1.5 60 02:21 19.04.2020
4463 Rain 14 1012 77 10000 3.6 80 01:37 19.04.2020
4464 Thunderstorm 15 1012 72 10000 0.5 0 00:42 19.04.2020
4465 Clouds 16 1012 63 10000 3.1 320 00:22 19.04.2020
4466 Clouds 16 1012 63 10000 2.6 310 23:47 18.04.2020
4467 Clouds 16 1012 63 10000 2.6 310 23:22 18.04.2020
4468 Clouds 16 1012 67 10000 3.1 310 22:58 18.04.2020
4469 Clouds 17 1012 67 10000 2.6 310 22:38 18.04.2020
4470 Clouds 17 1012 67 10000 2.6 310 22:20 18.04.2020
4471 Clouds 17 1012 72 10000 3.1 270 21:56 18.04.2020
4472 Rain 18 1012 72 10000 3.1 260 21:37 18.04.2020
4473 Clouds 18 1012 67 10000 3.1 270 21:19 18.04.2020
4474 Clouds 19 1012 63 10000 2.1 260 20:41 18.04.2020
4475 Clouds 19 1011 55 10000 1 0 20:22 18.04.2020
4476 Clouds 20 1012 52 10000 2.1 260 19:54 18.04.2020
4477 Clouds 20 1012 52 10000 2.1 260 19:54 18.04.2020
4478 Clouds 20 1012 49 10000 0.5 0 19:36 18.04.2020
4479 Clouds 20 1012 49 10000 1 0 19:18 18.04.2020
4480 Clouds 21 1013 49 10000 1 0 18:37 18.04.2020
4481 Clouds 20 1013 49 10000 1 0 18:19 18.04.2020
4482 Clouds 20 1013 49 10000 1 0 18:19 18.04.2020
4483 Clouds 21 1013 52 10000 1.5 190 17:43 18.04.2020
4484 Clouds 21 1013 46 10000 1.5 0 17:21 18.04.2020
4485 Clouds 20 1013 46 10000 1.5 0 16:58 18.04.2020
4486 Clouds 20 1014 56 10000 1.5 0 16:38 18.04.2020
4487 Clouds 20 1014 56 10000 1.5 0 16:20 18.04.2020
4488 Clouds 20 1015 55 10000 1.5 270 15:40 18.04.2020
4489 Clouds 19 1015 55 10000 1.5 270 15:22 18.04.2020
4490 Clouds 19 1015 49 10000 1 0 14:47 18.04.2020
4491 Clouds 19 1015 49 10000 1 0 14:47 18.04.2020
4492 Clouds 19 1015 49 10000 1 0 14:29 18.04.2020
4493 Clouds 19 1015 52 10000 1 140 13:59 18.04.2020
4494 Clouds 18 1016 55 10000 1.5 0 13:41 18.04.2020
4495 Clouds 18 1016 55 10000 1.5 0 13:20 18.04.2020
4496 Clouds 17 1016 59 10000 2.1 0 12:42 18.04.2020
4497 Clouds 17 1016 59 10000 2.1 0 12:24 18.04.2020
4498 Clouds 15 1016 67 10000 1 0 11:57 18.04.2020
4499 Clouds 15 1016 72 10000 1.5 350 11:38 18.04.2020
4500 Clouds 15 1016 72 10000 1.5 350 11:19 18.04.2020
4501 Clouds 13 1016 82 10000 1.5 350 10:42 18.04.2020
4502 Clouds 13 1016 82 10000 1.5 350 10:21 18.04.2020
4503 Clouds 12 1016 87 10000 1.5 360 09:58 18.04.2020
4504 Clouds 11 1016 93 10000 1.5 350 09:39 18.04.2020
4505 Clouds 11 1016 93 10000 1.5 350 09:20 18.04.2020
4506 Clouds 11 1016 93 10000 1.25 31 08:42 18.04.2020
4507 Clouds 11 1016 93 10000 1 0 08:21 18.04.2020
4508 Clouds 11 1016 93 10000 1.25 31 07:42 18.04.2020
4509 Clouds 11 1016 93 10000 1.25 31 07:23 18.04.2020
4510 Clouds 11 1016 93 10000 1 0 06:39 18.04.2020
4511 Clouds 11 1016 93 10000 0.5 0 05:48 18.04.2020
4512 Clouds 11 1016 100 10000 0.5 40 04:54 18.04.2020
4513 Clouds 11 1016 100 10000 0.5 40 04:30 18.04.2020
4514 Clouds 12 1016 100 10000 0.5 250 02:59 18.04.2020
4515 Clouds 12 1017 93 10000 0.53 214 02:40 18.04.2020
4516 Clouds 12 1017 93 10000 0.79 206 02:40 18.04.2020
4517 Clouds 12 1017 93 10000 0.79 206 02:20 18.04.2020
4518 Clouds 12 1016 93 10000 0.5 230 01:40 18.04.2020
4519 Clouds 13 1016 82 10000 0.79 206 00:59 18.04.2020
4520 Clouds 13 1016 87 10000 1.4 229 00:24 18.04.2020
4521 Clouds 14 1016 81 10000 1 250 23:58 17.04.2020
4522 Clouds 14 1016 76 10000 1 240 23:40 17.04.2020
4523 Clouds 14 1016 82 10000 1.5 270 23:19 17.04.2020
4524 Clouds 14 1016 82 10000 1.5 270 22:58 17.04.2020
4525 Clouds 15 1016 62 10000 1.5 220 22:40 17.04.2020
4526 Clouds 15 1015 82 10000 2.6 250 22:20 17.04.2020
4527 Clouds 15 1015 82 10000 2.6 250 21:57 17.04.2020
4528 Clouds 15 1015 76 10000 2.1 240 21:38 17.04.2020
4529 Clouds 16 1015 76 10000 2.1 240 21:18 17.04.2020
4530 Clouds 16 1015 72 10000 2.6 240 20:55 17.04.2020
4531 Clouds 16 1015 67 10000 3.1 260 20:36 17.04.2020
4532 Clouds 16 1015 67 10000 3.1 260 20:36 17.04.2020
4533 Clouds 16 1015 67 10000 3.1 260 20:36 17.04.2020
4534 Clouds 17 1015 59 10000 3.1 240 20:18 17.04.2020
4535 Clouds 17 1015 63 10000 3.6 230 19:42 17.04.2020
4536 Clouds 17 1015 63 10000 3.6 230 19:23 17.04.2020
4537 Clouds 18 1015 63 10000 4.1 210 18:47 17.04.2020
4538 Clouds 18 1015 63 10000 4.1 210 18:24 17.04.2020
4539 Clouds 18 1015 55 10000 3.6 220 17:58 17.04.2020
4540 Clouds 18 1015 55 10000 3.6 210 17:37 17.04.2020
4541 Clouds 18 1015 59 10000 4.1 220 17:19 17.04.2020
4542 Clouds 18 1016 59 10000 4.1 200 16:44 17.04.2020
4543 Clouds 18 1016 55 10000 5.1 230 16:23 17.04.2020
4544 Clouds 18 1016 55 10000 5.1 230 15:58 17.04.2020
4545 Clouds 18 1016 59 10000 4.6 210 15:37 17.04.2020
4546 Clouds 17 1016 59 10000 4.6 210 15:19 17.04.2020
4547 Clouds 17 1016 67 10000 3.6 180 14:40 17.04.2020
4548 Clouds 17 1016 72 10000 4.1 200 14:22 17.04.2020
4549 Clouds 16 1016 72 10000 4.1 200 13:56 17.04.2020
4550 Clouds 16 1016 72 10000 3.6 200 13:37 17.04.2020
4551 Clouds 16 1016 67 10000 4.6 220 13:18 17.04.2020
4552 Clouds 16 1016 67 10000 4.6 220 12:46 17.04.2020
4553 Clouds 15 1016 67 10000 4.1 170 12:25 17.04.2020
4554 Clouds 14 1016 77 10000 3.6 160 11:42 17.04.2020
4555 Clouds 14 1016 77 10000 3.6 160 11:20 17.04.2020
4556 Clouds 13 1016 77 10000 3.1 150 10:57 17.04.2020
4557 Clouds 13 1016 77 10000 2.6 130 10:39 17.04.2020
4558 Clouds 12 1016 87 10000 1.5 120 10:19 17.04.2020
4559 Clouds 12 1016 93 10000 0.5 0 09:41 17.04.2020
4560 Clouds 11 1016 93 10000 1 80 09:22 17.04.2020
4561 Clouds 11 1016 93 10000 1 80 08:59 17.04.2020
4562 Clouds 11 1016 93 10000 1 80 08:40 17.04.2020
4563 Rain 11 1015 93 10000 0.5 70 08:21 17.04.2020
4564 Rain 11 1015 93 10000 1 90 07:44 17.04.2020
4565 Clouds 11 1015 93 10000 1.5 150 07:24 17.04.2020
4566 Clouds 11 1015 93 10000 2.1 130 06:50 17.04.2020
4567 Clouds 11 1015 93 10000 1 0 06:23 17.04.2020
4568 Clouds 12 1016 87 10000 2.1 210 05:38 17.04.2020
4569 Clouds 12 1016 87 10000 2.6 190 03:21 17.04.2020
4570 Clouds 13 1016 93 10000 2.6 200 02:34 17.04.2020
4571 Rain 13 1016 93 10000 3.6 210 01:30 17.04.2020
4572 Rain 13 1016 87 10000 2.1 200 00:53 17.04.2020
4573 Clouds 13 1016 100 10000 1 0 00:19 17.04.2020
4574 Clouds 13 1016 100 10000 1.5 210 23:45 16.04.2020
4575 Clouds 13 1015 100 10000 2.1 210 23:23 16.04.2020
4576 Clouds 13 1015 100 10000 2.1 210 22:58 16.04.2020
4577 Clouds 13 1015 93 10000 1.5 190 22:38 16.04.2020
4578 Rain 13 1015 93 6000 2.1 210 22:20 16.04.2020
4579 Rain 13 1015 93 6000 2.1 210 21:56 16.04.2020
4580 Rain 13 1014 93 8000 2.1 230 21:37 16.04.2020
4581 Rain 13 1014 93 8000 5.7 200 21:18 16.04.2020
4582 Rain 13 1014 93 4500 4.1 210 20:40 16.04.2020
4583 Rain 13 1014 93 9000 3.6 240 20:22 16.04.2020
4584 Rain 13 1014 93 9000 4.1 250 19:56 16.04.2020
4585 Rain 13 1014 93 9000 4.1 250 19:37 16.04.2020
4586 Rain 13 1013 93 9000 4.6 250 19:19 16.04.2020
4587 Rain 14 1013 93 9000 5.1 240 18:45 16.04.2020
4588 Rain 15 1014 87 10000 5.7 250 18:26 16.04.2020
4589 Clouds 16 1013 93 10000 6.2 260 17:58 16.04.2020
4590 Clouds 16 1013 93 10000 6.2 260 17:39 16.04.2020
4591 Rain 17 1013 63 10000 4.6 210 17:20 16.04.2020
4592 Clouds 18 1013 63 10000 6.7 160 16:44 16.04.2020
4593 Clouds 18 1013 59 10000 7.2 160 16:26 16.04.2020
4594 Clouds 18 1013 59 10000 8.2 170 15:57 16.04.2020
4595 Clouds 18 1013 59 10000 8.2 170 15:39 16.04.2020
4596 Clouds 18 1014 59 10000 6.7 150 15:18 16.04.2020
4597 Clouds 17 1015 63 10000 6.7 140 14:45 16.04.2020
4598 Clouds 17 1015 63 10000 6.7 140 14:45 16.04.2020
4599 Clouds 16 1015 63 10000 6.2 120 14:25 16.04.2020
4600 Clouds 17 1015 63 10000 6.2 120 13:59 16.04.2020
4601 Clouds 17 1015 72 10000 6.2 130 13:59 16.04.2020
4602 Clouds 16 1015 72 10000 6.2 130 13:41 16.04.2020
4603 Clouds 16 1016 77 10000 5.1 120 13:23 16.04.2020
4604 Clouds 15 1016 76 10000 4.6 130 12:58 16.04.2020
4605 Clouds 15 1016 76 10000 4.6 130 12:39 16.04.2020
4606 Clouds 14 1016 76 10000 4.6 130 12:20 16.04.2020
4607 Clouds 14 1016 76 10000 4.6 130 12:20 16.04.2020
4608 Clouds 14 1016 76 10000 4.6 130 11:59 16.04.2020
4609 Clouds 14 1016 76 10000 4.6 130 11:40 16.04.2020
4610 Clouds 14 1016 76 10000 4.1 120 11:21 16.04.2020
4611 Clouds 13 1016 82 10000 2.6 120 10:55 16.04.2020
4612 Clouds 13 1016 82 10000 2.6 120 10:37 16.04.2020
4613 Clouds 12 1017 87 10000 3.1 100 10:18 16.04.2020
4614 Rain 11 1017 93 10000 3.1 100 09:39 16.04.2020
4615 Rain 11 1017 93 10000 2.1 100 09:20 16.04.2020
4616 Rain 11 1017 93 10000 2.1 100 08:57 16.04.2020
4617 Clouds 10 1016 100 10000 2.6 90 08:39 16.04.2020
4618 Clouds 10 1017 93 10000 1.5 110 08:21 16.04.2020
4619 Clouds 10 1017 93 10000 2.6 120 07:43 16.04.2020
4620 Rain 10 1017 100 10000 2.6 120 07:24 16.04.2020
4621 Clouds 10 1017 87 10000 3.1 130 06:42 16.04.2020
4622 Clouds 11 1017 87 10000 3.6 130 06:23 16.04.2020
4623 Clouds 11 1017 93 10000 2.6 160 04:54 16.04.2020
4624 Clouds 11 1017 87 10000 2.6 140 03:39 16.04.2020
4625 Rain 11 1017 87 10000 2.6 140 03:21 16.04.2020
4626 Clouds 12 1017 87 10000 2.1 120 02:43 16.04.2020
4627 Rain 12 1017 82 10000 4.1 160 01:58 16.04.2020
4628 Rain 13 1017 82 10000 3.6 170 00:57 16.04.2020
4629 Rain 12 1016 82 10000 4.1 170 00:26 16.04.2020
4630 Rain 13 1016 87 10000 4.6 170 23:56 15.04.2020
4631 Rain 13 1016 87 10000 4.6 170 23:38 15.04.2020
4632 Rain 13 1016 82 10000 4.6 170 23:19 15.04.2020
4633 Rain 13 1015 87 10000 2.6 170 22:39 15.04.2020
4634 Rain 13 1015 87 10000 2.6 140 22:21 15.04.2020
4635 Rain 13 1015 87 6000 2.6 150 21:57 15.04.2020
4636 Rain 13 1015 87 6000 2.6 150 21:39 15.04.2020
4637 Clouds 13 1014 87 10000 4.1 110 21:21 15.04.2020
4638 Clouds 13 1014 76 10000 4.6 130 20:56 15.04.2020
4639 Clouds 13 1014 76 10000 4.6 130 20:38 15.04.2020
4640 Clouds 13 1014 76 10000 4.6 150 20:20 15.04.2020
4641 Clouds 13 1013 76 10000 3.1 160 19:41 15.04.2020
4642 Clouds 13 1013 82 10000 3.1 150 19:20 15.04.2020
4643 Rain 13 1013 87 10000 6.2 140 18:54 15.04.2020
4644 Rain 13 1013 87 10000 6.2 140 18:36 15.04.2020
4645 Clouds 14 1013 93 10000 6.2 140 18:18 15.04.2020
4646 Thunderstorm 14 1013 72 3000 7.2 140 17:40 15.04.2020
4647 Clouds 15 1013 67 10000 5.1 140 17:21 15.04.2020
4648 Clouds 15 1013 67 10000 6.7 160 16:57 15.04.2020
4649 Rain 15 1013 67 10000 6.7 160 16:38 15.04.2020
4650 Rain 15 1013 72 10000 5.1 150 16:19 15.04.2020
4651 Rain 14 1013 77 10000 7.2 140 15:58 15.04.2020
4652 Rain 14 1013 77 10000 7.2 140 15:39 15.04.2020
4653 Rain 14 1013 67 10000 5.1 120 15:19 15.04.2020
4654 Rain 14 1013 67 10000 5.1 120 14:58 15.04.2020
4655 Clouds 14 1013 72 10000 3.6 110 14:39 15.04.2020
4656 Clouds 13 1014 76 10000 4.1 90 14:21 15.04.2020
4657 Clouds 13 1014 76 10000 4.1 90 13:58 15.04.2020
4658 Clouds 12 1014 76 10000 4.1 90 13:38 15.04.2020
4659 Clouds 11 1014 87 10000 4.1 90 13:20 15.04.2020
4660 Clouds 11 1014 87 10000 2.1 80 12:54 15.04.2020
4661 Clouds 10 1014 87 10000 2.1 80 12:36 15.04.2020
4662 Clouds 10 1013 87 10000 1.5 10 12:18 15.04.2020
4663 Rain 9 1013 93 10000 2.1 20 11:42 15.04.2020
4664 Rain 9 1013 87 10000 2.6 30 11:24 15.04.2020
4665 Rain 9 1014 93 4000 4.1 210 10:58 15.04.2020
4666 Rain 9 1014 93 4000 4.1 210 10:36 15.04.2020
4667 Rain 10 1014 100 4000 5.1 210 10:18 15.04.2020
4668 Rain 10 1013 100 3000 3.1 170 09:55 15.04.2020
4669 Rain 10 1013 100 3000 3.1 170 09:36 15.04.2020
4670 Rain 11 1012 87 2000 3.6 120 09:18 15.04.2020
4671 Thunderstorm 11 1012 87 10000 3.6 110 08:41 15.04.2020
4672 Clouds 11 1011 87 10000 2.6 90 08:20 15.04.2020
4673 Clouds 11 1011 87 10000 3.1 90 07:54 15.04.2020
4674 Clouds 11 1011 87 10000 3.1 90 07:33 15.04.2020
4675 Clouds 11 1011 87 8000 3.1 90 06:34 15.04.2020
4676 Clouds 11 1011 87 10000 3.1 100 05:51 15.04.2020
4677 Rain 12 1011 93 10000 2.6 100 05:21 15.04.2020
4678 Rain 12 1011 82 10000 2.6 100 04:45 15.04.2020
4679 Rain 12 1012 82 10000 2.6 110 03:51 15.04.2020
4680 Rain 12 1012 82 10000 3.6 110 03:18 15.04.2020
4681 Rain 12 1012 82 10000 3.1 110 02:33 15.04.2020
4682 Rain 12 1012 82 10000 3.6 100 01:44 15.04.2020
4683 Clouds 12 1012 82 10000 3.1 110 01:20 15.04.2020
4684 Clouds 13 1012 76 10000 2.1 90 00:37 15.04.2020
4685 Clouds 13 1012 76 10000 2.1 90 00:19 15.04.2020
4686 Clouds 13 1012 76 10000 2.6 100 23:55 14.04.2020
4687 Clouds 13 1012 76 10000 2.6 100 23:36 14.04.2020
4688 Clouds 13 1012 76 10000 1.5 70 23:18 14.04.2020
4689 Clouds 13 1012 76 10000 2.1 80 22:55 14.04.2020
4690 Clouds 13 1012 76 10000 2.1 80 22:36 14.04.2020
4691 Clouds 13 1011 82 10000 3.6 90 22:18 14.04.2020
4692 Clouds 13 1011 72 10000 2.1 60 21:55 14.04.2020
4693 Clouds 14 1011 72 10000 2.1 60 21:37 14.04.2020
4694 Clouds 14 1011 67 10000 2.1 70 21:18 14.04.2020
4695 Clouds 14 1011 63 10000 2.1 90 20:40 14.04.2020
4696 Clouds 14 1011 72 10000 1 0 20:22 14.04.2020
4697 Clouds 14 1010 72 10000 1.5 120 19:58 14.04.2020
4698 Clouds 14 1010 72 10000 1.5 120 19:40 14.04.2020
4699 Clouds 14 1010 77 10000 4.6 140 19:21 14.04.2020
4700 Clouds 14 1010 72 10000 3.1 90 18:56 14.04.2020
4701 Rain 14 1010 72 10000 3.1 90 18:38 14.04.2020
4702 Clouds 16 1010 72 10000 0.5 0 18:19 14.04.2020
4703 Clouds 16 1010 72 10000 0.5 0 17:56 14.04.2020
4704 Clouds 16 1010 67 10000 1 0 17:37 14.04.2020
4705 Rain 16 1011 77 10000 2.1 110 17:19 14.04.2020
4706 Rain 16 1011 72 10000 1.5 70 16:41 14.04.2020
4707 Rain 16 1012 77 10000 1 0 16:23 14.04.2020
4708 Rain 16 1012 77 10000 1 0 15:58 14.04.2020
4709 Rain 16 1012 77 10000 3.1 90 15:39 14.04.2020
4710 Rain 16 1012 67 10000 2.6 90 15:21 14.04.2020
4711 Rain 16 1013 77 10000 2.6 90 14:58 14.04.2020
4712 Rain 15 1013 77 10000 2.6 90 14:40 14.04.2020
4713 Clouds 15 1013 72 10000 2.6 90 14:21 14.04.2020
4714 Clouds 15 1013 82 10000 3.1 90 13:56 14.04.2020
4715 Clouds 14 1013 82 10000 3.1 90 13:37 14.04.2020
4716 Clouds 14 1013 87 10000 2.6 90 13:19 14.04.2020
4717 Clouds 13 1013 87 10000 2.6 100 12:41 14.04.2020
4718 Clouds 13 1013 82 10000 2.6 100 12:20 14.04.2020
4719 Clouds 13 1013 82 10000 2.6 90 11:55 14.04.2020
4720 Clouds 13 1013 82 10000 2.6 90 11:36 14.04.2020
4721 Clouds 12 1012 82 10000 3.1 90 11:18 14.04.2020
4722 Clouds 12 1012 76 10000 2.1 80 10:43 14.04.2020
4723 Clouds 12 1012 76 10000 2.6 60 10:23 14.04.2020
4724 Clouds 12 1012 76 10000 1.5 50 09:43 14.04.2020
4725 Clouds 11 1011 81 10000 1.5 40 09:25 14.04.2020
4726 Clouds 10 1011 63 0 2.59 50 08:59 14.04.2020
4727 Clouds 10 1011 63 0 2.59 50 08:40 14.04.2020
4728 Clouds 11 1011 76 10000 1 0 08:21 14.04.2020
4729 Clouds 11 1011 76 10000 1.5 360 07:53 14.04.2020
4730 Clouds 11 1011 81 10000 1 0 07:29 14.04.2020
4731 Clouds 10 1011 63 0 2.59 50 06:47 14.04.2020
4732 Clouds 11 1011 81 10000 2.63 49 05:55 14.04.2020
4733 Clouds 11 1011 81 10000 1.5 360 03:52 14.04.2020
4734 Rain 11 1011 76 10000 2.1 360 02:53 14.04.2020
4735 Rain 11 1010 87 10000 1 0 01:39 14.04.2020
4736 Rain 12 1010 76 10000 2.1 330 01:18 14.04.2020
4737 Rain 12 1010 76 10000 1.5 300 00:33 14.04.2020
4738 Rain 12 1010 76 10000 0.5 0 23:59 13.04.2020
4739 Rain 13 1010 76 10000 0.5 0 23:39 13.04.2020
4740 Rain 13 1010 67 10000 1 0 23:21 13.04.2020
4741 Rain 14 1009 71 10000 1 0 22:56 13.04.2020
4742 Rain 14 1009 71 10000 1 0 22:38 13.04.2020
4743 Rain 14 1009 71 10000 2.1 220 22:20 13.04.2020
4744 Rain 14 1008 62 10000 2.6 210 21:55 13.04.2020
4745 Rain 15 1008 62 10000 2.6 210 21:36 13.04.2020
4746 Clouds 16 1008 59 10000 1.5 190 21:18 13.04.2020
4747 Clouds 16 1008 48 10000 1 0 20:41 13.04.2020
4748 Clouds 17 1008 55 10000 1.26 186 20:20 13.04.2020
4749 Clouds 17 1007 45 10000 0.5 230 19:59 13.04.2020
4750 Clouds 18 1007 45 10000 0.5 230 19:37 13.04.2020
4751 Clouds 18 1007 45 10000 1 0 19:19 13.04.2020
4752 Clouds 18 1007 45 10000 1 0 18:58 13.04.2020
4753 Clouds 18 1008 52 10000 0.5 70 18:39 13.04.2020
4754 Clouds 18 1008 52 10000 1.5 360 18:20 13.04.2020
4755 Clouds 18 1008 52 10000 1.5 360 18:20 13.04.2020
4756 Clouds 17 1008 52 10000 1 0 17:58 13.04.2020
4757 Clouds 17 1008 52 10000 1 0 17:58 13.04.2020
4758 Clouds 17 1008 52 10000 1 0 17:38 13.04.2020
4759 Clouds 17 1008 52 10000 0.5 0 17:19 13.04.2020
4760 Clouds 17 1008 59 10000 1 90 16:58 13.04.2020
4761 Clouds 17 1008 59 10000 1 90 16:58 13.04.2020
4762 Clouds 17 1008 59 10000 1 90 16:40 13.04.2020
4763 Clouds 16 1008 63 10000 1 0 16:20 13.04.2020
4764 Clouds 16 1008 63 10000 1 0 15:57 13.04.2020
4765 Clouds 15 1008 62 10000 1.5 0 15:38 13.04.2020
4766 Clouds 15 1008 67 10000 1.5 0 15:20 13.04.2020
4767 Clouds 14 1009 72 10000 1.5 0 14:54 13.04.2020
4768 Clouds 14 1009 72 10000 1.5 0 14:36 13.04.2020
4769 Clouds 13 1009 71 10000 1 0 14:18 13.04.2020
4770 Clouds 12 1009 71 10000 1.5 0 13:54 13.04.2020
4771 Clouds 12 1009 71 10000 1.5 0 13:36 13.04.2020
4772 Clouds 12 1009 71 10000 2.1 0 13:18 13.04.2020
4773 Rain 11 1009 76 10000 2.1 0 12:40 13.04.2020
4774 Rain 10 1009 81 10000 2.1 60 12:21 13.04.2020
4775 Rain 10 1009 81 10000 2.1 60 12:21 13.04.2020
4776 Clouds 10 1009 87 10000 2.6 60 11:59 13.04.2020
4777 Rain 9 1009 87 10000 2.6 60 11:41 13.04.2020
4778 Rain 9 1009 87 10000 2.1 50 11:18 13.04.2020
4779 Rain 9 1009 87 10000 2.1 50 11:18 13.04.2020
4780 Rain 9 1009 93 8000 2.6 70 10:55 13.04.2020
4781 Rain 8 1009 93 8000 2.6 70 10:37 13.04.2020
4782 Rain 8 1009 87 6000 3.1 90 10:19 13.04.2020
4783 Rain 9 1009 93 7000 2.1 90 09:45 13.04.2020
4784 Rain 9 1009 93 7000 2.1 90 09:26 13.04.2020
4785 Rain 9 1009 87 10000 1.5 90 08:49 13.04.2020
4786 Rain 9 1009 93 10000 1.5 80 08:31 13.04.2020
4787 Rain 9 1009 93 10000 1.5 80 07:59 13.04.2020
4788 Rain 9 1008 87 10000 2.6 90 07:39 13.04.2020
4789 Rain 9 1008 81 10000 2.6 90 07:20 13.04.2020
4790 Rain 9 1009 76 10000 2.6 110 06:47 13.04.2020
4791 Rain 10 1009 66 10000 2.6 100 06:24 13.04.2020
4792 Rain 10 1009 66 10000 3.6 100 05:30 13.04.2020
4793 Clouds 11 1009 71 10000 3.1 110 04:53 13.04.2020
4794 Clouds 11 1009 66 10000 4.6 110 04:23 13.04.2020
4795 Clouds 12 1010 66 10000 4.1 110 03:47 13.04.2020
4796 Clouds 12 1011 62 10000 4.6 130 02:59 13.04.2020
4797 Clouds 13 1011 62 10000 3.6 120 01:54 13.04.2020
4798 Clouds 13 1011 62 10000 3.6 120 01:36 13.04.2020
4799 Clouds 14 1011 67 10000 2.1 170 00:58 13.04.2020
4800 Clouds 14 1011 67 10000 2.1 170 00:39 13.04.2020
4801 Clouds 14 1011 54 10000 2.6 140 00:18 13.04.2020
4802 Clouds 14 1011 54 10000 1.5 130 23:45 12.04.2020
4803 Clouds 15 1012 51 10000 1.5 130 23:22 12.04.2020
4804 Clouds 14 1011 51 10000 1 0 22:58 12.04.2020
4805 Clouds 15 1011 51 10000 1 0 22:37 12.04.2020
4806 Clouds 15 1011 48 10000 1 130 22:19 12.04.2020
4807 Clouds 16 1011 48 10000 2.1 150 21:40 12.04.2020
4808 Clear 17 1012 45 10000 1.5 150 21:21 12.04.2020
4809 Clear 17 1012 45 10000 1.5 150 20:57 12.04.2020
4810 Clear 18 1012 42 10000 1.5 0 20:38 12.04.2020
4811 Clear 18 1012 45 10000 3.1 130 20:20 12.04.2020
4812 Clear 19 1012 42 10000 2.6 130 19:55 12.04.2020
4813 Clear 19 1012 42 10000 2.6 130 19:36 12.04.2020
4814 Clear 19 1013 37 10000 2.6 120 19:18 12.04.2020
4815 Clear 19 1013 42 10000 2.6 120 18:40 12.04.2020
4816 Clouds 19 1013 42 10000 3.1 100 18:22 12.04.2020
4817 Clouds 19 1014 39 10000 3.1 130 17:57 12.04.2020
4818 Clouds 19 1014 39 10000 3.1 130 17:38 12.04.2020
4819 Clouds 19 1015 42 10000 3.6 130 17:20 12.04.2020
4820 Clouds 19 1015 39 10000 2.6 130 16:56 12.04.2020
4821 Clouds 19 1015 39 10000 2.6 130 16:37 12.04.2020
4822 Clouds 19 1015 42 10000 2.6 80 16:19 12.04.2020
4823 Clouds 18 1016 48 10000 3.1 80 15:42 12.04.2020
4824 Clouds 18 1016 48 10000 3.6 100 15:23 12.04.2020
4825 Clouds 17 1017 51 10000 4.1 110 14:41 12.04.2020
4826 Clouds 17 1017 48 10000 3.6 110 14:22 12.04.2020
4827 Clouds 17 1017 48 10000 3.6 110 13:58 12.04.2020
4828 Clouds 17 1018 44 10000 2.6 80 13:40 12.04.2020
4829 Clouds 16 1018 51 10000 3.6 90 13:22 12.04.2020
4830 Clouds 16 1019 51 10000 3.6 110 12:47 12.04.2020
4831 Clouds 15 1019 54 10000 4.1 90 12:22 12.04.2020
4832 Clouds 15 1019 50 10000 4.1 90 11:59 12.04.2020
4833 Clouds 14 1019 50 10000 4.1 90 11:39 12.04.2020
4834 Clouds 14 1019 50 10000 3.6 80 11:20 12.04.2020
4835 Clouds 14 1019 47 10000 2.6 70 10:58 12.04.2020
4836 Clouds 13 1019 47 10000 2.6 70 10:39 12.04.2020
4837 Clouds 13 1019 54 10000 3.1 90 10:20 12.04.2020
4838 Clouds 12 1019 54 10000 3.1 90 09:59 12.04.2020
4839 Clouds 12 1019 58 10000 2.6 100 09:39 12.04.2020
4840 Clouds 11 1019 58 10000 2.1 80 09:20 12.04.2020
4841 Clouds 11 1019 71 10000 2.1 90 08:51 12.04.2020
4842 Clouds 11 1019 66 10000 2.6 90 08:32 12.04.2020
4843 Clouds 11 1019 66 10000 2.1 80 07:55 12.04.2020
4844 Clouds 11 1019 66 10000 2.1 80 07:36 12.04.2020
4845 Clouds 11 1019 62 10000 1.5 60 07:18 12.04.2020
4846 Clouds 11 1019 66 10000 1.5 90 06:31 12.04.2020
4847 Clouds 11 1019 62 10000 1.5 80 05:49 12.04.2020
4848 Clouds 11 1019 62 10000 1.5 80 05:27 12.04.2020
4849 Clouds 13 1020 71 10000 2.1 90 03:32 12.04.2020
4850 Rain 13 1020 71 10000 2.1 90 02:51 12.04.2020
4851 Clouds 13 1020 71 10000 2.1 90 02:30 12.04.2020
4852 Clouds 14 1020 76 10000 0.5 0 01:31 12.04.2020
4853 Rain 14 1020 82 10000 1.5 200 00:56 12.04.2020
4854 Rain 14 1020 67 10000 0.5 0 00:38 12.04.2020
4855 Rain 14 1020 67 10000 0.5 0 00:38 12.04.2020
4856 Rain 14 1020 67 10000 0.5 0 00:19 12.04.2020
4857 Rain 14 1020 72 10000 0.5 0 23:44 11.04.2020
4858 Rain 15 1019 72 10000 0.5 100 23:23 11.04.2020
4859 Clouds 15 1019 77 10000 0.5 0 22:40 11.04.2020
4860 Clouds 15 1019 77 10000 2.1 140 22:22 11.04.2020
4861 Clouds 16 1019 72 10000 3.1 120 21:57 11.04.2020
4862 Clouds 16 1019 72 10000 3.1 120 21:37 11.04.2020
4863 Clouds 16 1019 63 10000 2.6 100 21:18 11.04.2020
4864 Clouds 16 1019 63 10000 2.6 100 21:18 11.04.2020
4865 Clouds 17 1019 63 10000 3.6 110 20:57 11.04.2020
4866 Clouds 17 1019 63 10000 3.6 110 20:38 11.04.2020
4867 Clouds 17 1019 63 10000 3.6 100 20:20 11.04.2020
4868 Clouds 18 1019 59 10000 3.6 120 19:57 11.04.2020
4869 Clouds 18 1019 59 10000 3.6 120 19:38 11.04.2020
4870 Clouds 18 1019 55 10000 3.1 130 19:19 11.04.2020
4871 Clouds 18 1019 55 10000 3.1 130 19:19 11.04.2020
4872 Clouds 18 1019 55 10000 3.1 130 18:56 11.04.2020
4873 Clouds 18 1019 63 10000 3.1 130 18:37 11.04.2020
4874 Clouds 18 1019 59 10000 3.1 140 18:19 11.04.2020
4875 Clouds 18 1019 59 10000 2.1 0 17:58 11.04.2020
4876 Clouds 18 1019 59 10000 2.1 0 17:40 11.04.2020
4877 Clouds 18 1020 59 10000 2.1 0 17:19 11.04.2020
4878 Clouds 18 1020 63 10000 2.6 0 16:43 11.04.2020
4879 Clouds 17 1020 63 10000 2.6 140 16:22 11.04.2020
4880 Clouds 17 1020 63 10000 2.6 150 15:56 11.04.2020
4881 Clouds 17 1020 63 10000 2.6 150 15:36 11.04.2020
4882 Clouds 17 1021 63 10000 2.1 0 15:18 11.04.2020
4883 Clouds 17 1021 59 10000 1.5 0 14:42 11.04.2020
4884 Clouds 17 1021 59 10000 1.5 0 14:42 11.04.2020
4885 Clouds 16 1022 67 10000 2.6 140 14:23 11.04.2020
4886 Clouds 16 1022 63 10000 2.6 90 13:59 11.04.2020
4887 Clouds 16 1022 63 10000 2.6 90 13:38 11.04.2020
4888 Clouds 15 1022 72 10000 2.1 120 13:19 11.04.2020
4889 Clouds 15 1022 67 10000 1.5 100 12:41 11.04.2020
4890 Clouds 15 1022 67 10000 1.5 100 12:41 11.04.2020
4891 Clouds 15 1022 67 10000 1.5 80 12:19 11.04.2020
4892 Clouds 14 1022 72 10000 2.1 0 11:56 11.04.2020
4893 Clouds 14 1022 72 10000 2.1 0 11:38 11.04.2020
4894 Clouds 13 1022 72 10000 2.1 70 11:19 11.04.2020
4895 Clouds 12 1022 76 10000 1 0 10:43 11.04.2020
4896 Clouds 12 1021 76 10000 1 0 10:22 11.04.2020
4897 Clouds 12 1021 82 10000 1.5 90 09:59 11.04.2020
4898 Clouds 12 1021 82 10000 1.5 90 09:39 11.04.2020
4899 Clouds 11 1021 87 10000 1.5 60 09:21 11.04.2020
4900 Clouds 11 1021 81 10000 1.5 60 08:50 11.04.2020
4901 Clouds 11 1021 81 10000 1.5 70 08:28 11.04.2020
4902 Clouds 11 1021 81 10000 1.5 70 07:54 11.04.2020
4903 Clouds 11 1021 87 10000 1 0 07:34 11.04.2020
4904 Clouds 11 1021 81 10000 1 0 06:55 11.04.2020
4905 Clouds 11 1021 81 10000 1.5 80 06:34 11.04.2020
4906 Clouds 11 1021 81 10000 1.5 70 05:55 11.04.2020
4907 Clouds 11 1022 82 10000 1 0 03:42 11.04.2020
4908 Clouds 12 1022 82 10000 1.5 100 02:49 11.04.2020
4909 Clouds 12 1022 87 10000 1.5 110 01:25 11.04.2020
4910 Clouds 12 1022 87 10000 2.6 120 00:44 11.04.2020
4911 Clouds 12 1022 87 10000 3.1 110 00:20 11.04.2020
4912 Clouds 13 1022 87 10000 3.1 110 23:59 10.04.2020
4913 Clouds 12 1022 93 10000 2.6 110 23:40 10.04.2020
4914 Clouds 13 1022 93 10000 2.6 100 23:19 10.04.2020
4915 Clouds 13 1022 87 10000 2.1 100 22:55 10.04.2020
4916 Clouds 13 1022 87 10000 2.1 100 22:36 10.04.2020
4917 Clouds 13 1021 87 10000 2.6 90 22:18 10.04.2020
4918 Clouds 13 1021 87 10000 2.1 90 21:41 10.04.2020
4919 Clouds 13 1021 87 10000 1 0 21:20 10.04.2020
4920 Clouds 13 1021 87 10000 1 0 21:20 10.04.2020
4921 Clouds 13 1021 82 10000 1.5 70 20:57 10.04.2020
4922 Clouds 14 1021 82 10000 1.5 70 20:38 10.04.2020
4923 Clouds 14 1021 87 10000 2.1 350 20:19 10.04.2020
4924 Clouds 14 1021 82 10000 1 0 19:54 10.04.2020
4925 Clouds 14 1021 82 10000 1 0 19:36 10.04.2020
4926 Rain 14 1021 82 10000 1.5 360 19:18 10.04.2020
4927 Rain 14 1021 82 10000 2.1 360 18:55 10.04.2020
4928 Rain 14 1021 82 10000 2.1 10 18:36 10.04.2020
4929 Rain 14 1021 82 10000 2.1 10 18:18 10.04.2020
4930 Clouds 14 1021 82 10000 2.1 350 17:56 10.04.2020
4931 Clouds 14 1021 82 10000 2.1 350 17:37 10.04.2020
4932 Clouds 14 1021 82 10000 2.1 360 17:18 10.04.2020
4933 Clouds 13 1021 87 10000 0.5 0 16:41 10.04.2020
4934 Clouds 13 1021 93 10000 1 0 16:23 10.04.2020
4935 Clouds 13 1021 93 10000 1 0 15:58 10.04.2020
4936 Clouds 12 1021 93 10000 1.5 80 15:39 10.04.2020
4937 Clouds 12 1022 93 10000 1.5 50 15:21 10.04.2020
4938 Clouds 12 1022 93 10000 1.5 80 14:58 10.04.2020
4939 Clouds 12 1022 93 10000 1.5 80 14:39 10.04.2020
4940 Clouds 12 1022 100 10000 2.1 90 14:21 10.04.2020
4941 Clouds 12 1022 93 10000 2.1 70 13:49 10.04.2020
4942 Rain 11 1022 93 10000 2.1 70 13:23 10.04.2020
4943 Rain 11 1022 93 10000 2.1 70 12:59 10.04.2020
4944 Rain 11 1022 93 8000 2.1 60 12:41 10.04.2020
4945 Rain 11 1022 93 4500 1.5 60 12:21 10.04.2020
4946 Rain 11 1022 93 4500 2.1 70 11:43 10.04.2020
4947 Rain 11 1021 100 8000 1.5 60 11:24 10.04.2020
4948 Rain 10 1021 100 8000 2.1 60 10:58 10.04.2020
4949 Rain 10 1021 100 8000 2.1 60 10:39 10.04.2020
4950 Rain 10 1021 100 8000 2.1 60 10:21 10.04.2020
4951 Rain 10 1021 100 6000 1.5 60 09:43 10.04.2020
4952 Rain 10 1021 100 6000 1.5 60 09:23 10.04.2020
4953 Rain 10 1020 100 5000 1 0 08:50 10.04.2020
4954 Rain 10 1020 100 5000 1 0 08:27 10.04.2020
4955 Rain 11 1020 100 9000 1.5 60 07:57 10.04.2020
4956 Rain 11 1020 100 9000 1.5 60 07:39 10.04.2020
4957 Rain 11 1020 93 7000 1 0 07:20 10.04.2020
4958 Rain 11 1020 100 7000 0.5 0 06:38 10.04.2020
4959 Rain 11 1020 100 7000 1 0 06:19 10.04.2020
4960 Rain 11 1020 100 7000 0.5 50 05:30 10.04.2020
4961 Rain 11 1020 93 10000 1.25 84 04:56 10.04.2020
4962 Rain 11 1021 100 10000 1.25 84 03:36 10.04.2020
4963 Rain 12 1021 100 10000 1.82 99 02:51 10.04.2020
4964 Rain 11 1021 100 10000 1.82 99 02:33 10.04.2020
4965 Rain 11 1021 100 10000 1 0 01:50 10.04.2020
4966 Rain 11 1021 100 10000 1.5 150 01:28 10.04.2020
4967 Rain 12 1021 100 8000 1.92 95 00:47 10.04.2020
4968 Rain 12 1021 93 10000 2.1 150 00:21 10.04.2020
4969 Rain 12 1021 93 10000 3.1 150 23:44 09.04.2020
4970 Rain 12 1021 93 10000 1.5 360 23:24 09.04.2020
4971 Rain 12 1021 93 10000 1.5 360 22:59 09.04.2020
4972 Rain 12 1021 93 10000 1.5 360 22:40 09.04.2020
4973 Rain 13 1020 87 9000 1.5 350 22:22 09.04.2020
4974 Rain 13 1020 87 7000 1 0 21:42 09.04.2020
4975 Rain 13 1020 87 9000 1 150 21:24 09.04.2020
4976 Rain 14 1020 72 9000 1 0 20:55 09.04.2020
4977 Rain 14 1020 72 9000 1 0 20:37 09.04.2020
4978 Clouds 14 1020 67 10000 1 0 20:18 09.04.2020
4979 Clouds 15 1019 63 10000 1.5 80 19:40 09.04.2020
4980 Clouds 15 1019 67 10000 1 0 19:22 09.04.2020
4981 Rain 15 1019 67 10000 1 0 18:42 09.04.2020
4982 Rain 15 1019 67 10000 1 0 18:42 09.04.2020
4983 Clouds 16 1019 63 10000 1.5 110 18:21 09.04.2020
4984 Drizzle 16 1019 62 10000 1.5 60 17:58 09.04.2020
4985 Drizzle 16 1019 62 10000 1.5 60 17:39 09.04.2020
4986 Drizzle 16 1020 62 10000 2.1 60 17:19 09.04.2020
4987 Clouds 16 1020 62 10000 2.1 80 16:40 09.04.2020
4988 Clouds 15 1020 62 10000 2.1 90 16:20 09.04.2020
4989 Drizzle 15 1020 58 10000 1.5 90 15:57 09.04.2020
4990 Drizzle 15 1020 58 10000 1.5 90 15:38 09.04.2020
4991 Drizzle 15 1020 58 10000 1.5 90 15:38 09.04.2020
4992 Drizzle 15 1021 62 10000 2.6 120 15:19 09.04.2020
4993 Drizzle 15 1021 54 10000 2.6 120 14:56 09.04.2020
4994 Drizzle 15 1021 54 10000 2.6 120 14:36 09.04.2020
4995 Clouds 15 1021 54 10000 3.1 120 14:18 09.04.2020
4996 Clouds 15 1021 62 10000 2.6 100 13:42 09.04.2020
4997 Rain 15 1021 58 10000 2.1 90 13:23 09.04.2020
4998 Clouds 15 1021 58 10000 2.1 90 12:55 09.04.2020
4999 Clouds 15 1021 58 10000 2.1 90 12:36 09.04.2020
5000 Clouds 14 1021 54 10000 2.1 100 12:18 09.04.2020
5001 Clouds 14 1021 62 10000 2.1 70 11:43 09.04.2020
5002 Clouds 13 1021 76 10000 1.5 50 11:20 09.04.2020
5003 Clouds 13 1021 76 10000 1.5 50 11:20 09.04.2020
5004 Clouds 13 1021 71 10000 1 0 10:59 09.04.2020
5005 Clouds 13 1021 71 10000 1 0 10:41 09.04.2020
5006 Clouds 12 1021 71 10000 1.5 70 10:21 09.04.2020
5007 Clouds 12 1021 71 10000 1.5 70 09:57 09.04.2020
5008 Clouds 12 1021 76 10000 0.5 0 09:38 09.04.2020
5009 Clouds 12 1020 71 10000 2.6 70 09:20 09.04.2020
5010 Drizzle 12 1020 66 10000 0.5 0 08:44 09.04.2020
5011 Clouds 12 1020 66 10000 2.1 90 08:24 09.04.2020
5012 Clouds 12 1020 66 10000 1 0 07:59 09.04.2020
5013 Clouds 12 1020 66 10000 1 0 07:36 09.04.2020
5014 Clouds 12 1020 87 10000 0.5 360 07:18 09.04.2020
5015 Clouds 13 1020 81 10000 0.5 0 06:26 09.04.2020
5016 Clouds 13 1020 81 10000 1 360 05:46 09.04.2020
5017 Clouds 13 1020 81 10000 0.5 0 04:26 09.04.2020
5018 Clouds 14 1021 82 10000 0.5 0 02:33 09.04.2020
5019 Clouds 14 1021 82 10000 1.5 360 01:44 09.04.2020
5020 Clouds 14 1021 82 10000 1.5 350 01:24 09.04.2020
5021 Clouds 15 1021 76 10000 1.5 10 00:43 09.04.2020
5022 Clouds 15 1021 76 10000 1.5 350 00:20 09.04.2020
5023 Clouds 15 1021 72 10000 1.5 20 23:59 08.04.2020
5024 Clouds 16 1021 67 10000 0.5 300 23:41 08.04.2020
5025 Clouds 16 1021 67 10000 0.5 300 23:22 08.04.2020
5026 Clouds 16 1021 67 10000 0.5 300 22:44 08.04.2020
5027 Clouds 17 1020 67 10000 0.5 250 22:24 08.04.2020
5028 Clouds 17 1020 63 10000 1.5 210 21:57 08.04.2020
5029 Clouds 18 1020 63 10000 1.5 210 21:39 08.04.2020
5030 Clouds 19 1020 55 10000 2.6 200 21:21 08.04.2020
5031 Clouds 19 1020 52 10000 2.6 200 20:59 08.04.2020
5032 Clouds 20 1020 52 10000 2.6 200 20:40 08.04.2020
5033 Clouds 20 1020 49 10000 2.6 190 20:20 08.04.2020
5034 Clouds 21 1020 49 10000 2.6 210 19:58 08.04.2020
5035 Clouds 21 1020 49 10000 2.6 210 19:38 08.04.2020
5036 Clouds 21 1020 49 10000 2.6 210 19:20 08.04.2020
5037 Clouds 21 1020 49 10000 3.1 190 18:45 08.04.2020
5038 Clouds 21 1020 52 10000 2.6 210 18:26 08.04.2020
5039 Clouds 21 1021 52 10000 3.1 190 17:56 08.04.2020
5040 Clouds 21 1021 52 10000 3.1 190 17:38 08.04.2020
5041 Clouds 21 1022 52 10000 2.1 0 17:19 08.04.2020
5042 Clouds 20 1022 60 10000 2.1 170 16:43 08.04.2020
5043 Clouds 20 1022 60 10000 2.1 170 16:24 08.04.2020
5044 Clouds 20 1022 60 10000 2.6 140 15:59 08.04.2020
5045 Clouds 20 1022 60 10000 2.6 140 15:38 08.04.2020
5046 Clouds 20 1022 60 10000 2.6 140 15:20 08.04.2020
5047 Clouds 19 1023 63 10000 1 0 14:54 08.04.2020
5048 Clouds 19 1023 63 10000 1 0 14:36 08.04.2020
5049 Clouds 18 1023 63 10000 1 0 14:18 08.04.2020
5050 Clouds 18 1024 63 10000 1 0 13:43 08.04.2020
5051 Clouds 18 1024 63 10000 1 0 13:43 08.04.2020
5052 Clouds 17 1024 72 10000 2.1 0 13:21 08.04.2020
5053 Clouds 16 1024 67 10000 2.6 120 12:43 08.04.2020
5054 Clouds 15 1024 67 10000 2.6 90 12:19 08.04.2020
5055 Clouds 16 1024 67 10000 2.6 90 12:19 08.04.2020
5056 Clouds 15 1024 71 10000 3.6 120 11:59 08.04.2020
5057 Clouds 15 1024 71 10000 3.6 120 11:40 08.04.2020
5058 Rain 14 1024 76 10000 2.6 100 11:22 08.04.2020
5059 Rain 14 1024 82 10000 2.6 110 10:57 08.04.2020
5060 Rain 13 1024 82 10000 2.6 110 10:39 08.04.2020
5061 Rain 13 1024 87 10000 1.5 130 10:20 08.04.2020
5062 Clouds 12 1024 87 10000 1.5 90 09:56 08.04.2020
5063 Clouds 12 1024 87 10000 1.5 90 09:38 08.04.2020
5064 Clouds 12 1024 87 10000 0.5 0 09:18 08.04.2020
5065 Clouds 11 1024 93 10000 1 0 08:42 08.04.2020
5066 Clouds 11 1024 87 9000 1.5 140 08:23 08.04.2020
5067 Clouds 11 1024 87 9000 1.5 140 08:23 08.04.2020
5068 Clouds 11 1024 87 9000 1.5 140 07:57 08.04.2020
5069 Clouds 11 1024 93 8000 1.5 120 07:39 08.04.2020
5070 Clouds 11 1024 93 6000 1.5 130 07:19 08.04.2020
5071 Clouds 11 1024 93 10000 2.1 90 06:21 08.04.2020
5072 Clouds 13 1024 87 10000 3.1 140 04:20 08.04.2020
5073 Clouds 13 1025 93 9000 1 100 02:49 08.04.2020
5074 Clouds 13 1025 93 10000 2.09 127 02:20 08.04.2020
5075 Mist 13 1025 100 1500 1.5 110 01:51 08.04.2020
5076 Rain 13 1025 100 9000 0.5 60 01:27 08.04.2020
5077 Rain 13 1025 100 9000 0.5 80 00:41 08.04.2020
5078 Clouds 14 1024 100 10000 1.62 169 00:22 08.04.2020
5079 Clouds 14 1024 93 10000 1.5 130 23:40 07.04.2020
5080 Clouds 14 1024 93 10000 1.5 130 23:40 07.04.2020
5081 Clouds 14 1024 93 10000 1.5 130 23:21 07.04.2020
5082 Clouds 14 1024 87 10000 2.1 130 22:58 07.04.2020
5083 Clouds 14 1024 87 10000 2.1 130 22:39 07.04.2020
5084 Clouds 15 1024 93 10000 2.1 110 22:20 07.04.2020
5085 Clouds 15 1023 93 10000 1.5 70 21:57 07.04.2020
5086 Clouds 15 1023 93 10000 1.5 70 21:39 07.04.2020
5087 Clouds 15 1023 87 10000 1 0 21:20 07.04.2020
5088 Rain 16 1023 87 10000 1 0 20:57 07.04.2020
5089 Rain 16 1023 87 10000 1 0 20:38 07.04.2020
5090 Rain 16 1023 82 10000 2.1 190 20:20 07.04.2020
5091 Rain 16 1023 82 10000 2.1 190 20:20 07.04.2020
5092 Rain 16 1023 77 10000 1.5 170 19:57 07.04.2020
5093 Clouds 16 1023 77 10000 1 160 19:37 07.04.2020
5094 Clouds 17 1023 77 10000 1 160 19:18 07.04.2020
5095 Clouds 17 1023 68 10000 0.5 200 18:56 07.04.2020
5096 Clouds 17 1023 68 10000 0.5 200 18:38 07.04.2020
5097 Clouds 16 1023 72 10000 0.5 0 18:19 07.04.2020
5098 Clouds 16 1023 77 10000 1.5 230 17:44 07.04.2020
5099 Rain 16 1023 82 9000 1.5 210 17:21 07.04.2020
5100 Rain 16 1023 82 9000 1.5 210 16:47 07.04.2020
5101 Rain 16 1023 82 9000 1.5 210 16:47 07.04.2020
5102 Rain 16 1024 93 7000 2.6 180 16:28 07.04.2020
5103 Rain 17 1023 72 10000 2.6 140 15:57 07.04.2020
5104 Clouds 17 1024 72 10000 1.5 0 15:38 07.04.2020
5105 Clouds 17 1024 72 10000 1.5 0 15:20 07.04.2020
5106 Clouds 16 1024 72 10000 2.1 100 14:41 07.04.2020
5107 Clouds 16 1024 77 10000 2.6 120 14:22 07.04.2020
5108 Clouds 16 1024 77 10000 2.6 120 13:57 07.04.2020
5109 Clouds 16 1024 77 10000 3.1 100 13:37 07.04.2020
5110 Clouds 15 1024 77 10000 2.6 110 13:18 07.04.2020
5111 Clouds 15 1024 82 10000 2.6 110 12:55 07.04.2020
5112 Clouds 14 1024 82 10000 2.6 110 12:36 07.04.2020
5113 Clouds 14 1025 87 10000 2.6 100 12:18 07.04.2020
5114 Clouds 14 1024 93 10000 2.6 110 11:42 07.04.2020
5115 Clouds 13 1024 93 10000 2.1 110 11:24 07.04.2020
5116 Clouds 13 1024 87 10000 2.1 100 10:58 07.04.2020
5117 Clouds 13 1024 87 10000 2.1 100 10:37 07.04.2020
5118 Clouds 12 1024 93 10000 1 0 10:19 07.04.2020
5119 Clouds 12 1024 93 10000 1.5 120 09:45 07.04.2020
5120 Clouds 12 1023 93 10000 1.5 100 09:18 07.04.2020
5121 Clouds 11 1023 93 10000 1.29 125 08:55 07.04.2020
5122 Clouds 11 1023 93 10000 1.29 125 08:36 07.04.2020
5123 Clouds 11 1023 100 10000 0.5 130 08:18 07.04.2020
5124 Clouds 11 1023 100 10000 1 120 07:40 07.04.2020
5125 Mist 11 1023 100 5000 1 130 07:21 07.04.2020
5126 Clouds 11 1023 100 10000 1.5 110 06:51 07.04.2020
5127 Clouds 12 1022 100 10000 1.5 90 06:23 07.04.2020
5128 Clouds 12 1023 100 10000 1.5 130 05:40 07.04.2020
5129 Clouds 12 1023 93 10000 1.41 148 04:56 07.04.2020
5130 Rain 12 1023 93 10000 1.5 250 03:31 07.04.2020
5131 Rain 12 1023 93 9000 2.1 230 02:59 07.04.2020
5132 Rain 13 1023 93 10000 3.1 210 01:50 07.04.2020
5133 Rain 13 1023 87 10000 2.1 190 01:26 07.04.2020
5134 Rain 14 1023 87 9000 1.5 220 00:29 07.04.2020
5135 Rain 14 1023 72 10000 1 0 23:56 06.04.2020
5136 Rain 15 1023 72 10000 1 0 23:36 06.04.2020
5137 Clouds 14 1023 67 10000 0.5 250 23:18 06.04.2020
5138 Rain 15 1022 67 10000 0.5 250 22:40 06.04.2020
5139 Rain 15 1022 67 10000 0.5 250 22:40 06.04.2020
5140 Rain 15 1022 63 10000 1 0 22:21 06.04.2020
5141 Rain 15 1022 63 10000 1 0 21:57 06.04.2020
5142 Rain 16 1021 67 10000 1.5 270 21:39 06.04.2020
5143 Rain 16 1021 63 10000 2.1 260 21:19 06.04.2020
5144 Rain 16 1021 63 10000 2.1 270 20:55 06.04.2020
5145 Rain 16 1021 63 10000 2.1 270 20:37 06.04.2020
5146 Rain 16 1021 59 10000 2.6 270 20:18 06.04.2020
5147 Rain 17 1021 59 10000 3.1 250 19:41 06.04.2020
5148 Rain 17 1021 63 10000 3.6 260 19:23 06.04.2020
5149 Rain 17 1021 59 10000 3.6 240 18:59 06.04.2020
5150 Rain 17 1021 59 10000 3.6 240 18:39 06.04.2020
5151 Rain 18 1021 63 10000 4.1 250 18:21 06.04.2020
5152 Rain 17 1021 59 10000 4.6 240 17:42 06.04.2020
5153 Rain 17 1021 59 10000 4.1 220 17:20 06.04.2020
5154 Clouds 17 1021 59 10000 3.6 240 16:50 06.04.2020
5155 Clouds 17 1022 63 10000 5.1 250 16:32 06.04.2020
5156 Clouds 17 1022 63 10000 5.1 250 16:32 06.04.2020
5157 -273 0 0 0 0 0 16:00 06.04.2020
5158 Clouds 17 1022 63 10000 5.1 250 16:00 06.04.2020
5159 Clouds 16 1021 72 10000 4.1 190 14:44 06.04.2020
5160 Clouds 16 1021 72 10000 4.1 190 14:44 06.04.2020
5161 Clouds 16 1021 72 10000 4.1 190 14:44 06.04.2020
5162 Clouds 16 1021 72 10000 4.1 190 14:44 06.04.2020
5163 Clouds 16 1021 72 10000 4.1 190 14:38 06.04.2020
5164 Clouds 15 1021 72 10000 4.1 240 13:43 06.04.2020
5165 Clouds 15 1021 72 10000 4.1 240 13:43 06.04.2020
5166 Clouds 15 1021 77 10000 3.1 220 13:20 06.04.2020
5167 Clouds 14 1021 72 10000 4.6 220 12:26 06.04.2020
5168 Clouds 14 1021 72 10000 4.6 220 12:26 06.04.2020
5169 Clouds 14 1021 72 10000 4.6 220 12:26 06.04.2020
5170 Clouds 14 1021 72 10000 4.6 220 12:26 06.04.2020
5171 Clouds 14 1021 77 10000 4.6 220 11:56 06.04.2020
5172 Clouds 14 1021 82 10000 3.6 220 11:34 06.04.2020
5173 Clouds 14 1021 82 10000 3.6 220 11:34 06.04.2020
5174 Clouds 13 1020 93 10000 2.6 190 10:52 06.04.2020
5175 Clouds 13 1020 87 10000 2.6 200 10:52 06.04.2020
5176 Clouds 13 1020 87 10000 2.6 200 10:52 06.04.2020
5177 Clouds 13 1020 87 10000 2.6 200 10:52 06.04.2020
5178 Clouds 13 1020 93 10000 2.6 190 10:52 06.04.2020
5179 Clouds 12 1020 93 10000 2.6 190 10:22 06.04.2020
5180 Clouds 12 1020 93 10000 2.6 190 10:22 06.04.2020
5181 Rain 12 1020 93 10000 2.6 160 09:51 06.04.2020
5182 Rain 12 1020 93 10000 2.6 160 09:51 06.04.2020
5183 Drizzle 12 1019 93 7000 2.6 140 09:23 06.04.2020
5184 Drizzle 12 1019 93 7000 2.6 140 08:55 06.04.2020
5185 Drizzle 12 1019 93 7000 2.1 140 08:33 06.04.2020
5186 Drizzle 12 1018 100 7000 2.6 150 07:54 06.04.2020
5187 Rain 12 1018 93 5000 1.5 180 06:57 06.04.2020
5188 Rain 12 1018 93 3700 1.5 180 06:25 06.04.2020
5189 Clouds 13 1018 82 10000 1 0 04:49 06.04.2020
5190 Clouds 13 1018 82 10000 1 0 04:49 06.04.2020
5191 Clouds 13 1018 82 10000 3.71 193 03:27 06.04.2020
5192 Clouds 14 1018 82 10000 1 0 02:48 06.04.2020
5193 Rain 14 1017 63 10000 3.1 210 01:49 06.04.2020
5194 Rain 15 1017 63 10000 2.6 220 00:46 06.04.2020
5195 Rain 15 1017 63 10000 2.6 220 00:25 06.04.2020
5196 Rain 15 1017 63 10000 2.6 200 23:47 05.04.2020
5197 Rain 15 1017 59 10000 2.6 200 23:29 05.04.2020
5198 Rain 15 1017 59 10000 2.6 200 23:29 05.04.2020
5199 Rain 15 1017 59 10000 2.6 200 23:29 05.04.2020
5200 Rain 15 1017 59 10000 2.6 200 23:29 05.04.2020
5201 Rain 15 1017 63 10000 2.1 200 22:56 05.04.2020
5202 Rain 16 1016 55 10000 1 0 22:38 05.04.2020
5203 Rain 16 1016 55 10000 1.5 200 22:18 05.04.2020
5204 Rain 16 1016 55 10000 1.5 200 21:55 05.04.2020
5205 Rain 16 1016 55 10000 1.5 200 21:55 05.04.2020
5206 Rain 16 1016 59 10000 1.5 210 21:37 05.04.2020
5207 Clouds 17 1016 59 10000 1.5 210 21:18 05.04.2020
5208 Clouds 18 1016 52 10000 2.6 210 20:20 05.04.2020
5209 Clouds 18 1016 52 10000 2.6 210 20:20 05.04.2020
5210 Clouds 18 1015 52 10000 2.1 180 20:20 05.04.2020
5211 Clouds 18 1016 52 10000 2.6 210 20:20 05.04.2020
5212 Clouds 19 1016 48 10000 2.6 170 19:40 05.04.2020
5213 Clouds 19 1016 48 10000 2.6 170 19:22 05.04.2020
5214 Clouds 19 1016 52 10000 3.6 170 18:44 05.04.2020
5215 Clouds 18 1016 55 10000 2.6 150 17:58 05.04.2020
5216 Clouds 19 1016 55 10000 2.6 150 17:39 05.04.2020
5217 Clouds 19 1016 55 10000 2.6 150 17:39 05.04.2020
5218 Clouds 18 1016 55 10000 2.6 150 17:39 05.04.2020
5219 Clouds 19 1016 55 10000 2.6 150 17:39 05.04.2020
5220 Clouds 18 1016 55 10000 2.6 150 17:39 05.04.2020
5221 Clouds 18 1017 55 10000 3.6 170 17:20 05.04.2020
5222 Clouds 18 1017 55 10000 3.6 170 17:20 05.04.2020
5223 Clouds 18 1017 52 10000 3.1 180 16:21 05.04.2020
5224 Clouds 18 1017 52 10000 3.1 180 15:55 05.04.2020
5225 Clouds 18 1017 45 10000 2.6 170 15:37 05.04.2020
5226 Clouds 17 1017 52 10000 2.6 0 15:19 05.04.2020
5227 Clouds 17 1018 55 10000 3.1 130 14:47 05.04.2020
5228 Clouds 17 1017 52 10000 2.6 0 14:47 05.04.2020
5229 Clouds 17 1017 52 10000 2.6 0 14:47 05.04.2020
5230 Clouds 17 1018 55 10000 3.1 130 14:47 05.04.2020
5231 Clouds 17 1018 55 10000 3.1 130 14:47 05.04.2020
5232 Clouds 16 1018 62 10000 2.6 110 13:44 05.04.2020
5233 Clouds 15 1019 62 10000 2.1 100 12:54 05.04.2020
5234 Clouds 15 1019 62 10000 2.1 100 12:54 05.04.2020
5235 Clouds 15 1019 66 10000 2.6 100 12:54 05.04.2020
5236 Clouds 15 1019 66 10000 2.6 100 12:54 05.04.2020
5237 Clouds 15 1019 62 10000 2.1 100 12:54 05.04.2020
5238 Clouds 13 1019 76 10000 2.1 90 11:44 05.04.2020
5239 Clouds 12 1019 76 10000 2.6 110 11:21 05.04.2020
5240 Clouds 12 1019 76 10000 2.6 110 10:59 05.04.2020
5241 Clouds 12 1019 76 10000 2.6 110 10:41 05.04.2020
5242 Clouds 12 1019 76 10000 2.6 110 10:19 05.04.2020
5243 Clouds 11 1018 76 10000 1.5 90 09:44 05.04.2020
5244 Clouds 10 1018 87 10000 2.1 90 09:24 05.04.2020
5245 Clouds 11 1018 76 10000 1.5 90 09:24 05.04.2020
5246 Clouds 11 1018 76 10000 1.5 90 09:24 05.04.2020
5247 Clouds 11 1018 76 10000 1.5 90 09:24 05.04.2020
5248 Clouds 10 1018 87 10000 2.1 90 09:24 05.04.2020
5249 Clouds 10 1017 81 10000 3.1 100 07:44 05.04.2020
5250 Clouds 10 1017 81 10000 3.1 100 07:44 05.04.2020
5251 Clouds 11 1016 76 10000 4.6 120 04:40 05.04.2020
5252 Clouds 11 1017 76 10000 5.1 120 03:34 05.04.2020
5253 Clouds 11 1017 71 10000 4.6 120 02:52 05.04.2020
5254 Clouds 12 1017 71 10000 3.1 130 01:48 05.04.2020
5255 Clouds 12 1017 71 10000 3.1 130 01:30 05.04.2020
5256 Clouds 12 1016 62 10000 4.6 120 00:46 05.04.2020
5257 Clouds 12 1016 62 10000 5.1 110 00:22 05.04.2020
5258 Clouds 13 1016 62 10000 5.1 110 23:56 04.04.2020
5259 Clouds 13 1016 62 10000 5.1 110 23:37 04.04.2020
5260 Clouds 13 1016 62 10000 5.7 110 23:19 04.04.2020
5261 Clouds 14 1016 58 10000 4.6 110 22:41 04.04.2020
5262 Clouds 13 1016 58 10000 4.6 110 22:22 04.04.2020
5263 Clouds 14 1015 58 10000 4.1 110 21:59 04.04.2020
5264 Clouds 14 1015 58 10000 4.6 110 21:40 04.04.2020
5265 Clouds 14 1015 58 10000 4.6 110 21:20 04.04.2020
5266 Clouds 15 1015 51 10000 5.1 110 20:59 04.04.2020
5267 Clouds 15 1015 51 10000 5.1 120 20:41 04.04.2020
5268 Clouds 16 1015 51 10000 5.1 120 20:22 04.04.2020
5269 Clouds 16 1015 48 10000 6.2 120 19:57 04.04.2020
5270 Clouds 16 1015 48 10000 5.7 110 19:37 04.04.2020
5271 Clouds 17 1014 45 10000 5.7 120 19:19 04.04.2020
5272 Clouds 17 1014 45 10000 5.7 120 18:57 04.04.2020
5273 Clouds 17 1014 45 10000 5.1 130 18:57 04.04.2020
5274 Clouds 17 1014 45 10000 5.1 130 18:38 04.04.2020
5275 Clouds 17 1014 45 10000 5.1 130 18:38 04.04.2020
5276 Clouds 17 1014 42 10000 5.7 120 18:19 04.04.2020
5277 Clouds 17 1014 42 10000 5.7 120 17:56 04.04.2020
5278 Clouds 17 1014 42 10000 5.7 130 17:38 04.04.2020
5279 Clouds 18 1015 42 10000 6.2 140 17:18 04.04.2020
5280 Clear 18 1015 42 10000 7.7 130 16:42 04.04.2020
5281 Clouds 18 1015 42 10000 7.7 130 16:23 04.04.2020
5282 Clear 18 1015 45 10000 7.2 120 15:57 04.04.2020
5283 Clouds 18 1015 42 10000 6.2 90 15:38 04.04.2020
5284 Clouds 17 1016 45 10000 6.2 110 15:19 04.04.2020
5285 Clouds 17 1016 48 10000 7.2 110 14:44 04.04.2020
5286 Clouds 17 1016 48 10000 7.2 110 14:23 04.04.2020
5287 Clouds 16 1016 48 10000 6.7 110 13:57 04.04.2020
5288 Clouds 16 1017 55 10000 3.1 90 13:38 04.04.2020
5289 Clouds 15 1017 58 10000 3.1 90 13:20 04.04.2020
5290 Clouds 15 1017 58 10000 3.1 90 12:55 04.04.2020
5291 Clear 14 1017 66 10000 3.1 80 12:36 04.04.2020
5292 Clear 13 1017 66 10000 3.6 100 12:18 04.04.2020
5293 Clear 12 1017 62 10000 2.6 70 11:40 04.04.2020
5294 Clear 12 1017 62 10000 2.6 70 11:21 04.04.2020
5295 Clear 11 1017 62 10000 2.1 60 10:58 04.04.2020
5296 Clear 10 1017 57 10000 1.5 30 10:40 04.04.2020
5297 Clear 9 1017 61 10000 2.1 30 10:21 04.04.2020
5298 Clear 9 1017 61 10000 2.1 30 09:55 04.04.2020
5299 Clear 8 1017 66 10000 1 0 09:37 04.04.2020
5300 Clear 7 1016 70 10000 1 0 09:19 04.04.2020
5301 Clear 6 1016 75 10000 1 0 08:42 04.04.2020
5302 Clear 6 1016 75 10000 1 0 08:23 04.04.2020
5303 Clear 6 1016 75 10000 1.5 50 07:47 04.04.2020
5304 Clear 6 1016 75 10000 1.5 50 07:29 04.04.2020
5305 Clear 6 1016 81 10000 0.5 10 06:58 04.04.2020
5306 Clear 6 1016 75 10000 1.5 20 06:22 04.04.2020
5307 Clear 7 1016 70 10000 1 0 05:51 04.04.2020
5308 Clear 6 1016 70 10000 1 0 05:32 04.04.2020
5309 Clear 7 1016 75 10000 1 0 04:34 04.04.2020
5310 Clear 7 1016 70 10000 2.16 91 03:55 04.04.2020
5311 Clear 8 1016 75 10000 0.77 101 03:27 04.04.2020
5312 Clear 9 1016 61 10000 0.77 101 02:42 04.04.2020
5313 Clear 9 1016 61 10000 0.77 101 02:24 04.04.2020
5314 Clear 9 1016 57 10000 1 0 01:27 04.04.2020
5315 Clear 9 1016 66 10000 0.5 10 00:57 04.04.2020
5316 Clear 9 1016 61 10000 0.5 0 00:30 04.04.2020
5317 Clear 10 1016 57 10000 1.25 206 23:56 03.04.2020
5318 Clear 11 1016 50 10000 1.25 206 23:37 03.04.2020
5319 Clear 11 1016 53 10000 0.5 0 23:18 03.04.2020
5320 Clear 11 1016 57 10000 0.5 0 22:40 03.04.2020
5321 Clear 12 1015 43 10000 1.5 180 22:19 03.04.2020
5322 Clear 12 1015 43 10000 1.5 180 21:56 03.04.2020
5323 Clear 12 1015 43 10000 1.5 180 21:56 03.04.2020
5324 Clear 13 1015 35 10000 1.5 160 21:37 03.04.2020
5325 Clear 14 1015 35 10000 1.5 160 21:19 03.04.2020
5326 Clear 15 1015 38 10000 2.6 150 20:55 03.04.2020
5327 Clear 15 1015 29 10000 2.6 150 20:36 03.04.2020
5328 Clear 16 1015 29 10000 2.6 160 20:18 03.04.2020
5329 Clear 16 1015 29 10000 2.6 160 19:54 03.04.2020
5330 Clear 16 1015 29 10000 2.1 150 19:36 03.04.2020
5331 Clear 16 1015 29 10000 2.1 150 19:18 03.04.2020
5332 Clear 16 1015 29 10000 2.1 110 18:56 03.04.2020
5333 Clear 16 1015 29 10000 2.1 110 18:38 03.04.2020
5334 Clear 17 1015 33 10000 2.1 130 18:19 03.04.2020
5335 Clear 17 1015 33 10000 1.5 0 17:40 03.04.2020
5336 Clear 17 1015 36 10000 2.1 0 17:19 03.04.2020
5337 Clear 16 1015 36 10000 2.1 0 16:55 03.04.2020
5338 Clear 16 1015 36 10000 2.1 0 16:55 03.04.2020
5339 Clear 16 1015 36 10000 2.1 0 16:55 03.04.2020
5340 Clear 16 1016 24 10000 1.5 0 16:36 03.04.2020
5341 Clear 16 1016 38 10000 1 280 16:18 03.04.2020
5342 Clear 16 1016 24 10000 1 0 15:41 03.04.2020
5343 Clear 15 1016 29 10000 1 0 15:22 03.04.2020
5344 Clear 15 1013 39 0 1.79 278 14:58 03.04.2020
5345 Clear 14 1013 41 0 1.79 207 14:40 03.04.2020
5346 Clear 14 1017 50 10000 1.5 0 14:21 03.04.2020
5347 Clear 14 1017 50 10000 1.5 0 13:46 03.04.2020
5348 Clear 13 1017 50 10000 1.5 0 13:27 03.04.2020
5349 Clear 12 1018 50 10000 1.5 100 12:57 03.04.2020
5350 Clear 12 1018 58 10000 2.1 140 12:39 03.04.2020
5351 Clear 11 1018 62 10000 1.5 90 12:18 03.04.2020
5352 Clear 11 1018 62 10000 1.5 90 11:55 03.04.2020
5353 Clear 10 1017 57 10000 2.1 50 11:37 03.04.2020
5354 Clear 9 1017 61 10000 2.1 100 11:18 03.04.2020
5355 Clear 9 1017 61 10000 2.1 100 10:56 03.04.2020
5356 Clear 8 1017 70 10000 1.5 60 10:37 03.04.2020
5357 Clear 7 1017 70 10000 1.5 60 10:19 03.04.2020
5358 Clear 7 1017 70 10000 1.5 60 09:55 03.04.2020
5359 Clear 6 1017 70 10000 0.5 0 09:37 03.04.2020
5360 Clear 5 1016 81 10000 1.04 43 09:19 03.04.2020
5361 Clear 4 1016 86 10000 1.04 43 08:44 03.04.2020
5362 Clear 4 1016 86 10000 1.04 43 08:24 03.04.2020
5363 Clear 4 1016 87 10000 1 0 07:57 03.04.2020
5364 Clear 4 1016 93 10000 0.5 0 07:39 03.04.2020
5365 Clear 4 1016 93 10000 0.5 0 07:20 03.04.2020
5366 Clear 5 1015 87 10000 1.04 43 06:28 03.04.2020
5367 Clouds 6 1015 75 10000 0.5 0 05:43 03.04.2020
5368 Clouds 7 1015 70 10000 1 0 04:27 03.04.2020
5369 Clouds 8 1015 66 10000 1 0 03:33 03.04.2020
5370 Clouds 8 1015 71 10000 1.5 60 02:39 03.04.2020
5371 Clouds 9 1015 66 10000 1 0 01:25 03.04.2020
5372 Clouds 10 1015 71 10000 1.5 340 00:47 03.04.2020
5373 Clouds 10 1015 71 10000 1.5 340 00:29 03.04.2020
5374 Clouds 10 1015 71 10000 1.5 340 23:55 02.04.2020
5375 Clouds 11 1015 71 10000 1 0 23:37 02.04.2020
5376 Clouds 11 1015 62 10000 2.1 20 23:18 02.04.2020
5377 Clouds 11 1014 66 10000 1.5 10 22:41 02.04.2020
5378 Clouds 11 1014 66 10000 1.5 10 22:22 02.04.2020
5379 Clouds 11 1014 66 10000 2.1 350 21:59 02.04.2020
5380 Clouds 12 1013 58 9000 1.5 360 21:37 02.04.2020
5381 Clouds 12 1013 58 9000 1.5 360 21:18 02.04.2020
5382 Rain 12 1013 62 10000 3.1 20 20:45 02.04.2020
5383 Rain 12 1013 62 10000 3.1 20 20:25 02.04.2020
5384 Rain 12 1012 50 10000 3.1 360 19:59 02.04.2020
5385 Clouds 13 1012 50 10000 2.6 30 19:40 02.04.2020
5386 Rain 13 1012 50 10000 4.6 360 19:20 02.04.2020
5387 Rain 13 1012 50 10000 4.6 360 18:56 02.04.2020
5388 Clouds 14 1011 50 10000 4.6 10 18:37 02.04.2020
5389 Rain 14 1011 51 10000 3.1 10 18:18 02.04.2020
5390 Clouds 14 1012 50 10000 3.6 10 17:43 02.04.2020
5391 Clouds 14 1012 50 10000 3.6 10 17:24 02.04.2020
5392 Clouds 14 1012 58 10000 3.6 330 16:58 02.04.2020
5393 Clouds 14 1012 48 10000 3.6 40 16:40 02.04.2020
5394 Clouds 15 1012 48 10000 3.6 40 16:22 02.04.2020
5395 Drizzle 14 1012 58 10000 4.6 350 15:57 02.04.2020
5396 Drizzle 13 1012 58 10000 4.6 350 15:39 02.04.2020
5397 Drizzle 14 1012 58 10000 4.6 350 15:19 02.04.2020
5398 Clouds 14 1012 51 10000 2.6 0 14:57 02.04.2020
5399 Clouds 14 1012 54 10000 3.1 50 14:38 02.04.2020
5400 Clouds 14 1012 51 10000 2.6 0 14:18 02.04.2020
5401 Clouds 13 1012 51 10000 2.6 0 13:54 02.04.2020
5402 Clouds 13 1012 51 10000 2.6 0 13:54 02.04.2020
5403 Clouds 13 1012 50 10000 2.1 0 13:36 02.04.2020
5404 Clear 12 1012 58 10000 2.1 40 13:18 02.04.2020
5405 Clear 12 1012 62 10000 2.6 40 12:44 02.04.2020
5406 Clear 11 1012 62 10000 2.1 40 12:19 02.04.2020
5407 Clear 11 1012 62 10000 2.1 40 11:58 02.04.2020
5408 Clear 11 1012 62 10000 2.1 40 11:57 02.04.2020
5409 Clear 10 1012 66 10000 1.5 40 11:39 02.04.2020
5410 Clear 9 1012 70 10000 2.6 50 11:20 02.04.2020
5411 Clear 9 1012 70 10000 2.6 50 11:20 02.04.2020
5412 Clear 9 1012 70 10000 2.6 50 10:56 02.04.2020
5413 Clear 8 1011 70 10000 1.5 0 10:38 02.04.2020
5414 Clear 8 1011 70 10000 1.5 0 10:38 02.04.2020
5415 Clear 7 1011 75 10000 1.5 360 10:20 02.04.2020
5416 Clear 7 1011 75 10000 1.5 360 09:58 02.04.2020
5417 Clear 6 1011 75 10000 1.5 360 09:58 02.04.2020
5418 Clear 6 1011 75 10000 1 0 09:40 02.04.2020
5419 Clear 5 1011 75 10000 1 0 09:20 02.04.2020
5420 Clear 4 1011 93 10000 1.5 360 08:47 02.04.2020
5421 Clear 4 1011 93 10000 1.5 360 08:28 02.04.2020
5422 Clear 3 1011 93 10000 2.1 360 07:54 02.04.2020
5423 Clear 4 1010 93 10000 0.5 0 07:36 02.04.2020
5424 Clear 3 1010 93 10000 1.34 44 07:18 02.04.2020
5425 Clear 4 1010 93 10000 0.08 192 06:23 02.04.2020
5426 Clear 4 1010 86 10000 1 0 05:46 02.04.2020
5427 Clear 4 1010 86 10000 1 0 05:46 02.04.2020
5428 Clear 4 1010 86 10000 0.5 0 04:50 02.04.2020
5429 Clouds 6 1012 81 10000 1 180 02:19 02.04.2020
5430 Clouds 7 1012 81 10000 1.3 230 00:59 02.04.2020
5431 Clouds 7 1012 70 10000 0.5 0 00:38 02.04.2020
5432 Clouds 8 1012 75 10000 1 290 00:19 02.04.2020
5433 Clouds 8 1012 70 10000 1.5 260 23:39 01.04.2020
5434 Clouds 8 1012 61 10000 2.1 240 23:19 01.04.2020
5435 Clouds 9 1012 61 10000 2.1 240 22:56 01.04.2020
5436 Clouds 9 1011 61 10000 1.5 240 22:38 01.04.2020
5437 Clouds 9 1011 66 10000 1.5 240 22:19 01.04.2020
5438 Clouds 10 1011 61 10000 2.6 240 21:41 01.04.2020
5439 Rain 11 1010 62 10000 2.1 240 21:19 01.04.2020
5440 Rain 11 1010 62 10000 2.1 240 20:56 01.04.2020
5441 Rain 12 1010 54 10000 4.1 240 20:38 01.04.2020
5442 Rain 12 1010 54 10000 4.1 240 20:19 01.04.2020
5443 Rain 12 1010 54 10000 4.1 240 19:57 01.04.2020
5444 Rain 13 1010 54 10000 4.6 0 19:38 01.04.2020
5445 Rain 13 1010 54 10000 4.1 240 19:19 01.04.2020
5446 Clouds 13 1010 54 10000 5.7 240 18:42 01.04.2020
5447 Clouds 13 1010 62 10000 5.7 240 18:23 01.04.2020
5448 Clouds 13 1010 62 10000 5.7 240 17:57 01.04.2020
5449 Clouds 13 1010 58 10000 5.7 230 17:38 01.04.2020
5450 Clouds 13 1011 62 10000 4.1 240 17:19 01.04.2020
5451 Clouds 13 1011 62 10000 4.1 240 16:58 01.04.2020
5452 Clouds 13 1011 58 10000 4.6 240 16:39 01.04.2020
5453 Clouds 13 1011 58 10000 4.6 240 16:39 01.04.2020
5454 Clouds 12 1011 66 10000 3.1 270 16:20 01.04.2020
5455 Clouds 12 1011 66 10000 3.1 270 15:56 01.04.2020
5456 Clouds 12 1011 66 10000 4.1 250 15:37 01.04.2020
5457 Clouds 12 1011 66 10000 4.1 250 15:18 01.04.2020
5458 Clouds 11 1011 71 10000 4.1 240 14:40 01.04.2020
5459 Rain 11 1012 71 10000 4.1 220 14:22 01.04.2020
5460 Rain 11 1012 71 10000 4.1 220 13:59 01.04.2020
5461 Rain 11 1012 76 10000 2.6 210 13:40 01.04.2020
5462 Clouds 10 1012 81 10000 4.1 230 13:20 01.04.2020
5463 Rain 10 1012 81 10000 4.1 230 12:59 01.04.2020
5464 Clouds 10 1012 87 10000 3.6 230 12:40 01.04.2020
5465 Rain 9 1012 87 10000 3.6 230 12:22 01.04.2020
5466 Rain 9 1012 100 5000 3.6 210 11:57 01.04.2020
5467 Rain 9 1012 87 9000 2.1 160 11:37 01.04.2020
5468 Rain 9 1012 87 9000 2.1 160 11:37 01.04.2020
5469 Rain 9 1011 93 7000 2.1 120 11:19 01.04.2020
5470 Rain 9 1011 100 9000 2.1 130 10:39 01.04.2020
5471 Rain 9 1011 93 9000 2.6 130 10:21 01.04.2020
5472 Rain 8 1011 93 9000 2.6 130 09:59 01.04.2020
5473 Clouds 8 1011 93 10000 1.5 70 09:40 01.04.2020
5474 Clouds 8 1011 93 10000 1.5 70 09:40 01.04.2020
5475 Clouds 7 1011 93 10000 1.5 70 09:20 01.04.2020
5476 Clouds 7 1010 100 10000 0.5 0 08:54 01.04.2020
5477 Clouds 7 1010 100 10000 0.5 0 08:36 01.04.2020
5478 Clouds 8 1010 100 10000 1 80 08:18 01.04.2020
5479 Clouds 8 1010 100 10000 1 0 07:40 01.04.2020
5480 Clouds 8 1010 100 10000 1 0 07:19 01.04.2020
5481 Clouds 8 1010 93 10000 1 0 06:42 01.04.2020
5482 Clouds 8 1010 93 10000 1 0 06:20 01.04.2020
5483 Clouds 8 1010 93 10000 1.5 100 05:28 01.04.2020
5484 Clouds 8 1010 93 10000 1 0 03:40 01.04.2020
5485 Rain 8 1010 100 10000 1 0 03:19 01.04.2020
5486 Rain 8 1009 93 10000 2.1 80 02:36 01.04.2020
5487 Clouds 8 1010 93 10000 2.1 90 01:50 01.04.2020
5488 Clouds 8 1010 93 10000 2.1 90 01:25 01.04.2020
5489 Clouds 8 1009 93 10000 2.1 80 00:47 01.04.2020
5490 Clouds 8 1009 93 10000 2.1 80 00:22 01.04.2020
5491 Clouds 8 1009 93 10000 1 0 23:57 31.03.2020
5492 Clouds 8 1009 93 10000 1.5 120 23:38 31.03.2020
5493 Clouds 8 1009 93 10000 1.5 120 23:19 31.03.2020
5494 Clouds 9 1008 93 10000 3.6 180 22:41 31.03.2020
5495 Rain 9 1008 93 7000 4.1 130 22:21 31.03.2020
5496 Rain 9 1008 93 7000 4.1 130 21:58 31.03.2020
5497 Rain 9 1007 100 7000 2.6 70 21:40 31.03.2020
5498 Rain 9 1007 93 10000 2.6 70 21:21 31.03.2020
5499 Rain 9 1007 93 10000 2.6 70 20:57 31.03.2020
5500 Rain 9 1007 93 10000 2.6 70 20:57 31.03.2020
5501 Rain 9 1007 93 10000 2.6 70 20:57 31.03.2020
5502 Rain 9 1007 93 10000 2.6 70 20:37 31.03.2020
5503 Rain 10 1007 93 9000 1.5 360 20:19 31.03.2020
5504 Rain 9 1007 93 9000 1.5 360 19:56 31.03.2020
5505 Rain 9 1007 100 9000 1.5 340 19:37 31.03.2020
5506 Rain 10 1006 93 10000 2.6 350 19:19 31.03.2020
5507 Rain 9 1006 100 8000 2.1 350 18:43 31.03.2020
5508 Rain 10 1006 100 4300 2.1 20 18:20 31.03.2020
5509 Rain 9 1006 100 4300 2.1 20 17:57 31.03.2020
5510 Rain 9 1006 100 6000 2.6 360 17:39 31.03.2020
5511 Rain 9 1006 93 9000 2.6 10 17:21 31.03.2020
5512 Rain 9 1006 93 9000 2.6 10 16:56 31.03.2020
5513 Rain 9 1006 93 10000 3.1 10 16:36 31.03.2020
5514 Rain 8 1006 93 10000 3.1 10 16:18 31.03.2020
5515 Rain 8 1006 100 10000 3.1 360 15:54 31.03.2020
5516 Rain 7 1006 93 9000 3.6 10 15:36 31.03.2020
5517 Rain 6 1006 100 9000 3.1 10 15:18 31.03.2020
5518 Rain 6 1006 100 8000 2.1 20 14:41 31.03.2020
5519 Rain 5 1006 100 8000 2.1 20 14:22 31.03.2020
5520 Rain 5 1006 100 8000 3.1 30 13:58 31.03.2020
5521 Rain 5 1006 100 8000 3.1 40 13:40 31.03.2020
5522 Rain 4 1006 100 8000 2.6 30 13:19 31.03.2020
5523 Rain 4 1006 100 6000 2.6 30 12:45 31.03.2020
5524 -273 0 0 0 0 0 12:20 31.03.2020
5525 Rain 3 1007 100 7000 2.1 20 11:56 31.03.2020
5526 Rain 3 1007 93 7000 2.6 30 11:37 31.03.2020
5527 Rain 3 1007 100 8000 2.6 30 11:19 31.03.2020
5528 Rain 3 1007 100 8000 2.6 30 10:55 31.03.2020
5529 Rain 3 1007 100 8000 2.6 30 10:55 31.03.2020
5530 Rain 2 1006 93 8000 3.1 20 10:37 31.03.2020
5531 Rain 2 1006 100 8000 2.6 20 10:18 31.03.2020
5532 Rain 2 1007 100 8000 2.1 20 09:44 31.03.2020
5533 Rain 2 1007 100 8000 2.1 20 09:25 31.03.2020
5534 Drizzle 1 1006 93 8000 2.6 20 08:59 31.03.2020
5535 Rain 1 1006 93 6000 2.6 30 08:40 31.03.2020
5536 Rain 1 1006 93 6000 2.6 30 08:20 31.03.2020
5537 Rain 1 1006 93 7000 3.6 30 07:57 31.03.2020
5538 Rain 1 1006 93 7000 2.6 30 07:38 31.03.2020
5539 Rain 1 1006 93 5000 3.6 30 07:20 31.03.2020
5540 Rain 1 1006 93 5000 3.6 30 06:53 31.03.2020
5541 Rain 1 1007 93 6000 4.1 30 06:35 31.03.2020
5542 Rain 1 1007 93 3500 4.6 30 05:41 31.03.2020
5543 Rain 1 1007 93 3500 4.6 30 05:20 31.03.2020
5544 Rain 1 1009 93 4800 4.1 30 02:40 31.03.2020
5545 Rain 1 1010 93 6000 3.6 10 01:47 31.03.2020
5546 Rain 1 1011 93 5000 3.6 10 01:19 31.03.2020
5547 Rain 1 1011 93 9000 4.1 20 00:42 31.03.2020
5548 Rain 1 1011 93 9000 4.1 20 00:19 31.03.2020
5549 Rain 2 1011 86 10000 5.1 0 23:39 30.03.2020
5550 Rain 2 1011 86 10000 5.1 0 23:20 30.03.2020
5551 Rain 2 1011 86 10000 4.6 50 22:57 30.03.2020
5552 Clouds 2 1011 80 10000 4.1 50 22:38 30.03.2020
5553 Clouds 3 1011 80 10000 3.6 0 22:18 30.03.2020
5554 Clouds 3 1011 80 10000 3.6 0 21:57 30.03.2020
5555 Clouds 3 1011 80 10000 4.1 40 21:37 30.03.2020
5556 Clouds 2 1011 80 10000 4.6 50 21:19 30.03.2020
5557 Clouds 3 1011 80 10000 4.6 50 20:56 30.03.2020
5558 Clouds 3 1011 80 10000 3.6 40 20:37 30.03.2020
5559 Clouds 3 1011 80 10000 3.1 40 20:19 30.03.2020
5560 Clouds 4 1012 75 10000 3.1 40 19:41 30.03.2020
5561 Clouds 4 1012 75 10000 3.1 40 19:41 30.03.2020
5562 Clouds 4 1012 75 10000 4.1 0 19:22 30.03.2020
5563 Clouds 4 1012 75 10000 4.1 0 18:57 30.03.2020
5564 Clouds 4 1012 75 10000 4.1 40 18:39 30.03.2020
5565 Clouds 4 1012 75 10000 4.1 40 18:21 30.03.2020
5566 Rain 4 1012 80 10000 4.1 50 17:57 30.03.2020
5567 Clouds 4 1012 86 10000 4.1 50 17:38 30.03.2020
5568 Clouds 4 1013 86 10000 3.1 50 17:19 30.03.2020
5569 Clouds 4 1013 86 10000 3.1 50 16:56 30.03.2020
5570 Clouds 4 1013 86 10000 3.1 50 16:56 30.03.2020
5571 Clouds 4 1013 86 10000 3.1 60 16:38 30.03.2020
5572 Clouds 4 1013 86 10000 3.6 40 16:19 30.03.2020
5573 Clouds 4 1013 86 10000 3.6 40 15:55 30.03.2020
5574 Rain 4 1013 86 10000 3.6 40 15:36 30.03.2020
5575 Rain 4 1014 75 10000 4.1 40 15:18 30.03.2020
5576 Rain 4 1014 75 10000 4.1 40 14:54 30.03.2020
5577 Rain 5 1013 47 10000 4.1 0 14:36 30.03.2020
5578 Clouds 6 1013 47 10000 3.6 50 14:18 30.03.2020
5579 Clouds 6 1013 52 10000 4.1 0 13:43 30.03.2020
5580 Clouds 6 1013 52 10000 4.1 0 13:21 30.03.2020
5581 Clouds 7 1014 47 10000 4.1 40 12:57 30.03.2020
5582 Clouds 7 1014 52 10000 3.6 60 12:38 30.03.2020
5583 Clouds 7 1014 52 10000 3.6 60 12:38 30.03.2020
5584 Clouds 7 1014 52 10000 3.6 60 12:19 30.03.2020
5585 Clouds 6 1014 62 10000 4.1 40 11:56 30.03.2020
5586 Clouds 6 1014 62 10000 4.1 40 11:38 30.03.2020
5587 Clouds 6 1014 62 10000 4.1 40 11:20 30.03.2020
5588 Clouds 6 1014 65 10000 4.1 30 10:40 30.03.2020
5589 Clouds 6 1014 65 10000 4.1 30 10:21 30.03.2020
5590 Clouds 6 1014 65 10000 3.6 20 09:56 30.03.2020
5591 Clouds 6 1014 65 10000 4.1 20 09:56 30.03.2020
5592 Clouds 6 1014 65 10000 3.6 20 09:38 30.03.2020
5593 Clouds 6 1014 65 10000 2.6 30 09:18 30.03.2020
5594 Clouds 6 1013 65 10000 2.6 40 08:41 30.03.2020
5595 Clouds 6 1013 65 10000 2.6 40 08:22 30.03.2020
5596 Clouds 7 1013 65 10000 2.6 40 07:49 30.03.2020
5597 Clouds 7 1013 65 10000 3.6 40 07:28 30.03.2020
5598 Rain 7 1013 61 10000 2.6 40 06:56 30.03.2020
5599 Rain 8 1013 61 10000 2.6 40 06:32 30.03.2020
5600 Clouds 8 1013 57 10000 2.6 40 05:53 30.03.2020
5601 Clouds 8 1013 57 10000 2.6 50 05:22 30.03.2020
5602 Clouds 9 1014 61 10000 2.6 0 04:23 30.03.2020
5603 Clouds 9 1014 57 10000 3.1 50 03:44 30.03.2020
5604 Clouds 10 1014 50 10000 2.6 40 02:39 30.03.2020
5605 Clouds 11 1014 47 10000 3.1 50 01:44 30.03.2020
5606 Clouds 12 1014 50 10000 1 0 00:50 30.03.2020
5607 Clouds 13 1014 50 10000 1 0 00:23 30.03.2020
5608 Clouds 13 1014 50 10000 3.1 230 23:42 29.03.2020
5609 Clouds 14 1014 50 10000 3.1 230 23:24 29.03.2020
5610 Clouds 14 1014 50 10000 4.1 240 22:58 29.03.2020
5611 Clouds 14 1014 47 10000 4.1 250 22:38 29.03.2020
5612 Clouds 15 1014 47 10000 4.1 250 22:19 29.03.2020
5613 Clouds 15 1014 41 10000 3.6 240 21:56 29.03.2020
5614 Clouds 15 1014 44 10000 3.6 230 21:36 29.03.2020
5615 Clouds 16 1014 41 10000 3.6 220 21:18 29.03.2020
5616 Clouds 16 1014 41 10000 3.6 220 20:54 29.03.2020
5617 Clouds 17 1014 36 10000 4.1 230 20:36 29.03.2020
5618 Clouds 17 1014 39 10000 3.6 240 20:18 29.03.2020
5619 Clouds 17 1014 34 10000 2.6 230 19:42 29.03.2020
5620 Clouds 18 1014 34 10000 2.6 230 19:24 29.03.2020
5621 Clouds 18 1014 34 10000 2.6 230 18:58 29.03.2020
5622 Clouds 18 1015 34 10000 3.1 0 18:40 29.03.2020
5623 Clouds 19 1015 34 10000 3.6 210 18:20 29.03.2020
5624 Clouds 19 1015 34 10000 3.6 210 18:20 29.03.2020
5625 Clouds 19 1015 34 10000 3.6 210 17:58 29.03.2020
5626 Clouds 19 1015 32 10000 4.1 210 17:40 29.03.2020
5627 Rain 19 1016 32 10000 2.1 0 17:20 29.03.2020
5628 Rain 18 1016 32 10000 2.1 0 16:58 29.03.2020
5629 Rain 18 1016 34 10000 2.1 210 16:39 29.03.2020
5630 Clouds 18 1016 34 10000 3.1 230 16:20 29.03.2020
5631 Clouds 18 1016 34 10000 3.1 230 15:56 29.03.2020
5632 Clouds 18 1017 36 10000 2.1 0 15:37 29.03.2020
5633 Clear 17 1017 36 10000 2.1 0 15:19 29.03.2020
5634 Clear 17 1017 34 10000 2.1 210 14:55 29.03.2020
5635 Clear 17 1017 39 10000 2.1 0 14:36 29.03.2020
5636 Clear 16 1018 38 10000 2.6 240 14:18 29.03.2020
5637 Clear 15 1018 41 10000 2.6 170 13:41 29.03.2020
5638 Clear 15 1018 41 10000 1.5 0 13:22 29.03.2020
5639 Clear 14 1018 41 10000 1.5 0 12:58 29.03.2020
5640 Clear 14 1019 41 10000 1 170 12:39 29.03.2020
5641 Clear 13 1019 44 10000 0.5 0 12:19 29.03.2020
5642 Clear 12 1019 44 10000 0.5 0 11:58 29.03.2020
5643 Clear 11 1019 50 10000 0.5 0 11:37 29.03.2020
5644 Clear 11 1019 57 10000 0.5 0 11:19 29.03.2020
5645 Clear 10 1019 61 10000 0.5 0 10:39 29.03.2020
5646 Clear 9 1019 61 10000 0.5 0 10:20 29.03.2020
5647 Clear 8 1019 61 10000 0.5 0 09:56 29.03.2020
5648 Clear 7 1019 65 10000 0.5 0 09:38 29.03.2020
5649 Clouds 6 1019 80 10000 0.5 0 09:18 29.03.2020
5650 Clear 5 1018 75 10000 0.5 24 08:43 29.03.2020
5651 Clear 4 1018 80 10000 1 10 08:25 29.03.2020
5652 Clear 5 1018 75 10000 0.5 350 07:47 29.03.2020
5653 Clear 4 1018 80 10000 0.5 24 07:23 29.03.2020
5654 Clear 5 1018 75 10000 0.5 24 06:34 29.03.2020
5655 Clear 6 1019 65 10000 0.5 330 04:56 29.03.2020
5656 Clear 7 1019 44 10000 0.5 270 03:41 29.03.2020
5657 Clouds 8 1019 40 10000 0.5 270 03:20 29.03.2020
5658 Clouds 8 1019 40 10000 0.5 0 01:40 29.03.2020
5659 Clouds 8 1019 40 10000 0.5 0 01:21 29.03.2020
5660 Clouds 8 1019 40 10000 1 260 00:40 29.03.2020
5661 Clouds 9 1019 57 10000 1.5 260 00:19 29.03.2020
5662 Clouds 9 1019 61 10000 2.1 270 23:41 28.03.2020
5663 Clear 10 1019 65 10000 2.6 270 23:22 28.03.2020
5664 Clear 10 1019 65 10000 2.6 250 22:44 28.03.2020
5665 Clear 10 1019 65 10000 2.6 250 22:22 28.03.2020
5666 Clear 10 1019 61 10000 2.1 250 21:57 28.03.2020
5667 Clear 10 1019 61 10000 2.1 250 21:57 28.03.2020
5668 Clear 10 1019 61 10000 2.1 250 21:57 28.03.2020
5669 Clear 11 1018 65 10000 2.6 250 21:39 28.03.2020
5670 Clear 11 1018 57 10000 2.6 250 21:20 28.03.2020
5671 Clear 12 1018 57 10000 2.6 250 20:57 28.03.2020
5672 Clear 12 1018 46 10000 2.6 210 20:38 28.03.2020
5673 Clear 13 1018 46 10000 2.6 210 20:19 28.03.2020
5674 Clear 13 1017 43 10000 2.6 200 19:55 28.03.2020
5675 Clear 14 1017 32 10000 3.1 190 19:36 28.03.2020
5676 Clear 15 1017 36 10000 1 0 19:18 28.03.2020
5677 Clear 15 1017 33 10000 2.1 140 18:42 28.03.2020
5678 Clear 15 1017 31 10000 2.6 160 18:20 28.03.2020
5679 Clear 15 1017 33 10000 2.6 100 17:43 28.03.2020
5680 Clear 16 1017 26 10000 1 140 17:24 28.03.2020
5681 Clear 15 1017 26 10000 1 140 16:59 28.03.2020
5682 Clear 16 1017 26 10000 1 140 16:59 28.03.2020
5683 Clear 15 1017 26 10000 1.5 0 16:40 28.03.2020
5684 Clear 15 1017 26 10000 1.5 0 16:20 28.03.2020
5685 Clear 15 1017 26 10000 2.6 170 15:55 28.03.2020
5686 Clear 15 1017 38 10000 2.1 100 15:37 28.03.2020
5687 Clear 15 1018 26 10000 2.1 0 15:18 28.03.2020
5688 Clear 14 1018 35 10000 2.1 0 14:41 28.03.2020
5689 Clear 14 1018 35 10000 2.1 0 14:21 28.03.2020
5690 Clear 13 1018 28 10000 2.6 110 13:44 28.03.2020
5691 Clear 13 1018 28 10000 1.5 0 13:25 28.03.2020
5692 Clear 13 1018 28 10000 1.5 0 12:57 28.03.2020
5693 Clear 13 1018 37 10000 2.1 0 12:37 28.03.2020
5694 Clear 12 1019 40 10000 2.6 90 12:18 28.03.2020
5695 Clear 11 1018 50 10000 1.5 80 11:42 28.03.2020
5696 Clear 10 1018 57 10000 2.1 70 11:21 28.03.2020
5697 Clear 9 1018 53 10000 2.1 60 10:41 28.03.2020
5698 Clear 9 1018 53 10000 2.1 60 10:22 28.03.2020
5699 Clear 7 1018 61 10000 1.5 40 09:59 28.03.2020
5700 Clear 7 1018 65 10000 1.5 60 09:39 28.03.2020
5701 Clear 6 1018 75 10000 1.5 360 09:20 28.03.2020
5702 Clear 4 1017 80 10000 2.6 360 08:42 28.03.2020
5703 Clouds 4 1017 86 10000 2.1 10 08:23 28.03.2020
5704 Clouds 3 1017 86 10000 1.5 340 07:49 28.03.2020
5705 Clouds 3 1017 86 10000 1.5 340 07:31 28.03.2020
5706 Clouds 3 1016 86 10000 1 10 06:45 28.03.2020
5707 Clouds 3 1016 93 10000 1.91 57 06:20 28.03.2020
5708 Clouds 3 1016 86 10000 1.91 57 05:24 28.03.2020
5709 Clouds 3 1016 93 10000 1.49 59 04:48 28.03.2020
5710 Clouds 3 1016 93 10000 1.49 59 04:28 28.03.2020
5711 Clouds 4 1016 80 9000 2.1 300 02:46 28.03.2020
5712 Clouds 4 1016 86 10000 1 0 01:46 28.03.2020
5713 Clouds 4 1015 86 10000 0.5 0 01:20 28.03.2020
5714 Clouds 5 1015 80 10000 1 140 00:47 28.03.2020
5715 Clouds 5 1015 80 10000 1 140 00:20 28.03.2020
5716 Clouds 5 1015 80 10000 1.57 93 23:43 27.03.2020
5717 Clouds 5 1015 81 10000 1 0 23:24 27.03.2020
5718 Clouds 5 1015 75 10000 1 170 22:56 27.03.2020
5719 Clouds 6 1015 75 10000 1 170 22:38 27.03.2020
5720 Clouds 6 1014 75 10000 1.5 140 22:20 27.03.2020
5721 Clouds 6 1014 75 10000 1.5 140 21:56 27.03.2020
5722 Clouds 6 1014 75 10000 1 0 21:38 27.03.2020
5723 Clouds 6 1014 75 10000 3.1 150 21:20 27.03.2020
5724 Clouds 7 1013 70 10000 2.6 120 20:43 27.03.2020
5725 Rain 8 1013 70 10000 2.6 120 20:22 27.03.2020
5726 Rain 8 1013 61 10000 2.1 150 19:59 27.03.2020
5727 Rain 9 1012 57 10000 2.1 150 19:41 27.03.2020
5728 Rain 10 1012 50 10000 1.5 130 19:22 27.03.2020
5729 Rain 10 1012 50 10000 1.5 130 18:56 27.03.2020
5730 Rain 10 1012 53 10000 2.6 120 18:38 27.03.2020
5731 Rain 11 1012 50 10000 2.1 90 18:19 27.03.2020
5732 Clouds 11 1012 50 10000 1.5 100 17:40 27.03.2020
5733 Clouds 11 1012 53 10000 1.5 90 17:20 27.03.2020
5734 Clouds 11 1012 53 10000 1.5 90 16:54 27.03.2020
5735 Clouds 10 1012 61 10000 2.6 90 16:36 27.03.2020
5736 Clouds 10 1012 66 10000 2.6 110 16:18 27.03.2020
5737 Clouds 9 1012 66 10000 2.6 130 15:41 27.03.2020
5738 Clouds 9 1012 61 10000 3.6 90 15:23 27.03.2020
5739 Clouds 8 1013 57 10000 3.6 80 14:46 27.03.2020
5740 Clouds 9 1013 57 10000 3.6 80 14:25 27.03.2020
5741 Clouds 8 1013 75 10000 4.6 110 13:57 27.03.2020
5742 Clouds 8 1013 70 10000 3.1 80 13:38 27.03.2020
5743 Clouds 8 1013 70 10000 3.1 80 13:19 27.03.2020
5744 Clouds 7 1013 75 10000 3.6 60 12:55 27.03.2020
5745 Clouds 8 1013 75 10000 3.6 60 12:37 27.03.2020
5746 Clouds 6 1013 80 10000 3.1 60 12:18 27.03.2020
5747 Clouds 6 1013 80 10000 2.6 70 11:41 27.03.2020
5748 Clouds 5 1012 86 10000 3.6 70 11:23 27.03.2020
5749 Clouds 4 1012 86 10000 3.1 50 10:55 27.03.2020
5750 Clouds 4 1012 86 10000 3.1 50 10:37 27.03.2020
5751 Clouds 4 1012 86 10000 3.1 50 10:37 27.03.2020
5752 Clouds 3 1012 86 10000 3.1 50 10:18 27.03.2020
5753 Clouds 3 1012 86 10000 3.1 50 09:56 27.03.2020
5754 Drizzle 3 1011 80 10000 4.1 50 09:37 27.03.2020
5755 Drizzle 3 1011 80 10000 3.1 60 09:18 27.03.2020
5756 Drizzle 3 1011 80 10000 3.1 60 08:55 27.03.2020
5757 Clouds 3 1011 80 10000 4.1 40 08:37 27.03.2020
5758 Clouds 3 1010 80 10000 3.6 40 08:18 27.03.2020
5759 Clouds 3 1010 56 10000 4.1 30 07:49 27.03.2020
5760 Clouds 3 1010 65 10000 3.6 30 07:23 27.03.2020
5761 Clouds 4 1010 60 10000 4.6 40 06:46 27.03.2020
5762 Clouds 4 1010 60 10000 3.6 30 06:27 27.03.2020
5763 Clouds 6 1010 52 10000 2.1 30 04:21 27.03.2020
5764 Clouds 7 1010 48 10000 2.6 50 02:25 27.03.2020
5765 Clouds 7 1010 48 10000 3.6 60 01:23 27.03.2020
5766 Clouds 7 1010 52 10000 3.1 60 00:48 27.03.2020
5767 Clouds 8 1009 45 10000 3.1 50 00:23 27.03.2020
5768 Clouds 8 1009 49 10000 1.5 20 23:42 26.03.2020
5769 Clouds 8 1009 49 10000 2.1 10 23:21 26.03.2020
5770 Clouds 8 1009 49 10000 2.1 10 22:58 26.03.2020
5771 Clouds 9 1009 46 10000 2.1 350 22:37 26.03.2020
5772 Clouds 9 1009 46 10000 2.1 330 22:19 26.03.2020
5773 Clouds 9 1009 46 10000 2.1 330 21:55 26.03.2020
5774 Clouds 9 1009 46 10000 2.1 330 21:55 26.03.2020
5775 Clouds 10 1009 43 10000 2.6 350 21:36 26.03.2020
5776 Clouds 10 1009 40 10000 3.1 360 21:18 26.03.2020
5777 Clouds 10 1009 43 10000 4.1 360 20:41 26.03.2020
5778 Clouds 10 1009 43 10000 4.1 360 20:41 26.03.2020
5779 Clouds 11 1009 37 10000 2.6 10 20:23 26.03.2020
5780 Clear 11 1009 37 10000 2.6 10 20:23 26.03.2020
5781 Clear 11 1009 37 10000 2.6 10 20:23 26.03.2020
5782 Clear 12 1009 35 10000 3.1 360 19:58 26.03.2020
5783 Clear 12 1008 33 10000 3.1 360 19:40 26.03.2020
5784 Clear 12 1008 33 10000 3.1 360 19:40 26.03.2020
5785 Clear 13 1008 33 10000 3.6 360 19:22 26.03.2020
5786 Clear 13 1008 33 10000 3.6 360 18:59 26.03.2020
5787 Clear 14 1008 30 10000 4.1 360 18:41 26.03.2020
5788 Clear 14 1008 31 10000 3.1 20 18:23 26.03.2020
5789 Clear 14 1007 31 10000 3.6 340 17:45 26.03.2020
5790 Clear 15 1008 26 10000 4.6 300 17:20 26.03.2020
5791 Clear 15 1008 26 10000 4.6 300 17:20 26.03.2020
5792 Clear 15 1008 27 10000 3.1 0 16:59 26.03.2020
5793 Clear 16 1008 27 10000 3.1 0 16:38 26.03.2020
5794 Clear 15 1007 29 10000 1.5 0 16:20 26.03.2020
5795 Clear 16 1007 29 10000 1.5 0 15:56 26.03.2020
5796 Clear 16 1008 23 10000 1 320 15:38 26.03.2020
5797 Clear 16 1008 29 10000 2.1 0 15:19 26.03.2020
5798 Clear 15 1008 25 10000 1 100 14:43 26.03.2020
5799 Clear 15 1008 25 10000 1 100 14:25 26.03.2020
5800 Clear 15 1008 25 10000 1 100 14:25 26.03.2020
5801 Clear 14 1008 28 10000 2.6 0 13:59 26.03.2020
5802 Clear 14 1009 30 10000 2.1 300 13:40 26.03.2020
5803 Clear 14 1009 30 10000 2.1 300 13:21 26.03.2020
5804 Clear 13 1009 30 10000 2.6 120 12:39 26.03.2020
5805 Clear 13 1009 32 10000 2.1 120 12:21 26.03.2020
5806 Clear 12 1009 32 10000 2.1 120 11:56 26.03.2020
5807 Clear 12 1009 32 10000 2.1 120 11:56 26.03.2020
5808 Clear 11 1010 34 10000 2.6 130 11:37 26.03.2020
5809 Clear 10 1010 37 10000 2.1 130 11:19 26.03.2020
5810 Clear 9 1010 42 10000 2.6 130 10:42 26.03.2020
5811 Clear 9 1010 42 10000 2.6 130 10:20 26.03.2020
5812 Clear 8 1010 45 10000 2.1 110 09:46 26.03.2020
5813 Clear 7 1010 48 10000 2.6 120 09:24 26.03.2020
5814 Clear 7 1010 48 10000 2.6 120 08:58 26.03.2020
5815 Clear 6 1010 34 10000 1.5 110 08:40 26.03.2020
5816 Clear 6 1010 69 10000 0.5 0 08:22 26.03.2020
5817 Clear 6 1010 69 10000 0.5 0 07:56 26.03.2020
5818 Clear 4 1010 74 10000 1.5 220 07:38 26.03.2020
5819 Clear 5 1010 69 10000 1 230 07:19 26.03.2020
5820 Clear 7 1010 56 10000 0.5 0 06:33 26.03.2020
5821 Clear 7 1010 43 10000 0.5 0 05:47 26.03.2020
5822 Clear 9 1011 61 10000 1 0 03:46 26.03.2020
5823 Clear 9 1011 53 10000 1 0 02:58 26.03.2020
5824 Clear 10 1011 70 10000 1.38 348 01:51 26.03.2020
5825 Clear 10 1012 66 10000 1 0 01:18 26.03.2020
5826 Clear 10 1011 50 10000 3.1 310 00:30 26.03.2020
5827 Clear 11 1012 81 10000 3.1 270 23:42 25.03.2020
5828 Clear 11 1012 87 10000 3.1 260 23:24 25.03.2020
5829 Clear 11 1012 81 10000 2.6 260 22:42 25.03.2020
5830 Clear 12 1012 81 10000 2.1 250 22:22 25.03.2020
5831 Clear 12 1012 81 10000 2.1 250 21:59 25.03.2020
5832 Clear 13 1012 81 10000 3.1 250 21:41 25.03.2020
5833 Clear 13 1012 71 10000 3.1 250 21:23 25.03.2020
5834 Clear 14 1012 71 10000 3.1 250 20:57 25.03.2020
5835 Clear 14 1012 66 10000 5.1 250 20:38 25.03.2020
5836 Clouds 15 1012 58 10000 5.1 240 20:19 25.03.2020
5837 Clouds 15 1012 58 10000 4.6 240 19:55 25.03.2020
5838 Clouds 16 1012 58 10000 4.6 240 19:36 25.03.2020
5839 Clouds 16 1012 51 10000 6.2 240 19:18 25.03.2020
5840 Clouds 17 1011 45 10000 3.6 260 18:42 25.03.2020
5841 Clouds 17 1012 55 10000 4.6 260 18:24 25.03.2020
5842 Clouds 17 1012 48 10000 4.6 220 17:58 25.03.2020
5843 Clouds 17 1012 48 10000 4.6 220 17:40 25.03.2020
5844 Clouds 17 1012 54 10000 4.6 220 17:21 25.03.2020
5845 Clouds 16 1012 54 10000 4.6 220 16:55 25.03.2020
5846 Clear 17 1013 55 10000 4.6 220 16:37 25.03.2020
5847 Clear 16 1013 51 10000 2.6 230 16:19 25.03.2020
5848 Clouds 16 1014 55 10000 2.6 190 15:42 25.03.2020
5849 Clouds 16 1014 55 10000 2.6 190 15:20 25.03.2020
5850 Clouds 15 1014 51 10000 1.5 170 14:56 25.03.2020
5851 Clouds 15 1014 51 10000 2.6 0 14:37 25.03.2020
5852 Clouds 14 1015 54 10000 2.6 180 14:19 25.03.2020
5853 Clouds 14 1015 54 10000 2.1 170 13:44 25.03.2020
5854 Clouds 14 1015 54 10000 2.1 170 13:24 25.03.2020
5855 Clouds 13 1016 62 10000 2.6 160 12:39 25.03.2020
5856 Clouds 13 1016 62 10000 2.6 160 12:39 25.03.2020
5857 Clouds 12 1016 62 10000 3.1 160 12:21 25.03.2020
5858 Clouds 12 1016 62 10000 3.1 160 11:57 25.03.2020
5859 Clouds 11 1016 66 10000 3.6 160 11:39 25.03.2020
5860 Clouds 10 1016 66 10000 2.6 150 11:20 25.03.2020
5861 Clouds 10 1016 66 10000 2.6 150 11:20 25.03.2020
5862 Clouds 10 1016 66 10000 2.6 150 10:58 25.03.2020
5863 Clouds 10 1016 61 10000 1.5 160 10:39 25.03.2020
5864 Clouds 9 1016 71 10000 2.1 190 10:18 25.03.2020
5865 Clouds 9 1016 70 10000 3.1 190 09:43 25.03.2020
5866 Clouds 8 1016 70 10000 2.6 190 09:25 25.03.2020
5867 Clouds 8 1016 70 10000 2.6 190 08:58 25.03.2020
5868 Clouds 8 1016 81 10000 1.5 190 08:40 25.03.2020
5869 Clouds 7 1016 81 10000 1.5 190 08:20 25.03.2020
5870 Clouds 7 1016 87 10000 1 200 07:55 25.03.2020
5871 Clouds 7 1016 87 10000 1.82 232 07:36 25.03.2020
5872 Clouds 7 1016 81 10000 2.1 190 07:18 25.03.2020
5873 Clouds 8 1016 87 10000 2.6 210 06:41 25.03.2020
5874 Clouds 8 1016 87 10000 2.6 210 06:22 25.03.2020
5875 Clouds 8 1016 81 10000 0.5 0 05:47 25.03.2020
5876 Clouds 9 1017 76 10000 3.6 170 04:42 25.03.2020
5877 Clouds 9 1017 76 10000 2.1 180 03:57 25.03.2020
5878 Clouds 9 1017 76 10000 1.5 210 03:30 25.03.2020
5879 Clouds 10 1017 71 10000 3.1 150 01:40 25.03.2020
5880 Clouds 10 1017 76 10000 3.1 160 00:50 25.03.2020
5881 Clouds 10 1017 71 10000 2.6 160 00:27 25.03.2020
5882 Clouds 10 1017 71 10000 2.1 170 23:55 24.03.2020
5883 Clouds 11 1017 76 10000 2.1 170 23:28 24.03.2020
5884 Clouds 11 1017 81 10000 2.6 130 22:58 24.03.2020
5885 Clouds 11 1016 76 10000 2.6 140 22:38 24.03.2020
5886 Clouds 11 1016 71 10000 1 0 22:20 24.03.2020
5887 Clouds 11 1016 76 10000 2.6 140 22:20 24.03.2020
5888 Clouds 12 1016 71 10000 1 0 21:58 24.03.2020
5889 Clouds 12 1016 71 10000 1.5 130 21:40 24.03.2020
5890 Clouds 12 1016 71 10000 1.5 130 21:40 24.03.2020
5891 Clouds 12 1016 66 10000 2.1 0 21:19 24.03.2020
5892 Clouds 12 1016 66 10000 2.1 0 20:58 24.03.2020
5893 Clouds 12 1015 71 10000 2.1 140 20:39 24.03.2020
5894 Clouds 12 1015 71 10000 2.1 140 20:39 24.03.2020
5895 Clouds 12 1015 71 10000 2.1 140 20:21 24.03.2020
5896 Clouds 13 1015 66 10000 2.1 180 19:47 24.03.2020
5897 Clouds 13 1015 66 10000 2.1 180 19:22 24.03.2020
5898 Clouds 13 1015 66 10000 2.6 170 18:58 24.03.2020
5899 Clouds 14 1014 62 10000 2.1 180 18:38 24.03.2020
5900 Clouds 14 1014 62 10000 2.6 160 18:20 24.03.2020
5901 Clouds 14 1014 62 10000 2.6 160 17:56 24.03.2020
5902 Clouds 15 1014 62 10000 1.5 130 17:56 24.03.2020
5903 Clouds 15 1014 62 10000 1.5 130 17:38 24.03.2020
5904 Clouds 15 1014 54 10000 2.1 100 17:20 24.03.2020
5905 Clouds 15 1014 54 10000 2.1 100 16:56 24.03.2020
5906 Clouds 15 1014 54 10000 3.6 100 16:37 24.03.2020
5907 Clouds 15 1014 54 10000 3.6 100 16:19 24.03.2020
5908 Clouds 15 1015 54 10000 3.1 50 15:42 24.03.2020
5909 Clouds 15 1015 54 10000 3.1 50 15:24 24.03.2020
5910 Clouds 15 1015 51 10000 3.1 60 14:44 24.03.2020
5911 Clouds 15 1015 51 10000 3.1 60 14:44 24.03.2020
5912 Clouds 15 1015 51 10000 3.1 60 14:23 24.03.2020
5913 Clouds 15 1016 58 10000 3.1 60 13:59 24.03.2020
5914 Clouds 15 1016 54 10000 3.6 50 13:41 24.03.2020
5915 Clouds 15 1016 54 10000 3.6 50 13:41 24.03.2020
5916 Clouds 15 1016 51 10000 5.7 60 13:22 24.03.2020
5917 Clouds 14 1016 58 10000 4.1 50 12:43 24.03.2020
5918 Clouds 14 1016 62 10000 5.1 40 12:25 24.03.2020
5919 Clouds 13 1016 66 10000 3.1 0 11:56 24.03.2020
5920 Clouds 13 1016 66 10000 3.1 0 11:37 24.03.2020
5921 Clouds 12 1016 71 10000 4.6 40 11:18 24.03.2020
5922 Clouds 11 1016 71 10000 4.1 0 10:41 24.03.2020
5923 Clouds 11 1016 71 10000 3.6 30 10:19 24.03.2020
5924 Clouds 11 1016 71 10000 3.6 30 10:19 24.03.2020
5925 Rain 10 1016 76 10000 3.6 30 09:47 24.03.2020
5926 Rain 10 1016 76 10000 3.6 30 09:27 24.03.2020
5927 Clouds 9 1016 76 10000 3.1 10 08:58 24.03.2020
5928 Clouds 9 1016 87 10000 3.1 20 08:38 24.03.2020
5929 Clouds 9 1016 87 10000 3.1 20 08:20 24.03.2020
5930 Rain 9 1016 81 10000 3.1 30 07:44 24.03.2020
5931 Rain 9 1016 81 10000 2.6 40 07:22 24.03.2020
5932 Rain 9 1015 76 10000 3.1 40 06:42 24.03.2020
5933 Clouds 9 1015 76 10000 3.1 30 06:21 24.03.2020
5934 Clouds 9 1015 76 10000 2.1 20 04:52 24.03.2020
5935 Clouds 9 1016 81 10000 1.5 10 03:43 24.03.2020
5936 Clouds 9 1016 81 10000 2.1 30 02:45 24.03.2020
5937 Clouds 9 1016 76 10000 1 0 01:22 24.03.2020
5938 Clouds 10 1016 76 10000 1.5 30 00:41 24.03.2020
5939 Clouds 10 1016 76 10000 1 0 00:22 24.03.2020
5940 Clouds 10 1016 81 10000 2.6 330 23:38 23.03.2020
5941 Rain 10 1016 66 10000 2.1 60 23:20 23.03.2020
5942 Clouds 10 1016 66 10000 2.1 70 22:45 23.03.2020
5943 Clouds 11 1016 71 10000 2.1 70 22:24 23.03.2020
5944 Clouds 11 1016 71 10000 2.1 70 21:57 23.03.2020
5945 Clouds 11 1016 71 10000 2.1 60 21:38 23.03.2020
5946 Rain 11 1015 66 10000 1.5 40 21:20 23.03.2020
5947 Rain 11 1015 66 10000 1.5 40 20:56 23.03.2020
5948 Rain 11 1015 66 10000 1.5 40 20:56 23.03.2020
5949 Rain 11 1015 66 10000 2.1 60 20:38 23.03.2020
5950 Rain 11 1015 66 10000 2.1 60 20:19 23.03.2020
5951 Rain 12 1015 66 10000 2.1 70 19:44 23.03.2020
5952 Rain 12 1015 66 10000 2.1 70 19:24 23.03.2020
5953 Rain 13 1014 66 10000 4.1 80 18:56 23.03.2020
5954 Rain 13 1014 66 10000 4.1 90 18:38 23.03.2020
5955 Clouds 12 1014 71 10000 3.6 90 18:20 23.03.2020
5956 Rain 12 1014 76 10000 2.6 130 17:42 23.03.2020
5957 Thunderstorm 13 1014 67 10000 4.6 90 17:21 23.03.2020
5958 Thunderstorm 13 1014 67 10000 4.6 90 16:57 23.03.2020
5959 Thunderstorm 14 1014 58 10000 3.6 120 16:39 23.03.2020
5960 Thunderstorm 14 1014 58 10000 3.6 120 16:20 23.03.2020
5961 Rain 13 1014 67 10000 1.5 0 15:41 23.03.2020
5962 Rain 13 1015 93 10000 2.6 0 15:19 23.03.2020
5963 Rain 12 1015 76 7000 3.6 50 14:38 23.03.2020
5964 Rain 12 1015 66 10000 3.6 50 14:20 23.03.2020
5965 Clouds 12 1015 66 10000 3.6 50 13:59 23.03.2020
5966 Clouds 12 1015 71 10000 3.1 30 13:40 23.03.2020
5967 Clouds 12 1015 71 10000 3.1 30 13:20 23.03.2020
5968 Clouds 11 1016 87 10000 2.6 60 12:45 23.03.2020
5969 Clouds 11 1016 87 10000 2.6 60 12:45 23.03.2020
5970 Rain 10 1016 81 10000 2.6 50 12:25 23.03.2020
5971 Rain 10 1016 81 10000 2.6 50 11:59 23.03.2020
5972 Rain 9 1016 87 10000 2.6 50 11:40 23.03.2020
5973 Rain 9 1016 100 9000 1.5 60 11:20 23.03.2020
5974 Rain 9 1016 100 9000 1.5 60 11:20 23.03.2020
5975 Rain 9 1016 100 9000 1.5 60 10:57 23.03.2020
5976 Rain 9 1016 93 9000 1.5 70 10:38 23.03.2020
5977 Drizzle 9 1015 93 8000 0.5 0 10:20 23.03.2020
5978 Rain 9 1015 93 10000 1 0 09:44 23.03.2020
5979 Clouds 8 1015 100 10000 1.5 350 09:21 23.03.2020
5980 Clouds 8 1015 100 10000 1.5 350 08:57 23.03.2020
5981 Rain 8 1015 100 10000 1.5 360 08:36 23.03.2020
5982 Rain 8 1015 100 10000 1.5 360 08:18 23.03.2020
5983 Rain 8 1014 100 7000 2.1 80 07:45 23.03.2020
5984 Rain 8 1014 100 7000 2.1 80 07:27 23.03.2020
5985 Rain 8 1014 100 10000 2.05 58 06:51 23.03.2020
5986 Rain 8 1014 93 10000 0.5 0 05:54 23.03.2020
5987 Rain 8 1014 100 10000 1 0 05:29 23.03.2020
5988 Rain 8 1014 100 8000 1 320 03:29 23.03.2020
5989 Rain 8 1014 100 8000 1 360 01:51 23.03.2020
5990 Rain 8 1014 100 8000 1 350 01:33 23.03.2020
5991 Rain 8 1014 100 8000 2.1 350 00:39 23.03.2020
5992 Rain 8 1014 100 8000 2.5 35 23:48 22.03.2020
5993 Rain 8 1014 100 8000 2.5 35 23:26 22.03.2020
5994 Rain 9 1013 87 8000 0.5 0 22:45 22.03.2020
5995 Rain 9 1013 93 8000 3.1 140 22:26 22.03.2020
5996 Rain 9 1013 93 8000 3.1 140 21:57 22.03.2020
5997 Rain 9 1013 93 10000 1.5 190 21:39 22.03.2020
5998 Clouds 9 1012 81 10000 3.59 185 21:20 22.03.2020
5999 Clouds 10 1012 81 10000 3.59 185 20:54 22.03.2020
6000 Clouds 10 1012 76 10000 0.5 0 20:36 22.03.2020
6001 Clouds 10 1012 76 10000 1 0 20:18 22.03.2020
6002 Clouds 10 1012 76 10000 1 0 19:54 22.03.2020
6003 Clouds 10 1011 81 10000 2.6 140 19:36 22.03.2020
6004 Clouds 10 1011 81 10000 2.6 140 19:18 22.03.2020
6005 Clouds 11 1011 62 10000 2.1 10 18:41 22.03.2020
6006 Rain 11 1011 81 10000 7.7 150 18:22 22.03.2020
6007 Rain 11 1011 81 10000 7.7 150 17:59 22.03.2020
6008 Clouds 12 1010 62 10000 3.1 360 17:39 22.03.2020
6009 Clouds 12 1010 66 10000 3.6 360 17:21 22.03.2020
6010 Clouds 12 1010 66 10000 3.6 360 16:59 22.03.2020
6011 Clouds 12 1010 62 10000 3.6 360 16:41 22.03.2020
6012 Clouds 11 1010 62 10000 3.6 360 16:22 22.03.2020
6013 Clouds 11 1010 58 10000 3.6 360 15:58 22.03.2020
6014 Clouds 11 1011 71 10000 3.6 360 15:39 22.03.2020
6015 Clouds 10 1011 66 10000 3.1 30 14:47 22.03.2020
6016 Clouds 10 1011 66 10000 3.1 30 14:20 22.03.2020
6017 Clouds 10 1011 62 10000 3.6 30 13:58 22.03.2020
6018 Clouds 10 1012 62 10000 3.1 30 13:40 22.03.2020
6019 Clouds 11 1012 62 10000 3.1 30 13:19 22.03.2020
6020 Clouds 10 1012 62 10000 3.1 40 12:44 22.03.2020
6021 Clouds 11 1012 66 10000 2.6 0 12:22 22.03.2020
6022 Clouds 11 1012 66 10000 2.6 0 12:22 22.03.2020
6023 Clouds 11 1012 66 10000 2.6 0 11:58 22.03.2020
6024 Clouds 10 1012 62 10000 2.6 50 11:39 22.03.2020
6025 Clouds 9 1012 66 10000 3.1 40 11:20 22.03.2020
6026 Clouds 9 1012 71 10000 2.6 60 10:43 22.03.2020
6027 Clouds 9 1012 71 10000 2.6 60 10:24 22.03.2020
6028 Clouds 8 1012 71 10000 2.6 10 09:55 22.03.2020
6029 Clouds 8 1011 76 10000 1.5 10 09:36 22.03.2020
6030 Clouds 7 1011 81 10000 1 0 09:18 22.03.2020
6031 Clouds 7 1011 81 10000 1 0 08:41 22.03.2020
6032 Clouds 7 1011 81 10000 1 0 08:21 22.03.2020
6033 Clouds 6 1011 81 10000 1.5 50 07:50 22.03.2020
6034 Clouds 6 1011 93 10000 1.5 350 07:19 22.03.2020
6035 Clouds 7 1011 100 10000 0.5 0 05:57 22.03.2020
6036 Clouds 7 1011 100 10000 1 360 05:21 22.03.2020
6037 Clouds 7 1012 100 10000 0.5 0 02:58 22.03.2020
6038 Rain 7 1012 93 10000 0.5 0 01:22 22.03.2020
6039 Rain 7 1012 93 10000 0.5 0 01:22 22.03.2020
6040 Drizzle 7 1012 93 10000 1 0 00:41 22.03.2020
6041 Drizzle 7 1012 93 10000 1 0 00:23 22.03.2020
6042 Drizzle 8 1012 87 10000 0.5 0 23:41 21.03.2020
6043 Drizzle 7 1012 100 10000 1 0 23:19 21.03.2020
6044 Rain 7 1012 93 10000 1.5 80 22:39 21.03.2020
6045 Rain 8 1012 93 10000 0.5 0 22:20 21.03.2020
6046 Rain 8 1012 93 10000 0.5 0 21:59 21.03.2020
6047 Drizzle 8 1012 87 10000 1 0 21:41 21.03.2020
6048 Drizzle 8 1012 87 10000 1 0 21:22 21.03.2020
6049 Clouds 8 1011 81 10000 1.5 100 20:56 21.03.2020
6050 Clouds 8 1011 81 10000 1.5 100 20:38 21.03.2020
6051 Clouds 8 1011 76 10000 2.1 100 20:18 21.03.2020
6052 Clouds 9 1011 81 10000 1 0 19:43 21.03.2020
6053 Clouds 8 1011 81 10000 1 0 19:23 21.03.2020
6054 Clouds 9 1011 76 10000 1.5 150 18:55 21.03.2020
6055 Clouds 9 1011 76 10000 1.5 150 18:37 21.03.2020
6056 Clouds 9 1011 76 10000 1.5 150 18:19 21.03.2020
6057 Clouds 9 1011 76 10000 1.5 160 17:55 21.03.2020
6058 Clouds 9 1011 81 10000 2.1 170 17:37 21.03.2020
6059 Clouds 9 1011 81 10000 2.1 190 17:18 21.03.2020
6060 Clouds 9 1011 81 10000 1 0 16:40 21.03.2020
6061 Rain 9 1011 87 8000 2.1 240 16:19 21.03.2020
6062 Rain 9 1011 87 8000 2.1 240 15:55 21.03.2020
6063 Rain 8 1011 87 10000 3.6 240 15:37 21.03.2020
6064 Rain 8 1012 87 10000 4.6 230 15:18 21.03.2020
6065 Rain 9 1012 87 10000 4.6 230 14:54 21.03.2020
6066 Clouds 9 1012 87 10000 4.1 230 14:36 21.03.2020
6067 Drizzle 9 1012 87 10000 5.1 230 14:18 21.03.2020
6068 Drizzle 8 1012 87 10000 5.1 230 13:56 21.03.2020
6069 Drizzle 9 1012 93 9000 3.6 190 13:38 21.03.2020
6070 Drizzle 9 1012 93 9000 3.6 190 13:19 21.03.2020
6071 Drizzle 9 1012 100 3000 2.1 90 12:39 21.03.2020
6072 Drizzle 9 1012 93 3000 1.5 80 12:19 21.03.2020
6073 Rain 9 1013 100 3000 1.5 90 11:58 21.03.2020
6074 Rain 9 1013 100 3000 1.5 90 11:38 21.03.2020
6075 Rain 9 1012 87 5000 2.6 80 11:19 21.03.2020
6076 Rain 9 1012 81 10000 3.1 90 10:57 21.03.2020
6077 Clouds 9 1012 81 10000 3.1 90 10:39 21.03.2020
6078 Clouds 9 1012 81 10000 3.1 90 10:20 21.03.2020
6079 Clouds 9 1012 81 10000 3.6 90 09:57 21.03.2020
6080 Clouds 9 1012 76 10000 3.6 80 09:37 21.03.2020
6081 Clouds 9 1012 71 10000 3.6 80 09:19 21.03.2020
6082 Clouds 9 1012 71 10000 3.6 80 09:19 21.03.2020
6083 Clouds 9 1012 76 10000 3.1 70 08:44 21.03.2020
6084 Clouds 9 1012 76 10000 3.1 70 08:25 21.03.2020
6085 Clouds 9 1012 71 10000 3.1 60 07:52 21.03.2020
6086 Clouds 9 1012 71 10000 3.1 60 07:32 21.03.2020
6087 Clouds 9 1012 81 10000 1 0 06:49 21.03.2020
6088 Clouds 9 1012 81 10000 1 0 06:29 21.03.2020
6089 Clouds 9 1013 76 10000 1 0 05:50 21.03.2020
6090 Clouds 8 1013 76 10000 1.5 30 05:23 21.03.2020
6091 Clouds 8 1014 76 10000 1.5 110 03:32 21.03.2020
6092 Clouds 9 1015 81 10000 1.5 110 02:35 21.03.2020
6093 Clouds 9 1012 76 0 4.02 101 01:40 21.03.2020
6094 Clouds 9 1015 87 10000 1 0 01:20 21.03.2020
6095 Clouds 9 1015 87 10000 1 0 00:38 21.03.2020
6096 Clouds 9 1015 87 10000 1 130 23:59 20.03.2020
6097 Clouds 9 1015 87 10000 1 70 23:40 20.03.2020
6098 Clouds 9 1015 87 10000 1 0 23:18 20.03.2020
6099 Clouds 10 1015 76 10000 1 70 22:43 20.03.2020
6100 Clouds 10 1015 76 10000 1 70 22:24 20.03.2020
6101 Clouds 10 1015 76 10000 3.1 80 21:58 20.03.2020
6102 Clouds 11 1015 71 10000 3.6 80 21:39 20.03.2020
6103 Clouds 11 1015 71 10000 3.6 80 21:19 20.03.2020
6104 Clouds 12 1015 71 10000 3.1 80 20:57 20.03.2020
6105 Clouds 12 1015 71 10000 3.1 80 20:39 20.03.2020
6106 Clouds 12 1015 71 10000 4.1 80 20:18 20.03.2020
6107 Clouds 12 1015 66 10000 3.6 80 19:46 20.03.2020
6108 Clouds 12 1015 66 10000 2.6 70 19:19 20.03.2020
6109 Clouds 12 1015 66 10000 3.6 80 18:56 20.03.2020
6110 Clouds 12 1015 66 10000 3.6 80 18:37 20.03.2020
6111 Clouds 12 1015 62 10000 2.6 70 18:19 20.03.2020
6112 Clouds 13 1015 62 10000 2.6 90 17:40 20.03.2020
6113 Clouds 12 1015 66 10000 4.6 100 17:22 20.03.2020
6114 Clouds 12 1015 66 10000 4.6 100 16:59 20.03.2020
6115 Clouds 12 1015 66 10000 4.1 90 16:41 20.03.2020
6116 Clouds 12 1015 66 10000 4.1 90 16:41 20.03.2020
6117 Clouds 12 1016 66 10000 4.6 100 16:20 20.03.2020
6118 Clouds 12 1016 66 10000 3.6 100 15:44 20.03.2020
6119 Clouds 12 1016 66 10000 3.6 100 15:22 20.03.2020
6120 Clouds 12 1016 66 10000 4.1 90 14:58 20.03.2020
6121 Clouds 12 1016 66 10000 3.6 100 14:40 20.03.2020
6122 Clouds 12 1016 66 10000 3.6 100 14:20 20.03.2020
6123 Clouds 12 1017 71 10000 3.1 80 13:48 20.03.2020
6124 Clouds 12 1017 71 10000 3.1 80 13:21 20.03.2020
6125 Clouds 12 1017 66 10000 3.6 100 12:57 20.03.2020
6126 Clouds 11 1017 71 10000 4.6 80 12:37 20.03.2020
6127 Clouds 12 1017 71 10000 4.6 80 12:18 20.03.2020
6128 Clouds 10 1017 76 10000 4.6 110 11:39 20.03.2020
6129 Clouds 11 1018 76 10000 3.6 130 11:20 20.03.2020
6130 Clouds 11 1017 71 10000 4.1 100 10:54 20.03.2020
6131 Clouds 10 1017 71 10000 4.1 100 10:36 20.03.2020
6132 Clouds 10 1017 71 10000 4.1 100 10:36 20.03.2020
6133 Clouds 10 1017 76 10000 4.1 90 10:18 20.03.2020
6134 Clouds 10 1017 76 10000 3.6 120 09:44 20.03.2020
6135 Clouds 10 1017 76 10000 3.6 120 09:20 20.03.2020
6136 Clouds 10 1017 76 10000 2.6 90 08:43 20.03.2020
6137 Clouds 10 1017 76 10000 3.6 100 08:23 20.03.2020
6138 Clouds 10 1017 76 10000 3.6 100 07:59 20.03.2020
6139 Clouds 9 1017 76 10000 1 0 07:38 20.03.2020
6140 Clouds 9 1016 76 10000 1 0 07:19 20.03.2020
6141 Clouds 9 1016 71 10000 2.1 130 06:42 20.03.2020
6142 Clouds 10 1016 76 10000 1.5 120 06:18 20.03.2020
6143 Clouds 10 1017 71 10000 2.6 120 04:36 20.03.2020
6144 Clouds 11 1017 66 10000 2.1 120 02:50 20.03.2020
6145 Clouds 11 1018 76 10000 1 0 01:50 20.03.2020
6146 Clouds 11 1018 71 10000 1 0 00:41 20.03.2020
6147 Clouds 11 1018 71 10000 1 0 23:59 19.03.2020
6148 Clouds 11 1018 71 10000 1 0 23:40 19.03.2020
6149 Clouds 11 1018 71 10000 1.5 120 23:22 19.03.2020
6150 Clouds 12 1018 71 10000 2.6 140 22:41 19.03.2020
6151 Clouds 12 1018 71 10000 2.6 140 22:22 19.03.2020
6152 Clouds 12 1018 71 10000 3.1 140 21:58 19.03.2020
6153 Clouds 12 1018 71 10000 3.6 140 21:38 19.03.2020
6154 Clouds 12 1018 66 10000 4.1 150 21:19 19.03.2020
6155 Clouds 13 1018 66 10000 4.1 120 20:44 19.03.2020
6156 Clear 13 1018 66 10000 4.1 120 20:25 19.03.2020
6157 Clouds 14 1018 62 10000 3.6 120 19:59 19.03.2020
6158 Clouds 14 1017 62 10000 3.6 130 19:39 19.03.2020
6159 Clouds 14 1017 62 10000 3.6 130 19:21 19.03.2020
6160 Clouds 15 1017 54 10000 3.6 120 18:59 19.03.2020
6161 Clouds 15 1017 54 10000 4.1 120 18:41 19.03.2020
6162 Clouds 16 1017 51 10000 4.1 130 18:22 19.03.2020
6163 Clouds 16 1018 51 10000 3.1 110 17:55 19.03.2020
6164 Clouds 17 1018 51 10000 3.1 110 17:37 19.03.2020
6165 Clouds 17 1018 48 10000 3.1 110 17:18 19.03.2020
6166 Clouds 17 1018 51 10000 4.1 90 16:42 19.03.2020
6167 Clouds 17 1018 51 10000 4.1 90 16:21 19.03.2020
6168 Clouds 16 1019 54 10000 3.6 80 15:44 19.03.2020
6169 Clouds 16 1019 55 10000 3.1 90 15:24 19.03.2020
6170 Clouds 16 1020 51 10000 2.6 70 14:43 19.03.2020
6171 Clouds 16 1020 51 10000 2.6 70 14:23 19.03.2020
6172 Clouds 16 1020 55 10000 4.1 110 13:59 19.03.2020
6173 Clouds 15 1021 54 10000 3.1 110 13:38 19.03.2020
6174 Clouds 15 1021 54 10000 3.1 0 13:18 19.03.2020
6175 Clouds 14 1022 58 10000 3.6 100 12:42 19.03.2020
6176 Clouds 14 1022 58 10000 3.1 90 12:24 19.03.2020
6177 Clouds 14 1022 58 10000 3.1 90 11:58 19.03.2020
6178 Clouds 13 1022 62 10000 4.1 90 11:40 19.03.2020
6179 Clouds 12 1022 62 10000 3.1 90 11:22 19.03.2020
6180 Clouds 12 1022 66 10000 3.6 90 10:43 19.03.2020
6181 Clouds 11 1022 66 10000 2.6 100 10:22 19.03.2020
6182 Clouds 11 1022 66 10000 2.6 100 09:58 19.03.2020
6183 Clouds 10 1022 66 10000 3.1 100 09:39 19.03.2020
6184 Clouds 10 1022 66 10000 3.1 100 09:19 19.03.2020
6185 Clouds 10 1022 76 10000 1.5 70 08:46 19.03.2020
6186 Clouds 10 1022 66 10000 1 0 08:22 19.03.2020
6187 Clouds 10 1022 76 10000 1 0 07:47 19.03.2020
6188 Clouds 10 1022 76 10000 1 0 07:29 19.03.2020
6189 Clouds 10 1022 76 10000 0.5 290 06:51 19.03.2020
6190 Clouds 10 1022 87 10000 0.5 0 05:52 19.03.2020
6191 Clouds 10 1022 76 10000 0.5 0 05:22 19.03.2020
6192 Clouds 10 1022 81 10000 1 180 04:41 19.03.2020
6193 Clouds 10 1023 81 10000 0.5 210 03:36 19.03.2020
6194 Clouds 11 1023 81 10000 1.5 150 01:45 19.03.2020
6195 Clouds 12 1024 76 10000 1 180 00:38 19.03.2020
6196 Clouds 12 1024 81 10000 1.26 219 23:58 18.03.2020
6197 Clouds 12 1024 81 10000 0.5 0 23:39 18.03.2020
6198 Clouds 12 1024 71 10000 0.5 160 23:18 18.03.2020
6199 Clouds 12 1024 71 10000 0.5 130 22:42 18.03.2020
6200 Clouds 13 1024 71 10000 0.5 130 22:22 18.03.2020
6201 Clouds 13 1024 71 10000 2.7 160 21:54 18.03.2020
6202 Clouds 13 1024 71 10000 2.7 160 21:36 18.03.2020
6203 Clouds 13 1023 71 10000 0.5 140 21:18 18.03.2020
6204 Clouds 13 1023 71 10000 0.5 140 20:54 18.03.2020
6205 Clouds 14 1023 67 10000 1 140 20:36 18.03.2020
6206 Clouds 14 1023 62 10000 1 150 20:18 18.03.2020
6207 Clouds 15 1023 62 10000 0.5 0 19:40 18.03.2020
6208 Clouds 15 1023 62 10000 1.5 100 19:21 18.03.2020
6209 Clouds 15 1023 62 10000 1.5 100 18:56 18.03.2020
6210 Clouds 16 1023 59 10000 1.5 100 18:37 18.03.2020
6211 Clouds 16 1023 63 10000 1 0 18:18 18.03.2020
6212 Clouds 16 1023 59 10000 1.5 130 17:54 18.03.2020
6213 Clouds 16 1023 59 10000 1.5 130 17:36 18.03.2020
6214 Clouds 16 1024 59 10000 2.1 0 17:18 18.03.2020
6215 Clouds 16 1024 59 10000 2.1 110 16:42 18.03.2020
6216 Clouds 16 1024 59 10000 2.1 110 16:20 18.03.2020
6217 Clouds 16 1024 59 10000 2.1 120 15:56 18.03.2020
6218 Clouds 16 1024 55 10000 2.1 0 15:37 18.03.2020
6219 Clouds 16 1025 59 10000 1.5 130 15:19 18.03.2020
6220 Clouds 16 1025 55 10000 1 80 14:42 18.03.2020
6221 Clear 16 1025 55 10000 1 0 14:21 18.03.2020
6222 Clear 15 1026 58 10000 2.1 0 13:41 18.03.2020
6223 Clear 15 1026 58 10000 1 0 13:19 18.03.2020
6224 Clear 15 1026 58 10000 1 0 12:54 18.03.2020
6225 Clear 14 1026 62 10000 0.5 0 12:36 18.03.2020
6226 Clear 14 1027 62 10000 1 0 12:18 18.03.2020
6227 Clear 14 1027 62 10000 1 0 12:18 18.03.2020
6228 Clear 13 1026 66 10000 1 30 11:38 18.03.2020
6229 Clear 12 1027 76 10000 0.5 40 11:19 18.03.2020
6230 Clear 12 1027 76 10000 0.5 40 10:56 18.03.2020
6231 Clear 12 1027 76 10000 4.01 49 10:37 18.03.2020
6232 Clear 11 1027 76 10000 4.01 49 10:18 18.03.2020
6233 Clear 11 1027 76 10000 4.01 49 10:18 18.03.2020
6234 Clear 11 1027 76 10000 4.01 49 10:18 18.03.2020
6235 Clear 10 1026 87 10000 0.5 0 09:42 18.03.2020
6236 Clear 10 1026 87 10000 0.5 0 09:23 18.03.2020
6237 Clear 9 1026 87 10000 4.01 49 08:55 18.03.2020
6238 Clear 10 1026 87 10000 4.01 49 08:55 18.03.2020
6239 Clear 9 1026 87 10000 1.5 330 08:36 18.03.2020
6240 Clouds 9 1026 93 10000 0.5 360 08:18 18.03.2020
6241 Clouds 9 1026 87 10000 1 0 07:40 18.03.2020
6242 Clouds 9 1026 93 10000 1 340 07:22 18.03.2020
6243 Clouds 9 1026 93 10000 0.5 360 06:42 18.03.2020
6244 Clouds 9 1026 87 10000 2.73 43 05:47 18.03.2020
6245 Clouds 10 1026 81 10000 1 0 05:18 18.03.2020
6246 Clouds 10 1026 81 10000 2.6 10 03:53 18.03.2020
6247 Clouds 10 1026 81 10000 3.1 330 02:37 18.03.2020
6248 Clouds 10 1026 81 10000 3.6 320 02:37 18.03.2020
6249 Clouds 10 1027 81 10000 4.1 330 01:46 18.03.2020
6250 Clouds 10 1027 87 10000 2.6 330 01:20 18.03.2020
6251 Clouds 10 1027 81 10000 1.5 340 00:23 18.03.2020
6252 Clouds 11 1027 87 10000 2.6 360 23:43 17.03.2020
6253 Clouds 11 1027 81 10000 2.6 350 23:23 17.03.2020
6254 Clouds 11 1027 81 10000 3.1 340 22:47 17.03.2020
6255 Clouds 12 1027 81 10000 3.1 340 22:28 17.03.2020
6256 Clouds 12 1026 71 10000 2.1 40 21:57 17.03.2020
6257 Clouds 12 1026 71 10000 3.1 50 21:37 17.03.2020
6258 Clouds 13 1026 71 10000 2.6 50 21:19 17.03.2020
6259 Clouds 14 1025 62 10000 2.1 70 20:38 17.03.2020
6260 Clouds 14 1025 62 10000 3.6 70 20:20 17.03.2020
6261 Clouds 14 1025 62 10000 3.6 70 19:54 17.03.2020
6262 Clouds 14 1025 62 10000 3.1 80 19:36 17.03.2020
6263 Clouds 14 1024 62 10000 3.6 60 19:18 17.03.2020
6264 Clouds 15 1024 62 10000 3.6 60 18:54 17.03.2020
6265 Clouds 15 1024 63 10000 4.1 60 18:36 17.03.2020
6266 Clouds 15 1024 63 10000 4.1 60 18:36 17.03.2020
6267 Clouds 15 1024 59 10000 5.1 80 18:18 17.03.2020
6268 Clouds 16 1024 59 10000 6.7 90 17:39 17.03.2020
6269 Clouds 15 1023 59 10000 6.2 100 17:20 17.03.2020
6270 Clouds 16 1024 63 10000 4.6 80 16:44 17.03.2020
6271 Clouds 16 1024 63 10000 4.6 80 16:20 17.03.2020
6272 Clouds 16 1023 55 10000 5.1 70 15:56 17.03.2020
6273 Clouds 16 1023 63 10000 4.1 70 15:38 17.03.2020
6274 Clouds 15 1024 62 10000 4.1 60 15:18 17.03.2020
6275 Clouds 15 1024 62 10000 3.6 70 14:41 17.03.2020
6276 Clouds 14 1024 71 10000 4.1 60 14:18 17.03.2020
6277 Clouds 13 1024 71 10000 3.6 60 13:41 17.03.2020
6278 Clouds 13 1024 71 10000 3.6 60 13:22 17.03.2020
6279 Clouds 12 1024 76 10000 3.1 60 12:48 17.03.2020
6280 Clouds 12 1024 81 10000 1.5 20 12:26 17.03.2020
6281 Clouds 11 1024 81 10000 1.5 20 11:59 17.03.2020
6282 Clouds 10 1024 93 10000 1.5 360 11:39 17.03.2020
6283 Clouds 10 1024 93 10000 1.5 360 11:39 17.03.2020
6284 Clouds 9 1024 87 10000 8.7 70 11:21 17.03.2020
6285 Clouds 8 1024 93 10000 0.5 0 10:55 17.03.2020
6286 Clouds 8 1024 93 10000 0.5 0 10:36 17.03.2020
6287 Clouds 8 1024 93 8000 0.5 0 10:18 17.03.2020
6288 Rain 7 1023 87 6000 1.5 60 09:45 17.03.2020
6289 Rain 7 1023 93 8000 2.6 60 09:20 17.03.2020
6290 Rain 7 1023 93 8000 2.6 60 08:58 17.03.2020
6291 Rain 7 1022 93 10000 2.1 50 08:40 17.03.2020
6292 Rain 6 1022 100 10000 2.6 40 08:18 17.03.2020
6293 Rain 6 1021 93 9000 2.1 40 07:49 17.03.2020
6294 Rain 6 1021 93 10000 4.1 330 07:21 17.03.2020
6295 Clouds 6 1021 93 10000 3.1 310 06:49 17.03.2020
6296 Clouds 6 1020 93 10000 2.6 330 06:25 17.03.2020
6297 Clouds 5 1020 93 10000 3.6 340 05:26 17.03.2020
6298 Clouds 5 1020 81 10000 2.6 10 03:34 17.03.2020
6299 Clouds 5 1019 81 10000 2.6 20 02:31 17.03.2020
6300 Rain 5 1019 86 10000 2.1 50 01:38 17.03.2020
6301 Rain 6 1019 93 10000 2.1 360 00:53 17.03.2020
6302 Clouds 6 1018 87 10000 1 0 00:19 17.03.2020
6303 Clouds 5 1018 87 10000 1 0 23:38 16.03.2020
6304 Clouds 5 1018 93 10000 0.5 0 23:19 16.03.2020
6305 Clouds 5 1017 86 10000 1 0 22:38 16.03.2020
6306 Clouds 5 1017 86 10000 1 0 22:20 16.03.2020
6307 Clouds 5 1016 86 10000 2.1 350 21:45 16.03.2020
6308 Clouds 5 1016 86 10000 2.1 350 21:26 16.03.2020
6309 Clouds 5 1016 81 10000 3.1 30 20:59 16.03.2020
6310 Clouds 5 1015 81 10000 2.1 30 20:39 16.03.2020
6311 Clouds 5 1014 81 10000 3.1 10 20:20 16.03.2020
6312 Clouds 5 1014 75 10000 3.6 50 19:46 16.03.2020
6313 Rain 5 1014 75 10000 3.6 50 19:24 16.03.2020
6314 Rain 6 1015 93 5000 7.2 60 18:59 16.03.2020
6315 Rain 6 1014 81 10000 2.6 60 18:39 16.03.2020
6316 Rain 6 1013 81 10000 4.6 110 18:20 16.03.2020
6317 Rain 6 1013 65 10000 7.7 70 17:46 16.03.2020
6318 Rain 6 1012 75 10000 4.6 50 17:25 16.03.2020
6319 Rain 7 1013 87 10000 3.1 60 16:57 16.03.2020
6320 Rain 7 1013 87 10000 3.1 60 16:39 16.03.2020
6321 Rain 7 1013 87 10000 3.1 60 16:39 16.03.2020
6322 Clouds 7 1012 61 10000 2.6 350 16:20 16.03.2020
6323 Clouds 6 1012 61 10000 2.6 80 15:43 16.03.2020
6324 Clouds 7 1012 61 10000 2.6 80 15:23 16.03.2020
6325 Clouds 7 1012 61 10000 2.1 90 14:47 16.03.2020
6326 Clouds 7 1012 61 10000 2.1 90 14:20 16.03.2020
6327 Clouds 7 1012 70 10000 2.1 130 13:48 16.03.2020
6328 Clouds 6 1012 70 10000 2.1 130 13:28 16.03.2020
6329 Clouds 6 1012 70 10000 1.5 0 12:58 16.03.2020
6330 Clouds 6 1012 65 10000 3.1 150 12:39 16.03.2020
6331 Clouds 6 1011 66 10000 3.6 180 12:20 16.03.2020
6332 Clouds 5 1011 70 10000 4.1 190 11:43 16.03.2020
6333 Snow 5 1011 93 1200 5.1 90 11:25 16.03.2020
6334 Clouds 5 1010 70 10000 2.1 240 10:45 16.03.2020
6335 Clouds 5 1010 70 10000 2.6 190 10:24 16.03.2020
6336 Clouds 5 1010 70 10000 2.6 190 09:56 16.03.2020
6337 Clouds 5 1009 75 10000 2.1 190 09:37 16.03.2020
6338 Clouds 5 1009 80 10000 3.1 190 09:19 16.03.2020
6339 Clouds 4 1009 80 10000 2.6 200 08:41 16.03.2020
6340 Rain 4 1008 80 10000 2.6 210 08:21 16.03.2020
6341 Rain 4 1008 80 10000 3.1 230 07:42 16.03.2020
6342 Rain 5 1008 80 10000 3.1 230 07:19 16.03.2020
6343 Clouds 5 1008 75 10000 2.6 180 06:29 16.03.2020
6344 Clouds 6 1008 81 10000 3.6 160 05:59 16.03.2020
6345 Drizzle 7 1008 81 10000 3.1 240 04:26 16.03.2020
6346 Rain 10 1009 81 10000 4.1 190 01:46 16.03.2020
6347 Thunderstorm 10 1010 87 7000 7.2 210 00:45 16.03.2020
6348 Thunderstorm 10 1010 87 7000 7.2 210 00:26 16.03.2020
6349 Thunderstorm 11 1010 87 6000 3.6 180 23:40 15.03.2020
6350 Thunderstorm 12 1010 81 6000 3.1 190 23:19 15.03.2020
6351 Thunderstorm 12 1011 76 10000 5.1 180 22:42 15.03.2020
6352 Clouds 12 1011 82 10000 4.6 170 22:21 15.03.2020
6353 Clouds 12 1011 76 10000 5.7 170 21:39 15.03.2020
6354 Clouds 11 1011 76 10000 5.7 170 21:21 15.03.2020
6355 Thunderstorm 12 1010 71 10000 2.6 210 20:58 15.03.2020
6356 Rain 12 1010 76 10000 2.6 220 20:40 15.03.2020
6357 Thunderstorm 13 1010 81 10000 1.5 210 20:19 15.03.2020
6358 Thunderstorm 14 1010 81 10000 1.5 210 19:55 15.03.2020
6359 Thunderstorm 15 1011 71 3000 10.3 260 19:37 15.03.2020
6360 Clouds 17 1010 59 10000 4.1 180 19:18 15.03.2020
6361 Clouds 18 1010 55 10000 4.6 200 18:42 15.03.2020
6362 Clouds 18 1010 55 10000 4.6 200 18:24 15.03.2020
6363 Clouds 18 1011 55 10000 5.1 210 17:58 15.03.2020
6364 Clouds 19 1011 52 10000 6.7 220 17:39 15.03.2020
6365 Clouds 19 1011 52 10000 6.2 230 17:20 15.03.2020
6366 Clouds 19 1011 52 10000 6.2 230 16:55 15.03.2020
6367 Clouds 18 1012 55 10000 6.7 240 16:36 15.03.2020
6368 Clouds 18 1012 55 10000 6.7 240 16:18 15.03.2020
6369 Clouds 19 1012 52 10000 4.1 220 15:41 15.03.2020
6370 Clouds 19 1012 52 10000 4.1 220 15:20 15.03.2020
6371 Clouds 19 1013 55 10000 3.6 220 14:47 15.03.2020
6372 Clouds 19 1013 55 10000 3.6 220 14:26 15.03.2020
6373 Clouds 18 1014 59 10000 1.5 0 13:59 15.03.2020
6374 Clouds 18 1015 59 10000 1.5 0 13:39 15.03.2020
6375 Clouds 17 1015 59 10000 2.6 110 13:21 15.03.2020
6376 Clouds 16 1016 59 10000 2.1 100 12:44 15.03.2020
6377 Clouds 16 1016 59 10000 2.1 100 12:26 15.03.2020
6378 Clouds 15 1016 62 10000 2.1 120 11:59 15.03.2020
6379 Clouds 15 1016 62 10000 2.6 100 11:40 15.03.2020
6380 Clouds 14 1017 67 10000 1.5 110 11:22 15.03.2020
6381 Clouds 14 1017 67 10000 1.5 110 10:56 15.03.2020
6382 Clouds 14 1016 54 10000 1 0 10:37 15.03.2020
6383 Clouds 13 1017 54 10000 0.5 0 10:19 15.03.2020
6384 Clouds 12 1016 58 10000 1 0 09:40 15.03.2020
6385 Clouds 11 1016 57 10000 1 0 09:22 15.03.2020
6386 Clouds 10 1016 61 10000 1.5 360 08:45 15.03.2020
6387 Clouds 10 1016 61 10000 1.5 360 08:21 15.03.2020
6388 Clouds 9 1016 61 10000 1.5 350 07:51 15.03.2020
6389 Clouds 9 1016 61 10000 1.5 350 07:32 15.03.2020
6390 Clouds 9 1016 81 10000 1.5 350 06:54 15.03.2020
6391 Clouds 10 1016 81 10000 1.5 340 06:24 15.03.2020
6392 Clear 10 1016 75 10000 1.5 20 05:21 15.03.2020
6393 Clear 10 1017 70 10000 1 330 04:43 15.03.2020
6394 Clear 10 1017 70 10000 1 330 04:25 15.03.2020
6395 Clear 11 1017 75 10000 1 340 03:54 15.03.2020
6396 Clear 12 1017 66 10000 0.5 0 02:44 15.03.2020
6397 Clear 13 1018 66 10000 1 360 01:35 15.03.2020
6398 Clear 13 1018 66 10000 1 330 00:46 15.03.2020
6399 Clear 13 1018 66 10000 1 330 00:27 15.03.2020
6400 Clear 13 1018 66 10000 1.5 340 23:55 14.03.2020
6401 Clear 14 1018 58 10000 1 0 23:37 14.03.2020
6402 Clear 14 1018 58 10000 1.5 350 23:18 14.03.2020
6403 Clear 15 1017 58 10000 2.1 10 22:44 14.03.2020
6404 Clear 15 1017 58 10000 2.1 10 22:26 14.03.2020
6405 Clouds 15 1017 58 10000 0.36 22 21:57 14.03.2020
6406 Clouds 16 1017 48 10000 1.5 200 21:36 14.03.2020
6407 Clouds 16 1017 45 10000 2.1 200 21:18 14.03.2020
6408 Clouds 17 1017 45 10000 2.1 200 20:59 14.03.2020
6409 Clear 17 1018 52 10000 1.5 190 20:40 14.03.2020
6410 Clear 18 1018 45 10000 2.1 210 20:19 14.03.2020
6411 Clear 19 1017 42 10000 2.6 190 19:44 14.03.2020
6412 Clear 20 1017 42 10000 2.6 190 19:25 14.03.2020
6413 Clear 21 1017 37 10000 1.5 150 18:56 14.03.2020
6414 Clear 21 1017 37 10000 1.5 150 18:37 14.03.2020
6415 Clear 21 1017 40 10000 1.5 150 18:19 14.03.2020
6416 Clear 21 1017 37 10000 1 0 17:39 14.03.2020
6417 Clear 22 1018 40 10000 2.1 0 17:20 14.03.2020
6418 Clear 21 1018 43 10000 1 0 16:41 14.03.2020
6419 Clear 21 1018 43 10000 1 0 16:23 14.03.2020
6420 Clear 21 1018 43 10000 1 0 16:23 14.03.2020
6421 Clear 21 1018 43 10000 1 0 15:59 14.03.2020
6422 Clear 21 1019 46 10000 1.5 0 15:27 14.03.2020
6423 Clear 20 1019 46 10000 1 100 14:59 14.03.2020
6424 Clear 20 1019 45 10000 1.5 0 14:37 14.03.2020
6425 Clear 20 1020 52 10000 2.1 80 14:19 14.03.2020
6426 Clear 19 1020 48 10000 1.5 0 13:44 14.03.2020
6427 Clear 19 1020 52 10000 2.1 70 13:24 14.03.2020
6428 Clear 18 1020 52 10000 2.1 70 12:58 14.03.2020
6429 Clear 17 1021 55 10000 1.5 0 12:38 14.03.2020
6430 Clear 17 1021 52 10000 1 30 12:20 14.03.2020
6431 Clear 16 1021 55 10000 1 0 11:42 14.03.2020
6432 Clear 15 1021 59 10000 1.5 0 11:24 14.03.2020
6433 Clear 14 1021 62 10000 1 0 10:47 14.03.2020
6434 Clear 14 1021 62 10000 1 0 10:28 14.03.2020
6435 Clear 13 1021 67 10000 1 0 09:59 14.03.2020
6436 Clear 13 1020 71 10000 1 0 09:40 14.03.2020
6437 Clear 11 1020 71 10000 1.5 360 09:20 14.03.2020
6438 Clear 10 1020 81 10000 3.59 42 08:46 14.03.2020
6439 Clouds 10 1020 93 10000 1 0 08:26 14.03.2020
6440 Clouds 9 1019 87 10000 2.54 47 07:40 14.03.2020
6441 Clouds 10 1019 81 10000 0.5 0 07:21 14.03.2020
6442 Clouds 10 1019 87 10000 0.5 0 06:45 14.03.2020
6443 Clouds 10 1019 81 10000 1.5 320 06:26 14.03.2020
6444 Clouds 10 1019 81 10000 1.5 340 04:53 14.03.2020
6445 Clouds 12 1019 71 10000 1 0 03:34 14.03.2020
6446 Clouds 12 1019 71 10000 1.5 350 02:43 14.03.2020
6447 Clouds 13 1018 66 10000 2.6 30 01:42 14.03.2020
6448 Clouds 14 1018 58 10000 2.1 10 00:23 14.03.2020
6449 Clouds 15 1018 62 10000 0.5 0 23:42 13.03.2020
6450 Clouds 15 1018 59 10000 1 0 23:22 13.03.2020
6451 Clouds 16 1017 55 10000 1.5 10 22:41 13.03.2020
6452 Clouds 15 1017 51 10000 3.1 360 22:22 13.03.2020
6453 Clouds 16 1016 42 10000 2.1 280 21:40 13.03.2020
6454 Rain 16 1016 40 10000 2.6 270 21:19 13.03.2020
6455 Clouds 18 1016 59 10000 3.1 260 20:42 13.03.2020
6456 Clouds 18 1016 59 10000 3.1 260 20:22 13.03.2020
6457 Clouds 19 1016 51 10000 2.6 240 19:57 13.03.2020
6458 Clouds 19 1016 48 10000 3.6 250 19:39 13.03.2020
6459 Clouds 20 1016 42 10000 3.1 240 19:18 13.03.2020
6460 Clouds 21 1016 40 10000 2.6 210 18:40 13.03.2020
6461 Clouds 21 1016 35 10000 3.1 220 18:22 13.03.2020
6462 Clouds 22 1016 35 10000 3.1 0 17:42 13.03.2020
6463 Clouds 22 1016 37 10000 2.6 170 17:21 13.03.2020
6464 Clouds 22 1016 37 10000 2.6 170 16:56 13.03.2020
6465 Clouds 22 1016 43 10000 2.6 220 16:38 13.03.2020
6466 Clouds 22 1016 40 10000 1.5 160 16:20 13.03.2020
6467 Clouds 22 1016 43 10000 2.1 200 15:43 13.03.2020
6468 Clouds 22 1016 43 10000 2.1 200 15:22 13.03.2020
6469 Clouds 22 1017 46 10000 2.1 0 14:57 13.03.2020
6470 Clouds 22 1017 46 10000 1 230 14:38 13.03.2020
6471 Clouds 21 1017 46 10000 2.1 130 14:18 13.03.2020
6472 Clouds 20 1018 52 10000 1.5 100 13:42 13.03.2020
6473 Clouds 20 1018 46 10000 1 0 13:22 13.03.2020
6474 Clouds 20 1018 46 10000 1 0 12:59 13.03.2020
6475 Clouds 19 1018 55 10000 1.5 0 12:38 13.03.2020
6476 Clouds 19 1018 52 10000 1 60 12:19 13.03.2020
6477 Clouds 17 1018 55 10000 1.5 40 11:55 13.03.2020
6478 Clouds 17 1018 55 10000 1.5 40 11:36 13.03.2020
6479 Clouds 16 1018 59 10000 1.5 30 11:18 13.03.2020
6480 Clouds 15 1018 59 10000 1.5 30 10:46 13.03.2020
6481 Clouds 15 1018 59 10000 1.5 30 10:25 13.03.2020
6482 Clouds 14 1018 67 10000 1.5 60 09:48 13.03.2020
6483 Clouds 13 1018 67 10000 1.5 60 09:28 13.03.2020
6484 Clouds 13 1017 67 10000 1 0 08:59 13.03.2020
6485 Clouds 12 1017 76 10000 0.5 0 08:38 13.03.2020
6486 Clouds 12 1017 76 10000 0.5 0 08:38 13.03.2020
6487 Clouds 11 1017 76 10000 0.5 0 08:20 13.03.2020
6488 Clouds 11 1017 81 10000 0.5 340 07:44 13.03.2020
6489 Clouds 12 1017 81 10000 0.5 330 07:25 13.03.2020
6490 Clouds 12 1014 66 0 1.79 56 06:46 13.03.2020
6491 Clouds 12 1014 66 0 1.34 5 06:46 13.03.2020
6492 Clouds 12 1017 81 10000 1.5 350 06:23 13.03.2020
6493 Clouds 12 1016 81 10000 1 0 05:46 13.03.2020
6494 Clouds 13 1016 76 10000 0.5 0 04:57 13.03.2020
6495 Clouds 13 1017 81 10000 1.5 130 04:26 13.03.2020
6496 Clouds 14 1017 76 10000 1 20 02:58 13.03.2020
6497 Clouds 15 1017 71 10000 1.55 202 01:39 13.03.2020
6498 Clouds 15 1017 71 10000 1.55 202 01:18 13.03.2020
6499 Clouds 15 1017 62 10000 1 360 00:42 13.03.2020
6500 Clouds 16 1017 55 10000 1.5 130 00:19 13.03.2020
6501 Clouds 16 1017 58 10000 0.5 0 23:40 12.03.2020
6502 Clouds 17 1017 55 10000 1.44 212 23:22 12.03.2020
6503 Clouds 17 1018 59 10000 2.6 250 22:47 12.03.2020
6504 Clouds 17 1018 59 10000 2.6 250 22:29 12.03.2020
6505 Clouds 18 1018 55 10000 0.5 0 21:59 12.03.2020
6506 Clouds 19 1018 45 10000 2.1 220 21:40 12.03.2020
6507 Clouds 19 1017 52 10000 1 0 21:21 12.03.2020
6508 Clouds 20 1017 42 10000 0.5 0 20:55 12.03.2020
6509 Clouds 20 1017 42 10000 0.5 0 20:36 12.03.2020
6510 Clouds 20 1017 42 10000 0.5 0 20:18 12.03.2020
6511 Clouds 21 1017 43 10000 1.5 260 19:39 12.03.2020
6512 Clouds 21 1017 38 10000 2.1 290 19:19 12.03.2020
6513 Clouds 22 1017 40 10000 3.6 260 18:42 12.03.2020
6514 Clouds 23 1017 38 10000 1.5 270 18:23 12.03.2020
6515 Clouds 23 1017 38 10000 1.5 270 17:56 12.03.2020
6516 Clouds 24 1017 38 10000 2.6 230 17:37 12.03.2020
6517 Clouds 24 1017 33 10000 2.6 210 17:18 12.03.2020
6518 Clouds 24 1018 31 10000 2.6 240 16:43 12.03.2020
6519 Clouds 24 1018 31 10000 2.6 240 16:23 12.03.2020
6520 Clouds 24 1018 29 10000 1.5 250 15:59 12.03.2020
6521 Clouds 23 1019 35 10000 1.5 180 15:39 12.03.2020
6522 Clouds 23 1019 36 10000 0.5 0 15:21 12.03.2020
6523 Clouds 23 1020 43 10000 1.5 160 14:38 12.03.2020
6524 Clouds 22 1020 35 10000 0.5 0 14:19 12.03.2020
6525 Clouds 22 1021 40 10000 1.5 0 13:40 12.03.2020
6526 Clouds 21 1021 37 10000 1 0 13:21 12.03.2020
6527 Clouds 21 1021 45 10000 1 280 12:55 12.03.2020
6528 Clouds 21 1021 42 10000 1 0 12:37 12.03.2020
6529 Clouds 20 1021 45 10000 1.5 40 12:18 12.03.2020
6530 Clouds 19 1021 45 10000 1.5 40 11:56 12.03.2020
6531 Clouds 19 1021 55 10000 1.5 50 11:37 12.03.2020
6532 Clouds 18 1022 52 10000 1 0 11:19 12.03.2020
6533 Clouds 17 1022 52 10000 1 0 10:55 12.03.2020
6534 Clouds 17 1022 52 10000 1 0 10:55 12.03.2020
6535 Clouds 16 1021 63 10000 1.5 40 10:37 12.03.2020
6536 Clouds 15 1021 67 10000 1 0 10:18 12.03.2020
6537 Clouds 14 1021 71 10000 1 0 09:42 12.03.2020
6538 Clouds 14 1021 71 10000 1 0 09:23 12.03.2020
6539 Clouds 12 1021 76 10000 0.5 0 08:40 12.03.2020
6540 Clouds 12 1021 76 10000 0.5 0 08:19 12.03.2020
6541 Clouds 13 1021 76 10000 2.23 40 07:52 12.03.2020
6542 Clouds 12 1021 87 10000 2.1 360 07:23 12.03.2020
6543 Clouds 12 1021 87 10000 2.1 340 06:38 12.03.2020
6544 Clouds 12 1021 87 10000 1 350 05:40 12.03.2020
6545 Clouds 12 1022 87 10000 1.5 320 03:54 12.03.2020
6546 Clouds 13 1022 81 10000 1.5 10 02:21 12.03.2020
6547 Clouds 14 1023 76 10000 1.5 340 01:29 12.03.2020
6548 Clouds 15 1023 71 10000 1.5 340 00:42 12.03.2020
6549 Clouds 16 1023 67 10000 1.5 360 23:59 11.03.2020
6550 Clouds 16 1023 71 10000 0.5 0 23:37 11.03.2020
6551 Clouds 16 1022 67 10000 0.65 184 23:18 11.03.2020
6552 Clouds 17 1022 55 10000 1.5 140 22:42 11.03.2020
6553 Clouds 17 1022 55 10000 1.5 140 22:23 11.03.2020
6554 Clouds 17 1023 55 10000 1 110 21:58 11.03.2020
6555 Clouds 18 1023 55 10000 1 110 21:40 11.03.2020
6556 Clouds 18 1023 59 10000 0.65 184 21:22 11.03.2020
6557 Clouds 18 1023 59 10000 0.65 184 20:57 11.03.2020
6558 Clouds 19 1023 49 10000 1 0 20:37 11.03.2020
6559 Clouds 20 1023 49 10000 1 0 20:19 11.03.2020
6560 Clouds 21 1023 43 10000 1 0 19:42 11.03.2020
6561 Clouds 22 1023 40 10000 2.1 180 19:24 11.03.2020
6562 Clouds 22 1023 40 10000 2.1 180 18:57 11.03.2020
6563 Clouds 23 1023 40 10000 2.6 200 18:38 11.03.2020
6564 Clouds 23 1023 40 10000 2.6 200 18:38 11.03.2020
6565 Clouds 23 1023 38 10000 2.6 200 18:19 11.03.2020
6566 Clouds 23 1023 38 10000 2.6 200 17:55 11.03.2020
6567 Clouds 23 1023 41 10000 2.1 190 17:37 11.03.2020
6568 Clouds 23 1023 36 10000 2.6 180 17:19 11.03.2020
6569 Clouds 24 1023 36 10000 2.1 180 16:44 11.03.2020
6570 Clouds 24 1023 36 10000 2.1 180 16:20 11.03.2020
6571 Clouds 24 1024 33 10000 1.5 0 15:44 11.03.2020
6572 Clouds 23 1024 36 10000 1 0 15:23 11.03.2020
6573 Clouds 23 1024 36 10000 1 0 14:56 11.03.2020
6574 Clouds 23 1025 40 10000 1 0 14:38 11.03.2020
6575 Clouds 22 1025 43 10000 1 0 14:19 11.03.2020
6576 Clouds 21 1025 43 10000 1 110 13:44 11.03.2020
6577 Clear 21 1025 43 10000 1 110 13:25 11.03.2020
6578 Clear 20 1026 45 10000 1.5 90 12:57 11.03.2020
6579 Clear 19 1026 48 10000 1 0 12:39 11.03.2020
6580 Clear 19 1026 51 10000 2.1 100 12:19 11.03.2020
6581 Clear 17 1026 55 10000 1.5 70 11:41 11.03.2020
6582 Clear 16 1026 55 10000 1.5 70 11:22 11.03.2020
6583 Clear 15 1026 58 10000 1.5 70 10:49 11.03.2020
6584 Clear 15 1026 66 10000 1 0 10:21 11.03.2020
6585 Clear 14 1026 58 10000 1 0 10:00 11.03.2020
6586 Clear 14 1026 66 10000 1 0 09:41 11.03.2020
6587 Clear 12 1025 62 10000 1.14 60 09:22 11.03.2020
6588 Clear 13 1026 66 10000 1 0 09:22 11.03.2020
6589 Clouds 10 1025 81 10000 0.5 360 08:44 11.03.2020
6590 Clear 10 1025 81 10000 0.5 360 08:26 11.03.2020
6591 Clear 9 1025 87 10000 0.5 0 07:48 11.03.2020
6592 Clear 9 1025 87 10000 0.5 0 07:22 11.03.2020
6593 Clear 9 1025 87 10000 1.5 360 06:53 11.03.2020
6594 Clear 10 1025 87 10000 1 350 06:35 11.03.2020
6595 Clear 10 1025 87 10000 0.92 63 05:33 11.03.2020
6596 Clear 11 1025 87 10000 0.5 340 03:34 11.03.2020
6597 Clear 12 1026 76 10000 0.5 330 01:56 11.03.2020
6598 Clear 13 1026 66 10000 1 30 01:25 11.03.2020
6599 Clear 13 1026 62 10000 1.5 150 00:45 11.03.2020
6600 Clear 13 1026 58 10000 1.5 120 23:50 10.03.2020
6601 Clear 14 1026 58 10000 1.37 202 23:29 10.03.2020
6602 Clear 14 1025 54 10000 1.37 202 22:59 10.03.2020
6603 Clear 15 1025 54 10000 1.37 202 22:38 10.03.2020
6604 Clear 15 1025 54 10000 0.5 120 22:19 10.03.2020
6605 Clear 16 1025 54 10000 0.5 120 21:56 10.03.2020
6606 Clear 16 1025 45 10000 1.5 160 21:38 10.03.2020
6607 Clear 16 1026 48 10000 1.5 220 21:19 10.03.2020
6608 Clear 17 1026 48 10000 1.5 220 20:56 10.03.2020
6609 Clear 17 1026 48 10000 2.1 250 20:38 10.03.2020
6610 Clouds 18 1026 48 10000 2.1 250 20:18 10.03.2020
6611 Clouds 18 1025 51 10000 2.1 230 19:55 10.03.2020
6612 Clouds 19 1025 40 10000 2.6 220 19:36 10.03.2020
6613 Clouds 20 1025 37 10000 3.1 230 19:18 10.03.2020
6614 Clouds 21 1025 35 10000 4.6 220 18:42 10.03.2020
6615 Clouds 21 1025 33 10000 3.6 230 18:23 10.03.2020
6616 Clouds 21 1025 33 10000 3.6 230 17:56 10.03.2020
6617 Clouds 22 1025 35 10000 2.6 190 17:38 10.03.2020
6618 Clouds 21 1026 35 10000 2.6 190 17:20 10.03.2020
6619 Clouds 21 1026 37 10000 2.6 270 16:38 10.03.2020
6620 Clouds 21 1026 37 10000 2.6 240 16:18 10.03.2020
6621 Clouds 20 1026 37 10000 2.1 190 15:44 10.03.2020
6622 Clouds 20 1027 35 10000 1.5 170 15:20 10.03.2020
6623 Clouds 20 1027 35 10000 1.5 170 14:59 10.03.2020
6624 Clouds 19 1027 37 10000 1.5 170 14:40 10.03.2020
6625 Clouds 18 1028 39 10000 1 170 14:19 10.03.2020
6626 Clouds 18 1028 36 10000 1.5 0 13:45 10.03.2020
6627 Clouds 18 1028 36 10000 1.5 0 13:45 10.03.2020
6628 Clouds 17 1028 39 10000 0.71 267 13:27 10.03.2020
6629 Clouds 17 1028 39 10000 0.99 244 12:59 10.03.2020
6630 Clouds 16 1028 39 10000 1 0 12:39 10.03.2020
6631 Clouds 16 1028 44 10000 1 0 12:18 10.03.2020
6632 Clouds 15 1028 44 10000 1.5 170 11:43 10.03.2020
6633 Clouds 13 1028 41 10000 1.55 46 11:24 10.03.2020
6634 Clouds 12 1028 46 10000 0.5 170 10:58 10.03.2020
6635 Clouds 12 1028 53 10000 1 170 10:40 10.03.2020
6636 Clouds 12 1028 53 10000 1 170 10:21 10.03.2020
6637 Clouds 10 1028 53 10000 1 0 09:56 10.03.2020
6638 Clouds 10 1027 61 10000 1 0 09:37 10.03.2020
6639 Clouds 9 1027 70 10000 1.5 160 09:18 10.03.2020
6640 Clouds 8 1027 65 10000 1.55 46 08:43 10.03.2020
6641 Clouds 7 1027 65 10000 0.71 89 08:25 10.03.2020
6642 Clouds 7 1027 65 10000 1.5 350 07:46 10.03.2020
6643 Clouds 7 1027 65 10000 1.5 350 07:28 10.03.2020
6644 Clouds 7 1026 80 10000 1.5 10 06:42 10.03.2020
6645 Clouds 7 1026 80 10000 1.5 10 06:23 10.03.2020
6646 Clouds 8 1026 80 10000 1 360 05:38 10.03.2020
6647 Clouds 8 1026 54 10000 1.66 45 04:34 10.03.2020
6648 Clouds 9 1026 54 10000 1.66 45 03:34 10.03.2020
6649 Clouds 9 1026 52 10000 0.5 20 01:55 10.03.2020
6650 Clouds 9 1026 65 10000 1 40 00:53 10.03.2020
6651 Clouds 9 1026 52 10000 0.5 0 00:30 10.03.2020
6652 Clouds 11 1026 52 10000 0.5 0 23:56 09.03.2020
6653 Clouds 11 1026 52 10000 0.5 0 23:37 09.03.2020
6654 Clouds 11 1026 53 10000 1.71 20 23:19 09.03.2020
6655 Clouds 12 1026 53 10000 2.6 340 22:40 09.03.2020
6656 Clouds 12 1026 53 10000 2.6 340 22:21 09.03.2020
6657 Clouds 12 1026 46 10000 3.1 340 21:57 09.03.2020
6658 Clouds 12 1026 47 10000 4.6 360 21:38 09.03.2020
6659 Clouds 12 1026 47 10000 4.6 360 21:20 09.03.2020
6660 Clouds 12 1025 47 10000 3.1 10 20:55 09.03.2020
6661 Clouds 13 1026 43 10000 4.1 300 20:36 09.03.2020
6662 Clouds 13 1025 41 10000 5.1 280 20:18 09.03.2020
6663 Clouds 14 1025 38 10000 5.1 290 19:42 09.03.2020
6664 Clouds 14 1025 38 10000 4.6 290 19:20 09.03.2020
6665 Clouds 15 1025 38 10000 4.6 290 18:57 09.03.2020
6666 Clouds 16 1025 36 10000 5.1 290 18:38 09.03.2020
6667 Clouds 16 1025 33 10000 4.1 300 18:19 09.03.2020
6668 Clouds 17 1025 36 10000 6.2 290 17:56 09.03.2020
6669 Clouds 17 1025 36 10000 6.2 290 17:37 09.03.2020
6670 Clouds 17 1024 31 10000 2.6 220 17:19 09.03.2020
6671 Clouds 17 1024 31 10000 2.6 220 16:57 09.03.2020
6672 Clouds 17 1025 33 10000 3.6 290 16:39 09.03.2020
6673 Clouds 17 1025 25 10000 2.1 0 16:20 09.03.2020
6674 Clouds 17 1025 25 10000 2.1 0 15:57 09.03.2020
6675 Clouds 16 1025 36 10000 2.1 310 15:38 09.03.2020
6676 Clouds 16 1025 36 10000 2.1 310 15:19 09.03.2020
6677 Clouds 16 1026 38 10000 3.6 0 14:41 09.03.2020
6678 Clouds 15 1026 38 10000 3.6 0 14:23 09.03.2020
6679 Clouds 14 1026 44 10000 3.1 280 13:59 09.03.2020
6680 Clouds 15 1026 44 10000 3.1 280 13:40 09.03.2020
6681 Clouds 15 1026 44 10000 3.1 280 13:40 09.03.2020
6682 Clouds 14 1027 44 10000 1.5 0 13:21 09.03.2020
6683 Clouds 14 1027 47 10000 1.5 0 12:59 09.03.2020
6684 Clouds 13 1027 47 10000 2.1 0 12:40 09.03.2020
6685 Clouds 13 1027 47 10000 2.1 0 12:20 09.03.2020
6686 Clouds 12 1027 54 10000 3.1 300 11:41 09.03.2020
6687 Clouds 11 1027 54 10000 3.1 300 11:21 09.03.2020
6688 Clouds 11 1027 54 10000 3.6 300 10:58 09.03.2020